<?xml version="1.0" encoding="UTF-8" standalone="no" ?>
<gpx xmlns="http://www.topografix.com/GPX/1/1" xmlns:xsi="http://www.w3.org/2001/XMLSchema-instance" xsi:schemaLocation="http://www.topografix.com/GPX/1/1 http://www.topografix.com/GPX/1/1/gpx.xsd" version="1.1" creator="VisuGPX - https://www.visugpx.com">
  <metadata>
    <name>LANGOGNE-LE PUY Route</name>
    <desc><![CDATA[Road trip de Langogne (48)à Ganges (34)en 4 jours]]></desc>
  </metadata>
  <trk>
    <name><![CDATA[Road trip 2025 J3 V2]]></name>
    <extensions>
      <line xmlns="http://www.topografix.com/GPX/gpx_style/0/2">
        <color>FF00FF</color>
        <width>4</width>
      </line>
    </extensions>
    <trkseg>
      <trkpt lat="44.22529" lon="3.51368">
        <ele>1080.03</ele>
        <time>2024-11-05T10:10:12.000Z</time>
      </trkpt>
      <trkpt lat="44.225" lon="3.51366">
        <ele>1076.38</ele>
        <time>2024-11-05T10:10:12.005Z</time>
      </trkpt>
      <trkpt lat="44.22457" lon="3.51383">
        <ele>1073.09</ele>
        <time>2024-11-05T10:10:12.017Z</time>
      </trkpt>
      <trkpt lat="44.22436" lon="3.51391">
        <ele>1071.73</ele>
        <time>2024-11-05T10:10:12.032Z</time>
      </trkpt>
      <trkpt lat="44.22389" lon="3.51409">
        <ele>1069.3</ele>
        <time>2024-11-05T10:10:12.055Z</time>
      </trkpt>
      <trkpt lat="44.22377" lon="3.51414">
        <ele>1068.82</ele>
        <time>2024-11-05T10:10:12.080Z</time>
      </trkpt>
      <trkpt lat="44.22364" lon="3.51422">
        <ele>1068.32</ele>
        <time>2024-11-05T10:10:12.107Z</time>
      </trkpt>
      <trkpt lat="44.2234" lon="3.51439">
        <ele>1067.69</ele>
        <time>2024-11-05T10:10:12.139Z</time>
      </trkpt>
      <trkpt lat="44.2232" lon="3.51453">
        <ele>1067.55</ele>
        <time>2024-11-05T10:10:12.174Z</time>
      </trkpt>
      <trkpt lat="44.22312" lon="3.51458">
        <ele>1067.6</ele>
        <time>2024-11-05T10:10:12.211Z</time>
      </trkpt>
      <trkpt lat="44.223" lon="3.51461">
        <ele>1067.76</ele>
        <time>2024-11-05T10:10:12.250Z</time>
      </trkpt>
      <trkpt lat="44.22281" lon="3.51462">
        <ele>1068.19</ele>
        <time>2024-11-05T10:10:12.292Z</time>
      </trkpt>
      <trkpt lat="44.22263" lon="3.51463">
        <ele>1068.88</ele>
        <time>2024-11-05T10:10:12.336Z</time>
      </trkpt>
      <trkpt lat="44.22246" lon="3.51464">
        <ele>1069.88</ele>
        <time>2024-11-05T10:10:12.383Z</time>
      </trkpt>
      <trkpt lat="44.22207" lon="3.5146">
        <ele>1072.51</ele>
        <time>2024-11-05T10:10:12.437Z</time>
      </trkpt>
      <trkpt lat="44.22161" lon="3.51452">
        <ele>1076.11</ele>
        <time>2024-11-05T10:10:12.498Z</time>
      </trkpt>
      <trkpt lat="44.22138" lon="3.51448">
        <ele>1077.64</ele>
        <time>2024-11-05T10:10:12.563Z</time>
      </trkpt>
      <trkpt lat="44.22119" lon="3.51447">
        <ele>1078.8</ele>
        <time>2024-11-05T10:10:12.631Z</time>
      </trkpt>
      <trkpt lat="44.22104" lon="3.5145">
        <ele>1079.59</ele>
        <time>2024-11-05T10:10:12.701Z</time>
      </trkpt>
      <trkpt lat="44.22072" lon="3.51473">
        <ele>1080.94</ele>
        <time>2024-11-05T10:10:12.777Z</time>
      </trkpt>
      <trkpt lat="44.22037" lon="3.51463">
        <ele>1081.54</ele>
        <time>2024-11-05T10:10:12.859Z</time>
      </trkpt>
      <trkpt lat="44.21979" lon="3.5145">
        <ele>1082.07</ele>
        <time>2024-11-05T10:10:12.950Z</time>
      </trkpt>
      <trkpt lat="44.21941" lon="3.51441">
        <ele>1082.75</ele>
        <time>2024-11-05T10:10:13.047Z</time>
      </trkpt>
      <trkpt lat="44.21914" lon="3.51438">
        <ele>1083.17</ele>
        <time>2024-11-05T10:10:13.148Z</time>
      </trkpt>
      <trkpt lat="44.21865" lon="3.51437">
        <ele>1083.57</ele>
        <time>2024-11-05T10:10:13.257Z</time>
      </trkpt>
      <trkpt lat="44.21856" lon="3.51433">
        <ele>1083.66</ele>
        <time>2024-11-05T10:10:13.368Z</time>
      </trkpt>
      <trkpt lat="44.21838" lon="3.51419">
        <ele>1083.96</ele>
        <time>2024-11-05T10:10:13.482Z</time>
      </trkpt>
      <trkpt lat="44.2182" lon="3.51402">
        <ele>1084.38</ele>
        <time>2024-11-05T10:10:13.600Z</time>
      </trkpt>
      <trkpt lat="44.21782" lon="3.51359">
        <ele>1085.51</ele>
        <time>2024-11-05T10:10:13.725Z</time>
      </trkpt>
      <trkpt lat="44.21768" lon="3.51344">
        <ele>1085.74</ele>
        <time>2024-11-05T10:10:13.853Z</time>
      </trkpt>
      <trkpt lat="44.21752" lon="3.51332">
        <ele>1085.72</ele>
        <time>2024-11-05T10:10:13.984Z</time>
      </trkpt>
      <trkpt lat="44.21693" lon="3.51287">
        <ele>1084.9</ele>
        <time>2024-11-05T10:10:14.126Z</time>
      </trkpt>
      <trkpt lat="44.21673" lon="3.51272">
        <ele>1084.77</ele>
        <time>2024-11-05T10:10:14.272Z</time>
      </trkpt>
      <trkpt lat="44.2163" lon="3.51237">
        <ele>1085.1</ele>
        <time>2024-11-05T10:10:14.426Z</time>
      </trkpt>
      <trkpt lat="44.21617" lon="3.51221">
        <ele>1085.11</ele>
        <time>2024-11-05T10:10:14.582Z</time>
      </trkpt>
      <trkpt lat="44.21587" lon="3.51159">
        <ele>1084.67</ele>
        <time>2024-11-05T10:10:14.747Z</time>
      </trkpt>
      <trkpt lat="44.2155" lon="3.51084">
        <ele>1084.59</ele>
        <time>2024-11-05T10:10:14.922Z</time>
      </trkpt>
      <trkpt lat="44.21524" lon="3.51038">
        <ele>1084.21</ele>
        <time>2024-11-05T10:10:15.104Z</time>
      </trkpt>
      <trkpt lat="44.21507" lon="3.51009">
        <ele>1083.49</ele>
        <time>2024-11-05T10:10:15.290Z</time>
      </trkpt>
      <trkpt lat="44.21485" lon="3.50964">
        <ele>1081.93</ele>
        <time>2024-11-05T10:10:15.483Z</time>
      </trkpt>
      <trkpt lat="44.21478" lon="3.50955">
        <ele>1081.59</ele>
        <time>2024-11-05T10:10:15.677Z</time>
      </trkpt>
      <trkpt lat="44.21454" lon="3.50936">
        <ele>1080.7</ele>
        <time>2024-11-05T10:10:15.876Z</time>
      </trkpt>
      <trkpt lat="44.21416" lon="3.50904">
        <ele>1078.85</ele>
        <time>2024-11-05T10:10:16.082Z</time>
      </trkpt>
      <trkpt lat="44.21367" lon="3.50895">
        <ele>1077.19</ele>
        <time>2024-11-05T10:10:16.296Z</time>
      </trkpt>
      <trkpt lat="44.21356" lon="3.5089">
        <ele>1076.81</ele>
        <time>2024-11-05T10:10:16.512Z</time>
      </trkpt>
      <trkpt lat="44.21346" lon="3.50882">
        <ele>1076.4</ele>
        <time>2024-11-05T10:10:16.729Z</time>
      </trkpt>
      <trkpt lat="44.21331" lon="3.50863">
        <ele>1075.61</ele>
        <time>2024-11-05T10:10:16.950Z</time>
      </trkpt>
      <trkpt lat="44.21312" lon="3.50821">
        <ele>1074.28</ele>
        <time>2024-11-05T10:10:17.176Z</time>
      </trkpt>
      <trkpt lat="44.21305" lon="3.5081">
        <ele>1073.92</ele>
        <time>2024-11-05T10:10:17.404Z</time>
      </trkpt>
      <trkpt lat="44.2129" lon="3.50794">
        <ele>1073.28</ele>
        <time>2024-11-05T10:10:17.635Z</time>
      </trkpt>
      <trkpt lat="44.21282" lon="3.50788">
        <ele>1072.97</ele>
        <time>2024-11-05T10:10:17.867Z</time>
      </trkpt>
      <trkpt lat="44.21235" lon="3.50768">
        <ele>1071.17</ele>
        <time>2024-11-05T10:10:18.107Z</time>
      </trkpt>
      <trkpt lat="44.21208" lon="3.50751">
        <ele>1069.97</ele>
        <time>2024-11-05T10:10:18.352Z</time>
      </trkpt>
      <trkpt lat="44.21181" lon="3.50738">
        <ele>1068.99</ele>
        <time>2024-11-05T10:10:18.602Z</time>
      </trkpt>
      <trkpt lat="44.21167" lon="3.50725">
        <ele>1068.6</ele>
        <time>2024-11-05T10:10:18.854Z</time>
      </trkpt>
      <trkpt lat="44.21152" lon="3.50704">
        <ele>1068.28</ele>
        <time>2024-11-05T10:10:19.110Z</time>
      </trkpt>
      <trkpt lat="44.21142" lon="3.50698">
        <ele>1068.05</ele>
        <time>2024-11-05T10:10:19.368Z</time>
      </trkpt>
      <trkpt lat="44.21136" lon="3.50698">
        <ele>1067.88</ele>
        <time>2024-11-05T10:10:19.626Z</time>
      </trkpt>
      <trkpt lat="44.2106" lon="3.50745">
        <ele>1065.69</ele>
        <time>2024-11-05T10:10:19.898Z</time>
      </trkpt>
      <trkpt lat="44.21023" lon="3.50768">
        <ele>1065.09</ele>
        <time>2024-11-05T10:10:20.176Z</time>
      </trkpt>
      <trkpt lat="44.20983" lon="3.50808">
        <ele>1065.02</ele>
        <time>2024-11-05T10:10:20.462Z</time>
      </trkpt>
      <trkpt lat="44.20962" lon="3.5083">
        <ele>1065.17</ele>
        <time>2024-11-05T10:10:20.752Z</time>
      </trkpt>
      <trkpt lat="44.20901" lon="3.50894">
        <ele>1066.15</ele>
        <time>2024-11-05T10:10:21.055Z</time>
      </trkpt>
      <trkpt lat="44.20869" lon="3.50928">
        <ele>1067.2</ele>
        <time>2024-11-05T10:10:21.364Z</time>
      </trkpt>
      <trkpt lat="44.20842" lon="3.50953">
        <ele>1068.38</ele>
        <time>2024-11-05T10:10:21.678Z</time>
      </trkpt>
      <trkpt lat="44.20824" lon="3.50962">
        <ele>1069</ele>
        <time>2024-11-05T10:10:21.995Z</time>
      </trkpt>
      <trkpt lat="44.20813" lon="3.50963">
        <ele>1069.36</ele>
        <time>2024-11-05T10:10:22.314Z</time>
      </trkpt>
      <trkpt lat="44.20788" lon="3.50986">
        <ele>1068.32</ele>
        <time>2024-11-05T10:10:22.638Z</time>
      </trkpt>
      <trkpt lat="44.20761" lon="3.5101">
        <ele>1066.46</ele>
        <time>2024-11-05T10:10:22.967Z</time>
      </trkpt>
      <trkpt lat="44.2074" lon="3.51024">
        <ele>1064.93</ele>
        <time>2024-11-05T10:10:23.300Z</time>
      </trkpt>
      <trkpt lat="44.20693" lon="3.51036">
        <ele>1061.88</ele>
        <time>2024-11-05T10:10:23.640Z</time>
      </trkpt>
      <trkpt lat="44.20647" lon="3.51043">
        <ele>1058.45</ele>
        <time>2024-11-05T10:10:23.988Z</time>
      </trkpt>
      <trkpt lat="44.20631" lon="3.51052">
        <ele>1057.18</ele>
        <time>2024-11-05T10:10:24.339Z</time>
      </trkpt>
      <trkpt lat="44.20613" lon="3.51071">
        <ele>1055.49</ele>
        <time>2024-11-05T10:10:24.693Z</time>
      </trkpt>
      <trkpt lat="44.20584" lon="3.5112">
        <ele>1052.35</ele>
        <time>2024-11-05T10:10:25.054Z</time>
      </trkpt>
      <trkpt lat="44.20569" lon="3.51158">
        <ele>1050.04</ele>
        <time>2024-11-05T10:10:25.420Z</time>
      </trkpt>
      <trkpt lat="44.20539" lon="3.51248">
        <ele>1045.37</ele>
        <time>2024-11-05T10:10:25.798Z</time>
      </trkpt>
      <trkpt lat="44.20532" lon="3.51282">
        <ele>1043.51</ele>
        <time>2024-11-05T10:10:26.180Z</time>
      </trkpt>
      <trkpt lat="44.20523" lon="3.51328">
        <ele>1040.67</ele>
        <time>2024-11-05T10:10:26.567Z</time>
      </trkpt>
      <trkpt lat="44.20498" lon="3.51391">
        <ele>1036.29</ele>
        <time>2024-11-05T10:10:26.963Z</time>
      </trkpt>
      <trkpt lat="44.20489" lon="3.51406">
        <ele>1035.04</ele>
        <time>2024-11-05T10:10:27.361Z</time>
      </trkpt>
      <trkpt lat="44.20472" lon="3.51425">
        <ele>1033.02</ele>
        <time>2024-11-05T10:10:27.762Z</time>
      </trkpt>
      <trkpt lat="44.20452" lon="3.51445">
        <ele>1030.99</ele>
        <time>2024-11-05T10:10:28.167Z</time>
      </trkpt>
      <trkpt lat="44.20442" lon="3.51449">
        <ele>1030.23</ele>
        <time>2024-11-05T10:10:28.574Z</time>
      </trkpt>
      <trkpt lat="44.20443" lon="3.51463">
        <ele>1030.22</ele>
        <time>2024-11-05T10:10:28.983Z</time>
      </trkpt>
      <trkpt lat="44.20446" lon="3.51489">
        <ele>1029.35</ele>
        <time>2024-11-05T10:10:29.395Z</time>
      </trkpt>
      <trkpt lat="44.20463" lon="3.51568">
        <ele>1025.56</ele>
        <time>2024-11-05T10:10:29.816Z</time>
      </trkpt>
      <trkpt lat="44.20467" lon="3.5158">
        <ele>1024.94</ele>
        <time>2024-11-05T10:10:30.239Z</time>
      </trkpt>
      <trkpt lat="44.20472" lon="3.51588">
        <ele>1024.43</ele>
        <time>2024-11-05T10:10:30.663Z</time>
      </trkpt>
      <trkpt lat="44.20483" lon="3.51597">
        <ele>1023.51</ele>
        <time>2024-11-05T10:10:31.089Z</time>
      </trkpt>
      <trkpt lat="44.20497" lon="3.51598">
        <ele>1022.26</ele>
        <time>2024-11-05T10:10:31.517Z</time>
      </trkpt>
      <trkpt lat="44.20528" lon="3.51587">
        <ele>1019.25</ele>
        <time>2024-11-05T10:10:31.950Z</time>
      </trkpt>
      <trkpt lat="44.20557" lon="3.51576">
        <ele>1016.7</ele>
        <time>2024-11-05T10:10:32.388Z</time>
      </trkpt>
      <trkpt lat="44.20605" lon="3.51557">
        <ele>1013.22</ele>
        <time>2024-11-05T10:10:32.834Z</time>
      </trkpt>
      <trkpt lat="44.20649" lon="3.51527">
        <ele>1008.91</ele>
        <time>2024-11-05T10:10:33.288Z</time>
      </trkpt>
      <trkpt lat="44.20722" lon="3.51475">
        <ele>1003.23</ele>
        <time>2024-11-05T10:10:33.755Z</time>
      </trkpt>
      <trkpt lat="44.20801" lon="3.51455">
        <ele>997.08</ele>
        <time>2024-11-05T10:10:34.235Z</time>
      </trkpt>
      <trkpt lat="44.20839" lon="3.51447">
        <ele>993.87</ele>
        <time>2024-11-05T10:10:34.721Z</time>
      </trkpt>
      <trkpt lat="44.20857" lon="3.51445">
        <ele>992.49</ele>
        <time>2024-11-05T10:10:35.210Z</time>
      </trkpt>
      <trkpt lat="44.20871" lon="3.51447">
        <ele>991.49</ele>
        <time>2024-11-05T10:10:35.701Z</time>
      </trkpt>
      <trkpt lat="44.20881" lon="3.51452">
        <ele>990.61</ele>
        <time>2024-11-05T10:10:36.194Z</time>
      </trkpt>
      <trkpt lat="44.20934" lon="3.51496">
        <ele>985.6</ele>
        <time>2024-11-05T10:10:36.697Z</time>
      </trkpt>
      <trkpt lat="44.20964" lon="3.51528">
        <ele>982.72</ele>
        <time>2024-11-05T10:10:37.206Z</time>
      </trkpt>
      <trkpt lat="44.2098" lon="3.51536">
        <ele>981.43</ele>
        <time>2024-11-05T10:10:37.718Z</time>
      </trkpt>
      <trkpt lat="44.20992" lon="3.51539">
        <ele>980.49</ele>
        <time>2024-11-05T10:10:38.232Z</time>
      </trkpt>
      <trkpt lat="44.21004" lon="3.51539">
        <ele>979.43</ele>
        <time>2024-11-05T10:10:38.747Z</time>
      </trkpt>
      <trkpt lat="44.2104" lon="3.51533">
        <ele>976.23</ele>
        <time>2024-11-05T10:10:39.268Z</time>
      </trkpt>
      <trkpt lat="44.2109" lon="3.51526">
        <ele>972.81</ele>
        <time>2024-11-05T10:10:39.797Z</time>
      </trkpt>
      <trkpt lat="44.21117" lon="3.51531">
        <ele>970.76</ele>
        <time>2024-11-05T10:10:40.331Z</time>
      </trkpt>
      <trkpt lat="44.21159" lon="3.51553">
        <ele>966.84</ele>
        <time>2024-11-05T10:10:40.872Z</time>
      </trkpt>
      <trkpt lat="44.21179" lon="3.51575">
        <ele>964.89</ele>
        <time>2024-11-05T10:10:41.417Z</time>
      </trkpt>
      <trkpt lat="44.21189" lon="3.51593">
        <ele>964.01</ele>
        <time>2024-11-05T10:10:41.965Z</time>
      </trkpt>
      <trkpt lat="44.21197" lon="3.51613">
        <ele>963.23</ele>
        <time>2024-11-05T10:10:42.515Z</time>
      </trkpt>
      <trkpt lat="44.21204" lon="3.51654">
        <ele>961.83</ele>
        <time>2024-11-05T10:10:43.070Z</time>
      </trkpt>
      <trkpt lat="44.21208" lon="3.51666">
        <ele>961.33</ele>
        <time>2024-11-05T10:10:43.627Z</time>
      </trkpt>
      <trkpt lat="44.21214" lon="3.51675">
        <ele>960.84</ele>
        <time>2024-11-05T10:10:44.185Z</time>
      </trkpt>
      <trkpt lat="44.21234" lon="3.51685">
        <ele>959.69</ele>
        <time>2024-11-05T10:10:44.746Z</time>
      </trkpt>
      <trkpt lat="44.21262" lon="3.51696">
        <ele>958.42</ele>
        <time>2024-11-05T10:10:45.312Z</time>
      </trkpt>
      <trkpt lat="44.21278" lon="3.51711">
        <ele>957.57</ele>
        <time>2024-11-05T10:10:45.881Z</time>
      </trkpt>
      <trkpt lat="44.21293" lon="3.51735">
        <ele>956.44</ele>
        <time>2024-11-05T10:10:46.454Z</time>
      </trkpt>
      <trkpt lat="44.21297" lon="3.51754">
        <ele>955.7</ele>
        <time>2024-11-05T10:10:47.029Z</time>
      </trkpt>
      <trkpt lat="44.21297" lon="3.51772">
        <ele>955.06</ele>
        <time>2024-11-05T10:10:47.606Z</time>
      </trkpt>
      <trkpt lat="44.21294" lon="3.51795">
        <ele>954.36</ele>
        <time>2024-11-05T10:10:48.186Z</time>
      </trkpt>
      <trkpt lat="44.21278" lon="3.51842">
        <ele>953.01</ele>
        <time>2024-11-05T10:10:48.772Z</time>
      </trkpt>
      <trkpt lat="44.21241" lon="3.51939">
        <ele>950.59</ele>
        <time>2024-11-05T10:10:49.370Z</time>
      </trkpt>
      <trkpt lat="44.21234" lon="3.51956">
        <ele>949.86</ele>
        <time>2024-11-05T10:10:49.971Z</time>
      </trkpt>
      <trkpt lat="44.21234" lon="3.51968">
        <ele>949.37</ele>
        <time>2024-11-05T10:10:50.573Z</time>
      </trkpt>
      <trkpt lat="44.21237" lon="3.5198">
        <ele>948.82</ele>
        <time>2024-11-05T10:10:51.176Z</time>
      </trkpt>
      <trkpt lat="44.2125" lon="3.52003">
        <ele>947.61</ele>
        <time>2024-11-05T10:10:51.783Z</time>
      </trkpt>
      <trkpt lat="44.21254" lon="3.52013">
        <ele>947.14</ele>
        <time>2024-11-05T10:10:52.391Z</time>
      </trkpt>
      <trkpt lat="44.21256" lon="3.52026">
        <ele>946.55</ele>
        <time>2024-11-05T10:10:53.001Z</time>
      </trkpt>
      <trkpt lat="44.21256" lon="3.52055">
        <ele>945</ele>
        <time>2024-11-05T10:10:53.614Z</time>
      </trkpt>
      <trkpt lat="44.21251" lon="3.52084">
        <ele>943.31</ele>
        <time>2024-11-05T10:10:54.230Z</time>
      </trkpt>
      <trkpt lat="44.21242" lon="3.52114">
        <ele>941.46</ele>
        <time>2024-11-05T10:10:54.850Z</time>
      </trkpt>
      <trkpt lat="44.2122" lon="3.52167">
        <ele>937.81</ele>
        <time>2024-11-05T10:10:55.477Z</time>
      </trkpt>
      <trkpt lat="44.21213" lon="3.52181">
        <ele>936.66</ele>
        <time>2024-11-05T10:10:56.106Z</time>
      </trkpt>
      <trkpt lat="44.21198" lon="3.52201">
        <ele>934.76</ele>
        <time>2024-11-05T10:10:56.739Z</time>
      </trkpt>
      <trkpt lat="44.21168" lon="3.52232">
        <ele>931.43</ele>
        <time>2024-11-05T10:10:57.378Z</time>
      </trkpt>
      <trkpt lat="44.21146" lon="3.52249">
        <ele>929.17</ele>
        <time>2024-11-05T10:10:58.021Z</time>
      </trkpt>
      <trkpt lat="44.21092" lon="3.52281">
        <ele>923.79</ele>
        <time>2024-11-05T10:10:58.673Z</time>
      </trkpt>
      <trkpt lat="44.21068" lon="3.52308">
        <ele>920.7</ele>
        <time>2024-11-05T10:10:59.330Z</time>
      </trkpt>
      <trkpt lat="44.21058" lon="3.52329">
        <ele>918.8</ele>
        <time>2024-11-05T10:10:59.990Z</time>
      </trkpt>
      <trkpt lat="44.21045" lon="3.52366">
        <ele>915.9</ele>
        <time>2024-11-05T10:11:00.655Z</time>
      </trkpt>
      <trkpt lat="44.21038" lon="3.52401">
        <ele>913.5</ele>
        <time>2024-11-05T10:11:01.324Z</time>
      </trkpt>
      <trkpt lat="44.21029" lon="3.52431">
        <ele>911.52</ele>
        <time>2024-11-05T10:11:01.996Z</time>
      </trkpt>
      <trkpt lat="44.20995" lon="3.52488">
        <ele>907.52</ele>
        <time>2024-11-05T10:11:02.677Z</time>
      </trkpt>
      <trkpt lat="44.20974" lon="3.52527">
        <ele>904.83</ele>
        <time>2024-11-05T10:11:03.364Z</time>
      </trkpt>
      <trkpt lat="44.20954" lon="3.52599">
        <ele>900.75</ele>
        <time>2024-11-05T10:11:04.059Z</time>
      </trkpt>
      <trkpt lat="44.20945" lon="3.5263">
        <ele>898.7</ele>
        <time>2024-11-05T10:11:04.758Z</time>
      </trkpt>
      <trkpt lat="44.20928" lon="3.52725">
        <ele>892.01</ele>
        <time>2024-11-05T10:11:05.469Z</time>
      </trkpt>
      <trkpt lat="44.2092" lon="3.52768">
        <ele>889.34</ele>
        <time>2024-11-05T10:11:06.185Z</time>
      </trkpt>
      <trkpt lat="44.20915" lon="3.52809">
        <ele>886.85</ele>
        <time>2024-11-05T10:11:06.905Z</time>
      </trkpt>
      <trkpt lat="44.2091" lon="3.52882">
        <ele>882.27</ele>
        <time>2024-11-05T10:11:07.634Z</time>
      </trkpt>
      <trkpt lat="44.20911" lon="3.52922">
        <ele>879.94</ele>
        <time>2024-11-05T10:11:08.368Z</time>
      </trkpt>
      <trkpt lat="44.20914" lon="3.52953">
        <ele>878.13</ele>
        <time>2024-11-05T10:11:09.105Z</time>
      </trkpt>
      <trkpt lat="44.20925" lon="3.53008">
        <ele>874.7</ele>
        <time>2024-11-05T10:11:09.849Z</time>
      </trkpt>
      <trkpt lat="44.20939" lon="3.53049">
        <ele>871.94</ele>
        <time>2024-11-05T10:11:10.598Z</time>
      </trkpt>
      <trkpt lat="44.20958" lon="3.53074">
        <ele>869.96</ele>
        <time>2024-11-05T10:11:11.351Z</time>
      </trkpt>
      <trkpt lat="44.20987" lon="3.53113">
        <ele>867.18</ele>
        <time>2024-11-05T10:11:12.111Z</time>
      </trkpt>
      <trkpt lat="44.20999" lon="3.53123">
        <ele>865.84</ele>
        <time>2024-11-05T10:11:12.873Z</time>
      </trkpt>
      <trkpt lat="44.21013" lon="3.53125">
        <ele>864.51</ele>
        <time>2024-11-05T10:11:13.637Z</time>
      </trkpt>
      <trkpt lat="44.21028" lon="3.53122">
        <ele>863.16</ele>
        <time>2024-11-05T10:11:14.403Z</time>
      </trkpt>
      <trkpt lat="44.21077" lon="3.53105">
        <ele>858.97</ele>
        <time>2024-11-05T10:11:15.178Z</time>
      </trkpt>
      <trkpt lat="44.21126" lon="3.53089">
        <ele>855.74</ele>
        <time>2024-11-05T10:11:15.961Z</time>
      </trkpt>
      <trkpt lat="44.21145" lon="3.53087">
        <ele>854.62</ele>
        <time>2024-11-05T10:11:16.747Z</time>
      </trkpt>
      <trkpt lat="44.2116" lon="3.5309">
        <ele>853.61</ele>
        <time>2024-11-05T10:11:17.535Z</time>
      </trkpt>
      <trkpt lat="44.21172" lon="3.53095">
        <ele>852.73</ele>
        <time>2024-11-05T10:11:18.325Z</time>
      </trkpt>
      <trkpt lat="44.21187" lon="3.53105">
        <ele>851.56</ele>
        <time>2024-11-05T10:11:19.118Z</time>
      </trkpt>
      <trkpt lat="44.21209" lon="3.53123">
        <ele>849.79</ele>
        <time>2024-11-05T10:11:19.915Z</time>
      </trkpt>
      <trkpt lat="44.21226" lon="3.53145">
        <ele>848.42</ele>
        <time>2024-11-05T10:11:20.716Z</time>
      </trkpt>
      <trkpt lat="44.21235" lon="3.53161">
        <ele>847.58</ele>
        <time>2024-11-05T10:11:21.519Z</time>
      </trkpt>
      <trkpt lat="44.21241" lon="3.53177">
        <ele>846.81</ele>
        <time>2024-11-05T10:11:22.324Z</time>
      </trkpt>
      <trkpt lat="44.21247" lon="3.53186">
        <ele>846.32</ele>
        <time>2024-11-05T10:11:23.130Z</time>
      </trkpt>
      <trkpt lat="44.21256" lon="3.5319">
        <ele>845.57</ele>
        <time>2024-11-05T10:11:23.938Z</time>
      </trkpt>
      <trkpt lat="44.21264" lon="3.53185">
        <ele>844.87</ele>
        <time>2024-11-05T10:11:24.747Z</time>
      </trkpt>
      <trkpt lat="44.21269" lon="3.53174">
        <ele>844.1</ele>
        <time>2024-11-05T10:11:25.558Z</time>
      </trkpt>
      <trkpt lat="44.21276" lon="3.53108">
        <ele>840.62</ele>
        <time>2024-11-05T10:11:26.376Z</time>
      </trkpt>
      <trkpt lat="44.21287" lon="3.53062">
        <ele>838.4</ele>
        <time>2024-11-05T10:11:27.200Z</time>
      </trkpt>
      <trkpt lat="44.21301" lon="3.53029">
        <ele>836.66</ele>
        <time>2024-11-05T10:11:28.028Z</time>
      </trkpt>
      <trkpt lat="44.21319" lon="3.52984">
        <ele>834.07</ele>
        <time>2024-11-05T10:11:28.862Z</time>
      </trkpt>
      <trkpt lat="44.21342" lon="3.52906">
        <ele>829.7</ele>
        <time>2024-11-05T10:11:29.706Z</time>
      </trkpt>
      <trkpt lat="44.21348" lon="3.52858">
        <ele>827.38</ele>
        <time>2024-11-05T10:11:30.556Z</time>
      </trkpt>
      <trkpt lat="44.21354" lon="3.52837">
        <ele>826.29</ele>
        <time>2024-11-05T10:11:31.408Z</time>
      </trkpt>
      <trkpt lat="44.21365" lon="3.52807">
        <ele>824.8</ele>
        <time>2024-11-05T10:11:32.264Z</time>
      </trkpt>
      <trkpt lat="44.21378" lon="3.52778">
        <ele>823.23</ele>
        <time>2024-11-05T10:11:33.124Z</time>
      </trkpt>
      <trkpt lat="44.21402" lon="3.52743">
        <ele>820.44</ele>
        <time>2024-11-05T10:11:33.990Z</time>
      </trkpt>
      <trkpt lat="44.21431" lon="3.52704">
        <ele>817.87</ele>
        <time>2024-11-05T10:11:34.862Z</time>
      </trkpt>
      <trkpt lat="44.21447" lon="3.52679">
        <ele>816.82</ele>
        <time>2024-11-05T10:11:35.738Z</time>
      </trkpt>
      <trkpt lat="44.21457" lon="3.52654">
        <ele>815.94</ele>
        <time>2024-11-05T10:11:36.617Z</time>
      </trkpt>
      <trkpt lat="44.21467" lon="3.5263">
        <ele>814.79</ele>
        <time>2024-11-05T10:11:37.499Z</time>
      </trkpt>
      <trkpt lat="44.2148" lon="3.52609">
        <ele>813.48</ele>
        <time>2024-11-05T10:11:38.385Z</time>
      </trkpt>
      <trkpt lat="44.21495" lon="3.52598">
        <ele>812.49</ele>
        <time>2024-11-05T10:11:39.273Z</time>
      </trkpt>
      <trkpt lat="44.21518" lon="3.52593">
        <ele>811.3</ele>
        <time>2024-11-05T10:11:40.165Z</time>
      </trkpt>
      <trkpt lat="44.21532" lon="3.52601">
        <ele>811.27</ele>
        <time>2024-11-05T10:11:41.059Z</time>
      </trkpt>
      <trkpt lat="44.21549" lon="3.52623">
        <ele>809.92</ele>
        <time>2024-11-05T10:11:41.957Z</time>
      </trkpt>
      <trkpt lat="44.21569" lon="3.52673">
        <ele>807.32</ele>
        <time>2024-11-05T10:11:42.862Z</time>
      </trkpt>
      <trkpt lat="44.21577" lon="3.52707">
        <ele>805.45</ele>
        <time>2024-11-05T10:11:43.771Z</time>
      </trkpt>
      <trkpt lat="44.2159" lon="3.52767">
        <ele>801.82</ele>
        <time>2024-11-05T10:11:44.687Z</time>
      </trkpt>
      <trkpt lat="44.21592" lon="3.52789">
        <ele>800.56</ele>
        <time>2024-11-05T10:11:45.606Z</time>
      </trkpt>
      <trkpt lat="44.21589" lon="3.5281">
        <ele>799.4</ele>
        <time>2024-11-05T10:11:46.527Z</time>
      </trkpt>
      <trkpt lat="44.21588" lon="3.52821">
        <ele>798.86</ele>
        <time>2024-11-05T10:11:47.449Z</time>
      </trkpt>
      <trkpt lat="44.21577" lon="3.52856">
        <ele>797.2</ele>
        <time>2024-11-05T10:11:48.376Z</time>
      </trkpt>
      <trkpt lat="44.21575" lon="3.52875">
        <ele>796.37</ele>
        <time>2024-11-05T10:11:49.305Z</time>
      </trkpt>
      <trkpt lat="44.21576" lon="3.52895">
        <ele>795.47</ele>
        <time>2024-11-05T10:11:50.236Z</time>
      </trkpt>
      <trkpt lat="44.21583" lon="3.52921">
        <ele>794.19</ele>
        <time>2024-11-05T10:11:51.170Z</time>
      </trkpt>
      <trkpt lat="44.21599" lon="3.52943">
        <ele>792.81</ele>
        <time>2024-11-05T10:11:52.108Z</time>
      </trkpt>
      <trkpt lat="44.21602" lon="3.52951">
        <ele>792.36</ele>
        <time>2024-11-05T10:11:53.047Z</time>
      </trkpt>
      <trkpt lat="44.21599" lon="3.52972">
        <ele>791.06</ele>
        <time>2024-11-05T10:11:53.989Z</time>
      </trkpt>
      <trkpt lat="44.21585" lon="3.53009">
        <ele>788.42</ele>
        <time>2024-11-05T10:11:54.935Z</time>
      </trkpt>
      <trkpt lat="44.21572" lon="3.53045">
        <ele>786.16</ele>
        <time>2024-11-05T10:11:55.886Z</time>
      </trkpt>
      <trkpt lat="44.21571" lon="3.53056">
        <ele>785.52</ele>
        <time>2024-11-05T10:11:56.838Z</time>
      </trkpt>
      <trkpt lat="44.21573" lon="3.53092">
        <ele>783.45</ele>
        <time>2024-11-05T10:11:57.794Z</time>
      </trkpt>
      <trkpt lat="44.21575" lon="3.53118">
        <ele>782.14</ele>
        <time>2024-11-05T10:11:58.753Z</time>
      </trkpt>
      <trkpt lat="44.21584" lon="3.53188">
        <ele>779.09</ele>
        <time>2024-11-05T10:11:59.721Z</time>
      </trkpt>
      <trkpt lat="44.21581" lon="3.53247">
        <ele>776.31</ele>
        <time>2024-11-05T10:12:00.695Z</time>
      </trkpt>
      <trkpt lat="44.2158" lon="3.53276">
        <ele>774.6</ele>
        <time>2024-11-05T10:12:01.673Z</time>
      </trkpt>
      <trkpt lat="44.21589" lon="3.53297">
        <ele>773.01</ele>
        <time>2024-11-05T10:12:02.654Z</time>
      </trkpt>
      <trkpt lat="44.21606" lon="3.53319">
        <ele>771.28</ele>
        <time>2024-11-05T10:12:03.638Z</time>
      </trkpt>
      <trkpt lat="44.21608" lon="3.53329">
        <ele>770.77</ele>
        <time>2024-11-05T10:12:04.624Z</time>
      </trkpt>
      <trkpt lat="44.21608" lon="3.53342">
        <ele>770.14</ele>
        <time>2024-11-05T10:12:05.611Z</time>
      </trkpt>
      <trkpt lat="44.21604" lon="3.5336">
        <ele>769.24</ele>
        <time>2024-11-05T10:12:06.600Z</time>
      </trkpt>
      <trkpt lat="44.21597" lon="3.53374">
        <ele>768.43</ele>
        <time>2024-11-05T10:12:07.591Z</time>
      </trkpt>
      <trkpt lat="44.21576" lon="3.53405">
        <ele>766.34</ele>
        <time>2024-11-05T10:12:08.587Z</time>
      </trkpt>
      <trkpt lat="44.21568" lon="3.53428">
        <ele>764.95</ele>
        <time>2024-11-05T10:12:09.586Z</time>
      </trkpt>
      <trkpt lat="44.21566" lon="3.53481">
        <ele>762.21</ele>
        <time>2024-11-05T10:12:10.591Z</time>
      </trkpt>
      <trkpt lat="44.21573" lon="3.53515">
        <ele>760.5</ele>
        <time>2024-11-05T10:12:11.600Z</time>
      </trkpt>
      <trkpt lat="44.21574" lon="3.53535">
        <ele>759.69</ele>
        <time>2024-11-05T10:12:12.611Z</time>
      </trkpt>
      <trkpt lat="44.2157" lon="3.53553">
        <ele>758.96</ele>
        <time>2024-11-05T10:12:13.625Z</time>
      </trkpt>
      <trkpt lat="44.21561" lon="3.53577">
        <ele>757.61</ele>
        <time>2024-11-05T10:12:14.642Z</time>
      </trkpt>
      <trkpt lat="44.2156" lon="3.53587">
        <ele>757.03</ele>
        <time>2024-11-05T10:12:15.660Z</time>
      </trkpt>
      <trkpt lat="44.21563" lon="3.53622">
        <ele>754.89</ele>
        <time>2024-11-05T10:12:16.682Z</time>
      </trkpt>
      <trkpt lat="44.21567" lon="3.53657">
        <ele>753.21</ele>
        <time>2024-11-05T10:12:17.708Z</time>
      </trkpt>
      <trkpt lat="44.21562" lon="3.53732">
        <ele>750.52</ele>
        <time>2024-11-05T10:12:18.743Z</time>
      </trkpt>
      <trkpt lat="44.2156" lon="3.53739">
        <ele>750.2</ele>
        <time>2024-11-05T10:12:19.779Z</time>
      </trkpt>
      <trkpt lat="44.21556" lon="3.53748">
        <ele>749.59</ele>
        <time>2024-11-05T10:12:20.816Z</time>
      </trkpt>
      <trkpt lat="44.21551" lon="3.53749">
        <ele>748.99</ele>
        <time>2024-11-05T10:12:21.854Z</time>
      </trkpt>
      <trkpt lat="44.21546" lon="3.53737">
        <ele>747.82</ele>
        <time>2024-11-05T10:12:22.893Z</time>
      </trkpt>
      <trkpt lat="44.21545" lon="3.53712">
        <ele>745.62</ele>
        <time>2024-11-05T10:12:23.935Z</time>
      </trkpt>
      <trkpt lat="44.21543" lon="3.53688">
        <ele>743.82</ele>
        <time>2024-11-05T10:12:24.980Z</time>
      </trkpt>
      <trkpt lat="44.21539" lon="3.53663">
        <ele>742.49</ele>
        <time>2024-11-05T10:12:26.028Z</time>
      </trkpt>
      <trkpt lat="44.21536" lon="3.53645">
        <ele>741.8</ele>
        <time>2024-11-05T10:12:27.078Z</time>
      </trkpt>
      <trkpt lat="44.2153" lon="3.53621">
        <ele>741.3</ele>
        <time>2024-11-05T10:12:28.131Z</time>
      </trkpt>
      <trkpt lat="44.21522" lon="3.53592">
        <ele>740.93</ele>
        <time>2024-11-05T10:12:29.187Z</time>
      </trkpt>
      <trkpt lat="44.21518" lon="3.53588">
        <ele>740.73</ele>
        <time>2024-11-05T10:12:30.244Z</time>
      </trkpt>
      <trkpt lat="44.21515" lon="3.53588">
        <ele>740.52</ele>
        <time>2024-11-05T10:12:31.302Z</time>
      </trkpt>
      <trkpt lat="44.21512" lon="3.53591">
        <ele>740.25</ele>
        <time>2024-11-05T10:12:32.360Z</time>
      </trkpt>
      <trkpt lat="44.21511" lon="3.53603">
        <ele>739.46</ele>
        <time>2024-11-05T10:12:33.420Z</time>
      </trkpt>
      <trkpt lat="44.21525" lon="3.53648">
        <ele>736.36</ele>
        <time>2024-11-05T10:12:34.485Z</time>
      </trkpt>
      <trkpt lat="44.21526" lon="3.53691">
        <ele>733.96</ele>
        <time>2024-11-05T10:12:35.555Z</time>
      </trkpt>
      <trkpt lat="44.21515" lon="3.53757">
        <ele>730.53</ele>
        <time>2024-11-05T10:12:36.633Z</time>
      </trkpt>
      <trkpt lat="44.21508" lon="3.53793">
        <ele>728.13</ele>
        <time>2024-11-05T10:12:37.715Z</time>
      </trkpt>
      <trkpt lat="44.21505" lon="3.53817">
        <ele>726.25</ele>
        <time>2024-11-05T10:12:38.800Z</time>
      </trkpt>
      <trkpt lat="44.21502" lon="3.53855">
        <ele>722.9</ele>
        <time>2024-11-05T10:12:39.890Z</time>
      </trkpt>
      <trkpt lat="44.21497" lon="3.53904">
        <ele>719.54</ele>
        <time>2024-11-05T10:12:40.985Z</time>
      </trkpt>
      <trkpt lat="44.21494" lon="3.5394">
        <ele>719.46</ele>
        <time>2024-11-05T10:12:42.084Z</time>
      </trkpt>
      <trkpt lat="44.21495" lon="3.53945">
        <ele>719.43</ele>
        <time>2024-11-05T10:12:43.184Z</time>
      </trkpt>
      <trkpt lat="44.21501" lon="3.53952">
        <ele>719.08</ele>
        <time>2024-11-05T10:12:44.285Z</time>
      </trkpt>
      <trkpt lat="44.21523" lon="3.53962">
        <ele>718.16</ele>
        <time>2024-11-05T10:12:45.390Z</time>
      </trkpt>
      <trkpt lat="44.21545" lon="3.5397">
        <ele>717.61</ele>
        <time>2024-11-05T10:12:46.499Z</time>
      </trkpt>
      <trkpt lat="44.21556" lon="3.53972">
        <ele>717.39</ele>
        <time>2024-11-05T10:12:47.609Z</time>
      </trkpt>
      <trkpt lat="44.21567" lon="3.53974">
        <ele>717.29</ele>
        <time>2024-11-05T10:12:48.721Z</time>
      </trkpt>
      <trkpt lat="44.21578" lon="3.53979">
        <ele>717.25</ele>
        <time>2024-11-05T10:12:49.835Z</time>
      </trkpt>
      <trkpt lat="44.216" lon="3.54027">
        <ele>717.68</ele>
        <time>2024-11-05T10:12:50.956Z</time>
      </trkpt>
      <trkpt lat="44.21614" lon="3.54044">
        <ele>718.13</ele>
        <time>2024-11-05T10:12:52.080Z</time>
      </trkpt>
      <trkpt lat="44.21636" lon="3.54061">
        <ele>719.01</ele>
        <time>2024-11-05T10:12:53.208Z</time>
      </trkpt>
      <trkpt lat="44.21648" lon="3.54073">
        <ele>719.58</ele>
        <time>2024-11-05T10:12:54.338Z</time>
      </trkpt>
      <trkpt lat="44.21661" lon="3.5409">
        <ele>720.23</ele>
        <time>2024-11-05T10:12:55.471Z</time>
      </trkpt>
      <trkpt lat="44.21695" lon="3.54129">
        <ele>721.78</ele>
        <time>2024-11-05T10:12:56.611Z</time>
      </trkpt>
      <trkpt lat="44.21723" lon="3.5416">
        <ele>722.36</ele>
        <time>2024-11-05T10:12:57.757Z</time>
      </trkpt>
      <trkpt lat="44.2173" lon="3.54174">
        <ele>722.3</ele>
        <time>2024-11-05T10:12:58.905Z</time>
      </trkpt>
      <trkpt lat="44.21751" lon="3.54246">
        <ele>721.5</ele>
        <time>2024-11-05T10:13:00.062Z</time>
      </trkpt>
      <trkpt lat="44.21758" lon="3.54282">
        <ele>720.65</ele>
        <time>2024-11-05T10:13:01.223Z</time>
      </trkpt>
      <trkpt lat="44.21754" lon="3.54355">
        <ele>719.02</ele>
        <time>2024-11-05T10:13:02.392Z</time>
      </trkpt>
      <trkpt lat="44.21756" lon="3.5439">
        <ele>718.6</ele>
        <time>2024-11-05T10:13:03.565Z</time>
      </trkpt>
      <trkpt lat="44.21767" lon="3.54426">
        <ele>718.61</ele>
        <time>2024-11-05T10:13:04.743Z</time>
      </trkpt>
      <trkpt lat="44.2179" lon="3.5448">
        <ele>719.19</ele>
        <time>2024-11-05T10:13:05.928Z</time>
      </trkpt>
      <trkpt lat="44.21799" lon="3.54509">
        <ele>719.19</ele>
        <time>2024-11-05T10:13:07.117Z</time>
      </trkpt>
      <trkpt lat="44.21804" lon="3.54526">
        <ele>718.97</ele>
        <time>2024-11-05T10:13:08.308Z</time>
      </trkpt>
      <trkpt lat="44.2181" lon="3.54547">
        <ele>718.46</ele>
        <time>2024-11-05T10:13:09.501Z</time>
      </trkpt>
      <trkpt lat="44.21819" lon="3.54596">
        <ele>717.16</ele>
        <time>2024-11-05T10:13:10.700Z</time>
      </trkpt>
      <trkpt lat="44.21826" lon="3.54613">
        <ele>716.79</ele>
        <time>2024-11-05T10:13:11.901Z</time>
      </trkpt>
      <trkpt lat="44.21837" lon="3.54643">
        <ele>716.43</ele>
        <time>2024-11-05T10:13:13.106Z</time>
      </trkpt>
      <trkpt lat="44.21852" lon="3.54699">
        <ele>715.97</ele>
        <time>2024-11-05T10:13:14.318Z</time>
      </trkpt>
      <trkpt lat="44.21871" lon="3.54733">
        <ele>715.33</ele>
        <time>2024-11-05T10:13:15.535Z</time>
      </trkpt>
      <trkpt lat="44.21879" lon="3.54748">
        <ele>714.82</ele>
        <time>2024-11-05T10:13:16.754Z</time>
      </trkpt>
      <trkpt lat="44.21932" lon="3.54842">
        <ele>710.09</ele>
        <time>2024-11-05T10:13:17.987Z</time>
      </trkpt>
      <trkpt lat="44.21966" lon="3.54929">
        <ele>705.41</ele>
        <time>2024-11-05T10:13:19.231Z</time>
      </trkpt>
      <trkpt lat="44.21977" lon="3.54958">
        <ele>704.24</ele>
        <time>2024-11-05T10:13:20.479Z</time>
      </trkpt>
      <trkpt lat="44.21987" lon="3.54975">
        <ele>703.64</ele>
        <time>2024-11-05T10:13:21.730Z</time>
      </trkpt>
      <trkpt lat="44.21992" lon="3.5498">
        <ele>703.48</ele>
        <time>2024-11-05T10:13:22.982Z</time>
      </trkpt>
      <trkpt lat="44.21999" lon="3.54982">
        <ele>703.18</ele>
        <time>2024-11-05T10:13:24.235Z</time>
      </trkpt>
      <trkpt lat="44.22018" lon="3.54978">
        <ele>702.76</ele>
        <time>2024-11-05T10:13:25.491Z</time>
      </trkpt>
      <trkpt lat="44.22025" lon="3.54978">
        <ele>702.75</ele>
        <time>2024-11-05T10:13:26.748Z</time>
      </trkpt>
      <trkpt lat="44.22033" lon="3.54981">
        <ele>702.83</ele>
        <time>2024-11-05T10:13:28.006Z</time>
      </trkpt>
      <trkpt lat="44.22064" lon="3.55015">
        <ele>703.79</ele>
        <time>2024-11-05T10:13:29.271Z</time>
      </trkpt>
      <trkpt lat="44.22079" lon="3.55041">
        <ele>704.33</ele>
        <time>2024-11-05T10:13:30.540Z</time>
      </trkpt>
      <trkpt lat="44.22085" lon="3.55048">
        <ele>704.47</ele>
        <time>2024-11-05T10:13:31.810Z</time>
      </trkpt>
      <trkpt lat="44.22095" lon="3.55055">
        <ele>704.63</ele>
        <time>2024-11-05T10:13:33.082Z</time>
      </trkpt>
      <trkpt lat="44.22137" lon="3.55102">
        <ele>705.1</ele>
        <time>2024-11-05T10:13:34.362Z</time>
      </trkpt>
      <trkpt lat="44.22144" lon="3.55116">
        <ele>705.26</ele>
        <time>2024-11-05T10:13:35.644Z</time>
      </trkpt>
      <trkpt lat="44.22148" lon="3.55132">
        <ele>705.32</ele>
        <time>2024-11-05T10:13:36.928Z</time>
      </trkpt>
      <trkpt lat="44.22146" lon="3.55193">
        <ele>705.06</ele>
        <time>2024-11-05T10:13:38.219Z</time>
      </trkpt>
      <trkpt lat="44.2215" lon="3.55222">
        <ele>704.61</ele>
        <time>2024-11-05T10:13:39.514Z</time>
      </trkpt>
      <trkpt lat="44.22163" lon="3.55268">
        <ele>703.22</ele>
        <time>2024-11-05T10:13:40.814Z</time>
      </trkpt>
      <trkpt lat="44.22175" lon="3.55312">
        <ele>700.9</ele>
        <time>2024-11-05T10:13:42.120Z</time>
      </trkpt>
      <trkpt lat="44.22181" lon="3.55325">
        <ele>700.06</ele>
        <time>2024-11-05T10:13:43.427Z</time>
      </trkpt>
      <trkpt lat="44.2219" lon="3.55339">
        <ele>699.1</ele>
        <time>2024-11-05T10:13:44.737Z</time>
      </trkpt>
      <trkpt lat="44.2223" lon="3.55378">
        <ele>695.97</ele>
        <time>2024-11-05T10:13:46.054Z</time>
      </trkpt>
      <trkpt lat="44.22244" lon="3.55392">
        <ele>695.47</ele>
        <time>2024-11-05T10:13:47.374Z</time>
      </trkpt>
      <trkpt lat="44.22257" lon="3.55418">
        <ele>695.14</ele>
        <time>2024-11-05T10:13:48.698Z</time>
      </trkpt>
      <trkpt lat="44.22266" lon="3.55435">
        <ele>695.08</ele>
        <time>2024-11-05T10:13:50.024Z</time>
      </trkpt>
      <trkpt lat="44.22273" lon="3.55468">
        <ele>694.95</ele>
        <time>2024-11-05T10:13:51.354Z</time>
      </trkpt>
      <trkpt lat="44.2228" lon="3.55498">
        <ele>694.43</ele>
        <time>2024-11-05T10:13:52.688Z</time>
      </trkpt>
      <trkpt lat="44.22286" lon="3.55528">
        <ele>693.31</ele>
        <time>2024-11-05T10:13:54.025Z</time>
      </trkpt>
      <trkpt lat="44.223" lon="3.55593">
        <ele>690.1</ele>
        <time>2024-11-05T10:13:55.370Z</time>
      </trkpt>
      <trkpt lat="44.22308" lon="3.55629">
        <ele>688.93</ele>
        <time>2024-11-05T10:13:56.720Z</time>
      </trkpt>
      <trkpt lat="44.22313" lon="3.55653">
        <ele>688.47</ele>
        <time>2024-11-05T10:13:58.072Z</time>
      </trkpt>
      <trkpt lat="44.22321" lon="3.55695">
        <ele>688.2</ele>
        <time>2024-11-05T10:13:59.429Z</time>
      </trkpt>
      <trkpt lat="44.22336" lon="3.55773">
        <ele>688.67</ele>
        <time>2024-11-05T10:14:00.796Z</time>
      </trkpt>
      <trkpt lat="44.22348" lon="3.55825">
        <ele>688.5</ele>
        <time>2024-11-05T10:14:02.169Z</time>
      </trkpt>
      <trkpt lat="44.22372" lon="3.55879">
        <ele>688.04</ele>
        <time>2024-11-05T10:14:03.549Z</time>
      </trkpt>
      <trkpt lat="44.22385" lon="3.55919">
        <ele>687.71</ele>
        <time>2024-11-05T10:14:04.934Z</time>
      </trkpt>
      <trkpt lat="44.22392" lon="3.55968">
        <ele>687.12</ele>
        <time>2024-11-05T10:14:06.325Z</time>
      </trkpt>
      <trkpt lat="44.22392" lon="3.55999">
        <ele>686.82</ele>
        <time>2024-11-05T10:14:07.720Z</time>
      </trkpt>
      <trkpt lat="44.22391" lon="3.56046">
        <ele>686.67</ele>
        <time>2024-11-05T10:14:09.120Z</time>
      </trkpt>
      <trkpt lat="44.22394" lon="3.56078">
        <ele>686.61</ele>
        <time>2024-11-05T10:14:10.524Z</time>
      </trkpt>
      <trkpt lat="44.22408" lon="3.56111">
        <ele>686.57</ele>
        <time>2024-11-05T10:14:11.932Z</time>
      </trkpt>
      <trkpt lat="44.22417" lon="3.56123">
        <ele>686.54</ele>
        <time>2024-11-05T10:14:13.342Z</time>
      </trkpt>
      <trkpt lat="44.22476" lon="3.56184">
        <ele>686.27</ele>
        <time>2024-11-05T10:14:14.764Z</time>
      </trkpt>
      <trkpt lat="44.22494" lon="3.56206">
        <ele>685.96</ele>
        <time>2024-11-05T10:14:16.190Z</time>
      </trkpt>
      <trkpt lat="44.22506" lon="3.56228">
        <ele>685.63</ele>
        <time>2024-11-05T10:14:17.619Z</time>
      </trkpt>
      <trkpt lat="44.22521" lon="3.56272">
        <ele>685</ele>
        <time>2024-11-05T10:14:19.054Z</time>
      </trkpt>
      <trkpt lat="44.22525" lon="3.56292">
        <ele>684.69</ele>
        <time>2024-11-05T10:14:20.491Z</time>
      </trkpt>
      <trkpt lat="44.22528" lon="3.56328">
        <ele>684.26</ele>
        <time>2024-11-05T10:14:21.932Z</time>
      </trkpt>
      <trkpt lat="44.2252" lon="3.56396">
        <ele>683.97</ele>
        <time>2024-11-05T10:14:23.381Z</time>
      </trkpt>
      <trkpt lat="44.2252" lon="3.56416">
        <ele>683.94</ele>
        <time>2024-11-05T10:14:24.832Z</time>
      </trkpt>
      <trkpt lat="44.22523" lon="3.56449">
        <ele>683.87</ele>
        <time>2024-11-05T10:14:26.287Z</time>
      </trkpt>
      <trkpt lat="44.22535" lon="3.56505">
        <ele>683.65</ele>
        <time>2024-11-05T10:14:27.749Z</time>
      </trkpt>
      <trkpt lat="44.22553" lon="3.56559">
        <ele>683.38</ele>
        <time>2024-11-05T10:14:29.218Z</time>
      </trkpt>
      <trkpt lat="44.22566" lon="3.56615">
        <ele>683.12</ele>
        <time>2024-11-05T10:14:30.693Z</time>
      </trkpt>
      <trkpt lat="44.2257" lon="3.56626">
        <ele>683.08</ele>
        <time>2024-11-05T10:14:32.170Z</time>
      </trkpt>
      <trkpt lat="44.22583" lon="3.56641">
        <ele>682.96</ele>
        <time>2024-11-05T10:14:33.650Z</time>
      </trkpt>
      <trkpt lat="44.22638" lon="3.56668">
        <ele>682.52</ele>
        <time>2024-11-05T10:14:35.139Z</time>
      </trkpt>
      <trkpt lat="44.22654" lon="3.56679">
        <ele>682.34</ele>
        <time>2024-11-05T10:14:36.631Z</time>
      </trkpt>
      <trkpt lat="44.2267" lon="3.56699">
        <ele>682.16</ele>
        <time>2024-11-05T10:14:38.126Z</time>
      </trkpt>
      <trkpt lat="44.22678" lon="3.56718">
        <ele>682.07</ele>
        <time>2024-11-05T10:14:39.624Z</time>
      </trkpt>
      <trkpt lat="44.22692" lon="3.56783">
        <ele>681.61</ele>
        <time>2024-11-05T10:14:41.130Z</time>
      </trkpt>
      <trkpt lat="44.22698" lon="3.56826">
        <ele>681.22</ele>
        <time>2024-11-05T10:14:42.641Z</time>
      </trkpt>
      <trkpt lat="44.22699" lon="3.56848">
        <ele>680.95</ele>
        <time>2024-11-05T10:14:44.154Z</time>
      </trkpt>
      <trkpt lat="44.22697" lon="3.5691">
        <ele>680.26</ele>
        <time>2024-11-05T10:14:45.674Z</time>
      </trkpt>
      <trkpt lat="44.227" lon="3.56947">
        <ele>679.78</ele>
        <time>2024-11-05T10:14:47.199Z</time>
      </trkpt>
      <trkpt lat="44.22704" lon="3.56984">
        <ele>679.23</ele>
        <time>2024-11-05T10:14:48.728Z</time>
      </trkpt>
      <trkpt lat="44.22715" lon="3.57022">
        <ele>678.59</ele>
        <time>2024-11-05T10:14:50.262Z</time>
      </trkpt>
      <trkpt lat="44.22732" lon="3.57056">
        <ele>677.98</ele>
        <time>2024-11-05T10:14:51.800Z</time>
      </trkpt>
      <trkpt lat="44.22774" lon="3.57117">
        <ele>676.41</ele>
        <time>2024-11-05T10:14:53.348Z</time>
      </trkpt>
      <trkpt lat="44.22785" lon="3.57139">
        <ele>675.83</ele>
        <time>2024-11-05T10:14:54.899Z</time>
      </trkpt>
      <trkpt lat="44.22804" lon="3.57212">
        <ele>674.19</ele>
        <time>2024-11-05T10:14:56.459Z</time>
      </trkpt>
      <trkpt lat="44.22819" lon="3.57248">
        <ele>673.34</ele>
        <time>2024-11-05T10:14:58.024Z</time>
      </trkpt>
      <trkpt lat="44.2284" lon="3.57285">
        <ele>672.45</ele>
        <time>2024-11-05T10:14:59.594Z</time>
      </trkpt>
      <trkpt lat="44.22871" lon="3.57324">
        <ele>671.29</ele>
        <time>2024-11-05T10:15:01.171Z</time>
      </trkpt>
      <trkpt lat="44.22893" lon="3.5736">
        <ele>670.47</ele>
        <time>2024-11-05T10:15:02.753Z</time>
      </trkpt>
      <trkpt lat="44.22905" lon="3.57402">
        <ele>670.07</ele>
        <time>2024-11-05T10:15:04.341Z</time>
      </trkpt>
      <trkpt lat="44.2291" lon="3.57441">
        <ele>669.85</ele>
        <time>2024-11-05T10:15:05.933Z</time>
      </trkpt>
      <trkpt lat="44.22909" lon="3.5746">
        <ele>669.82</ele>
        <time>2024-11-05T10:15:07.527Z</time>
      </trkpt>
      <trkpt lat="44.22906" lon="3.57474">
        <ele>669.86</ele>
        <time>2024-11-05T10:15:09.123Z</time>
      </trkpt>
      <trkpt lat="44.22892" lon="3.57497">
        <ele>670.12</ele>
        <time>2024-11-05T10:15:10.723Z</time>
      </trkpt>
      <trkpt lat="44.22868" lon="3.57515">
        <ele>670.72</ele>
        <time>2024-11-05T10:15:12.327Z</time>
      </trkpt>
      <trkpt lat="44.22857" lon="3.57528">
        <ele>670.93</ele>
        <time>2024-11-05T10:15:13.933Z</time>
      </trkpt>
      <trkpt lat="44.22848" lon="3.57544">
        <ele>670.9</ele>
        <time>2024-11-05T10:15:15.542Z</time>
      </trkpt>
      <trkpt lat="44.22842" lon="3.57572">
        <ele>670.46</ele>
        <time>2024-11-05T10:15:17.154Z</time>
      </trkpt>
      <trkpt lat="44.22839" lon="3.57584">
        <ele>670.15</ele>
        <time>2024-11-05T10:15:18.767Z</time>
      </trkpt>
      <trkpt lat="44.22838" lon="3.57608">
        <ele>669.33</ele>
        <time>2024-11-05T10:15:20.383Z</time>
      </trkpt>
      <trkpt lat="44.22842" lon="3.57646">
        <ele>668.11</ele>
        <time>2024-11-05T10:15:22.004Z</time>
      </trkpt>
      <trkpt lat="44.22846" lon="3.5766">
        <ele>667.6</ele>
        <time>2024-11-05T10:15:23.626Z</time>
      </trkpt>
      <trkpt lat="44.2286" lon="3.57683">
        <ele>666.45</ele>
        <time>2024-11-05T10:15:25.252Z</time>
      </trkpt>
      <trkpt lat="44.22882" lon="3.57698">
        <ele>665.26</ele>
        <time>2024-11-05T10:15:26.882Z</time>
      </trkpt>
      <trkpt lat="44.22892" lon="3.57701">
        <ele>664.96</ele>
        <time>2024-11-05T10:15:28.513Z</time>
      </trkpt>
      <trkpt lat="44.22901" lon="3.57703">
        <ele>664.8</ele>
        <time>2024-11-05T10:15:30.146Z</time>
      </trkpt>
      <trkpt lat="44.22918" lon="3.5771">
        <ele>665.04</ele>
        <time>2024-11-05T10:15:31.782Z</time>
      </trkpt>
      <trkpt lat="44.22931" lon="3.57712">
        <ele>665.24</ele>
        <time>2024-11-05T10:15:33.420Z</time>
      </trkpt>
      <trkpt lat="44.2294" lon="3.57711">
        <ele>665.38</ele>
        <time>2024-11-05T10:15:35.059Z</time>
      </trkpt>
      <trkpt lat="44.22955" lon="3.57705">
        <ele>665.59</ele>
        <time>2024-11-05T10:15:36.701Z</time>
      </trkpt>
      <trkpt lat="44.22995" lon="3.57688">
        <ele>664.96</ele>
        <time>2024-11-05T10:15:38.349Z</time>
      </trkpt>
      <trkpt lat="44.23028" lon="3.57676">
        <ele>664.31</ele>
        <time>2024-11-05T10:15:40.003Z</time>
      </trkpt>
      <trkpt lat="44.23042" lon="3.57671">
        <ele>664.21</ele>
        <time>2024-11-05T10:15:41.659Z</time>
      </trkpt>
      <trkpt lat="44.23054" lon="3.57668">
        <ele>664.28</ele>
        <time>2024-11-05T10:15:43.317Z</time>
      </trkpt>
      <trkpt lat="44.23079" lon="3.57663">
        <ele>664.74</ele>
        <time>2024-11-05T10:15:44.979Z</time>
      </trkpt>
      <trkpt lat="44.2309" lon="3.57662">
        <ele>665.03</ele>
        <time>2024-11-05T10:15:46.643Z</time>
      </trkpt>
      <trkpt lat="44.23121" lon="3.57663">
        <ele>666.2</ele>
        <time>2024-11-05T10:15:48.312Z</time>
      </trkpt>
      <trkpt lat="44.23173" lon="3.57679">
        <ele>668.46</ele>
        <time>2024-11-05T10:15:49.989Z</time>
      </trkpt>
      <trkpt lat="44.23208" lon="3.57701">
        <ele>669.76</ele>
        <time>2024-11-05T10:15:51.673Z</time>
      </trkpt>
      <trkpt lat="44.23224" lon="3.57718">
        <ele>670.4</ele>
        <time>2024-11-05T10:15:53.360Z</time>
      </trkpt>
      <trkpt lat="44.23238" lon="3.57743">
        <ele>670.71</ele>
        <time>2024-11-05T10:15:55.050Z</time>
      </trkpt>
      <trkpt lat="44.23246" lon="3.57758">
        <ele>670.59</ele>
        <time>2024-11-05T10:15:56.743Z</time>
      </trkpt>
      <trkpt lat="44.23254" lon="3.57773">
        <ele>670.2</ele>
        <time>2024-11-05T10:15:58.438Z</time>
      </trkpt>
      <trkpt lat="44.23262" lon="3.57788">
        <ele>669.71</ele>
        <time>2024-11-05T10:16:00.135Z</time>
      </trkpt>
      <trkpt lat="44.23297" lon="3.57871">
        <ele>667.54</ele>
        <time>2024-11-05T10:16:01.843Z</time>
      </trkpt>
      <trkpt lat="44.2331" lon="3.57885">
        <ele>667.08</ele>
        <time>2024-11-05T10:16:03.554Z</time>
      </trkpt>
      <trkpt lat="44.23319" lon="3.57892">
        <ele>666.8</ele>
        <time>2024-11-05T10:16:05.266Z</time>
      </trkpt>
      <trkpt lat="44.23328" lon="3.57895">
        <ele>666.53</ele>
        <time>2024-11-05T10:16:06.980Z</time>
      </trkpt>
      <trkpt lat="44.23336" lon="3.57895">
        <ele>666.29</ele>
        <time>2024-11-05T10:16:08.695Z</time>
      </trkpt>
      <trkpt lat="44.23343" lon="3.57892">
        <ele>666.07</ele>
        <time>2024-11-05T10:16:10.411Z</time>
      </trkpt>
      <trkpt lat="44.23353" lon="3.57883">
        <ele>665.74</ele>
        <time>2024-11-05T10:16:12.129Z</time>
      </trkpt>
      <trkpt lat="44.23361" lon="3.5787">
        <ele>665.4</ele>
        <time>2024-11-05T10:16:13.849Z</time>
      </trkpt>
      <trkpt lat="44.23371" lon="3.57845">
        <ele>665.11</ele>
        <time>2024-11-05T10:16:15.572Z</time>
      </trkpt>
      <trkpt lat="44.23375" lon="3.57829">
        <ele>664.96</ele>
        <time>2024-11-05T10:16:17.297Z</time>
      </trkpt>
      <trkpt lat="44.23381" lon="3.5779">
        <ele>664.23</ele>
        <time>2024-11-05T10:16:19.027Z</time>
      </trkpt>
      <trkpt lat="44.23392" lon="3.57741">
        <ele>663.35</ele>
        <time>2024-11-05T10:16:20.763Z</time>
      </trkpt>
      <trkpt lat="44.23404" lon="3.57707">
        <ele>662.48</ele>
        <time>2024-11-05T10:16:22.503Z</time>
      </trkpt>
      <trkpt lat="44.23415" lon="3.57686">
        <ele>661.76</ele>
        <time>2024-11-05T10:16:24.246Z</time>
      </trkpt>
      <trkpt lat="44.23438" lon="3.57654">
        <ele>660.44</ele>
        <time>2024-11-05T10:16:25.994Z</time>
      </trkpt>
      <trkpt lat="44.23445" lon="3.57644">
        <ele>660.09</ele>
        <time>2024-11-05T10:16:27.744Z</time>
      </trkpt>
      <trkpt lat="44.23463" lon="3.57625">
        <ele>659.4</ele>
        <time>2024-11-05T10:16:29.497Z</time>
      </trkpt>
      <trkpt lat="44.23498" lon="3.57595">
        <ele>658.36</ele>
        <time>2024-11-05T10:16:31.257Z</time>
      </trkpt>
      <trkpt lat="44.23522" lon="3.57579">
        <ele>657.8</ele>
        <time>2024-11-05T10:16:33.021Z</time>
      </trkpt>
      <trkpt lat="44.23568" lon="3.5756">
        <ele>656.75</ele>
        <time>2024-11-05T10:16:34.793Z</time>
      </trkpt>
      <trkpt lat="44.23591" lon="3.57556">
        <ele>656.15</ele>
        <time>2024-11-05T10:16:36.569Z</time>
      </trkpt>
      <trkpt lat="44.23649" lon="3.57573">
        <ele>654.23</ele>
        <time>2024-11-05T10:16:38.354Z</time>
      </trkpt>
      <trkpt lat="44.23664" lon="3.57576">
        <ele>653.91</ele>
        <time>2024-11-05T10:16:40.142Z</time>
      </trkpt>
      <trkpt lat="44.23672" lon="3.57576">
        <ele>653.82</ele>
        <time>2024-11-05T10:16:41.931Z</time>
      </trkpt>
      <trkpt lat="44.23697" lon="3.57567">
        <ele>653.74</ele>
        <time>2024-11-05T10:16:43.724Z</time>
      </trkpt>
      <trkpt lat="44.23707" lon="3.57567">
        <ele>653.74</ele>
        <time>2024-11-05T10:16:45.519Z</time>
      </trkpt>
      <trkpt lat="44.23716" lon="3.57577">
        <ele>653.73</ele>
        <time>2024-11-05T10:16:47.315Z</time>
      </trkpt>
      <trkpt lat="44.23718" lon="3.57583">
        <ele>653.7</ele>
        <time>2024-11-05T10:16:49.112Z</time>
      </trkpt>
      <trkpt lat="44.23719" lon="3.57593">
        <ele>653.67</ele>
        <time>2024-11-05T10:16:50.910Z</time>
      </trkpt>
      <trkpt lat="44.23718" lon="3.57617">
        <ele>653.48</ele>
        <time>2024-11-05T10:16:52.711Z</time>
      </trkpt>
      <trkpt lat="44.23741" lon="3.57679">
        <ele>651.86</ele>
        <time>2024-11-05T10:16:54.520Z</time>
      </trkpt>
      <trkpt lat="44.23749" lon="3.57692">
        <ele>651.42</ele>
        <time>2024-11-05T10:16:56.331Z</time>
      </trkpt>
      <trkpt lat="44.23778" lon="3.57723">
        <ele>650.09</ele>
        <time>2024-11-05T10:16:58.148Z</time>
      </trkpt>
      <trkpt lat="44.23805" lon="3.57751">
        <ele>649.09</ele>
        <time>2024-11-05T10:16:59.970Z</time>
      </trkpt>
      <trkpt lat="44.23817" lon="3.5777">
        <ele>648.49</ele>
        <time>2024-11-05T10:17:01.795Z</time>
      </trkpt>
      <trkpt lat="44.23822" lon="3.57784">
        <ele>648.12</ele>
        <time>2024-11-05T10:17:03.622Z</time>
      </trkpt>
      <trkpt lat="44.23825" lon="3.57801">
        <ele>647.78</ele>
        <time>2024-11-05T10:17:05.451Z</time>
      </trkpt>
      <trkpt lat="44.23828" lon="3.5782">
        <ele>647.62</ele>
        <time>2024-11-05T10:17:07.282Z</time>
      </trkpt>
      <trkpt lat="44.2383" lon="3.57832">
        <ele>647.72</ele>
        <time>2024-11-05T10:17:09.115Z</time>
      </trkpt>
      <trkpt lat="44.23834" lon="3.57864">
        <ele>648.62</ele>
        <time>2024-11-05T10:17:10.952Z</time>
      </trkpt>
      <trkpt lat="44.23845" lon="3.57915">
        <ele>650.84</ele>
        <time>2024-11-05T10:17:12.795Z</time>
      </trkpt>
      <trkpt lat="44.2385" lon="3.57926">
        <ele>651.35</ele>
        <time>2024-11-05T10:17:14.639Z</time>
      </trkpt>
      <trkpt lat="44.23854" lon="3.57931">
        <ele>651.67</ele>
        <time>2024-11-05T10:17:16.484Z</time>
      </trkpt>
      <trkpt lat="44.23871" lon="3.57946">
        <ele>652.73</ele>
        <time>2024-11-05T10:17:18.332Z</time>
      </trkpt>
      <trkpt lat="44.23891" lon="3.57956">
        <ele>653.61</ele>
        <time>2024-11-05T10:17:20.184Z</time>
      </trkpt>
      <trkpt lat="44.23903" lon="3.57957">
        <ele>654.06</ele>
        <time>2024-11-05T10:17:22.038Z</time>
      </trkpt>
      <trkpt lat="44.23912" lon="3.57955">
        <ele>654.39</ele>
        <time>2024-11-05T10:17:23.893Z</time>
      </trkpt>
      <trkpt lat="44.23929" lon="3.57944">
        <ele>655.19</ele>
        <time>2024-11-05T10:17:25.751Z</time>
      </trkpt>
      <trkpt lat="44.23938" lon="3.57927">
        <ele>655.74</ele>
        <time>2024-11-05T10:17:27.611Z</time>
      </trkpt>
      <trkpt lat="44.23941" lon="3.57915">
        <ele>656.08</ele>
        <time>2024-11-05T10:17:29.473Z</time>
      </trkpt>
      <trkpt lat="44.23942" lon="3.57884">
        <ele>656.75</ele>
        <time>2024-11-05T10:17:31.338Z</time>
      </trkpt>
      <trkpt lat="44.23945" lon="3.57869">
        <ele>657.04</ele>
        <time>2024-11-05T10:17:33.205Z</time>
      </trkpt>
      <trkpt lat="44.23955" lon="3.57855">
        <ele>657.28</ele>
        <time>2024-11-05T10:17:35.075Z</time>
      </trkpt>
      <trkpt lat="44.23979" lon="3.57837">
        <ele>657.72</ele>
        <time>2024-11-05T10:17:36.949Z</time>
      </trkpt>
      <trkpt lat="44.24" lon="3.57832">
        <ele>658.04</ele>
        <time>2024-11-05T10:17:38.826Z</time>
      </trkpt>
      <trkpt lat="44.24033" lon="3.5783">
        <ele>658.55</ele>
        <time>2024-11-05T10:17:40.708Z</time>
      </trkpt>
      <trkpt lat="44.24056" lon="3.57828">
        <ele>658.72</ele>
        <time>2024-11-05T10:17:42.594Z</time>
      </trkpt>
      <trkpt lat="44.24084" lon="3.57832">
        <ele>658.87</ele>
        <time>2024-11-05T10:17:44.485Z</time>
      </trkpt>
      <trkpt lat="44.24093" lon="3.57837">
        <ele>658.92</ele>
        <time>2024-11-05T10:17:46.377Z</time>
      </trkpt>
      <trkpt lat="44.24102" lon="3.57848">
        <ele>658.99</ele>
        <time>2024-11-05T10:17:48.271Z</time>
      </trkpt>
      <trkpt lat="44.24117" lon="3.5788">
        <ele>659.27</ele>
        <time>2024-11-05T10:17:50.170Z</time>
      </trkpt>
      <trkpt lat="44.24155" lon="3.57932">
        <ele>659.92</ele>
        <time>2024-11-05T10:17:52.077Z</time>
      </trkpt>
      <trkpt lat="44.24195" lon="3.57969">
        <ele>660.63</ele>
        <time>2024-11-05T10:17:53.992Z</time>
      </trkpt>
      <trkpt lat="44.24229" lon="3.58004">
        <ele>661.09</ele>
        <time>2024-11-05T10:17:55.914Z</time>
      </trkpt>
      <trkpt lat="44.24253" lon="3.58016">
        <ele>660.87</ele>
        <time>2024-11-05T10:17:57.840Z</time>
      </trkpt>
      <trkpt lat="44.24262" lon="3.58022">
        <ele>660.78</ele>
        <time>2024-11-05T10:17:59.767Z</time>
      </trkpt>
      <trkpt lat="44.2427" lon="3.5803">
        <ele>660.73</ele>
        <time>2024-11-05T10:18:01.696Z</time>
      </trkpt>
      <trkpt lat="44.24274" lon="3.58038">
        <ele>660.71</ele>
        <time>2024-11-05T10:18:03.626Z</time>
      </trkpt>
      <trkpt lat="44.24278" lon="3.58058">
        <ele>660.65</ele>
        <time>2024-11-05T10:18:05.558Z</time>
      </trkpt>
      <trkpt lat="44.24278" lon="3.5807">
        <ele>660.61</ele>
        <time>2024-11-05T10:18:07.492Z</time>
      </trkpt>
      <trkpt lat="44.24261" lon="3.58163">
        <ele>660.04</ele>
        <time>2024-11-05T10:18:09.437Z</time>
      </trkpt>
      <trkpt lat="44.24262" lon="3.5817">
        <ele>660.02</ele>
        <time>2024-11-05T10:18:11.383Z</time>
      </trkpt>
      <trkpt lat="44.24267" lon="3.58183">
        <ele>659.98</ele>
        <time>2024-11-05T10:18:13.330Z</time>
      </trkpt>
      <trkpt lat="44.24281" lon="3.58193">
        <ele>659.85</ele>
        <time>2024-11-05T10:18:15.280Z</time>
      </trkpt>
      <trkpt lat="44.24297" lon="3.58199">
        <ele>659.55</ele>
        <time>2024-11-05T10:18:17.232Z</time>
      </trkpt>
      <trkpt lat="44.24342" lon="3.58215">
        <ele>658</ele>
        <time>2024-11-05T10:18:19.192Z</time>
      </trkpt>
      <trkpt lat="44.24385" lon="3.58239">
        <ele>656.79</ele>
        <time>2024-11-05T10:18:21.159Z</time>
      </trkpt>
      <trkpt lat="44.24409" lon="3.58264">
        <ele>655.61</ele>
        <time>2024-11-05T10:18:23.131Z</time>
      </trkpt>
      <trkpt lat="44.24439" lon="3.58278">
        <ele>654.12</ele>
        <time>2024-11-05T10:18:25.108Z</time>
      </trkpt>
      <trkpt lat="44.24455" lon="3.58291">
        <ele>653.13</ele>
        <time>2024-11-05T10:18:27.088Z</time>
      </trkpt>
      <trkpt lat="44.24474" lon="3.5831">
        <ele>651.98</ele>
        <time>2024-11-05T10:18:29.072Z</time>
      </trkpt>
      <trkpt lat="44.24483" lon="3.58329">
        <ele>651.24</ele>
        <time>2024-11-05T10:18:31.059Z</time>
      </trkpt>
      <trkpt lat="44.24492" lon="3.58343">
        <ele>650.67</ele>
        <time>2024-11-05T10:18:33.048Z</time>
      </trkpt>
      <trkpt lat="44.24514" lon="3.58359">
        <ele>649.82</ele>
        <time>2024-11-05T10:18:35.041Z</time>
      </trkpt>
      <trkpt lat="44.2455" lon="3.58388">
        <ele>648.87</ele>
        <time>2024-11-05T10:18:37.040Z</time>
      </trkpt>
      <trkpt lat="44.24557" lon="3.58391">
        <ele>648.72</ele>
        <time>2024-11-05T10:18:39.040Z</time>
      </trkpt>
      <trkpt lat="44.24571" lon="3.58389">
        <ele>648.47</ele>
        <time>2024-11-05T10:18:41.043Z</time>
      </trkpt>
      <trkpt lat="44.24582" lon="3.58378">
        <ele>648.27</ele>
        <time>2024-11-05T10:18:43.048Z</time>
      </trkpt>
      <trkpt lat="44.24596" lon="3.58358">
        <ele>647.86</ele>
        <time>2024-11-05T10:18:45.056Z</time>
      </trkpt>
      <trkpt lat="44.24638" lon="3.58257">
        <ele>645.75</ele>
        <time>2024-11-05T10:18:47.077Z</time>
      </trkpt>
      <trkpt lat="44.24689" lon="3.58134">
        <ele>643.75</ele>
        <time>2024-11-05T10:18:49.115Z</time>
      </trkpt>
      <trkpt lat="44.24709" lon="3.58094">
        <ele>643.15</ele>
        <time>2024-11-05T10:18:51.158Z</time>
      </trkpt>
      <trkpt lat="44.24727" lon="3.58071">
        <ele>642.82</ele>
        <time>2024-11-05T10:18:53.205Z</time>
      </trkpt>
      <trkpt lat="44.24789" lon="3.57998">
        <ele>641.22</ele>
        <time>2024-11-05T10:18:55.265Z</time>
      </trkpt>
      <trkpt lat="44.24807" lon="3.57982">
        <ele>640.97</ele>
        <time>2024-11-05T10:18:57.329Z</time>
      </trkpt>
      <trkpt lat="44.24834" lon="3.57979">
        <ele>640.06</ele>
        <time>2024-11-05T10:18:59.397Z</time>
      </trkpt>
      <trkpt lat="44.24886" lon="3.5798">
        <ele>639.07</ele>
        <time>2024-11-05T10:19:01.473Z</time>
      </trkpt>
      <trkpt lat="44.24912" lon="3.57978">
        <ele>638.61</ele>
        <time>2024-11-05T10:19:03.554Z</time>
      </trkpt>
      <trkpt lat="44.2494" lon="3.57968">
        <ele>638.1</ele>
        <time>2024-11-05T10:19:05.639Z</time>
      </trkpt>
      <trkpt lat="44.24956" lon="3.57956">
        <ele>637.92</ele>
        <time>2024-11-05T10:19:07.727Z</time>
      </trkpt>
      <trkpt lat="44.24987" lon="3.57937">
        <ele>637.68</ele>
        <time>2024-11-05T10:19:09.821Z</time>
      </trkpt>
      <trkpt lat="44.25009" lon="3.57935">
        <ele>637.5</ele>
        <time>2024-11-05T10:19:11.918Z</time>
      </trkpt>
      <trkpt lat="44.2503" lon="3.57941">
        <ele>637.19</ele>
        <time>2024-11-05T10:19:14.019Z</time>
      </trkpt>
      <trkpt lat="44.25044" lon="3.57952">
        <ele>636.67</ele>
        <time>2024-11-05T10:19:16.122Z</time>
      </trkpt>
      <trkpt lat="44.25055" lon="3.57966">
        <ele>635.98</ele>
        <time>2024-11-05T10:19:18.227Z</time>
      </trkpt>
      <trkpt lat="44.25075" lon="3.58013">
        <ele>633.56</ele>
        <time>2024-11-05T10:19:20.339Z</time>
      </trkpt>
      <trkpt lat="44.2509" lon="3.58035">
        <ele>632.28</ele>
        <time>2024-11-05T10:19:22.454Z</time>
      </trkpt>
      <trkpt lat="44.25101" lon="3.58047">
        <ele>631.57</ele>
        <time>2024-11-05T10:19:24.571Z</time>
      </trkpt>
      <trkpt lat="44.25146" lon="3.58087">
        <ele>629.15</ele>
        <time>2024-11-05T10:19:26.697Z</time>
      </trkpt>
      <trkpt lat="44.25193" lon="3.58135">
        <ele>626.14</ele>
        <time>2024-11-05T10:19:28.832Z</time>
      </trkpt>
      <trkpt lat="44.25242" lon="3.58199">
        <ele>623.38</ele>
        <time>2024-11-05T10:19:30.978Z</time>
      </trkpt>
      <trkpt lat="44.25261" lon="3.58225">
        <ele>622.5</ele>
        <time>2024-11-05T10:19:33.128Z</time>
      </trkpt>
      <trkpt lat="44.25281" lon="3.5825">
        <ele>621.83</ele>
        <time>2024-11-05T10:19:35.283Z</time>
      </trkpt>
      <trkpt lat="44.25302" lon="3.58282">
        <ele>621.55</ele>
        <time>2024-11-05T10:19:37.443Z</time>
      </trkpt>
      <trkpt lat="44.25327" lon="3.5832">
        <ele>621.61</ele>
        <time>2024-11-05T10:19:39.609Z</time>
      </trkpt>
      <trkpt lat="44.25341" lon="3.58333">
        <ele>621.89</ele>
        <time>2024-11-05T10:19:41.777Z</time>
      </trkpt>
      <trkpt lat="44.25353" lon="3.58344">
        <ele>622.38</ele>
        <time>2024-11-05T10:19:43.948Z</time>
      </trkpt>
      <trkpt lat="44.2538" lon="3.58361">
        <ele>623.62</ele>
        <time>2024-11-05T10:19:46.123Z</time>
      </trkpt>
      <trkpt lat="44.25402" lon="3.58366">
        <ele>624.7</ele>
        <time>2024-11-05T10:19:48.302Z</time>
      </trkpt>
      <trkpt lat="44.25407" lon="3.58372">
        <ele>624.64</ele>
        <time>2024-11-05T10:19:50.482Z</time>
      </trkpt>
      <trkpt lat="44.25456" lon="3.58385">
        <ele>623.8</ele>
        <time>2024-11-05T10:19:52.670Z</time>
      </trkpt>
      <trkpt lat="44.25478" lon="3.58398">
        <ele>623.65</ele>
        <time>2024-11-05T10:19:54.862Z</time>
      </trkpt>
      <trkpt lat="44.25486" lon="3.58409">
        <ele>623.64</ele>
        <time>2024-11-05T10:19:57.056Z</time>
      </trkpt>
      <trkpt lat="44.25473" lon="3.58446">
        <ele>623.63</ele>
        <time>2024-11-05T10:19:59.254Z</time>
      </trkpt>
      <trkpt lat="44.25472" lon="3.58457">
        <ele>623.68</ele>
        <time>2024-11-05T10:20:01.454Z</time>
      </trkpt>
      <trkpt lat="44.2547" lon="3.58474">
        <ele>624.05</ele>
        <time>2024-11-05T10:20:03.656Z</time>
      </trkpt>
      <trkpt lat="44.25468" lon="3.58503">
        <ele>625.27</ele>
        <time>2024-11-05T10:20:05.861Z</time>
      </trkpt>
      <trkpt lat="44.25467" lon="3.58509">
        <ele>625.29</ele>
        <time>2024-11-05T10:20:08.067Z</time>
      </trkpt>
      <trkpt lat="44.25488" lon="3.58518">
        <ele>627.21</ele>
        <time>2024-11-05T10:20:10.276Z</time>
      </trkpt>
      <trkpt lat="44.25507" lon="3.58525">
        <ele>629.55</ele>
        <time>2024-11-05T10:20:12.488Z</time>
      </trkpt>
      <trkpt lat="44.25517" lon="3.58533">
        <ele>630.9</ele>
        <time>2024-11-05T10:20:14.702Z</time>
      </trkpt>
      <trkpt lat="44.25535" lon="3.58546">
        <ele>632.73</ele>
        <time>2024-11-05T10:20:16.919Z</time>
      </trkpt>
      <trkpt lat="44.25586" lon="3.58592">
        <ele>638.25</ele>
        <time>2024-11-05T10:20:19.146Z</time>
      </trkpt>
      <trkpt lat="44.25622" lon="3.58649">
        <ele>644.92</ele>
        <time>2024-11-05T10:20:21.382Z</time>
      </trkpt>
      <trkpt lat="44.25621" lon="3.58655">
        <ele>645.5</ele>
        <time>2024-11-05T10:20:23.618Z</time>
      </trkpt>
      <trkpt lat="44.25617" lon="3.58657">
        <ele>646.05</ele>
        <time>2024-11-05T10:20:25.855Z</time>
      </trkpt>
      <trkpt lat="44.25609" lon="3.58655">
        <ele>647.11</ele>
        <time>2024-11-05T10:20:28.093Z</time>
      </trkpt>
      <trkpt lat="44.25588" lon="3.58638">
        <ele>650.15</ele>
        <time>2024-11-05T10:20:30.335Z</time>
      </trkpt>
      <trkpt lat="44.25577" lon="3.58633">
        <ele>651.42</ele>
        <time>2024-11-05T10:20:32.579Z</time>
      </trkpt>
      <trkpt lat="44.25548" lon="3.58619">
        <ele>654.4</ele>
        <time>2024-11-05T10:20:34.828Z</time>
      </trkpt>
      <trkpt lat="44.25518" lon="3.58605">
        <ele>657.14</ele>
        <time>2024-11-05T10:20:37.082Z</time>
      </trkpt>
      <trkpt lat="44.25507" lon="3.58604">
        <ele>658.1</ele>
        <time>2024-11-05T10:20:39.338Z</time>
      </trkpt>
      <trkpt lat="44.25497" lon="3.58606">
        <ele>658.91</ele>
        <time>2024-11-05T10:20:41.596Z</time>
      </trkpt>
      <trkpt lat="44.25452" lon="3.58633">
        <ele>662.63</ele>
        <time>2024-11-05T10:20:43.861Z</time>
      </trkpt>
      <trkpt lat="44.25445" lon="3.58635">
        <ele>663.31</ele>
        <time>2024-11-05T10:20:46.128Z</time>
      </trkpt>
      <trkpt lat="44.25412" lon="3.58633">
        <ele>665.97</ele>
        <time>2024-11-05T10:20:48.400Z</time>
      </trkpt>
      <trkpt lat="44.25378" lon="3.5862">
        <ele>668.42</ele>
        <time>2024-11-05T10:20:50.677Z</time>
      </trkpt>
      <trkpt lat="44.25353" lon="3.5862">
        <ele>670.12</ele>
        <time>2024-11-05T10:20:52.958Z</time>
      </trkpt>
      <trkpt lat="44.25328" lon="3.58623">
        <ele>672.16</ele>
        <time>2024-11-05T10:20:55.243Z</time>
      </trkpt>
      <trkpt lat="44.25293" lon="3.5862">
        <ele>675.3</ele>
        <time>2024-11-05T10:20:57.534Z</time>
      </trkpt>
      <trkpt lat="44.25244" lon="3.58615">
        <ele>679.04</ele>
        <time>2024-11-05T10:20:59.833Z</time>
      </trkpt>
      <trkpt lat="44.25227" lon="3.5861">
        <ele>680.76</ele>
        <time>2024-11-05T10:21:02.135Z</time>
      </trkpt>
      <trkpt lat="44.25196" lon="3.58601">
        <ele>684.29</ele>
        <time>2024-11-05T10:21:04.442Z</time>
      </trkpt>
      <trkpt lat="44.25187" lon="3.58598">
        <ele>685.14</ele>
        <time>2024-11-05T10:21:06.750Z</time>
      </trkpt>
      <trkpt lat="44.25152" lon="3.58601">
        <ele>688.61</ele>
        <time>2024-11-05T10:21:09.064Z</time>
      </trkpt>
      <trkpt lat="44.2514" lon="3.58602">
        <ele>689.98</ele>
        <time>2024-11-05T10:21:11.380Z</time>
      </trkpt>
      <trkpt lat="44.25116" lon="3.58599">
        <ele>692.7</ele>
        <time>2024-11-05T10:21:13.700Z</time>
      </trkpt>
      <trkpt lat="44.25098" lon="3.58588">
        <ele>694.67</ele>
        <time>2024-11-05T10:21:16.023Z</time>
      </trkpt>
      <trkpt lat="44.25059" lon="3.58552">
        <ele>698.83</ele>
        <time>2024-11-05T10:21:18.353Z</time>
      </trkpt>
      <trkpt lat="44.25039" lon="3.58544">
        <ele>701.06</ele>
        <time>2024-11-05T10:21:20.687Z</time>
      </trkpt>
      <trkpt lat="44.25019" lon="3.58548">
        <ele>703.3</ele>
        <time>2024-11-05T10:21:23.024Z</time>
      </trkpt>
      <trkpt lat="44.24976" lon="3.58569">
        <ele>708.2</ele>
        <time>2024-11-05T10:21:25.368Z</time>
      </trkpt>
      <trkpt lat="44.24958" lon="3.58573">
        <ele>709.97</ele>
        <time>2024-11-05T10:21:27.715Z</time>
      </trkpt>
      <trkpt lat="44.24954" lon="3.58578">
        <ele>710.49</ele>
        <time>2024-11-05T10:21:30.063Z</time>
      </trkpt>
      <trkpt lat="44.24954" lon="3.58585">
        <ele>710.97</ele>
        <time>2024-11-05T10:21:32.412Z</time>
      </trkpt>
      <trkpt lat="44.24961" lon="3.58591">
        <ele>711.71</ele>
        <time>2024-11-05T10:21:34.762Z</time>
      </trkpt>
      <trkpt lat="44.24973" lon="3.5859">
        <ele>712.61</ele>
        <time>2024-11-05T10:21:37.114Z</time>
      </trkpt>
      <trkpt lat="44.24991" lon="3.58595">
        <ele>713.92</ele>
        <time>2024-11-05T10:21:39.469Z</time>
      </trkpt>
      <trkpt lat="44.25009" lon="3.58608">
        <ele>715.53</ele>
        <time>2024-11-05T10:21:41.827Z</time>
      </trkpt>
      <trkpt lat="44.25036" lon="3.58634">
        <ele>718.21</ele>
        <time>2024-11-05T10:21:44.190Z</time>
      </trkpt>
      <trkpt lat="44.25091" lon="3.58687">
        <ele>724.3</ele>
        <time>2024-11-05T10:21:46.564Z</time>
      </trkpt>
      <trkpt lat="44.25107" lon="3.587">
        <ele>725.77</ele>
        <time>2024-11-05T10:21:48.941Z</time>
      </trkpt>
      <trkpt lat="44.25127" lon="3.58708">
        <ele>727.41</ele>
        <time>2024-11-05T10:21:51.321Z</time>
      </trkpt>
      <trkpt lat="44.25151" lon="3.58713">
        <ele>729.27</ele>
        <time>2024-11-05T10:21:53.705Z</time>
      </trkpt>
      <trkpt lat="44.25172" lon="3.58713">
        <ele>731.07</ele>
        <time>2024-11-05T10:21:56.093Z</time>
      </trkpt>
      <trkpt lat="44.25175" lon="3.58716">
        <ele>731.41</ele>
        <time>2024-11-05T10:21:58.481Z</time>
      </trkpt>
      <trkpt lat="44.25174" lon="3.58724">
        <ele>731.93</ele>
        <time>2024-11-05T10:22:00.870Z</time>
      </trkpt>
      <trkpt lat="44.25168" lon="3.58726">
        <ele>732.36</ele>
        <time>2024-11-05T10:22:03.260Z</time>
      </trkpt>
      <trkpt lat="44.2515" lon="3.58726">
        <ele>733.52</ele>
        <time>2024-11-05T10:22:05.653Z</time>
      </trkpt>
      <trkpt lat="44.25119" lon="3.58733">
        <ele>735.69</ele>
        <time>2024-11-05T10:22:08.051Z</time>
      </trkpt>
      <trkpt lat="44.25096" lon="3.58736">
        <ele>737.44</ele>
        <time>2024-11-05T10:22:10.453Z</time>
      </trkpt>
      <trkpt lat="44.25054" lon="3.58727">
        <ele>740.73</ele>
        <time>2024-11-05T10:22:12.862Z</time>
      </trkpt>
      <trkpt lat="44.25028" lon="3.58719">
        <ele>743.2</ele>
        <time>2024-11-05T10:22:15.275Z</time>
      </trkpt>
      <trkpt lat="44.24986" lon="3.58707">
        <ele>747.9</ele>
        <time>2024-11-05T10:22:17.695Z</time>
      </trkpt>
      <trkpt lat="44.24967" lon="3.58704">
        <ele>750.01</ele>
        <time>2024-11-05T10:22:20.118Z</time>
      </trkpt>
      <trkpt lat="44.24963" lon="3.5871">
        <ele>750.57</ele>
        <time>2024-11-05T10:22:22.542Z</time>
      </trkpt>
      <trkpt lat="44.24966" lon="3.58717">
        <ele>751.05</ele>
        <time>2024-11-05T10:22:24.967Z</time>
      </trkpt>
      <trkpt lat="44.24986" lon="3.58725">
        <ele>752.22</ele>
        <time>2024-11-05T10:22:27.395Z</time>
      </trkpt>
      <trkpt lat="44.25001" lon="3.5874">
        <ele>753.28</ele>
        <time>2024-11-05T10:22:29.826Z</time>
      </trkpt>
      <trkpt lat="44.25036" lon="3.58776">
        <ele>756.58</ele>
        <time>2024-11-05T10:22:32.264Z</time>
      </trkpt>
      <trkpt lat="44.25064" lon="3.588">
        <ele>759.26</ele>
        <time>2024-11-05T10:22:34.707Z</time>
      </trkpt>
      <trkpt lat="44.2512" lon="3.58839">
        <ele>765.87</ele>
        <time>2024-11-05T10:22:37.160Z</time>
      </trkpt>
      <trkpt lat="44.25143" lon="3.58854">
        <ele>768.84</ele>
        <time>2024-11-05T10:22:39.617Z</time>
      </trkpt>
      <trkpt lat="44.25158" lon="3.58867">
        <ele>770.97</ele>
        <time>2024-11-05T10:22:42.077Z</time>
      </trkpt>
      <trkpt lat="44.25163" lon="3.58878">
        <ele>772.16</ele>
        <time>2024-11-05T10:22:44.539Z</time>
      </trkpt>
      <trkpt lat="44.25162" lon="3.58891">
        <ele>773.37</ele>
        <time>2024-11-05T10:22:47.002Z</time>
      </trkpt>
      <trkpt lat="44.25157" lon="3.58907">
        <ele>774.98</ele>
        <time>2024-11-05T10:22:49.467Z</time>
      </trkpt>
      <trkpt lat="44.25144" lon="3.58912">
        <ele>776.77</ele>
        <time>2024-11-05T10:22:51.934Z</time>
      </trkpt>
      <trkpt lat="44.25127" lon="3.5891">
        <ele>779.1</ele>
        <time>2024-11-05T10:22:54.404Z</time>
      </trkpt>
      <trkpt lat="44.25109" lon="3.58904">
        <ele>781.2</ele>
        <time>2024-11-05T10:22:56.877Z</time>
      </trkpt>
      <trkpt lat="44.25079" lon="3.58905">
        <ele>783.74</ele>
        <time>2024-11-05T10:22:59.355Z</time>
      </trkpt>
      <trkpt lat="44.25062" lon="3.58909">
        <ele>785.29</ele>
        <time>2024-11-05T10:23:01.836Z</time>
      </trkpt>
      <trkpt lat="44.25011" lon="3.5892">
        <ele>790.47</ele>
        <time>2024-11-05T10:23:04.325Z</time>
      </trkpt>
      <trkpt lat="44.24986" lon="3.58928">
        <ele>793.01</ele>
        <time>2024-11-05T10:23:06.818Z</time>
      </trkpt>
      <trkpt lat="44.24976" lon="3.58937">
        <ele>794.36</ele>
        <time>2024-11-05T10:23:09.313Z</time>
      </trkpt>
      <trkpt lat="44.24969" lon="3.5895">
        <ele>795.61</ele>
        <time>2024-11-05T10:23:11.810Z</time>
      </trkpt>
      <trkpt lat="44.24962" lon="3.58971">
        <ele>797.21</ele>
        <time>2024-11-05T10:23:14.309Z</time>
      </trkpt>
      <trkpt lat="44.24956" lon="3.58988">
        <ele>798.28</ele>
        <time>2024-11-05T10:23:16.810Z</time>
      </trkpt>
      <trkpt lat="44.24937" lon="3.59029">
        <ele>800.63</ele>
        <time>2024-11-05T10:23:19.317Z</time>
      </trkpt>
      <trkpt lat="44.24924" lon="3.59055">
        <ele>802.45</ele>
        <time>2024-11-05T10:23:21.828Z</time>
      </trkpt>
      <trkpt lat="44.24883" lon="3.5913">
        <ele>808.84</ele>
        <time>2024-11-05T10:23:24.350Z</time>
      </trkpt>
      <trkpt lat="44.24867" lon="3.59158">
        <ele>811</ele>
        <time>2024-11-05T10:23:26.876Z</time>
      </trkpt>
      <trkpt lat="44.24853" lon="3.592">
        <ele>813.41</ele>
        <time>2024-11-05T10:23:29.407Z</time>
      </trkpt>
      <trkpt lat="44.24842" lon="3.59247">
        <ele>815.81</ele>
        <time>2024-11-05T10:23:31.944Z</time>
      </trkpt>
      <trkpt lat="44.24831" lon="3.59295">
        <ele>817.98</ele>
        <time>2024-11-05T10:23:34.486Z</time>
      </trkpt>
      <trkpt lat="44.24818" lon="3.59343">
        <ele>820.83</ele>
        <time>2024-11-05T10:23:37.034Z</time>
      </trkpt>
      <trkpt lat="44.2481" lon="3.59357">
        <ele>822.07</ele>
        <time>2024-11-05T10:23:39.584Z</time>
      </trkpt>
      <trkpt lat="44.248" lon="3.59375">
        <ele>824.23</ele>
        <time>2024-11-05T10:23:42.137Z</time>
      </trkpt>
      <trkpt lat="44.24782" lon="3.59397">
        <ele>827.45</ele>
        <time>2024-11-05T10:23:44.694Z</time>
      </trkpt>
      <trkpt lat="44.24769" lon="3.59414">
        <ele>829.59</ele>
        <time>2024-11-05T10:23:47.254Z</time>
      </trkpt>
      <trkpt lat="44.2474" lon="3.59443">
        <ele>833.98</ele>
        <time>2024-11-05T10:23:49.819Z</time>
      </trkpt>
      <trkpt lat="44.24718" lon="3.59464">
        <ele>837.5</ele>
        <time>2024-11-05T10:23:52.389Z</time>
      </trkpt>
      <trkpt lat="44.24686" lon="3.59482">
        <ele>841.28</ele>
        <time>2024-11-05T10:23:54.964Z</time>
      </trkpt>
      <trkpt lat="44.24664" lon="3.59475">
        <ele>843.61</ele>
        <time>2024-11-05T10:23:57.543Z</time>
      </trkpt>
      <trkpt lat="44.24649" lon="3.59477">
        <ele>845.15</ele>
        <time>2024-11-05T10:24:00.124Z</time>
      </trkpt>
      <trkpt lat="44.24633" lon="3.59484">
        <ele>846.77</ele>
        <time>2024-11-05T10:24:02.708Z</time>
      </trkpt>
      <trkpt lat="44.24618" lon="3.59506">
        <ele>848.73</ele>
        <time>2024-11-05T10:24:05.295Z</time>
      </trkpt>
      <trkpt lat="44.24613" lon="3.5952">
        <ele>849.59</ele>
        <time>2024-11-05T10:24:07.884Z</time>
      </trkpt>
      <trkpt lat="44.24596" lon="3.59571">
        <ele>851.39</ele>
        <time>2024-11-05T10:24:10.480Z</time>
      </trkpt>
      <trkpt lat="44.24575" lon="3.59619">
        <ele>853.18</ele>
        <time>2024-11-05T10:24:13.082Z</time>
      </trkpt>
      <trkpt lat="44.24562" lon="3.59674">
        <ele>855.57</ele>
        <time>2024-11-05T10:24:15.691Z</time>
      </trkpt>
      <trkpt lat="44.2455" lon="3.59767">
        <ele>858.39</ele>
        <time>2024-11-05T10:24:18.311Z</time>
      </trkpt>
      <trkpt lat="44.24537" lon="3.59834">
        <ele>860.49</ele>
        <time>2024-11-05T10:24:20.939Z</time>
      </trkpt>
      <trkpt lat="44.24527" lon="3.59912">
        <ele>863</ele>
        <time>2024-11-05T10:24:23.576Z</time>
      </trkpt>
      <trkpt lat="44.2453" lon="3.59976">
        <ele>865.46</ele>
        <time>2024-11-05T10:24:26.220Z</time>
      </trkpt>
      <trkpt lat="44.24529" lon="3.60002">
        <ele>866.4</ele>
        <time>2024-11-05T10:24:28.867Z</time>
      </trkpt>
      <trkpt lat="44.24518" lon="3.60102">
        <ele>870.55</ele>
        <time>2024-11-05T10:24:31.526Z</time>
      </trkpt>
      <trkpt lat="44.2452" lon="3.6013">
        <ele>871.64</ele>
        <time>2024-11-05T10:24:34.188Z</time>
      </trkpt>
      <trkpt lat="44.24527" lon="3.60148">
        <ele>872.43</ele>
        <time>2024-11-05T10:24:36.852Z</time>
      </trkpt>
      <trkpt lat="44.24546" lon="3.60187">
        <ele>874.51</ele>
        <time>2024-11-05T10:24:39.522Z</time>
      </trkpt>
      <trkpt lat="44.24576" lon="3.60249">
        <ele>878.8</ele>
        <time>2024-11-05T10:24:42.200Z</time>
      </trkpt>
      <trkpt lat="44.24587" lon="3.60286">
        <ele>880.66</ele>
        <time>2024-11-05T10:24:44.883Z</time>
      </trkpt>
      <trkpt lat="44.24592" lon="3.60313">
        <ele>881.79</ele>
        <time>2024-11-05T10:24:47.569Z</time>
      </trkpt>
      <trkpt lat="44.24603" lon="3.60408">
        <ele>885.82</ele>
        <time>2024-11-05T10:24:50.266Z</time>
      </trkpt>
      <trkpt lat="44.24609" lon="3.60457">
        <ele>887.58</ele>
        <time>2024-11-05T10:24:52.969Z</time>
      </trkpt>
      <trkpt lat="44.24625" lon="3.60515">
        <ele>889.52</ele>
        <time>2024-11-05T10:24:55.679Z</time>
      </trkpt>
      <trkpt lat="44.24643" lon="3.60579">
        <ele>891.97</ele>
        <time>2024-11-05T10:24:58.397Z</time>
      </trkpt>
      <trkpt lat="44.24661" lon="3.60644">
        <ele>895.08</ele>
        <time>2024-11-05T10:25:01.123Z</time>
      </trkpt>
      <trkpt lat="44.24668" lon="3.60678">
        <ele>896.86</ele>
        <time>2024-11-05T10:25:03.853Z</time>
      </trkpt>
      <trkpt lat="44.24671" lon="3.60696">
        <ele>898</ele>
        <time>2024-11-05T10:25:06.585Z</time>
      </trkpt>
      <trkpt lat="44.24681" lon="3.60746">
        <ele>902.27</ele>
        <time>2024-11-05T10:25:09.323Z</time>
      </trkpt>
      <trkpt lat="44.24688" lon="3.6077">
        <ele>904.26</ele>
        <time>2024-11-05T10:25:12.064Z</time>
      </trkpt>
      <trkpt lat="44.2469" lon="3.60796">
        <ele>906.06</ele>
        <time>2024-11-05T10:25:14.808Z</time>
      </trkpt>
      <trkpt lat="44.24687" lon="3.60821">
        <ele>907.63</ele>
        <time>2024-11-05T10:25:17.555Z</time>
      </trkpt>
      <trkpt lat="44.24676" lon="3.60854">
        <ele>909.72</ele>
        <time>2024-11-05T10:25:20.306Z</time>
      </trkpt>
      <trkpt lat="44.24657" lon="3.60896">
        <ele>912.88</ele>
        <time>2024-11-05T10:25:23.063Z</time>
      </trkpt>
      <trkpt lat="44.24642" lon="3.60931">
        <ele>915.16</ele>
        <time>2024-11-05T10:25:25.825Z</time>
      </trkpt>
      <trkpt lat="44.24628" lon="3.60956">
        <ele>916.76</ele>
        <time>2024-11-05T10:25:28.590Z</time>
      </trkpt>
      <trkpt lat="44.24613" lon="3.60984">
        <ele>919.05</ele>
        <time>2024-11-05T10:25:31.359Z</time>
      </trkpt>
      <trkpt lat="44.24592" lon="3.61049">
        <ele>924.2</ele>
        <time>2024-11-05T10:25:34.137Z</time>
      </trkpt>
      <trkpt lat="44.24584" lon="3.61072">
        <ele>926.21</ele>
        <time>2024-11-05T10:25:36.917Z</time>
      </trkpt>
      <trkpt lat="44.2455" lon="3.61178">
        <ele>936.36</ele>
        <time>2024-11-05T10:25:39.711Z</time>
      </trkpt>
      <trkpt lat="44.24517" lon="3.61257">
        <ele>944.62</ele>
        <time>2024-11-05T10:25:42.515Z</time>
      </trkpt>
      <trkpt lat="44.24491" lon="3.61306">
        <ele>950.64</ele>
        <time>2024-11-05T10:25:45.326Z</time>
      </trkpt>
      <trkpt lat="44.24451" lon="3.6137">
        <ele>959.22</ele>
        <time>2024-11-05T10:25:48.147Z</time>
      </trkpt>
      <trkpt lat="44.24409" lon="3.61422">
        <ele>966.3</ele>
        <time>2024-11-05T10:25:50.977Z</time>
      </trkpt>
      <trkpt lat="44.24394" lon="3.61435">
        <ele>968.4</ele>
        <time>2024-11-05T10:25:53.810Z</time>
      </trkpt>
      <trkpt lat="44.24348" lon="3.61464">
        <ele>974.42</ele>
        <time>2024-11-05T10:25:56.651Z</time>
      </trkpt>
      <trkpt lat="44.24326" lon="3.61478">
        <ele>977.54</ele>
        <time>2024-11-05T10:25:59.496Z</time>
      </trkpt>
      <trkpt lat="44.24291" lon="3.61514">
        <ele>983.34</ele>
        <time>2024-11-05T10:26:02.348Z</time>
      </trkpt>
      <trkpt lat="44.24281" lon="3.61521">
        <ele>984.7</ele>
        <time>2024-11-05T10:26:05.202Z</time>
      </trkpt>
      <trkpt lat="44.24266" lon="3.61522">
        <ele>986.42</ele>
        <time>2024-11-05T10:26:08.058Z</time>
      </trkpt>
      <trkpt lat="44.24193" lon="3.61517">
        <ele>994.5</ele>
        <time>2024-11-05T10:26:10.926Z</time>
      </trkpt>
      <trkpt lat="44.24161" lon="3.61523">
        <ele>998.3</ele>
        <time>2024-11-05T10:26:13.799Z</time>
      </trkpt>
      <trkpt lat="44.2415" lon="3.61521">
        <ele>999.61</ele>
        <time>2024-11-05T10:26:16.674Z</time>
      </trkpt>
      <trkpt lat="44.2414" lon="3.61515">
        <ele>1000.96</ele>
        <time>2024-11-05T10:26:19.550Z</time>
      </trkpt>
      <trkpt lat="44.24121" lon="3.61496">
        <ele>1004.06</ele>
        <time>2024-11-05T10:26:22.430Z</time>
      </trkpt>
      <trkpt lat="44.24119" lon="3.61498">
        <ele>1004.4</ele>
        <time>2024-11-05T10:26:25.311Z</time>
      </trkpt>
      <trkpt lat="44.24116" lon="3.615">
        <ele>1004.7</ele>
        <time>2024-11-05T10:26:28.192Z</time>
      </trkpt>
      <trkpt lat="44.24114" lon="3.61508">
        <ele>1005.27</ele>
        <time>2024-11-05T10:26:31.074Z</time>
      </trkpt>
      <trkpt lat="44.24115" lon="3.61514">
        <ele>1005.61</ele>
        <time>2024-11-05T10:26:33.957Z</time>
      </trkpt>
      <trkpt lat="44.24117" lon="3.61523">
        <ele>1006.02</ele>
        <time>2024-11-05T10:26:36.841Z</time>
      </trkpt>
      <trkpt lat="44.2413" lon="3.61556">
        <ele>1007.47</ele>
        <time>2024-11-05T10:26:39.729Z</time>
      </trkpt>
      <trkpt lat="44.24132" lon="3.6157">
        <ele>1008.06</ele>
        <time>2024-11-05T10:26:42.619Z</time>
      </trkpt>
      <trkpt lat="44.24126" lon="3.61585">
        <ele>1008.72</ele>
        <time>2024-11-05T10:26:45.511Z</time>
      </trkpt>
      <trkpt lat="44.24114" lon="3.61599">
        <ele>1009.36</ele>
        <time>2024-11-05T10:26:48.405Z</time>
      </trkpt>
      <trkpt lat="44.24094" lon="3.61613">
        <ele>1009.93</ele>
        <time>2024-11-05T10:26:51.303Z</time>
      </trkpt>
      <trkpt lat="44.24046" lon="3.61647">
        <ele>1010.42</ele>
        <time>2024-11-05T10:26:54.210Z</time>
      </trkpt>
      <trkpt lat="44.24038" lon="3.61655">
        <ele>1010.28</ele>
        <time>2024-11-05T10:26:57.118Z</time>
      </trkpt>
      <trkpt lat="44.24033" lon="3.61669">
        <ele>1010.16</ele>
        <time>2024-11-05T10:27:00.028Z</time>
      </trkpt>
      <trkpt lat="44.24059" lon="3.6167">
        <ele>1010.47</ele>
        <time>2024-11-05T10:27:02.942Z</time>
      </trkpt>
      <trkpt lat="44.24094" lon="3.61677">
        <ele>1010.94</ele>
        <time>2024-11-05T10:27:05.862Z</time>
      </trkpt>
      <trkpt lat="44.24116" lon="3.61688">
        <ele>1011.36</ele>
        <time>2024-11-05T10:27:08.785Z</time>
      </trkpt>
      <trkpt lat="44.24139" lon="3.61703">
        <ele>1011.88</ele>
        <time>2024-11-05T10:27:11.713Z</time>
      </trkpt>
      <trkpt lat="44.24163" lon="3.6173">
        <ele>1012.47</ele>
        <time>2024-11-05T10:27:14.645Z</time>
      </trkpt>
      <trkpt lat="44.24197" lon="3.61784">
        <ele>1013.47</ele>
        <time>2024-11-05T10:27:17.586Z</time>
      </trkpt>
      <trkpt lat="44.24229" lon="3.61834">
        <ele>1014.2</ele>
        <time>2024-11-05T10:27:20.534Z</time>
      </trkpt>
      <trkpt lat="44.24256" lon="3.61876">
        <ele>1015</ele>
        <time>2024-11-05T10:27:23.489Z</time>
      </trkpt>
      <trkpt lat="44.24269" lon="3.619">
        <ele>1015.37</ele>
        <time>2024-11-05T10:27:26.447Z</time>
      </trkpt>
      <trkpt lat="44.24285" lon="3.6193">
        <ele>1015.51</ele>
        <time>2024-11-05T10:27:29.410Z</time>
      </trkpt>
      <trkpt lat="44.24304" lon="3.61965">
        <ele>1015.36</ele>
        <time>2024-11-05T10:27:32.378Z</time>
      </trkpt>
      <trkpt lat="44.2432" lon="3.61994">
        <ele>1014.68</ele>
        <time>2024-11-05T10:27:35.350Z</time>
      </trkpt>
      <trkpt lat="44.24341" lon="3.62034">
        <ele>1013.46</ele>
        <time>2024-11-05T10:27:38.328Z</time>
      </trkpt>
      <trkpt lat="44.24378" lon="3.62103">
        <ele>1010.44</ele>
        <time>2024-11-05T10:27:41.315Z</time>
      </trkpt>
      <trkpt lat="44.24409" lon="3.62141">
        <ele>1008.49</ele>
        <time>2024-11-05T10:27:44.309Z</time>
      </trkpt>
      <trkpt lat="44.24435" lon="3.6216">
        <ele>1007.56</ele>
        <time>2024-11-05T10:27:47.308Z</time>
      </trkpt>
      <trkpt lat="44.2448" lon="3.6219">
        <ele>1006.3</ele>
        <time>2024-11-05T10:27:50.315Z</time>
      </trkpt>
      <trkpt lat="44.24503" lon="3.62203">
        <ele>1005.8</ele>
        <time>2024-11-05T10:27:53.326Z</time>
      </trkpt>
      <trkpt lat="44.24521" lon="3.6222">
        <ele>1005.6</ele>
        <time>2024-11-05T10:27:56.340Z</time>
      </trkpt>
      <trkpt lat="44.24565" lon="3.62284">
        <ele>1005.69</ele>
        <time>2024-11-05T10:27:59.364Z</time>
      </trkpt>
      <trkpt lat="44.24589" lon="3.6232">
        <ele>1006.09</ele>
        <time>2024-11-05T10:28:02.394Z</time>
      </trkpt>
      <trkpt lat="44.24613" lon="3.62356">
        <ele>1006.86</ele>
        <time>2024-11-05T10:28:05.430Z</time>
      </trkpt>
      <trkpt lat="44.2474" lon="3.62558">
        <ele>1014.62</ele>
        <time>2024-11-05T10:28:08.497Z</time>
      </trkpt>
      <trkpt lat="44.24763" lon="3.62583">
        <ele>1015.87</ele>
        <time>2024-11-05T10:28:11.568Z</time>
      </trkpt>
      <trkpt lat="44.24782" lon="3.62597">
        <ele>1016.91</ele>
        <time>2024-11-05T10:28:14.643Z</time>
      </trkpt>
      <trkpt lat="44.24801" lon="3.62605">
        <ele>1017.79</ele>
        <time>2024-11-05T10:28:17.721Z</time>
      </trkpt>
      <trkpt lat="44.24825" lon="3.62607">
        <ele>1018.75</ele>
        <time>2024-11-05T10:28:20.803Z</time>
      </trkpt>
      <trkpt lat="44.24846" lon="3.62604">
        <ele>1019.6</ele>
        <time>2024-11-05T10:28:23.888Z</time>
      </trkpt>
      <trkpt lat="44.24872" lon="3.62592">
        <ele>1020.43</ele>
        <time>2024-11-05T10:28:26.977Z</time>
      </trkpt>
      <trkpt lat="44.24881" lon="3.62586">
        <ele>1020.68</ele>
        <time>2024-11-05T10:28:30.068Z</time>
      </trkpt>
      <trkpt lat="44.24917" lon="3.62562">
        <ele>1021.42</ele>
        <time>2024-11-05T10:28:33.166Z</time>
      </trkpt>
      <trkpt lat="44.2495" lon="3.62541">
        <ele>1021.84</ele>
        <time>2024-11-05T10:28:36.269Z</time>
      </trkpt>
      <trkpt lat="44.25044" lon="3.62486">
        <ele>1022.35</ele>
        <time>2024-11-05T10:28:39.389Z</time>
      </trkpt>
      <trkpt lat="44.25157" lon="3.62421">
        <ele>1023.7</ele>
        <time>2024-11-05T10:28:42.528Z</time>
      </trkpt>
      <trkpt lat="44.25209" lon="3.62394">
        <ele>1024.39</ele>
        <time>2024-11-05T10:28:45.676Z</time>
      </trkpt>
      <trkpt lat="44.25261" lon="3.62371">
        <ele>1024.46</ele>
        <time>2024-11-05T10:28:48.833Z</time>
      </trkpt>
      <trkpt lat="44.25301" lon="3.62356">
        <ele>1024.11</ele>
        <time>2024-11-05T10:28:51.996Z</time>
      </trkpt>
      <trkpt lat="44.2551" lon="3.62298">
        <ele>1022.44</ele>
        <time>2024-11-05T10:28:55.194Z</time>
      </trkpt>
      <trkpt lat="44.25545" lon="3.62289">
        <ele>1021.73</ele>
        <time>2024-11-05T10:28:58.397Z</time>
      </trkpt>
      <trkpt lat="44.25572" lon="3.62281">
        <ele>1020.83</ele>
        <time>2024-11-05T10:29:01.605Z</time>
      </trkpt>
      <trkpt lat="44.25589" lon="3.62277">
        <ele>1019.84</ele>
        <time>2024-11-05T10:29:04.815Z</time>
      </trkpt>
      <trkpt lat="44.2565" lon="3.6226">
        <ele>1015.82</ele>
        <time>2024-11-05T10:29:08.035Z</time>
      </trkpt>
      <trkpt lat="44.25703" lon="3.62245">
        <ele>1012.07</ele>
        <time>2024-11-05T10:29:11.264Z</time>
      </trkpt>
      <trkpt lat="44.25733" lon="3.62237">
        <ele>1009.74</ele>
        <time>2024-11-05T10:29:14.498Z</time>
      </trkpt>
      <trkpt lat="44.25812" lon="3.62215">
        <ele>1003.22</ele>
        <time>2024-11-05T10:29:17.745Z</time>
      </trkpt>
      <trkpt lat="44.25863" lon="3.62201">
        <ele>998.22</ele>
        <time>2024-11-05T10:29:21.000Z</time>
      </trkpt>
      <trkpt lat="44.25885" lon="3.622">
        <ele>995.98</ele>
        <time>2024-11-05T10:29:24.259Z</time>
      </trkpt>
      <trkpt lat="44.25909" lon="3.62202">
        <ele>993.51</ele>
        <time>2024-11-05T10:29:27.521Z</time>
      </trkpt>
      <trkpt lat="44.25992" lon="3.62224">
        <ele>984.87</ele>
        <time>2024-11-05T10:29:30.797Z</time>
      </trkpt>
      <trkpt lat="44.2601" lon="3.62227">
        <ele>983.33</ele>
        <time>2024-11-05T10:29:34.076Z</time>
      </trkpt>
      <trkpt lat="44.26023" lon="3.62228">
        <ele>982.51</ele>
        <time>2024-11-05T10:29:37.357Z</time>
      </trkpt>
      <trkpt lat="44.26025" lon="3.62228">
        <ele>982.6</ele>
        <time>2024-11-05T10:29:40.638Z</time>
      </trkpt>
      <trkpt lat="44.26028" lon="3.62261">
        <ele>984.02</ele>
        <time>2024-11-05T10:29:43.923Z</time>
      </trkpt>
      <trkpt lat="44.26015" lon="3.62295">
        <ele>986.64</ele>
        <time>2024-11-05T10:29:47.213Z</time>
      </trkpt>
      <trkpt lat="44.26014" lon="3.62302">
        <ele>987.15</ele>
        <time>2024-11-05T10:29:50.503Z</time>
      </trkpt>
      <trkpt lat="44.26016" lon="3.62315">
        <ele>987.2</ele>
        <time>2024-11-05T10:29:53.795Z</time>
      </trkpt>
      <trkpt lat="44.26019" lon="3.62331">
        <ele>986.59</ele>
        <time>2024-11-05T10:29:57.089Z</time>
      </trkpt>
      <trkpt lat="44.26022" lon="3.62424">
        <ele>982.81</ele>
        <time>2024-11-05T10:30:00.393Z</time>
      </trkpt>
      <trkpt lat="44.26026" lon="3.62457">
        <ele>981.54</ele>
        <time>2024-11-05T10:30:03.701Z</time>
      </trkpt>
      <trkpt lat="44.26033" lon="3.62508">
        <ele>979.97</ele>
        <time>2024-11-05T10:30:07.015Z</time>
      </trkpt>
      <trkpt lat="44.26036" lon="3.62571">
        <ele>978.11</ele>
        <time>2024-11-05T10:30:10.337Z</time>
      </trkpt>
      <trkpt lat="44.2604" lon="3.6261">
        <ele>977.1</ele>
        <time>2024-11-05T10:30:13.663Z</time>
      </trkpt>
      <trkpt lat="44.26041" lon="3.62658">
        <ele>975.84</ele>
        <time>2024-11-05T10:30:16.995Z</time>
      </trkpt>
      <trkpt lat="44.2604" lon="3.62738">
        <ele>973.77</ele>
        <time>2024-11-05T10:30:20.336Z</time>
      </trkpt>
      <trkpt lat="44.26035" lon="3.62768">
        <ele>972.75</ele>
        <time>2024-11-05T10:30:23.680Z</time>
      </trkpt>
      <trkpt lat="44.26027" lon="3.62794">
        <ele>971.42</ele>
        <time>2024-11-05T10:30:27.028Z</time>
      </trkpt>
      <trkpt lat="44.2602" lon="3.62812">
        <ele>970.26</ele>
        <time>2024-11-05T10:30:30.378Z</time>
      </trkpt>
      <trkpt lat="44.25986" lon="3.62896">
        <ele>963.96</ele>
        <time>2024-11-05T10:30:33.739Z</time>
      </trkpt>
      <trkpt lat="44.25947" lon="3.62954">
        <ele>959.06</ele>
        <time>2024-11-05T10:30:37.109Z</time>
      </trkpt>
      <trkpt lat="44.25931" lon="3.62972">
        <ele>957.31</ele>
        <time>2024-11-05T10:30:40.482Z</time>
      </trkpt>
      <trkpt lat="44.25883" lon="3.63014">
        <ele>952.33</ele>
        <time>2024-11-05T10:30:43.865Z</time>
      </trkpt>
      <trkpt lat="44.25854" lon="3.63046">
        <ele>948.98</ele>
        <time>2024-11-05T10:30:47.253Z</time>
      </trkpt>
      <trkpt lat="44.25831" lon="3.63078">
        <ele>946.07</ele>
        <time>2024-11-05T10:30:50.647Z</time>
      </trkpt>
      <trkpt lat="44.25801" lon="3.63149">
        <ele>940.53</ele>
        <time>2024-11-05T10:30:54.050Z</time>
      </trkpt>
      <trkpt lat="44.25792" lon="3.63165">
        <ele>939.54</ele>
        <time>2024-11-05T10:30:57.455Z</time>
      </trkpt>
      <trkpt lat="44.25776" lon="3.63194">
        <ele>938</ele>
        <time>2024-11-05T10:31:00.865Z</time>
      </trkpt>
      <trkpt lat="44.25748" lon="3.63226">
        <ele>936.26</ele>
        <time>2024-11-05T10:31:04.280Z</time>
      </trkpt>
      <trkpt lat="44.25734" lon="3.63242">
        <ele>935.2</ele>
        <time>2024-11-05T10:31:07.698Z</time>
      </trkpt>
      <trkpt lat="44.25719" lon="3.6326">
        <ele>933.74</ele>
        <time>2024-11-05T10:31:11.120Z</time>
      </trkpt>
      <trkpt lat="44.25706" lon="3.63286">
        <ele>931.9</ele>
        <time>2024-11-05T10:31:14.545Z</time>
      </trkpt>
      <trkpt lat="44.25695" lon="3.63344">
        <ele>928.57</ele>
        <time>2024-11-05T10:31:17.977Z</time>
      </trkpt>
      <trkpt lat="44.2569" lon="3.63375">
        <ele>927.01</ele>
        <time>2024-11-05T10:31:21.413Z</time>
      </trkpt>
      <trkpt lat="44.25683" lon="3.63411">
        <ele>925.4</ele>
        <time>2024-11-05T10:31:24.853Z</time>
      </trkpt>
      <trkpt lat="44.2568" lon="3.63428">
        <ele>924.77</ele>
        <time>2024-11-05T10:31:28.295Z</time>
      </trkpt>
      <trkpt lat="44.25664" lon="3.63474">
        <ele>923.03</ele>
        <time>2024-11-05T10:31:31.743Z</time>
      </trkpt>
      <trkpt lat="44.25659" lon="3.63505">
        <ele>922.12</ele>
        <time>2024-11-05T10:31:35.195Z</time>
      </trkpt>
      <trkpt lat="44.25657" lon="3.63558">
        <ele>920.56</ele>
        <time>2024-11-05T10:31:38.653Z</time>
      </trkpt>
      <trkpt lat="44.25653" lon="3.63581">
        <ele>919.88</ele>
        <time>2024-11-05T10:31:42.113Z</time>
      </trkpt>
      <trkpt lat="44.25643" lon="3.63607">
        <ele>919.17</ele>
        <time>2024-11-05T10:31:45.577Z</time>
      </trkpt>
      <trkpt lat="44.25631" lon="3.63641">
        <ele>918.56</ele>
        <time>2024-11-05T10:31:49.045Z</time>
      </trkpt>
      <trkpt lat="44.25622" lon="3.63663">
        <ele>918.39</ele>
        <time>2024-11-05T10:31:52.516Z</time>
      </trkpt>
      <trkpt lat="44.25585" lon="3.63756">
        <ele>917.01</ele>
        <time>2024-11-05T10:31:55.999Z</time>
      </trkpt>
      <trkpt lat="44.2557" lon="3.63786">
        <ele>916.88</ele>
        <time>2024-11-05T10:31:59.486Z</time>
      </trkpt>
      <trkpt lat="44.25559" lon="3.638">
        <ele>917.01</ele>
        <time>2024-11-05T10:32:02.976Z</time>
      </trkpt>
      <trkpt lat="44.25545" lon="3.63812">
        <ele>917.28</ele>
        <time>2024-11-05T10:32:06.468Z</time>
      </trkpt>
      <trkpt lat="44.25501" lon="3.6385">
        <ele>918.8</ele>
        <time>2024-11-05T10:32:09.969Z</time>
      </trkpt>
      <trkpt lat="44.25483" lon="3.63881">
        <ele>919.54</ele>
        <time>2024-11-05T10:32:13.474Z</time>
      </trkpt>
      <trkpt lat="44.25468" lon="3.63901">
        <ele>919.9</ele>
        <time>2024-11-05T10:32:16.983Z</time>
      </trkpt>
      <trkpt lat="44.25449" lon="3.6392">
        <ele>920.17</ele>
        <time>2024-11-05T10:32:20.495Z</time>
      </trkpt>
      <trkpt lat="44.25433" lon="3.63932">
        <ele>920.38</ele>
        <time>2024-11-05T10:32:24.010Z</time>
      </trkpt>
      <trkpt lat="44.25409" lon="3.6395">
        <ele>920.39</ele>
        <time>2024-11-05T10:32:27.530Z</time>
      </trkpt>
      <trkpt lat="44.25357" lon="3.63986">
        <ele>919.48</ele>
        <time>2024-11-05T10:32:31.059Z</time>
      </trkpt>
      <trkpt lat="44.2532" lon="3.6402">
        <ele>918.57</ele>
        <time>2024-11-05T10:32:34.595Z</time>
      </trkpt>
      <trkpt lat="44.25305" lon="3.64034">
        <ele>918.09</ele>
        <time>2024-11-05T10:32:38.134Z</time>
      </trkpt>
      <trkpt lat="44.25279" lon="3.64058">
        <ele>916.71</ele>
        <time>2024-11-05T10:32:41.678Z</time>
      </trkpt>
      <trkpt lat="44.25256" lon="3.64078">
        <ele>915.33</ele>
        <time>2024-11-05T10:32:45.226Z</time>
      </trkpt>
      <trkpt lat="44.25228" lon="3.641">
        <ele>913.31</ele>
        <time>2024-11-05T10:32:48.779Z</time>
      </trkpt>
      <trkpt lat="44.25213" lon="3.64112">
        <ele>911.75</ele>
        <time>2024-11-05T10:32:52.335Z</time>
      </trkpt>
      <trkpt lat="44.25194" lon="3.64124">
        <ele>909.57</ele>
        <time>2024-11-05T10:32:55.895Z</time>
      </trkpt>
      <trkpt lat="44.25181" lon="3.64126">
        <ele>908.11</ele>
        <time>2024-11-05T10:32:59.457Z</time>
      </trkpt>
      <trkpt lat="44.25149" lon="3.64121">
        <ele>904.85</ele>
        <time>2024-11-05T10:33:03.024Z</time>
      </trkpt>
      <trkpt lat="44.25136" lon="3.64125">
        <ele>903.78</ele>
        <time>2024-11-05T10:33:06.593Z</time>
      </trkpt>
      <trkpt lat="44.25124" lon="3.64134">
        <ele>902.9</ele>
        <time>2024-11-05T10:33:10.164Z</time>
      </trkpt>
      <trkpt lat="44.25117" lon="3.64144">
        <ele>902.36</ele>
        <time>2024-11-05T10:33:13.737Z</time>
      </trkpt>
      <trkpt lat="44.2511" lon="3.64161">
        <ele>901.87</ele>
        <time>2024-11-05T10:33:17.312Z</time>
      </trkpt>
      <trkpt lat="44.25106" lon="3.64185">
        <ele>901.56</ele>
        <time>2024-11-05T10:33:20.890Z</time>
      </trkpt>
      <trkpt lat="44.25103" lon="3.64203">
        <ele>901.51</ele>
        <time>2024-11-05T10:33:24.470Z</time>
      </trkpt>
      <trkpt lat="44.25073" lon="3.64312">
        <ele>901.77</ele>
        <time>2024-11-05T10:33:28.063Z</time>
      </trkpt>
      <trkpt lat="44.25066" lon="3.6433">
        <ele>901.76</ele>
        <time>2024-11-05T10:33:31.659Z</time>
      </trkpt>
      <trkpt lat="44.25054" lon="3.64349">
        <ele>901.55</ele>
        <time>2024-11-05T10:33:35.258Z</time>
      </trkpt>
      <trkpt lat="44.25033" lon="3.64382">
        <ele>900.79</ele>
        <time>2024-11-05T10:33:38.862Z</time>
      </trkpt>
      <trkpt lat="44.25009" lon="3.64419">
        <ele>900.19</ele>
        <time>2024-11-05T10:33:42.471Z</time>
      </trkpt>
      <trkpt lat="44.24994" lon="3.64442">
        <ele>900.24</ele>
        <time>2024-11-05T10:33:46.084Z</time>
      </trkpt>
      <trkpt lat="44.24983" lon="3.64462">
        <ele>900.68</ele>
        <time>2024-11-05T10:33:49.700Z</time>
      </trkpt>
      <trkpt lat="44.24975" lon="3.64477">
        <ele>901.3</ele>
        <time>2024-11-05T10:33:53.318Z</time>
      </trkpt>
      <trkpt lat="44.24955" lon="3.64508">
        <ele>903.25</ele>
        <time>2024-11-05T10:33:56.941Z</time>
      </trkpt>
      <trkpt lat="44.24923" lon="3.64537">
        <ele>906.02</ele>
        <time>2024-11-05T10:34:00.570Z</time>
      </trkpt>
      <trkpt lat="44.24912" lon="3.64552">
        <ele>907.18</ele>
        <time>2024-11-05T10:34:04.201Z</time>
      </trkpt>
      <trkpt lat="44.24889" lon="3.64599">
        <ele>910.48</ele>
        <time>2024-11-05T10:34:07.839Z</time>
      </trkpt>
      <trkpt lat="44.24873" lon="3.64623">
        <ele>912.64</ele>
        <time>2024-11-05T10:34:11.481Z</time>
      </trkpt>
      <trkpt lat="44.24868" lon="3.64638">
        <ele>913.79</ele>
        <time>2024-11-05T10:34:15.125Z</time>
      </trkpt>
      <trkpt lat="44.24863" lon="3.64676">
        <ele>916.46</ele>
        <time>2024-11-05T10:34:18.773Z</time>
      </trkpt>
      <trkpt lat="44.24851" lon="3.64712">
        <ele>919.03</ele>
        <time>2024-11-05T10:34:22.426Z</time>
      </trkpt>
      <trkpt lat="44.24843" lon="3.64735">
        <ele>920.29</ele>
        <time>2024-11-05T10:34:26.081Z</time>
      </trkpt>
      <trkpt lat="44.24834" lon="3.64763">
        <ele>921.25</ele>
        <time>2024-11-05T10:34:29.740Z</time>
      </trkpt>
      <trkpt lat="44.24826" lon="3.64786">
        <ele>921.55</ele>
        <time>2024-11-05T10:34:33.402Z</time>
      </trkpt>
      <trkpt lat="44.24822" lon="3.64797">
        <ele>921.53</ele>
        <time>2024-11-05T10:34:37.065Z</time>
      </trkpt>
      <trkpt lat="44.24815" lon="3.64827">
        <ele>921.23</ele>
        <time>2024-11-05T10:34:40.732Z</time>
      </trkpt>
      <trkpt lat="44.24809" lon="3.64851">
        <ele>920.57</ele>
        <time>2024-11-05T10:34:44.402Z</time>
      </trkpt>
      <trkpt lat="44.24806" lon="3.64948">
        <ele>917.47</ele>
        <time>2024-11-05T10:34:48.083Z</time>
      </trkpt>
      <trkpt lat="44.24804" lon="3.64991">
        <ele>916.52</ele>
        <time>2024-11-05T10:34:51.769Z</time>
      </trkpt>
      <trkpt lat="44.24802" lon="3.65012">
        <ele>916.24</ele>
        <time>2024-11-05T10:34:55.458Z</time>
      </trkpt>
      <trkpt lat="44.2477" lon="3.65051">
        <ele>915.66</ele>
        <time>2024-11-05T10:34:59.153Z</time>
      </trkpt>
      <trkpt lat="44.24738" lon="3.6509">
        <ele>915.7</ele>
        <time>2024-11-05T10:35:02.855Z</time>
      </trkpt>
      <trkpt lat="44.24678" lon="3.6513">
        <ele>916.63</ele>
        <time>2024-11-05T10:35:06.568Z</time>
      </trkpt>
      <trkpt lat="44.24647" lon="3.65154">
        <ele>917.05</ele>
        <time>2024-11-05T10:35:10.286Z</time>
      </trkpt>
      <trkpt lat="44.24609" lon="3.65195">
        <ele>917.84</ele>
        <time>2024-11-05T10:35:14.012Z</time>
      </trkpt>
      <trkpt lat="44.24589" lon="3.65228">
        <ele>918.21</ele>
        <time>2024-11-05T10:35:17.743Z</time>
      </trkpt>
      <trkpt lat="44.24566" lon="3.6525">
        <ele>918.5</ele>
        <time>2024-11-05T10:35:21.479Z</time>
      </trkpt>
      <trkpt lat="44.24549" lon="3.65274">
        <ele>918.99</ele>
        <time>2024-11-05T10:35:25.218Z</time>
      </trkpt>
      <trkpt lat="44.24534" lon="3.65294">
        <ele>919.88</ele>
        <time>2024-11-05T10:35:28.961Z</time>
      </trkpt>
      <trkpt lat="44.24522" lon="3.6531">
        <ele>920.37</ele>
        <time>2024-11-05T10:35:32.706Z</time>
      </trkpt>
      <trkpt lat="44.24489" lon="3.6535">
        <ele>921.2</ele>
        <time>2024-11-05T10:35:36.459Z</time>
      </trkpt>
      <trkpt lat="44.2447" lon="3.65369">
        <ele>921.48</ele>
        <time>2024-11-05T10:35:40.215Z</time>
      </trkpt>
      <trkpt lat="44.2446" lon="3.65384">
        <ele>921.66</ele>
        <time>2024-11-05T10:35:43.974Z</time>
      </trkpt>
      <trkpt lat="44.24427" lon="3.65435">
        <ele>924.33</ele>
        <time>2024-11-05T10:35:47.740Z</time>
      </trkpt>
      <trkpt lat="44.24415" lon="3.6546">
        <ele>924.95</ele>
        <time>2024-11-05T10:35:51.510Z</time>
      </trkpt>
      <trkpt lat="44.24401" lon="3.65508">
        <ele>925.29</ele>
        <time>2024-11-05T10:35:55.286Z</time>
      </trkpt>
      <trkpt lat="44.24395" lon="3.6552">
        <ele>925.38</ele>
        <time>2024-11-05T10:35:59.064Z</time>
      </trkpt>
      <trkpt lat="44.24393" lon="3.65524">
        <ele>925.2</ele>
        <time>2024-11-05T10:36:02.842Z</time>
      </trkpt>
      <trkpt lat="44.24386" lon="3.65524">
        <ele>924.82</ele>
        <time>2024-11-05T10:36:06.621Z</time>
      </trkpt>
      <trkpt lat="44.24365" lon="3.65543">
        <ele>923.54</ele>
        <time>2024-11-05T10:36:10.404Z</time>
      </trkpt>
      <trkpt lat="44.24327" lon="3.65575">
        <ele>921.6</ele>
        <time>2024-11-05T10:36:14.194Z</time>
      </trkpt>
      <trkpt lat="44.24292" lon="3.65606">
        <ele>919.98</ele>
        <time>2024-11-05T10:36:17.991Z</time>
      </trkpt>
      <trkpt lat="44.24271" lon="3.65621">
        <ele>919.02</ele>
        <time>2024-11-05T10:36:21.792Z</time>
      </trkpt>
      <trkpt lat="44.24253" lon="3.65629">
        <ele>918.28</ele>
        <time>2024-11-05T10:36:25.596Z</time>
      </trkpt>
      <trkpt lat="44.24233" lon="3.65633">
        <ele>917.41</ele>
        <time>2024-11-05T10:36:29.403Z</time>
      </trkpt>
      <trkpt lat="44.24226" lon="3.65629">
        <ele>917.04</ele>
        <time>2024-11-05T10:36:33.211Z</time>
      </trkpt>
      <trkpt lat="44.24219" lon="3.65619">
        <ele>916.53</ele>
        <time>2024-11-05T10:36:37.021Z</time>
      </trkpt>
      <trkpt lat="44.24215" lon="3.65607">
        <ele>916</ele>
        <time>2024-11-05T10:36:40.832Z</time>
      </trkpt>
      <trkpt lat="44.24203" lon="3.65482">
        <ele>909.94</ele>
        <time>2024-11-05T10:36:44.658Z</time>
      </trkpt>
      <trkpt lat="44.24198" lon="3.65433">
        <ele>907.39</ele>
        <time>2024-11-05T10:36:48.490Z</time>
      </trkpt>
      <trkpt lat="44.24194" lon="3.65389">
        <ele>905.55</ele>
        <time>2024-11-05T10:36:52.327Z</time>
      </trkpt>
      <trkpt lat="44.24185" lon="3.65365">
        <ele>904.49</ele>
        <time>2024-11-05T10:36:56.167Z</time>
      </trkpt>
      <trkpt lat="44.24176" lon="3.6536">
        <ele>903.92</ele>
        <time>2024-11-05T10:37:00.008Z</time>
      </trkpt>
      <trkpt lat="44.24168" lon="3.65362">
        <ele>903.44</ele>
        <time>2024-11-05T10:37:03.851Z</time>
      </trkpt>
      <trkpt lat="44.24159" lon="3.65372">
        <ele>902.73</ele>
        <time>2024-11-05T10:37:07.695Z</time>
      </trkpt>
      <trkpt lat="44.24124" lon="3.65445">
        <ele>898.92</ele>
        <time>2024-11-05T10:37:11.550Z</time>
      </trkpt>
      <trkpt lat="44.24118" lon="3.65453">
        <ele>898.47</ele>
        <time>2024-11-05T10:37:15.406Z</time>
      </trkpt>
      <trkpt lat="44.24107" lon="3.6546">
        <ele>897.81</ele>
        <time>2024-11-05T10:37:19.264Z</time>
      </trkpt>
      <trkpt lat="44.24095" lon="3.6546">
        <ele>897.03</ele>
        <time>2024-11-05T10:37:23.124Z</time>
      </trkpt>
      <trkpt lat="44.24085" lon="3.65453">
        <ele>896.22</ele>
        <time>2024-11-05T10:37:26.986Z</time>
      </trkpt>
      <trkpt lat="44.24065" lon="3.65421">
        <ele>894.04</ele>
        <time>2024-11-05T10:37:30.852Z</time>
      </trkpt>
      <trkpt lat="44.24035" lon="3.6536">
        <ele>891.2</ele>
        <time>2024-11-05T10:37:34.727Z</time>
      </trkpt>
      <trkpt lat="44.24022" lon="3.65353">
        <ele>890.31</ele>
        <time>2024-11-05T10:37:38.604Z</time>
      </trkpt>
      <trkpt lat="44.2401" lon="3.65355">
        <ele>889.44</ele>
        <time>2024-11-05T10:37:42.483Z</time>
      </trkpt>
      <trkpt lat="44.24001" lon="3.65363">
        <ele>888.66</ele>
        <time>2024-11-05T10:37:46.364Z</time>
      </trkpt>
      <trkpt lat="44.23994" lon="3.65375">
        <ele>887.91</ele>
        <time>2024-11-05T10:37:50.247Z</time>
      </trkpt>
      <trkpt lat="44.23972" lon="3.65429">
        <ele>885.44</ele>
        <time>2024-11-05T10:37:54.137Z</time>
      </trkpt>
      <trkpt lat="44.23953" lon="3.65454">
        <ele>884.04</ele>
        <time>2024-11-05T10:37:58.031Z</time>
      </trkpt>
      <trkpt lat="44.23943" lon="3.65457">
        <ele>883.49</ele>
        <time>2024-11-05T10:38:01.927Z</time>
      </trkpt>
      <trkpt lat="44.23934" lon="3.65454">
        <ele>882.94</ele>
        <time>2024-11-05T10:38:05.824Z</time>
      </trkpt>
      <trkpt lat="44.23921" lon="3.65442">
        <ele>881.98</ele>
        <time>2024-11-05T10:38:09.723Z</time>
      </trkpt>
      <trkpt lat="44.23908" lon="3.65437">
        <ele>881.14</ele>
        <time>2024-11-05T10:38:13.625Z</time>
      </trkpt>
      <trkpt lat="44.23892" lon="3.65439">
        <ele>880.15</ele>
        <time>2024-11-05T10:38:17.529Z</time>
      </trkpt>
      <trkpt lat="44.23879" lon="3.65443">
        <ele>879.37</ele>
        <time>2024-11-05T10:38:21.435Z</time>
      </trkpt>
      <trkpt lat="44.23854" lon="3.6546">
        <ele>877.83</ele>
        <time>2024-11-05T10:38:25.346Z</time>
      </trkpt>
      <trkpt lat="44.23846" lon="3.65457">
        <ele>877.31</ele>
        <time>2024-11-05T10:38:29.258Z</time>
      </trkpt>
      <trkpt lat="44.23839" lon="3.65451">
        <ele>876.71</ele>
        <time>2024-11-05T10:38:33.171Z</time>
      </trkpt>
      <trkpt lat="44.23827" lon="3.65429">
        <ele>875.25</ele>
        <time>2024-11-05T10:38:37.088Z</time>
      </trkpt>
      <trkpt lat="44.23805" lon="3.65389">
        <ele>873.28</ele>
        <time>2024-11-05T10:38:41.010Z</time>
      </trkpt>
      <trkpt lat="44.23793" lon="3.65371">
        <ele>872.33</ele>
        <time>2024-11-05T10:38:44.935Z</time>
      </trkpt>
      <trkpt lat="44.23791" lon="3.65369">
        <ele>872.17</ele>
        <time>2024-11-05T10:38:48.861Z</time>
      </trkpt>
      <trkpt lat="44.2378" lon="3.65365">
        <ele>871.34</ele>
        <time>2024-11-05T10:38:52.788Z</time>
      </trkpt>
      <trkpt lat="44.23767" lon="3.65368">
        <ele>870.33</ele>
        <time>2024-11-05T10:38:56.718Z</time>
      </trkpt>
      <trkpt lat="44.23763" lon="3.65371">
        <ele>869.97</ele>
        <time>2024-11-05T10:39:00.648Z</time>
      </trkpt>
      <trkpt lat="44.23744" lon="3.65383">
        <ele>868.54</ele>
        <time>2024-11-05T10:39:04.582Z</time>
      </trkpt>
      <trkpt lat="44.23723" lon="3.65401">
        <ele>867.04</ele>
        <time>2024-11-05T10:39:08.520Z</time>
      </trkpt>
      <trkpt lat="44.2371" lon="3.65406">
        <ele>866.15</ele>
        <time>2024-11-05T10:39:12.460Z</time>
      </trkpt>
      <trkpt lat="44.23696" lon="3.65406">
        <ele>865.23</ele>
        <time>2024-11-05T10:39:16.402Z</time>
      </trkpt>
      <trkpt lat="44.23682" lon="3.65411">
        <ele>864.31</ele>
        <time>2024-11-05T10:39:20.346Z</time>
      </trkpt>
      <trkpt lat="44.23648" lon="3.65446">
        <ele>861.56</ele>
        <time>2024-11-05T10:39:24.297Z</time>
      </trkpt>
      <trkpt lat="44.23638" lon="3.65461">
        <ele>860.8</ele>
        <time>2024-11-05T10:39:28.250Z</time>
      </trkpt>
      <trkpt lat="44.2362" lon="3.65506">
        <ele>859.01</ele>
        <time>2024-11-05T10:39:32.209Z</time>
      </trkpt>
      <trkpt lat="44.23613" lon="3.65516">
        <ele>858.47</ele>
        <time>2024-11-05T10:39:36.170Z</time>
      </trkpt>
      <trkpt lat="44.23605" lon="3.65523">
        <ele>857.88</ele>
        <time>2024-11-05T10:39:40.132Z</time>
      </trkpt>
      <trkpt lat="44.23596" lon="3.65524">
        <ele>857.25</ele>
        <time>2024-11-05T10:39:44.096Z</time>
      </trkpt>
      <trkpt lat="44.23566" lon="3.65513">
        <ele>854.97</ele>
        <time>2024-11-05T10:39:48.065Z</time>
      </trkpt>
      <trkpt lat="44.23557" lon="3.65512">
        <ele>854.33</ele>
        <time>2024-11-05T10:39:52.035Z</time>
      </trkpt>
      <trkpt lat="44.23549" lon="3.65514">
        <ele>853.77</ele>
        <time>2024-11-05T10:39:56.007Z</time>
      </trkpt>
      <trkpt lat="44.2351" lon="3.65537">
        <ele>851.09</ele>
        <time>2024-11-05T10:39:59.985Z</time>
      </trkpt>
      <trkpt lat="44.23503" lon="3.65546">
        <ele>850.6</ele>
        <time>2024-11-05T10:40:03.965Z</time>
      </trkpt>
      <trkpt lat="44.23493" lon="3.65566">
        <ele>849.63</ele>
        <time>2024-11-05T10:40:07.948Z</time>
      </trkpt>
      <trkpt lat="44.23485" lon="3.65576">
        <ele>848.95</ele>
        <time>2024-11-05T10:40:11.932Z</time>
      </trkpt>
      <trkpt lat="44.23475" lon="3.65582">
        <ele>848.15</ele>
        <time>2024-11-05T10:40:15.918Z</time>
      </trkpt>
      <trkpt lat="44.23447" lon="3.65586">
        <ele>846.01</ele>
        <time>2024-11-05T10:40:19.909Z</time>
      </trkpt>
      <trkpt lat="44.23424" lon="3.6559">
        <ele>844.59</ele>
        <time>2024-11-05T10:40:23.903Z</time>
      </trkpt>
      <trkpt lat="44.23412" lon="3.65596">
        <ele>843.71</ele>
        <time>2024-11-05T10:40:27.899Z</time>
      </trkpt>
      <trkpt lat="44.23403" lon="3.65604">
        <ele>842.97</ele>
        <time>2024-11-05T10:40:31.897Z</time>
      </trkpt>
      <trkpt lat="44.23374" lon="3.6564">
        <ele>840.34</ele>
        <time>2024-11-05T10:40:35.901Z</time>
      </trkpt>
      <trkpt lat="44.23344" lon="3.65678">
        <ele>837.85</ele>
        <time>2024-11-05T10:40:39.912Z</time>
      </trkpt>
      <trkpt lat="44.23329" lon="3.65692">
        <ele>836.71</ele>
        <time>2024-11-05T10:40:43.926Z</time>
      </trkpt>
      <trkpt lat="44.23273" lon="3.65722">
        <ele>832.53</ele>
        <time>2024-11-05T10:40:47.949Z</time>
      </trkpt>
      <trkpt lat="44.23203" lon="3.65743">
        <ele>828.43</ele>
        <time>2024-11-05T10:40:51.984Z</time>
      </trkpt>
      <trkpt lat="44.23159" lon="3.65769">
        <ele>826.11</ele>
        <time>2024-11-05T10:40:56.026Z</time>
      </trkpt>
      <trkpt lat="44.23145" lon="3.65777">
        <ele>825.55</ele>
        <time>2024-11-05T10:41:00.071Z</time>
      </trkpt>
      <trkpt lat="44.23103" lon="3.65795">
        <ele>823.88</ele>
        <time>2024-11-05T10:41:04.123Z</time>
      </trkpt>
      <trkpt lat="44.23097" lon="3.65807">
        <ele>823.39</ele>
        <time>2024-11-05T10:41:08.177Z</time>
      </trkpt>
      <trkpt lat="44.23092" lon="3.65803">
        <ele>823.11</ele>
        <time>2024-11-05T10:41:12.231Z</time>
      </trkpt>
      <trkpt lat="44.23091" lon="3.65795">
        <ele>822.84</ele>
        <time>2024-11-05T10:41:16.286Z</time>
      </trkpt>
      <trkpt lat="44.23098" lon="3.65787">
        <ele>822.27</ele>
        <time>2024-11-05T10:41:20.343Z</time>
      </trkpt>
      <trkpt lat="44.23109" lon="3.65782">
        <ele>821.58</ele>
        <time>2024-11-05T10:41:24.402Z</time>
      </trkpt>
      <trkpt lat="44.23134" lon="3.65775">
        <ele>820.02</ele>
        <time>2024-11-05T10:41:28.465Z</time>
      </trkpt>
      <trkpt lat="44.23174" lon="3.6574">
        <ele>816.78</ele>
        <time>2024-11-05T10:41:32.535Z</time>
      </trkpt>
      <trkpt lat="44.23181" lon="3.6572">
        <ele>815.56</ele>
        <time>2024-11-05T10:41:36.608Z</time>
      </trkpt>
      <trkpt lat="44.23184" lon="3.65697">
        <ele>814.28</ele>
        <time>2024-11-05T10:41:40.684Z</time>
      </trkpt>
      <trkpt lat="44.23193" lon="3.65676">
        <ele>813.03</ele>
        <time>2024-11-05T10:41:44.762Z</time>
      </trkpt>
      <trkpt lat="44.23202" lon="3.65652">
        <ele>811.73</ele>
        <time>2024-11-05T10:41:48.844Z</time>
      </trkpt>
      <trkpt lat="44.23215" lon="3.65629">
        <ele>810.36</ele>
        <time>2024-11-05T10:41:52.929Z</time>
      </trkpt>
      <trkpt lat="44.23223" lon="3.65619">
        <ele>809.66</ele>
        <time>2024-11-05T10:41:57.016Z</time>
      </trkpt>
      <trkpt lat="44.23236" lon="3.65609">
        <ele>808.73</ele>
        <time>2024-11-05T10:42:01.105Z</time>
      </trkpt>
      <trkpt lat="44.23254" lon="3.65604">
        <ele>807.61</ele>
        <time>2024-11-05T10:42:05.197Z</time>
      </trkpt>
      <trkpt lat="44.23273" lon="3.65595">
        <ele>806.2</ele>
        <time>2024-11-05T10:42:09.292Z</time>
      </trkpt>
      <trkpt lat="44.23284" lon="3.65582">
        <ele>805.09</ele>
        <time>2024-11-05T10:42:13.389Z</time>
      </trkpt>
      <trkpt lat="44.23301" lon="3.65549">
        <ele>802.87</ele>
        <time>2024-11-05T10:42:17.491Z</time>
      </trkpt>
      <trkpt lat="44.23328" lon="3.65507">
        <ele>800.52</ele>
        <time>2024-11-05T10:42:21.600Z</time>
      </trkpt>
      <trkpt lat="44.23344" lon="3.65495">
        <ele>799.68</ele>
        <time>2024-11-05T10:42:25.712Z</time>
      </trkpt>
      <trkpt lat="44.23353" lon="3.65491">
        <ele>799.34</ele>
        <time>2024-11-05T10:42:29.825Z</time>
      </trkpt>
      <trkpt lat="44.23361" lon="3.65488">
        <ele>799.06</ele>
        <time>2024-11-05T10:42:33.939Z</time>
      </trkpt>
      <trkpt lat="44.23382" lon="3.65485">
        <ele>798.62</ele>
        <time>2024-11-05T10:42:38.057Z</time>
      </trkpt>
      <trkpt lat="44.2339" lon="3.65482">
        <ele>798.32</ele>
        <time>2024-11-05T10:42:42.176Z</time>
      </trkpt>
      <trkpt lat="44.23391" lon="3.65474">
        <ele>797.98</ele>
        <time>2024-11-05T10:42:46.296Z</time>
      </trkpt>
      <trkpt lat="44.23388" lon="3.6547">
        <ele>797.68</ele>
        <time>2024-11-05T10:42:50.417Z</time>
      </trkpt>
      <trkpt lat="44.23384" lon="3.65469">
        <ele>797.36</ele>
        <time>2024-11-05T10:42:54.538Z</time>
      </trkpt>
      <trkpt lat="44.23336" lon="3.65482">
        <ele>793.86</ele>
        <time>2024-11-05T10:42:58.667Z</time>
      </trkpt>
      <trkpt lat="44.23314" lon="3.65499">
        <ele>792.26</ele>
        <time>2024-11-05T10:43:02.800Z</time>
      </trkpt>
      <trkpt lat="44.23275" lon="3.65534">
        <ele>789.26</ele>
        <time>2024-11-05T10:43:06.941Z</time>
      </trkpt>
      <trkpt lat="44.23261" lon="3.65542">
        <ele>788.28</ele>
        <time>2024-11-05T10:43:11.084Z</time>
      </trkpt>
      <trkpt lat="44.23225" lon="3.65547">
        <ele>785.87</ele>
        <time>2024-11-05T10:43:15.233Z</time>
      </trkpt>
      <trkpt lat="44.23174" lon="3.65574">
        <ele>782.72</ele>
        <time>2024-11-05T10:43:19.391Z</time>
      </trkpt>
      <trkpt lat="44.23163" lon="3.65584">
        <ele>781.96</ele>
        <time>2024-11-05T10:43:23.551Z</time>
      </trkpt>
      <trkpt lat="44.23157" lon="3.65594">
        <ele>781.38</ele>
        <time>2024-11-05T10:43:27.712Z</time>
      </trkpt>
      <trkpt lat="44.23131" lon="3.65665">
        <ele>778.09</ele>
        <time>2024-11-05T10:43:31.882Z</time>
      </trkpt>
      <trkpt lat="44.23123" lon="3.65673">
        <ele>777.47</ele>
        <time>2024-11-05T10:43:36.054Z</time>
      </trkpt>
      <trkpt lat="44.23084" lon="3.65682">
        <ele>774.81</ele>
        <time>2024-11-05T10:43:40.232Z</time>
      </trkpt>
      <trkpt lat="44.2306" lon="3.6569">
        <ele>773.28</ele>
        <time>2024-11-05T10:43:44.414Z</time>
      </trkpt>
      <trkpt lat="44.23048" lon="3.6569">
        <ele>772.55</ele>
        <time>2024-11-05T10:43:48.598Z</time>
      </trkpt>
      <trkpt lat="44.23031" lon="3.65683">
        <ele>771.55</ele>
        <time>2024-11-05T10:43:52.785Z</time>
      </trkpt>
      <trkpt lat="44.22994" lon="3.65661">
        <ele>769.51</ele>
        <time>2024-11-05T10:43:56.978Z</time>
      </trkpt>
      <trkpt lat="44.22984" lon="3.65659">
        <ele>769.03</ele>
        <time>2024-11-05T10:44:01.173Z</time>
      </trkpt>
      <trkpt lat="44.22962" lon="3.65653">
        <ele>767.54</ele>
        <time>2024-11-05T10:44:05.372Z</time>
      </trkpt>
      <trkpt lat="44.22949" lon="3.65645">
        <ele>766.55</ele>
        <time>2024-11-05T10:44:09.573Z</time>
      </trkpt>
      <trkpt lat="44.2292" lon="3.65607">
        <ele>763.91</ele>
        <time>2024-11-05T10:44:13.780Z</time>
      </trkpt>
      <trkpt lat="44.2289" lon="3.65575">
        <ele>761.85</ele>
        <time>2024-11-05T10:44:17.993Z</time>
      </trkpt>
      <trkpt lat="44.22871" lon="3.6556">
        <ele>760.76</ele>
        <time>2024-11-05T10:44:22.210Z</time>
      </trkpt>
      <trkpt lat="44.22846" lon="3.65546">
        <ele>759.28</ele>
        <time>2024-11-05T10:44:26.431Z</time>
      </trkpt>
      <trkpt lat="44.22838" lon="3.65547">
        <ele>758.75</ele>
        <time>2024-11-05T10:44:30.653Z</time>
      </trkpt>
      <trkpt lat="44.22831" lon="3.65551">
        <ele>758.19</ele>
        <time>2024-11-05T10:44:34.877Z</time>
      </trkpt>
      <trkpt lat="44.22818" lon="3.65592">
        <ele>755.78</ele>
        <time>2024-11-05T10:44:39.106Z</time>
      </trkpt>
      <trkpt lat="44.22795" lon="3.65633">
        <ele>753.26</ele>
        <time>2024-11-05T10:44:43.341Z</time>
      </trkpt>
      <trkpt lat="44.22781" lon="3.65648">
        <ele>752.29</ele>
        <time>2024-11-05T10:44:47.579Z</time>
      </trkpt>
      <trkpt lat="44.22737" lon="3.65683">
        <ele>749.98</ele>
        <time>2024-11-05T10:44:51.825Z</time>
      </trkpt>
      <trkpt lat="44.22731" lon="3.65683">
        <ele>749.63</ele>
        <time>2024-11-05T10:44:56.072Z</time>
      </trkpt>
      <trkpt lat="44.22725" lon="3.6568">
        <ele>749.15</ele>
        <time>2024-11-05T10:45:00.320Z</time>
      </trkpt>
      <trkpt lat="44.22728" lon="3.65673">
        <ele>748.7</ele>
        <time>2024-11-05T10:45:04.569Z</time>
      </trkpt>
      <trkpt lat="44.22755" lon="3.65659">
        <ele>746.48</ele>
        <time>2024-11-05T10:45:08.822Z</time>
      </trkpt>
      <trkpt lat="44.2277" lon="3.65644">
        <ele>745.23</ele>
        <time>2024-11-05T10:45:13.078Z</time>
      </trkpt>
      <trkpt lat="44.22784" lon="3.65622">
        <ele>743.88</ele>
        <time>2024-11-05T10:45:17.338Z</time>
      </trkpt>
      <trkpt lat="44.22821" lon="3.65512">
        <ele>738.22</ele>
        <time>2024-11-05T10:45:21.611Z</time>
      </trkpt>
      <trkpt lat="44.22831" lon="3.65503">
        <ele>737.39</ele>
        <time>2024-11-05T10:45:25.886Z</time>
      </trkpt>
      <trkpt lat="44.22843" lon="3.65501">
        <ele>736.47</ele>
        <time>2024-11-05T10:45:30.163Z</time>
      </trkpt>
      <trkpt lat="44.22889" lon="3.65503">
        <ele>732.84</ele>
        <time>2024-11-05T10:45:34.448Z</time>
      </trkpt>
      <trkpt lat="44.229" lon="3.65506">
        <ele>731.94</ele>
        <time>2024-11-05T10:45:38.734Z</time>
      </trkpt>
      <trkpt lat="44.2293" lon="3.65525">
        <ele>729.6</ele>
        <time>2024-11-05T10:45:43.026Z</time>
      </trkpt>
      <trkpt lat="44.22971" lon="3.65533">
        <ele>726.58</ele>
        <time>2024-11-05T10:45:47.324Z</time>
      </trkpt>
      <trkpt lat="44.22982" lon="3.6553">
        <ele>725.78</ele>
        <time>2024-11-05T10:45:51.624Z</time>
      </trkpt>
      <trkpt lat="44.22994" lon="3.65522">
        <ele>724.86</ele>
        <time>2024-11-05T10:45:55.926Z</time>
      </trkpt>
      <trkpt lat="44.23012" lon="3.65487">
        <ele>722.87</ele>
        <time>2024-11-05T10:46:00.233Z</time>
      </trkpt>
      <trkpt lat="44.2304" lon="3.65435">
        <ele>720.35</ele>
        <time>2024-11-05T10:46:04.548Z</time>
      </trkpt>
      <trkpt lat="44.23051" lon="3.65421">
        <ele>719.39</ele>
        <time>2024-11-05T10:46:08.865Z</time>
      </trkpt>
      <trkpt lat="44.23065" lon="3.65412">
        <ele>718.42</ele>
        <time>2024-11-05T10:46:13.185Z</time>
      </trkpt>
      <trkpt lat="44.23101" lon="3.65401">
        <ele>716.21</ele>
        <time>2024-11-05T10:46:17.510Z</time>
      </trkpt>
      <trkpt lat="44.23111" lon="3.65395">
        <ele>715.48</ele>
        <time>2024-11-05T10:46:21.837Z</time>
      </trkpt>
      <trkpt lat="44.23136" lon="3.65346">
        <ele>712.73</ele>
        <time>2024-11-05T10:46:26.171Z</time>
      </trkpt>
      <trkpt lat="44.23146" lon="3.65331">
        <ele>711.84</ele>
        <time>2024-11-05T10:46:30.507Z</time>
      </trkpt>
      <trkpt lat="44.23173" lon="3.65315">
        <ele>710.01</ele>
        <time>2024-11-05T10:46:34.848Z</time>
      </trkpt>
      <trkpt lat="44.23181" lon="3.65308">
        <ele>709.47</ele>
        <time>2024-11-05T10:46:39.191Z</time>
      </trkpt>
      <trkpt lat="44.23187" lon="3.65299">
        <ele>709</ele>
        <time>2024-11-05T10:46:43.535Z</time>
      </trkpt>
      <trkpt lat="44.23224" lon="3.65267">
        <ele>706.67</ele>
        <time>2024-11-05T10:46:47.886Z</time>
      </trkpt>
      <trkpt lat="44.23238" lon="3.65257">
        <ele>705.79</ele>
        <time>2024-11-05T10:46:52.240Z</time>
      </trkpt>
      <trkpt lat="44.23256" lon="3.6525">
        <ele>704.73</ele>
        <time>2024-11-05T10:46:56.597Z</time>
      </trkpt>
      <trkpt lat="44.23265" lon="3.65252">
        <ele>704.15</ele>
        <time>2024-11-05T10:47:00.955Z</time>
      </trkpt>
      <trkpt lat="44.23281" lon="3.65263">
        <ele>703.02</ele>
        <time>2024-11-05T10:47:05.316Z</time>
      </trkpt>
      <trkpt lat="44.23297" lon="3.65271">
        <ele>701.93</ele>
        <time>2024-11-05T10:47:09.680Z</time>
      </trkpt>
      <trkpt lat="44.23311" lon="3.65271">
        <ele>701.01</ele>
        <time>2024-11-05T10:47:14.046Z</time>
      </trkpt>
      <trkpt lat="44.23335" lon="3.65248">
        <ele>699.19</ele>
        <time>2024-11-05T10:47:18.417Z</time>
      </trkpt>
      <trkpt lat="44.23349" lon="3.65238">
        <ele>698.13</ele>
        <time>2024-11-05T10:47:22.790Z</time>
      </trkpt>
      <trkpt lat="44.23353" lon="3.65229">
        <ele>697.6</ele>
        <time>2024-11-05T10:47:27.164Z</time>
      </trkpt>
      <trkpt lat="44.23357" lon="3.65207">
        <ele>696.42</ele>
        <time>2024-11-05T10:47:31.541Z</time>
      </trkpt>
      <trkpt lat="44.23363" lon="3.65191">
        <ele>695.45</ele>
        <time>2024-11-05T10:47:35.920Z</time>
      </trkpt>
      <trkpt lat="44.23389" lon="3.65149">
        <ele>692.85</ele>
        <time>2024-11-05T10:47:40.305Z</time>
      </trkpt>
      <trkpt lat="44.23404" lon="3.65135">
        <ele>691.84</ele>
        <time>2024-11-05T10:47:44.693Z</time>
      </trkpt>
      <trkpt lat="44.23455" lon="3.65105">
        <ele>689.16</ele>
        <time>2024-11-05T10:47:49.090Z</time>
      </trkpt>
      <trkpt lat="44.23461" lon="3.65096">
        <ele>688.71</ele>
        <time>2024-11-05T10:47:53.488Z</time>
      </trkpt>
      <trkpt lat="44.23464" lon="3.65086">
        <ele>688.32</ele>
        <time>2024-11-05T10:47:57.888Z</time>
      </trkpt>
      <trkpt lat="44.23465" lon="3.65066">
        <ele>687.51</ele>
        <time>2024-11-05T10:48:02.290Z</time>
      </trkpt>
      <trkpt lat="44.23469" lon="3.65044">
        <ele>686.55</ele>
        <time>2024-11-05T10:48:06.695Z</time>
      </trkpt>
      <trkpt lat="44.23482" lon="3.65026">
        <ele>685.53</ele>
        <time>2024-11-05T10:48:11.103Z</time>
      </trkpt>
      <trkpt lat="44.23495" lon="3.65021">
        <ele>684.75</ele>
        <time>2024-11-05T10:48:15.513Z</time>
      </trkpt>
      <trkpt lat="44.23515" lon="3.65017">
        <ele>683.65</ele>
        <time>2024-11-05T10:48:19.926Z</time>
      </trkpt>
      <trkpt lat="44.23533" lon="3.65017">
        <ele>682.83</ele>
        <time>2024-11-05T10:48:24.342Z</time>
      </trkpt>
      <trkpt lat="44.23575" lon="3.6504">
        <ele>681.36</ele>
        <time>2024-11-05T10:48:28.765Z</time>
      </trkpt>
      <trkpt lat="44.23579" lon="3.6504">
        <ele>681.23</ele>
        <time>2024-11-05T10:48:33.189Z</time>
      </trkpt>
      <trkpt lat="44.23582" lon="3.65037">
        <ele>681.2</ele>
        <time>2024-11-05T10:48:37.613Z</time>
      </trkpt>
      <trkpt lat="44.23587" lon="3.65024">
        <ele>680.99</ele>
        <time>2024-11-05T10:48:42.039Z</time>
      </trkpt>
      <trkpt lat="44.23586" lon="3.65019">
        <ele>680.84</ele>
        <time>2024-11-05T10:48:46.466Z</time>
      </trkpt>
      <trkpt lat="44.23578" lon="3.65008">
        <ele>680.37</ele>
        <time>2024-11-05T10:48:50.894Z</time>
      </trkpt>
      <trkpt lat="44.23545" lon="3.6497">
        <ele>678.7</ele>
        <time>2024-11-05T10:48:55.329Z</time>
      </trkpt>
      <trkpt lat="44.23534" lon="3.64958">
        <ele>678.3</ele>
        <time>2024-11-05T10:48:59.766Z</time>
      </trkpt>
      <trkpt lat="44.23521" lon="3.64948">
        <ele>677.92</ele>
        <time>2024-11-05T10:49:04.206Z</time>
      </trkpt>
      <trkpt lat="44.23508" lon="3.64928">
        <ele>677.49</ele>
        <time>2024-11-05T10:49:08.649Z</time>
      </trkpt>
      <trkpt lat="44.23482" lon="3.64873">
        <ele>676.38</ele>
        <time>2024-11-05T10:49:13.100Z</time>
      </trkpt>
      <trkpt lat="44.2347" lon="3.64842">
        <ele>675.86</ele>
        <time>2024-11-05T10:49:17.555Z</time>
      </trkpt>
      <trkpt lat="44.23464" lon="3.648">
        <ele>675.37</ele>
        <time>2024-11-05T10:49:22.015Z</time>
      </trkpt>
      <trkpt lat="44.23463" lon="3.64775">
        <ele>675.06</ele>
        <time>2024-11-05T10:49:26.477Z</time>
      </trkpt>
      <trkpt lat="44.2346" lon="3.64759">
        <ele>674.86</ele>
        <time>2024-11-05T10:49:30.941Z</time>
      </trkpt>
      <trkpt lat="44.23452" lon="3.64754">
        <ele>674.75</ele>
        <time>2024-11-05T10:49:35.407Z</time>
      </trkpt>
      <trkpt lat="44.23447" lon="3.64753">
        <ele>674.42</ele>
        <time>2024-11-05T10:49:39.874Z</time>
      </trkpt>
      <trkpt lat="44.2344" lon="3.64757">
        <ele>673.89</ele>
        <time>2024-11-05T10:49:44.342Z</time>
      </trkpt>
      <trkpt lat="44.2343" lon="3.64814">
        <ele>670.63</ele>
        <time>2024-11-05T10:49:48.816Z</time>
      </trkpt>
      <trkpt lat="44.23423" lon="3.64838">
        <ele>669.23</ele>
        <time>2024-11-05T10:49:53.293Z</time>
      </trkpt>
      <trkpt lat="44.23416" lon="3.64849">
        <ele>668.49</ele>
        <time>2024-11-05T10:49:57.772Z</time>
      </trkpt>
      <trkpt lat="44.23407" lon="3.64858">
        <ele>667.75</ele>
        <time>2024-11-05T10:50:02.253Z</time>
      </trkpt>
      <trkpt lat="44.23388" lon="3.64871">
        <ele>666.24</ele>
        <time>2024-11-05T10:50:06.737Z</time>
      </trkpt>
      <trkpt lat="44.23371" lon="3.64891">
        <ele>664.57</ele>
        <time>2024-11-05T10:50:11.225Z</time>
      </trkpt>
      <trkpt lat="44.23333" lon="3.64934">
        <ele>661.4</ele>
        <time>2024-11-05T10:50:15.721Z</time>
      </trkpt>
      <trkpt lat="44.23313" lon="3.64957">
        <ele>659.54</ele>
        <time>2024-11-05T10:50:20.221Z</time>
      </trkpt>
      <trkpt lat="44.23299" lon="3.64963">
        <ele>658.46</ele>
        <time>2024-11-05T10:50:24.723Z</time>
      </trkpt>
      <trkpt lat="44.23286" lon="3.64965">
        <ele>657.53</ele>
        <time>2024-11-05T10:50:29.227Z</time>
      </trkpt>
      <trkpt lat="44.23272" lon="3.64962">
        <ele>656.53</ele>
        <time>2024-11-05T10:50:33.734Z</time>
      </trkpt>
      <trkpt lat="44.23245" lon="3.64947">
        <ele>654.64</ele>
        <time>2024-11-05T10:50:38.245Z</time>
      </trkpt>
      <trkpt lat="44.23209" lon="3.64932">
        <ele>652.34</ele>
        <time>2024-11-05T10:50:42.762Z</time>
      </trkpt>
      <trkpt lat="44.23197" lon="3.64931">
        <ele>651.55</ele>
        <time>2024-11-05T10:50:47.281Z</time>
      </trkpt>
      <trkpt lat="44.23185" lon="3.64934">
        <ele>650.68</ele>
        <time>2024-11-05T10:50:51.802Z</time>
      </trkpt>
      <trkpt lat="44.23168" lon="3.64944">
        <ele>649.24</ele>
        <time>2024-11-05T10:50:56.326Z</time>
      </trkpt>
      <trkpt lat="44.23153" lon="3.6495">
        <ele>648.03</ele>
        <time>2024-11-05T10:51:00.853Z</time>
      </trkpt>
      <trkpt lat="44.23126" lon="3.64951">
        <ele>646.23</ele>
        <time>2024-11-05T10:51:05.384Z</time>
      </trkpt>
      <trkpt lat="44.23105" lon="3.64952">
        <ele>645.02</ele>
        <time>2024-11-05T10:51:09.918Z</time>
      </trkpt>
      <trkpt lat="44.23089" lon="3.6494">
        <ele>644.03</ele>
        <time>2024-11-05T10:51:14.455Z</time>
      </trkpt>
      <trkpt lat="44.23073" lon="3.64934">
        <ele>643.05</ele>
        <time>2024-11-05T10:51:18.995Z</time>
      </trkpt>
      <trkpt lat="44.23039" lon="3.64939">
        <ele>640.97</ele>
        <time>2024-11-05T10:51:23.540Z</time>
      </trkpt>
      <trkpt lat="44.22992" lon="3.64959">
        <ele>637.51</ele>
        <time>2024-11-05T10:51:28.093Z</time>
      </trkpt>
      <trkpt lat="44.22961" lon="3.64965">
        <ele>635.64</ele>
        <time>2024-11-05T10:51:32.651Z</time>
      </trkpt>
      <trkpt lat="44.2295" lon="3.64964">
        <ele>635.19</ele>
        <time>2024-11-05T10:51:37.211Z</time>
      </trkpt>
      <trkpt lat="44.22938" lon="3.64958">
        <ele>634.76</ele>
        <time>2024-11-05T10:51:41.773Z</time>
      </trkpt>
      <trkpt lat="44.2291" lon="3.64931">
        <ele>633.81</ele>
        <time>2024-11-05T10:51:46.340Z</time>
      </trkpt>
      <trkpt lat="44.22892" lon="3.64915">
        <ele>632.92</ele>
        <time>2024-11-05T10:51:50.911Z</time>
      </trkpt>
      <trkpt lat="44.22889" lon="3.64906">
        <ele>632.53</ele>
        <time>2024-11-05T10:51:55.483Z</time>
      </trkpt>
      <trkpt lat="44.22889" lon="3.64896">
        <ele>632.12</ele>
        <time>2024-11-05T10:52:00.056Z</time>
      </trkpt>
      <trkpt lat="44.22892" lon="3.64886">
        <ele>631.69</ele>
        <time>2024-11-05T10:52:04.630Z</time>
      </trkpt>
      <trkpt lat="44.22912" lon="3.64852">
        <ele>629.93</ele>
        <time>2024-11-05T10:52:09.209Z</time>
      </trkpt>
      <trkpt lat="44.22922" lon="3.6481">
        <ele>628.24</ele>
        <time>2024-11-05T10:52:13.793Z</time>
      </trkpt>
      <trkpt lat="44.22946" lon="3.64763">
        <ele>626.14</ele>
        <time>2024-11-05T10:52:18.384Z</time>
      </trkpt>
      <trkpt lat="44.22965" lon="3.64692">
        <ele>623.32</ele>
        <time>2024-11-05T10:52:22.984Z</time>
      </trkpt>
      <trkpt lat="44.22976" lon="3.64617">
        <ele>620.83</ele>
        <time>2024-11-05T10:52:27.593Z</time>
      </trkpt>
      <trkpt lat="44.22978" lon="3.64588">
        <ele>619.89</ele>
        <time>2024-11-05T10:52:32.205Z</time>
      </trkpt>
      <trkpt lat="44.2299" lon="3.64508">
        <ele>617.56</ele>
        <time>2024-11-05T10:52:36.826Z</time>
      </trkpt>
      <trkpt lat="44.23002" lon="3.64481">
        <ele>616.73</ele>
        <time>2024-11-05T10:52:41.451Z</time>
      </trkpt>
      <trkpt lat="44.23004" lon="3.64469">
        <ele>616.35</ele>
        <time>2024-11-05T10:52:46.077Z</time>
      </trkpt>
      <trkpt lat="44.23002" lon="3.64458">
        <ele>616.02</ele>
        <time>2024-11-05T10:52:50.705Z</time>
      </trkpt>
      <trkpt lat="44.22981" lon="3.6443">
        <ele>614.73</ele>
        <time>2024-11-05T10:52:55.337Z</time>
      </trkpt>
      <trkpt lat="44.22961" lon="3.64387">
        <ele>613.16</ele>
        <time>2024-11-05T10:52:59.975Z</time>
      </trkpt>
      <trkpt lat="44.22946" lon="3.64366">
        <ele>612.38</ele>
        <time>2024-11-05T10:53:04.617Z</time>
      </trkpt>
      <trkpt lat="44.22939" lon="3.64349">
        <ele>611.83</ele>
        <time>2024-11-05T10:53:09.261Z</time>
      </trkpt>
      <trkpt lat="44.22941" lon="3.64337">
        <ele>611.42</ele>
        <time>2024-11-05T10:53:13.906Z</time>
      </trkpt>
      <trkpt lat="44.22954" lon="3.64301">
        <ele>610.06</ele>
        <time>2024-11-05T10:53:18.556Z</time>
      </trkpt>
      <trkpt lat="44.2296" lon="3.64284">
        <ele>609.64</ele>
        <time>2024-11-05T10:53:23.208Z</time>
      </trkpt>
      <trkpt lat="44.2297" lon="3.64256">
        <ele>609.39</ele>
        <time>2024-11-05T10:53:27.864Z</time>
      </trkpt>
      <trkpt lat="44.22969" lon="3.64242">
        <ele>609.39</ele>
        <time>2024-11-05T10:53:32.521Z</time>
      </trkpt>
      <trkpt lat="44.22958" lon="3.64228">
        <ele>609.34</ele>
        <time>2024-11-05T10:53:37.181Z</time>
      </trkpt>
      <trkpt lat="44.22944" lon="3.6423">
        <ele>609.24</ele>
        <time>2024-11-05T10:53:41.843Z</time>
      </trkpt>
      <trkpt lat="44.22909" lon="3.64265">
        <ele>609.41</ele>
        <time>2024-11-05T10:53:46.512Z</time>
      </trkpt>
      <trkpt lat="44.22878" lon="3.64286">
        <ele>610.11</ele>
        <time>2024-11-05T10:53:51.186Z</time>
      </trkpt>
      <trkpt lat="44.22864" lon="3.64308">
        <ele>610.69</ele>
        <time>2024-11-05T10:53:55.864Z</time>
      </trkpt>
      <trkpt lat="44.22853" lon="3.64339">
        <ele>611.32</ele>
        <time>2024-11-05T10:54:00.546Z</time>
      </trkpt>
      <trkpt lat="44.2284" lon="3.64392">
        <ele>612.13</ele>
        <time>2024-11-05T10:54:05.234Z</time>
      </trkpt>
      <trkpt lat="44.22837" lon="3.64418">
        <ele>612.54</ele>
        <time>2024-11-05T10:54:09.925Z</time>
      </trkpt>
      <trkpt lat="44.22841" lon="3.64436">
        <ele>612.93</ele>
        <time>2024-11-05T10:54:14.618Z</time>
      </trkpt>
      <trkpt lat="44.2284" lon="3.64449">
        <ele>613.19</ele>
        <time>2024-11-05T10:54:19.313Z</time>
      </trkpt>
      <trkpt lat="44.22837" lon="3.6446">
        <ele>613.41</ele>
        <time>2024-11-05T10:54:24.009Z</time>
      </trkpt>
      <trkpt lat="44.22828" lon="3.6447">
        <ele>613.72</ele>
        <time>2024-11-05T10:54:28.707Z</time>
      </trkpt>
      <trkpt lat="44.2281" lon="3.64475">
        <ele>614.17</ele>
        <time>2024-11-05T10:54:33.408Z</time>
      </trkpt>
      <trkpt lat="44.22793" lon="3.64486">
        <ele>614.57</ele>
        <time>2024-11-05T10:54:38.112Z</time>
      </trkpt>
      <trkpt lat="44.22762" lon="3.64517">
        <ele>615.36</ele>
        <time>2024-11-05T10:54:42.822Z</time>
      </trkpt>
      <trkpt lat="44.22749" lon="3.64535">
        <ele>615.52</ele>
        <time>2024-11-05T10:54:47.535Z</time>
      </trkpt>
      <trkpt lat="44.22744" lon="3.64555">
        <ele>615.56</ele>
        <time>2024-11-05T10:54:52.251Z</time>
      </trkpt>
      <trkpt lat="44.22739" lon="3.64613">
        <ele>615.97</ele>
        <time>2024-11-05T10:54:56.973Z</time>
      </trkpt>
      <trkpt lat="44.22719" lon="3.6468">
        <ele>616.25</ele>
        <time>2024-11-05T10:55:01.704Z</time>
      </trkpt>
      <trkpt lat="44.2271" lon="3.64695">
        <ele>616.26</ele>
        <time>2024-11-05T10:55:06.437Z</time>
      </trkpt>
      <trkpt lat="44.22695" lon="3.64713">
        <ele>615.87</ele>
        <time>2024-11-05T10:55:11.173Z</time>
      </trkpt>
      <trkpt lat="44.22667" lon="3.64766">
        <ele>613.78</ele>
        <time>2024-11-05T10:55:15.917Z</time>
      </trkpt>
      <trkpt lat="44.22636" lon="3.64817">
        <ele>612.6</ele>
        <time>2024-11-05T10:55:20.668Z</time>
      </trkpt>
      <trkpt lat="44.22627" lon="3.64829">
        <ele>612.37</ele>
        <time>2024-11-05T10:55:25.421Z</time>
      </trkpt>
      <trkpt lat="44.22591" lon="3.64868">
        <ele>611.76</ele>
        <time>2024-11-05T10:55:30.182Z</time>
      </trkpt>
      <trkpt lat="44.22561" lon="3.64906">
        <ele>610.68</ele>
        <time>2024-11-05T10:55:34.949Z</time>
      </trkpt>
      <trkpt lat="44.22528" lon="3.64961">
        <ele>609.18</ele>
        <time>2024-11-05T10:55:39.724Z</time>
      </trkpt>
      <trkpt lat="44.22515" lon="3.64983">
        <ele>608.76</ele>
        <time>2024-11-05T10:55:44.503Z</time>
      </trkpt>
      <trkpt lat="44.22505" lon="3.65007">
        <ele>608.33</ele>
        <time>2024-11-05T10:55:49.285Z</time>
      </trkpt>
      <trkpt lat="44.22495" lon="3.65024">
        <ele>607.94</ele>
        <time>2024-11-05T10:55:54.069Z</time>
      </trkpt>
      <trkpt lat="44.22471" lon="3.65045">
        <ele>607.19</ele>
        <time>2024-11-05T10:55:58.858Z</time>
      </trkpt>
      <trkpt lat="44.22416" lon="3.65091">
        <ele>606.16</ele>
        <time>2024-11-05T10:56:03.657Z</time>
      </trkpt>
      <trkpt lat="44.22394" lon="3.65115">
        <ele>605.64</ele>
        <time>2024-11-05T10:56:08.461Z</time>
      </trkpt>
      <trkpt lat="44.22382" lon="3.65124">
        <ele>605.42</ele>
        <time>2024-11-05T10:56:13.267Z</time>
      </trkpt>
      <trkpt lat="44.22331" lon="3.65146">
        <ele>604.58</ele>
        <time>2024-11-05T10:56:18.081Z</time>
      </trkpt>
      <trkpt lat="44.22271" lon="3.65183">
        <ele>603.33</ele>
        <time>2024-11-05T10:56:22.906Z</time>
      </trkpt>
      <trkpt lat="44.22256" lon="3.65188">
        <ele>603.11</ele>
        <time>2024-11-05T10:56:27.733Z</time>
      </trkpt>
      <trkpt lat="44.22242" lon="3.65188">
        <ele>602.86</ele>
        <time>2024-11-05T10:56:32.563Z</time>
      </trkpt>
      <trkpt lat="44.22221" lon="3.65184">
        <ele>602.46</ele>
        <time>2024-11-05T10:56:37.396Z</time>
      </trkpt>
      <trkpt lat="44.22212" lon="3.65186">
        <ele>602.28</ele>
        <time>2024-11-05T10:56:42.230Z</time>
      </trkpt>
      <trkpt lat="44.22205" lon="3.6519">
        <ele>602.12</ele>
        <time>2024-11-05T10:56:47.066Z</time>
      </trkpt>
      <trkpt lat="44.22199" lon="3.65202">
        <ele>601.93</ele>
        <time>2024-11-05T10:56:51.903Z</time>
      </trkpt>
      <trkpt lat="44.22191" lon="3.65239">
        <ele>601.73</ele>
        <time>2024-11-05T10:56:56.745Z</time>
      </trkpt>
      <trkpt lat="44.22185" lon="3.65253">
        <ele>601.69</ele>
        <time>2024-11-05T10:57:01.589Z</time>
      </trkpt>
      <trkpt lat="44.22177" lon="3.65264">
        <ele>601.73</ele>
        <time>2024-11-05T10:57:06.434Z</time>
      </trkpt>
      <trkpt lat="44.22168" lon="3.65272">
        <ele>601.84</ele>
        <time>2024-11-05T10:57:11.281Z</time>
      </trkpt>
      <trkpt lat="44.22161" lon="3.65275">
        <ele>601.93</ele>
        <time>2024-11-05T10:57:16.129Z</time>
      </trkpt>
      <trkpt lat="44.22148" lon="3.65273">
        <ele>602.1</ele>
        <time>2024-11-05T10:57:20.979Z</time>
      </trkpt>
      <trkpt lat="44.22142" lon="3.65268">
        <ele>602.19</ele>
        <time>2024-11-05T10:57:25.831Z</time>
      </trkpt>
      <trkpt lat="44.22137" lon="3.65257">
        <ele>602.24</ele>
        <time>2024-11-05T10:57:30.684Z</time>
      </trkpt>
      <trkpt lat="44.22136" lon="3.65245">
        <ele>602.25</ele>
        <time>2024-11-05T10:57:35.538Z</time>
      </trkpt>
      <trkpt lat="44.22136" lon="3.65185">
        <ele>602.6</ele>
        <time>2024-11-05T10:57:40.399Z</time>
      </trkpt>
      <trkpt lat="44.22131" lon="3.65123">
        <ele>603.28</ele>
        <time>2024-11-05T10:57:45.267Z</time>
      </trkpt>
      <trkpt lat="44.22134" lon="3.65055">
        <ele>603.93</ele>
        <time>2024-11-05T10:57:50.143Z</time>
      </trkpt>
      <trkpt lat="44.2213" lon="3.65039">
        <ele>604.09</ele>
        <time>2024-11-05T10:57:55.021Z</time>
      </trkpt>
      <trkpt lat="44.22126" lon="3.6503">
        <ele>604.19</ele>
        <time>2024-11-05T10:57:59.901Z</time>
      </trkpt>
      <trkpt lat="44.22118" lon="3.65023">
        <ele>604.33</ele>
        <time>2024-11-05T10:58:04.782Z</time>
      </trkpt>
      <trkpt lat="44.22073" lon="3.65007">
        <ele>605.03</ele>
        <time>2024-11-05T10:58:09.670Z</time>
      </trkpt>
      <trkpt lat="44.22029" lon="3.64979">
        <ele>606.4</ele>
        <time>2024-11-05T10:58:14.566Z</time>
      </trkpt>
      <trkpt lat="44.22023" lon="3.6497">
        <ele>606.63</ele>
        <time>2024-11-05T10:58:19.464Z</time>
      </trkpt>
      <trkpt lat="44.22019" lon="3.64956">
        <ele>606.93</ele>
        <time>2024-11-05T10:58:24.363Z</time>
      </trkpt>
      <trkpt lat="44.22014" lon="3.64908">
        <ele>607.86</ele>
        <time>2024-11-05T10:58:29.268Z</time>
      </trkpt>
      <trkpt lat="44.22012" lon="3.64859">
        <ele>608.64</ele>
        <time>2024-11-05T10:58:34.179Z</time>
      </trkpt>
      <trkpt lat="44.22012" lon="3.64781">
        <ele>609.73</ele>
        <time>2024-11-05T10:58:39.099Z</time>
      </trkpt>
      <trkpt lat="44.22017" lon="3.64733">
        <ele>610.35</ele>
        <time>2024-11-05T10:58:44.024Z</time>
      </trkpt>
      <trkpt lat="44.22017" lon="3.64708">
        <ele>610.74</ele>
        <time>2024-11-05T10:58:48.952Z</time>
      </trkpt>
      <trkpt lat="44.22027" lon="3.64656">
        <ele>611.82</ele>
        <time>2024-11-05T10:58:53.886Z</time>
      </trkpt>
      <trkpt lat="44.22028" lon="3.64615">
        <ele>612.72</ele>
        <time>2024-11-05T10:58:58.825Z</time>
      </trkpt>
      <trkpt lat="44.22024" lon="3.64584">
        <ele>613.47</ele>
        <time>2024-11-05T10:59:03.768Z</time>
      </trkpt>
      <trkpt lat="44.22015" lon="3.64573">
        <ele>613.7</ele>
        <time>2024-11-05T10:59:08.712Z</time>
      </trkpt>
      <trkpt lat="44.22009" lon="3.64573">
        <ele>613.73</ele>
        <time>2024-11-05T10:59:13.657Z</time>
      </trkpt>
      <trkpt lat="44.21997" lon="3.64585">
        <ele>613.92</ele>
        <time>2024-11-05T10:59:18.605Z</time>
      </trkpt>
      <trkpt lat="44.21983" lon="3.64621">
        <ele>614.91</ele>
        <time>2024-11-05T10:59:23.557Z</time>
      </trkpt>
      <trkpt lat="44.21974" lon="3.64646">
        <ele>615.81</ele>
        <time>2024-11-05T10:59:28.513Z</time>
      </trkpt>
      <trkpt lat="44.21969" lon="3.64655">
        <ele>616.21</ele>
        <time>2024-11-05T10:59:33.470Z</time>
      </trkpt>
      <trkpt lat="44.21952" lon="3.6467">
        <ele>617.26</ele>
        <time>2024-11-05T10:59:38.430Z</time>
      </trkpt>
      <trkpt lat="44.21943" lon="3.64672">
        <ele>617.75</ele>
        <time>2024-11-05T10:59:43.392Z</time>
      </trkpt>
      <trkpt lat="44.21934" lon="3.64672">
        <ele>618.22</ele>
        <time>2024-11-05T10:59:48.355Z</time>
      </trkpt>
      <trkpt lat="44.21924" lon="3.64669">
        <ele>618.77</ele>
        <time>2024-11-05T10:59:53.320Z</time>
      </trkpt>
      <trkpt lat="44.21886" lon="3.64645">
        <ele>621.07</ele>
        <time>2024-11-05T10:59:58.291Z</time>
      </trkpt>
      <trkpt lat="44.21871" lon="3.64639">
        <ele>621.95</ele>
        <time>2024-11-05T11:00:03.265Z</time>
      </trkpt>
      <trkpt lat="44.2186" lon="3.64638">
        <ele>622.55</ele>
        <time>2024-11-05T11:00:08.241Z</time>
      </trkpt>
      <trkpt lat="44.21798" lon="3.64644">
        <ele>626.07</ele>
        <time>2024-11-05T11:00:13.227Z</time>
      </trkpt>
      <trkpt lat="44.21774" lon="3.64644">
        <ele>627.58</ele>
        <time>2024-11-05T11:00:18.216Z</time>
      </trkpt>
      <trkpt lat="44.21757" lon="3.64635">
        <ele>628.88</ele>
        <time>2024-11-05T11:00:23.208Z</time>
      </trkpt>
      <trkpt lat="44.21752" lon="3.64631">
        <ele>628.94</ele>
        <time>2024-11-05T11:00:28.201Z</time>
      </trkpt>
      <trkpt lat="44.21745" lon="3.6463">
        <ele>629.03</ele>
        <time>2024-11-05T11:00:33.195Z</time>
      </trkpt>
      <trkpt lat="44.21736" lon="3.64633">
        <ele>629.15</ele>
        <time>2024-11-05T11:00:38.191Z</time>
      </trkpt>
      <trkpt lat="44.21733" lon="3.6464">
        <ele>629.5</ele>
        <time>2024-11-05T11:00:43.188Z</time>
      </trkpt>
      <trkpt lat="44.21733" lon="3.64654">
        <ele>630.15</ele>
        <time>2024-11-05T11:00:48.186Z</time>
      </trkpt>
      <trkpt lat="44.21738" lon="3.64676">
        <ele>631.24</ele>
        <time>2024-11-05T11:00:53.187Z</time>
      </trkpt>
      <trkpt lat="44.21749" lon="3.64695">
        <ele>632.43</ele>
        <time>2024-11-05T11:00:58.191Z</time>
      </trkpt>
      <trkpt lat="44.21762" lon="3.6471">
        <ele>633.79</ele>
        <time>2024-11-05T11:01:03.198Z</time>
      </trkpt>
      <trkpt lat="44.21799" lon="3.64739">
        <ele>637.22</ele>
        <time>2024-11-05T11:01:08.211Z</time>
      </trkpt>
      <trkpt lat="44.2181" lon="3.64752">
        <ele>638.47</ele>
        <time>2024-11-05T11:01:13.227Z</time>
      </trkpt>
      <trkpt lat="44.21818" lon="3.64768">
        <ele>639.76</ele>
        <time>2024-11-05T11:01:18.245Z</time>
      </trkpt>
      <trkpt lat="44.21816" lon="3.64775">
        <ele>640.29</ele>
        <time>2024-11-05T11:01:23.264Z</time>
      </trkpt>
      <trkpt lat="44.21811" lon="3.6478">
        <ele>640.74</ele>
        <time>2024-11-05T11:01:28.284Z</time>
      </trkpt>
      <trkpt lat="44.21808" lon="3.6478">
        <ele>641</ele>
        <time>2024-11-05T11:01:33.304Z</time>
      </trkpt>
      <trkpt lat="44.21804" lon="3.6478">
        <ele>641.26</ele>
        <time>2024-11-05T11:01:38.325Z</time>
      </trkpt>
      <trkpt lat="44.21776" lon="3.64768">
        <ele>643.09</ele>
        <time>2024-11-05T11:01:43.351Z</time>
      </trkpt>
      <trkpt lat="44.21768" lon="3.64768">
        <ele>643.59</ele>
        <time>2024-11-05T11:01:48.378Z</time>
      </trkpt>
      <trkpt lat="44.21751" lon="3.64773">
        <ele>644.77</ele>
        <time>2024-11-05T11:01:53.408Z</time>
      </trkpt>
      <trkpt lat="44.21702" lon="3.64797">
        <ele>648.49</ele>
        <time>2024-11-05T11:01:58.446Z</time>
      </trkpt>
      <trkpt lat="44.2169" lon="3.648">
        <ele>649.43</ele>
        <time>2024-11-05T11:02:03.486Z</time>
      </trkpt>
      <trkpt lat="44.2168" lon="3.64799">
        <ele>650.2</ele>
        <time>2024-11-05T11:02:08.528Z</time>
      </trkpt>
      <trkpt lat="44.21655" lon="3.6479">
        <ele>652.22</ele>
        <time>2024-11-05T11:02:13.574Z</time>
      </trkpt>
      <trkpt lat="44.21636" lon="3.6478">
        <ele>653.84</ele>
        <time>2024-11-05T11:02:18.623Z</time>
      </trkpt>
      <trkpt lat="44.21623" lon="3.64769">
        <ele>655.05</ele>
        <time>2024-11-05T11:02:23.674Z</time>
      </trkpt>
      <trkpt lat="44.21616" lon="3.64758">
        <ele>655.87</ele>
        <time>2024-11-05T11:02:28.727Z</time>
      </trkpt>
      <trkpt lat="44.21602" lon="3.64748">
        <ele>657.06</ele>
        <time>2024-11-05T11:02:33.783Z</time>
      </trkpt>
      <trkpt lat="44.21573" lon="3.64736">
        <ele>659.42</ele>
        <time>2024-11-05T11:02:38.843Z</time>
      </trkpt>
      <trkpt lat="44.21565" lon="3.64729">
        <ele>660.16</ele>
        <time>2024-11-05T11:02:43.905Z</time>
      </trkpt>
      <trkpt lat="44.21556" lon="3.64714">
        <ele>661.3</ele>
        <time>2024-11-05T11:02:48.969Z</time>
      </trkpt>
      <trkpt lat="44.21542" lon="3.64684">
        <ele>663.14</ele>
        <time>2024-11-05T11:02:54.037Z</time>
      </trkpt>
      <trkpt lat="44.21535" lon="3.64677">
        <ele>663.74</ele>
        <time>2024-11-05T11:02:59.107Z</time>
      </trkpt>
      <trkpt lat="44.21511" lon="3.64663">
        <ele>665.63</ele>
        <time>2024-11-05T11:03:04.181Z</time>
      </trkpt>
      <trkpt lat="44.21473" lon="3.64655">
        <ele>668.58</ele>
        <time>2024-11-05T11:03:09.261Z</time>
      </trkpt>
      <trkpt lat="44.21418" lon="3.64637">
        <ele>672.74</ele>
        <time>2024-11-05T11:03:14.350Z</time>
      </trkpt>
      <trkpt lat="44.21381" lon="3.64613">
        <ele>675.16</ele>
        <time>2024-11-05T11:03:19.446Z</time>
      </trkpt>
      <trkpt lat="44.2137" lon="3.64603">
        <ele>675.9</ele>
        <time>2024-11-05T11:03:24.544Z</time>
      </trkpt>
      <trkpt lat="44.21364" lon="3.64598">
        <ele>676.07</ele>
        <time>2024-11-05T11:03:29.643Z</time>
      </trkpt>
      <trkpt lat="44.2136" lon="3.64596">
        <ele>676.2</ele>
        <time>2024-11-05T11:03:34.742Z</time>
      </trkpt>
      <trkpt lat="44.21354" lon="3.64597">
        <ele>676.4</ele>
        <time>2024-11-05T11:03:39.842Z</time>
      </trkpt>
      <trkpt lat="44.21347" lon="3.64603">
        <ele>676.65</ele>
        <time>2024-11-05T11:03:44.944Z</time>
      </trkpt>
      <trkpt lat="44.21343" lon="3.6461">
        <ele>676.73</ele>
        <time>2024-11-05T11:03:50.047Z</time>
      </trkpt>
      <trkpt lat="44.21339" lon="3.64618">
        <ele>677.1</ele>
        <time>2024-11-05T11:03:55.151Z</time>
      </trkpt>
      <trkpt lat="44.2134" lon="3.64638">
        <ele>677.93</ele>
        <time>2024-11-05T11:04:00.257Z</time>
      </trkpt>
      <trkpt lat="44.21346" lon="3.64662">
        <ele>679.21</ele>
        <time>2024-11-05T11:04:05.366Z</time>
      </trkpt>
      <trkpt lat="44.21362" lon="3.64695">
        <ele>681.16</ele>
        <time>2024-11-05T11:04:10.480Z</time>
      </trkpt>
      <trkpt lat="44.21376" lon="3.64752">
        <ele>684.25</ele>
        <time>2024-11-05T11:04:15.601Z</time>
      </trkpt>
      <trkpt lat="44.2138" lon="3.64782">
        <ele>685.96</ele>
        <time>2024-11-05T11:04:20.725Z</time>
      </trkpt>
      <trkpt lat="44.21373" lon="3.64838">
        <ele>689.3</ele>
        <time>2024-11-05T11:04:25.856Z</time>
      </trkpt>
      <trkpt lat="44.21373" lon="3.64857">
        <ele>690.41</ele>
        <time>2024-11-05T11:04:30.989Z</time>
      </trkpt>
      <trkpt lat="44.21378" lon="3.64876">
        <ele>691.58</ele>
        <time>2024-11-05T11:04:36.124Z</time>
      </trkpt>
      <trkpt lat="44.21388" lon="3.64889">
        <ele>692.65</ele>
        <time>2024-11-05T11:04:41.261Z</time>
      </trkpt>
      <trkpt lat="44.21406" lon="3.64904">
        <ele>694.07</ele>
        <time>2024-11-05T11:04:46.402Z</time>
      </trkpt>
      <trkpt lat="44.21419" lon="3.64908">
        <ele>694.97</ele>
        <time>2024-11-05T11:04:51.545Z</time>
      </trkpt>
      <trkpt lat="44.21436" lon="3.64918">
        <ele>696.43</ele>
        <time>2024-11-05T11:04:56.691Z</time>
      </trkpt>
      <trkpt lat="44.21438" lon="3.64931">
        <ele>697.25</ele>
        <time>2024-11-05T11:05:01.838Z</time>
      </trkpt>
      <trkpt lat="44.21435" lon="3.64941">
        <ele>697.9</ele>
        <time>2024-11-05T11:05:06.987Z</time>
      </trkpt>
      <trkpt lat="44.21431" lon="3.64946">
        <ele>698.35</ele>
        <time>2024-11-05T11:05:12.136Z</time>
      </trkpt>
      <trkpt lat="44.2141" lon="3.64969">
        <ele>700.38</ele>
        <time>2024-11-05T11:05:17.290Z</time>
      </trkpt>
      <trkpt lat="44.21376" lon="3.65004">
        <ele>703.11</ele>
        <time>2024-11-05T11:05:22.451Z</time>
      </trkpt>
      <trkpt lat="44.21346" lon="3.65011">
        <ele>705.15</ele>
        <time>2024-11-05T11:05:27.616Z</time>
      </trkpt>
      <trkpt lat="44.21328" lon="3.65025">
        <ele>706.61</ele>
        <time>2024-11-05T11:05:32.785Z</time>
      </trkpt>
      <trkpt lat="44.21313" lon="3.65044">
        <ele>708.2</ele>
        <time>2024-11-05T11:05:37.957Z</time>
      </trkpt>
      <trkpt lat="44.21305" lon="3.65061">
        <ele>709.27</ele>
        <time>2024-11-05T11:05:43.131Z</time>
      </trkpt>
      <trkpt lat="44.21303" lon="3.65077">
        <ele>710</ele>
        <time>2024-11-05T11:05:48.307Z</time>
      </trkpt>
      <trkpt lat="44.21312" lon="3.65089">
        <ele>710.65</ele>
        <time>2024-11-05T11:05:53.485Z</time>
      </trkpt>
      <trkpt lat="44.21345" lon="3.65096">
        <ele>712.32</ele>
        <time>2024-11-05T11:05:58.668Z</time>
      </trkpt>
      <trkpt lat="44.21361" lon="3.65103">
        <ele>713.41</ele>
        <time>2024-11-05T11:06:03.854Z</time>
      </trkpt>
      <trkpt lat="44.21372" lon="3.6511">
        <ele>714.34</ele>
        <time>2024-11-05T11:06:09.042Z</time>
      </trkpt>
      <trkpt lat="44.21378" lon="3.65118">
        <ele>714.98</ele>
        <time>2024-11-05T11:06:14.231Z</time>
      </trkpt>
      <trkpt lat="44.21382" lon="3.65127">
        <ele>715.54</ele>
        <time>2024-11-05T11:06:19.422Z</time>
      </trkpt>
      <trkpt lat="44.21399" lon="3.65203">
        <ele>719.31</ele>
        <time>2024-11-05T11:06:24.622Z</time>
      </trkpt>
      <trkpt lat="44.21408" lon="3.65241">
        <ele>721.39</ele>
        <time>2024-11-05T11:06:29.826Z</time>
      </trkpt>
      <trkpt lat="44.21406" lon="3.65264">
        <ele>722.58</ele>
        <time>2024-11-05T11:06:35.033Z</time>
      </trkpt>
      <trkpt lat="44.21404" lon="3.65288">
        <ele>723.53</ele>
        <time>2024-11-05T11:06:40.243Z</time>
      </trkpt>
      <trkpt lat="44.21395" lon="3.65322">
        <ele>724.75</ele>
        <time>2024-11-05T11:06:45.457Z</time>
      </trkpt>
      <trkpt lat="44.21401" lon="3.65343">
        <ele>725.65</ele>
        <time>2024-11-05T11:06:50.674Z</time>
      </trkpt>
      <trkpt lat="44.21433" lon="3.65406">
        <ele>729.23</ele>
        <time>2024-11-05T11:06:55.900Z</time>
      </trkpt>
      <trkpt lat="44.21434" lon="3.65428">
        <ele>730.07</ele>
        <time>2024-11-05T11:07:01.128Z</time>
      </trkpt>
      <trkpt lat="44.2143" lon="3.65448">
        <ele>730.89</ele>
        <time>2024-11-05T11:07:06.358Z</time>
      </trkpt>
      <trkpt lat="44.21411" lon="3.65472">
        <ele>732.49</ele>
        <time>2024-11-05T11:07:11.593Z</time>
      </trkpt>
      <trkpt lat="44.21345" lon="3.65522">
        <ele>737.59</ele>
        <time>2024-11-05T11:07:16.840Z</time>
      </trkpt>
      <trkpt lat="44.21325" lon="3.65523">
        <ele>738.88</ele>
        <time>2024-11-05T11:07:22.090Z</time>
      </trkpt>
      <trkpt lat="44.21313" lon="3.65533">
        <ele>739.73</ele>
        <time>2024-11-05T11:07:27.342Z</time>
      </trkpt>
      <trkpt lat="44.21304" lon="3.65566">
        <ele>741.18</ele>
        <time>2024-11-05T11:07:32.598Z</time>
      </trkpt>
      <trkpt lat="44.21273" lon="3.6562">
        <ele>743.94</ele>
        <time>2024-11-05T11:07:37.862Z</time>
      </trkpt>
      <trkpt lat="44.2121" lon="3.65701">
        <ele>749.47</ele>
        <time>2024-11-05T11:07:43.140Z</time>
      </trkpt>
      <trkpt lat="44.21184" lon="3.65723">
        <ele>751.67</ele>
        <time>2024-11-05T11:07:48.423Z</time>
      </trkpt>
      <trkpt lat="44.21159" lon="3.6572">
        <ele>753.67</ele>
        <time>2024-11-05T11:07:53.710Z</time>
      </trkpt>
      <trkpt lat="44.21119" lon="3.6569">
        <ele>757.31</ele>
        <time>2024-11-05T11:07:59.004Z</time>
      </trkpt>
      <trkpt lat="44.21091" lon="3.65669">
        <ele>759.59</ele>
        <time>2024-11-05T11:08:04.303Z</time>
      </trkpt>
      <trkpt lat="44.2107" lon="3.65665">
        <ele>761.02</ele>
        <time>2024-11-05T11:08:09.605Z</time>
      </trkpt>
      <trkpt lat="44.21043" lon="3.65702">
        <ele>762.87</ele>
        <time>2024-11-05T11:08:14.913Z</time>
      </trkpt>
      <trkpt lat="44.2102" lon="3.65714">
        <ele>764.37</ele>
        <time>2024-11-05T11:08:20.225Z</time>
      </trkpt>
      <trkpt lat="44.21006" lon="3.65712">
        <ele>765.5</ele>
        <time>2024-11-05T11:08:25.540Z</time>
      </trkpt>
      <trkpt lat="44.20969" lon="3.65708">
        <ele>769.31</ele>
        <time>2024-11-05T11:08:30.861Z</time>
      </trkpt>
      <trkpt lat="44.20944" lon="3.65687">
        <ele>771.94</ele>
        <time>2024-11-05T11:08:36.186Z</time>
      </trkpt>
      <trkpt lat="44.20921" lon="3.65678">
        <ele>773.9</ele>
        <time>2024-11-05T11:08:41.515Z</time>
      </trkpt>
      <trkpt lat="44.20909" lon="3.65696">
        <ele>775.05</ele>
        <time>2024-11-05T11:08:46.847Z</time>
      </trkpt>
      <trkpt lat="44.20904" lon="3.65738">
        <ele>776.68</ele>
        <time>2024-11-05T11:08:52.184Z</time>
      </trkpt>
      <trkpt lat="44.20831" lon="3.65827">
        <ele>782.92</ele>
        <time>2024-11-05T11:08:57.536Z</time>
      </trkpt>
      <trkpt lat="44.20785" lon="3.65856">
        <ele>786.62</ele>
        <time>2024-11-05T11:09:02.896Z</time>
      </trkpt>
      <trkpt lat="44.20741" lon="3.65883">
        <ele>789.75</ele>
        <time>2024-11-05T11:09:08.264Z</time>
      </trkpt>
      <trkpt lat="44.20713" lon="3.65903">
        <ele>791.93</ele>
        <time>2024-11-05T11:09:13.637Z</time>
      </trkpt>
      <trkpt lat="44.20702" lon="3.65925">
        <ele>793.15</ele>
        <time>2024-11-05T11:09:19.013Z</time>
      </trkpt>
      <trkpt lat="44.20693" lon="3.65941">
        <ele>793.84</ele>
        <time>2024-11-05T11:09:24.392Z</time>
      </trkpt>
      <trkpt lat="44.20682" lon="3.6595">
        <ele>794.25</ele>
        <time>2024-11-05T11:09:29.773Z</time>
      </trkpt>
      <trkpt lat="44.20678" lon="3.65949">
        <ele>794.29</ele>
        <time>2024-11-05T11:09:35.154Z</time>
      </trkpt>
      <trkpt lat="44.20676" lon="3.65949">
        <ele>794.27</ele>
        <time>2024-11-05T11:09:40.536Z</time>
      </trkpt>
      <trkpt lat="44.20668" lon="3.65938">
        <ele>794.05</ele>
        <time>2024-11-05T11:09:45.919Z</time>
      </trkpt>
      <trkpt lat="44.20671" lon="3.659">
        <ele>792.88</ele>
        <time>2024-11-05T11:09:51.307Z</time>
      </trkpt>
      <trkpt lat="44.20673" lon="3.65875">
        <ele>791.95</ele>
        <time>2024-11-05T11:09:56.698Z</time>
      </trkpt>
      <trkpt lat="44.20675" lon="3.65825">
        <ele>789.62</ele>
        <time>2024-11-05T11:10:02.094Z</time>
      </trkpt>
      <trkpt lat="44.20676" lon="3.65788">
        <ele>788.1</ele>
        <time>2024-11-05T11:10:07.495Z</time>
      </trkpt>
      <trkpt lat="44.20678" lon="3.65732">
        <ele>786.37</ele>
        <time>2024-11-05T11:10:12.902Z</time>
      </trkpt>
      <trkpt lat="44.20679" lon="3.65707">
        <ele>785.78</ele>
        <time>2024-11-05T11:10:18.312Z</time>
      </trkpt>
      <trkpt lat="44.20694" lon="3.65668">
        <ele>784.63</ele>
        <time>2024-11-05T11:10:23.727Z</time>
      </trkpt>
      <trkpt lat="44.20704" lon="3.6564">
        <ele>783.41</ele>
        <time>2024-11-05T11:10:29.146Z</time>
      </trkpt>
      <trkpt lat="44.20692" lon="3.65584">
        <ele>781.22</ele>
        <time>2024-11-05T11:10:34.571Z</time>
      </trkpt>
      <trkpt lat="44.20686" lon="3.65535">
        <ele>779.31</ele>
        <time>2024-11-05T11:10:40.002Z</time>
      </trkpt>
      <trkpt lat="44.2069" lon="3.65499">
        <ele>778</ele>
        <time>2024-11-05T11:10:45.437Z</time>
      </trkpt>
      <trkpt lat="44.2069" lon="3.65466">
        <ele>777.25</ele>
        <time>2024-11-05T11:10:50.876Z</time>
      </trkpt>
      <trkpt lat="44.20678" lon="3.65436">
        <ele>776.95</ele>
        <time>2024-11-05T11:10:56.319Z</time>
      </trkpt>
      <trkpt lat="44.20671" lon="3.65419">
        <ele>776.53</ele>
        <time>2024-11-05T11:11:01.764Z</time>
      </trkpt>
      <trkpt lat="44.20673" lon="3.65405">
        <ele>775.94</ele>
        <time>2024-11-05T11:11:07.211Z</time>
      </trkpt>
      <trkpt lat="44.20694" lon="3.65376">
        <ele>774.08</ele>
        <time>2024-11-05T11:11:12.663Z</time>
      </trkpt>
      <trkpt lat="44.20715" lon="3.65349">
        <ele>772.57</ele>
        <time>2024-11-05T11:11:18.119Z</time>
      </trkpt>
      <trkpt lat="44.20721" lon="3.65337">
        <ele>771.99</ele>
        <time>2024-11-05T11:11:23.577Z</time>
      </trkpt>
      <trkpt lat="44.20724" lon="3.65322">
        <ele>771.44</ele>
        <time>2024-11-05T11:11:29.037Z</time>
      </trkpt>
      <trkpt lat="44.20711" lon="3.65263">
        <ele>769.48</ele>
        <time>2024-11-05T11:11:34.504Z</time>
      </trkpt>
      <trkpt lat="44.20706" lon="3.65254">
        <ele>769.01</ele>
        <time>2024-11-05T11:11:39.972Z</time>
      </trkpt>
      <trkpt lat="44.20699" lon="3.65246">
        <ele>768.39</ele>
        <time>2024-11-05T11:11:45.442Z</time>
      </trkpt>
      <trkpt lat="44.20683" lon="3.65235">
        <ele>767.11</ele>
        <time>2024-11-05T11:11:50.914Z</time>
      </trkpt>
      <trkpt lat="44.20664" lon="3.6522">
        <ele>766.26</ele>
        <time>2024-11-05T11:11:56.390Z</time>
      </trkpt>
      <trkpt lat="44.20657" lon="3.6521">
        <ele>765.79</ele>
        <time>2024-11-05T11:12:01.868Z</time>
      </trkpt>
      <trkpt lat="44.20653" lon="3.65198">
        <ele>765.2</ele>
        <time>2024-11-05T11:12:07.347Z</time>
      </trkpt>
      <trkpt lat="44.20655" lon="3.65182">
        <ele>764.58</ele>
        <time>2024-11-05T11:12:12.828Z</time>
      </trkpt>
      <trkpt lat="44.20665" lon="3.65155">
        <ele>763.47</ele>
        <time>2024-11-05T11:12:18.312Z</time>
      </trkpt>
      <trkpt lat="44.20666" lon="3.65148">
        <ele>763.17</ele>
        <time>2024-11-05T11:12:23.797Z</time>
      </trkpt>
      <trkpt lat="44.20663" lon="3.65142">
        <ele>762.86</ele>
        <time>2024-11-05T11:12:29.283Z</time>
      </trkpt>
      <trkpt lat="44.20638" lon="3.6512">
        <ele>761.41</ele>
        <time>2024-11-05T11:12:34.774Z</time>
      </trkpt>
      <trkpt lat="44.20633" lon="3.65112">
        <ele>761.14</ele>
        <time>2024-11-05T11:12:40.266Z</time>
      </trkpt>
      <trkpt lat="44.20623" lon="3.65081">
        <ele>760.56</ele>
        <time>2024-11-05T11:12:45.762Z</time>
      </trkpt>
      <trkpt lat="44.20621" lon="3.65061">
        <ele>760.35</ele>
        <time>2024-11-05T11:12:51.260Z</time>
      </trkpt>
      <trkpt lat="44.20624" lon="3.65024">
        <ele>760.16</ele>
        <time>2024-11-05T11:12:56.763Z</time>
      </trkpt>
      <trkpt lat="44.20626" lon="3.64995">
        <ele>760.27</ele>
        <time>2024-11-05T11:13:02.269Z</time>
      </trkpt>
      <trkpt lat="44.20623" lon="3.64975">
        <ele>760.44</ele>
        <time>2024-11-05T11:13:07.777Z</time>
      </trkpt>
      <trkpt lat="44.20624" lon="3.64936">
        <ele>760.83</ele>
        <time>2024-11-05T11:13:13.290Z</time>
      </trkpt>
      <trkpt lat="44.20616" lon="3.64862">
        <ele>761.55</ele>
        <time>2024-11-05T11:13:18.811Z</time>
      </trkpt>
      <trkpt lat="44.20617" lon="3.64847">
        <ele>761.69</ele>
        <time>2024-11-05T11:13:24.334Z</time>
      </trkpt>
      <trkpt lat="44.20625" lon="3.64802">
        <ele>762.2</ele>
        <time>2024-11-05T11:13:29.862Z</time>
      </trkpt>
      <trkpt lat="44.2063" lon="3.64772">
        <ele>762.75</ele>
        <time>2024-11-05T11:13:35.394Z</time>
      </trkpt>
      <trkpt lat="44.20636" lon="3.64738">
        <ele>763.74</ele>
        <time>2024-11-05T11:13:40.930Z</time>
      </trkpt>
      <trkpt lat="44.20641" lon="3.64698">
        <ele>765.09</ele>
        <time>2024-11-05T11:13:46.471Z</time>
      </trkpt>
      <trkpt lat="44.20643" lon="3.6468">
        <ele>765.53</ele>
        <time>2024-11-05T11:13:52.014Z</time>
      </trkpt>
      <trkpt lat="44.20652" lon="3.64645">
        <ele>765.87</ele>
        <time>2024-11-05T11:13:57.561Z</time>
      </trkpt>
      <trkpt lat="44.20649" lon="3.64595">
        <ele>766.02</ele>
        <time>2024-11-05T11:14:03.114Z</time>
      </trkpt>
      <trkpt lat="44.20645" lon="3.64546">
        <ele>765.74</ele>
        <time>2024-11-05T11:14:08.673Z</time>
      </trkpt>
      <trkpt lat="44.20641" lon="3.64536">
        <ele>765.71</ele>
        <time>2024-11-05T11:14:14.233Z</time>
      </trkpt>
      <trkpt lat="44.20635" lon="3.64529">
        <ele>765.72</ele>
        <time>2024-11-05T11:14:19.794Z</time>
      </trkpt>
      <trkpt lat="44.20628" lon="3.64529">
        <ele>765.74</ele>
        <time>2024-11-05T11:14:25.356Z</time>
      </trkpt>
      <trkpt lat="44.20622" lon="3.64532">
        <ele>765.77</ele>
        <time>2024-11-05T11:14:30.919Z</time>
      </trkpt>
      <trkpt lat="44.20609" lon="3.6455">
        <ele>766.07</ele>
        <time>2024-11-05T11:14:36.485Z</time>
      </trkpt>
      <trkpt lat="44.206" lon="3.64556">
        <ele>766.4</ele>
        <time>2024-11-05T11:14:42.053Z</time>
      </trkpt>
      <trkpt lat="44.20587" lon="3.6456">
        <ele>766.88</ele>
        <time>2024-11-05T11:14:47.623Z</time>
      </trkpt>
      <trkpt lat="44.20558" lon="3.64557">
        <ele>767.43</ele>
        <time>2024-11-05T11:14:53.198Z</time>
      </trkpt>
      <trkpt lat="44.20542" lon="3.64563">
        <ele>767.52</ele>
        <time>2024-11-05T11:14:58.775Z</time>
      </trkpt>
      <trkpt lat="44.20533" lon="3.64574">
        <ele>767.57</ele>
        <time>2024-11-05T11:15:04.354Z</time>
      </trkpt>
      <trkpt lat="44.20533" lon="3.64603">
        <ele>767.63</ele>
        <time>2024-11-05T11:15:09.937Z</time>
      </trkpt>
      <trkpt lat="44.2053" lon="3.64615">
        <ele>767.67</ele>
        <time>2024-11-05T11:15:15.521Z</time>
      </trkpt>
      <trkpt lat="44.20515" lon="3.64633">
        <ele>767.9</ele>
        <time>2024-11-05T11:15:21.108Z</time>
      </trkpt>
      <trkpt lat="44.20491" lon="3.64647">
        <ele>768.35</ele>
        <time>2024-11-05T11:15:26.699Z</time>
      </trkpt>
      <trkpt lat="44.20481" lon="3.6465">
        <ele>768.51</ele>
        <time>2024-11-05T11:15:32.292Z</time>
      </trkpt>
      <trkpt lat="44.20472" lon="3.64647">
        <ele>768.68</ele>
        <time>2024-11-05T11:15:37.886Z</time>
      </trkpt>
      <trkpt lat="44.20453" lon="3.64633">
        <ele>769.09</ele>
        <time>2024-11-05T11:15:43.484Z</time>
      </trkpt>
      <trkpt lat="44.20443" lon="3.64628">
        <ele>769.33</ele>
        <time>2024-11-05T11:15:49.084Z</time>
      </trkpt>
      <trkpt lat="44.20432" lon="3.64633">
        <ele>769.59</ele>
        <time>2024-11-05T11:15:54.685Z</time>
      </trkpt>
      <trkpt lat="44.20422" lon="3.64648">
        <ele>769.92</ele>
        <time>2024-11-05T11:16:00.289Z</time>
      </trkpt>
      <trkpt lat="44.20414" lon="3.64665">
        <ele>770.22</ele>
        <time>2024-11-05T11:16:05.895Z</time>
      </trkpt>
      <trkpt lat="44.20397" lon="3.64676">
        <ele>770.62</ele>
        <time>2024-11-05T11:16:11.504Z</time>
      </trkpt>
      <trkpt lat="44.20377" lon="3.64688">
        <ele>771.33</ele>
        <time>2024-11-05T11:16:17.117Z</time>
      </trkpt>
      <trkpt lat="44.20362" lon="3.64693">
        <ele>771.87</ele>
        <time>2024-11-05T11:16:22.732Z</time>
      </trkpt>
      <trkpt lat="44.20334" lon="3.64679">
        <ele>772.53</ele>
        <time>2024-11-05T11:16:28.352Z</time>
      </trkpt>
      <trkpt lat="44.20299" lon="3.64662">
        <ele>772.65</ele>
        <time>2024-11-05T11:16:33.978Z</time>
      </trkpt>
      <trkpt lat="44.20285" lon="3.64667">
        <ele>772.77</ele>
        <time>2024-11-05T11:16:39.606Z</time>
      </trkpt>
      <trkpt lat="44.20274" lon="3.64702">
        <ele>773.01</ele>
        <time>2024-11-05T11:16:45.238Z</time>
      </trkpt>
      <trkpt lat="44.20247" lon="3.64738">
        <ele>772.7</ele>
        <time>2024-11-05T11:16:50.876Z</time>
      </trkpt>
      <trkpt lat="44.20241" lon="3.64764">
        <ele>772.44</ele>
        <time>2024-11-05T11:16:56.518Z</time>
      </trkpt>
      <trkpt lat="44.20235" lon="3.6478">
        <ele>772.31</ele>
        <time>2024-11-05T11:17:02.162Z</time>
      </trkpt>
      <trkpt lat="44.20229" lon="3.64789">
        <ele>772.24</ele>
        <time>2024-11-05T11:17:07.807Z</time>
      </trkpt>
      <trkpt lat="44.20214" lon="3.64803">
        <ele>772.13</ele>
        <time>2024-11-05T11:17:13.455Z</time>
      </trkpt>
      <trkpt lat="44.20195" lon="3.6482">
        <ele>772.23</ele>
        <time>2024-11-05T11:17:19.107Z</time>
      </trkpt>
      <trkpt lat="44.20173" lon="3.64841">
        <ele>772.62</ele>
        <time>2024-11-05T11:17:24.763Z</time>
      </trkpt>
      <trkpt lat="44.20148" lon="3.64864">
        <ele>772.81</ele>
        <time>2024-11-05T11:17:30.424Z</time>
      </trkpt>
      <trkpt lat="44.20104" lon="3.64903">
        <ele>773.62</ele>
        <time>2024-11-05T11:17:36.093Z</time>
      </trkpt>
      <trkpt lat="44.20087" lon="3.64918">
        <ele>773.76</ele>
        <time>2024-11-05T11:17:41.765Z</time>
      </trkpt>
      <trkpt lat="44.20073" lon="3.64962">
        <ele>773.9</ele>
        <time>2024-11-05T11:17:47.443Z</time>
      </trkpt>
      <trkpt lat="44.20062" lon="3.64987">
        <ele>774.07</ele>
        <time>2024-11-05T11:17:53.124Z</time>
      </trkpt>
      <trkpt lat="44.20045" lon="3.65019">
        <ele>774.22</ele>
        <time>2024-11-05T11:17:58.810Z</time>
      </trkpt>
      <trkpt lat="44.20029" lon="3.65034">
        <ele>774.35</ele>
        <time>2024-11-05T11:18:04.499Z</time>
      </trkpt>
      <trkpt lat="44.19964" lon="3.65062">
        <ele>774.48</ele>
        <time>2024-11-05T11:18:10.199Z</time>
      </trkpt>
      <trkpt lat="44.19948" lon="3.65075">
        <ele>774.69</ele>
        <time>2024-11-05T11:18:15.902Z</time>
      </trkpt>
      <trkpt lat="44.1993" lon="3.65097">
        <ele>774.88</ele>
        <time>2024-11-05T11:18:21.608Z</time>
      </trkpt>
      <trkpt lat="44.19917" lon="3.65113">
        <ele>774.84</ele>
        <time>2024-11-05T11:18:27.317Z</time>
      </trkpt>
      <trkpt lat="44.19878" lon="3.65141">
        <ele>774.72</ele>
        <time>2024-11-05T11:18:33.033Z</time>
      </trkpt>
      <trkpt lat="44.19859" lon="3.65147">
        <ele>774.68</ele>
        <time>2024-11-05T11:18:38.752Z</time>
      </trkpt>
      <trkpt lat="44.19825" lon="3.65159">
        <ele>774.98</ele>
        <time>2024-11-05T11:18:44.477Z</time>
      </trkpt>
      <trkpt lat="44.19799" lon="3.65157">
        <ele>775</ele>
        <time>2024-11-05T11:18:50.206Z</time>
      </trkpt>
      <trkpt lat="44.19791" lon="3.65162">
        <ele>774.87</ele>
        <time>2024-11-05T11:18:55.937Z</time>
      </trkpt>
      <trkpt lat="44.19788" lon="3.65173">
        <ele>774.69</ele>
        <time>2024-11-05T11:19:01.669Z</time>
      </trkpt>
      <trkpt lat="44.19784" lon="3.65212">
        <ele>774.26</ele>
        <time>2024-11-05T11:19:07.405Z</time>
      </trkpt>
      <trkpt lat="44.19779" lon="3.65236">
        <ele>774.2</ele>
        <time>2024-11-05T11:19:13.144Z</time>
      </trkpt>
      <trkpt lat="44.19766" lon="3.65263">
        <ele>774.29</ele>
        <time>2024-11-05T11:19:18.887Z</time>
      </trkpt>
      <trkpt lat="44.19751" lon="3.6528">
        <ele>774.54</ele>
        <time>2024-11-05T11:19:24.633Z</time>
      </trkpt>
      <trkpt lat="44.19744" lon="3.65285">
        <ele>774.67</ele>
        <time>2024-11-05T11:19:30.380Z</time>
      </trkpt>
      <trkpt lat="44.19724" lon="3.65298">
        <ele>774.41</ele>
        <time>2024-11-05T11:19:36.131Z</time>
      </trkpt>
      <trkpt lat="44.19704" lon="3.65311">
        <ele>774.37</ele>
        <time>2024-11-05T11:19:41.886Z</time>
      </trkpt>
      <trkpt lat="44.19647" lon="3.65358">
        <ele>773.96</ele>
        <time>2024-11-05T11:19:47.651Z</time>
      </trkpt>
      <trkpt lat="44.19626" lon="3.65375">
        <ele>773.96</ele>
        <time>2024-11-05T11:19:53.420Z</time>
      </trkpt>
      <trkpt lat="44.19595" lon="3.65391">
        <ele>773.89</ele>
        <time>2024-11-05T11:19:59.194Z</time>
      </trkpt>
      <trkpt lat="44.19589" lon="3.65396">
        <ele>773.88</ele>
        <time>2024-11-05T11:20:04.969Z</time>
      </trkpt>
      <trkpt lat="44.19583" lon="3.65406">
        <ele>773.91</ele>
        <time>2024-11-05T11:20:10.746Z</time>
      </trkpt>
      <trkpt lat="44.19564" lon="3.65487">
        <ele>773.93</ele>
        <time>2024-11-05T11:20:16.533Z</time>
      </trkpt>
      <trkpt lat="44.19566" lon="3.65529">
        <ele>773.74</ele>
        <time>2024-11-05T11:20:22.325Z</time>
      </trkpt>
      <trkpt lat="44.19564" lon="3.65549">
        <ele>773.54</ele>
        <time>2024-11-05T11:20:28.119Z</time>
      </trkpt>
      <trkpt lat="44.19523" lon="3.65534">
        <ele>772.5</ele>
        <time>2024-11-05T11:20:33.920Z</time>
      </trkpt>
      <trkpt lat="44.19514" lon="3.6553">
        <ele>772.71</ele>
        <time>2024-11-05T11:20:39.722Z</time>
      </trkpt>
      <trkpt lat="44.19517" lon="3.65503">
        <ele>773.6</ele>
        <time>2024-11-05T11:20:45.527Z</time>
      </trkpt>
      <trkpt lat="44.19518" lon="3.65473">
        <ele>774.91</ele>
        <time>2024-11-05T11:20:51.336Z</time>
      </trkpt>
      <trkpt lat="44.19519" lon="3.6546">
        <ele>774.65</ele>
        <time>2024-11-05T11:20:57.146Z</time>
      </trkpt>
      <trkpt lat="44.19508" lon="3.65455">
        <ele>774.38</ele>
        <time>2024-11-05T11:21:02.958Z</time>
      </trkpt>
      <trkpt lat="44.19494" lon="3.65445">
        <ele>774.12</ele>
        <time>2024-11-05T11:21:08.773Z</time>
      </trkpt>
      <trkpt lat="44.19487" lon="3.65436">
        <ele>774.03</ele>
        <time>2024-11-05T11:21:14.589Z</time>
      </trkpt>
      <trkpt lat="44.19483" lon="3.65424">
        <ele>774</ele>
        <time>2024-11-05T11:21:20.407Z</time>
      </trkpt>
      <trkpt lat="44.19483" lon="3.6537">
        <ele>774.27</ele>
        <time>2024-11-05T11:21:26.231Z</time>
      </trkpt>
      <trkpt lat="44.19483" lon="3.65311">
        <ele>774.3</ele>
        <time>2024-11-05T11:21:32.062Z</time>
      </trkpt>
      <trkpt lat="44.19473" lon="3.65258">
        <ele>774.29</ele>
        <time>2024-11-05T11:21:37.899Z</time>
      </trkpt>
      <trkpt lat="44.19462" lon="3.65229">
        <ele>774.41</ele>
        <time>2024-11-05T11:21:43.740Z</time>
      </trkpt>
      <trkpt lat="44.19452" lon="3.6521">
        <ele>774.4</ele>
        <time>2024-11-05T11:21:49.584Z</time>
      </trkpt>
      <trkpt lat="44.19438" lon="3.65187">
        <ele>774.29</ele>
        <time>2024-11-05T11:21:55.431Z</time>
      </trkpt>
      <trkpt lat="44.19416" lon="3.65162">
        <ele>774.17</ele>
        <time>2024-11-05T11:22:01.282Z</time>
      </trkpt>
      <trkpt lat="44.19395" lon="3.65138">
        <ele>774.29</ele>
        <time>2024-11-05T11:22:07.138Z</time>
      </trkpt>
      <trkpt lat="44.1938" lon="3.65109">
        <ele>774.48</ele>
        <time>2024-11-05T11:22:12.998Z</time>
      </trkpt>
      <trkpt lat="44.19372" lon="3.65104">
        <ele>774.56</ele>
        <time>2024-11-05T11:22:18.859Z</time>
      </trkpt>
      <trkpt lat="44.19364" lon="3.65108">
        <ele>774.59</ele>
        <time>2024-11-05T11:22:24.722Z</time>
      </trkpt>
      <trkpt lat="44.19359" lon="3.65116">
        <ele>774.57</ele>
        <time>2024-11-05T11:22:30.586Z</time>
      </trkpt>
      <trkpt lat="44.1935" lon="3.65173">
        <ele>773.96</ele>
        <time>2024-11-05T11:22:36.457Z</time>
      </trkpt>
      <trkpt lat="44.19343" lon="3.65217">
        <ele>773</ele>
        <time>2024-11-05T11:22:42.333Z</time>
      </trkpt>
      <trkpt lat="44.19338" lon="3.65239">
        <ele>772.53</ele>
        <time>2024-11-05T11:22:48.212Z</time>
      </trkpt>
      <trkpt lat="44.19329" lon="3.65261">
        <ele>772.02</ele>
        <time>2024-11-05T11:22:54.093Z</time>
      </trkpt>
      <trkpt lat="44.19297" lon="3.65312">
        <ele>770.27</ele>
        <time>2024-11-05T11:22:59.982Z</time>
      </trkpt>
      <trkpt lat="44.19281" lon="3.65336">
        <ele>769.25</ele>
        <time>2024-11-05T11:23:05.875Z</time>
      </trkpt>
      <trkpt lat="44.1927" lon="3.65344">
        <ele>768.65</ele>
        <time>2024-11-05T11:23:11.770Z</time>
      </trkpt>
      <trkpt lat="44.1926" lon="3.65344">
        <ele>768.19</ele>
        <time>2024-11-05T11:23:17.667Z</time>
      </trkpt>
      <trkpt lat="44.19249" lon="3.6534">
        <ele>767.52</ele>
        <time>2024-11-05T11:23:23.565Z</time>
      </trkpt>
      <trkpt lat="44.19228" lon="3.65323">
        <ele>766.24</ele>
        <time>2024-11-05T11:23:29.467Z</time>
      </trkpt>
      <trkpt lat="44.19217" lon="3.65312">
        <ele>765.38</ele>
        <time>2024-11-05T11:23:35.371Z</time>
      </trkpt>
      <trkpt lat="44.1921" lon="3.65301">
        <ele>764.71</ele>
        <time>2024-11-05T11:23:41.277Z</time>
      </trkpt>
      <trkpt lat="44.19208" lon="3.6529">
        <ele>764.19</ele>
        <time>2024-11-05T11:23:47.184Z</time>
      </trkpt>
      <trkpt lat="44.19214" lon="3.65254">
        <ele>762.62</ele>
        <time>2024-11-05T11:23:53.096Z</time>
      </trkpt>
      <trkpt lat="44.19213" lon="3.6524">
        <ele>761.99</ele>
        <time>2024-11-05T11:23:59.009Z</time>
      </trkpt>
      <trkpt lat="44.19206" lon="3.6523">
        <ele>761.3</ele>
        <time>2024-11-05T11:24:04.924Z</time>
      </trkpt>
      <trkpt lat="44.19197" lon="3.65228">
        <ele>760.6</ele>
        <time>2024-11-05T11:24:10.840Z</time>
      </trkpt>
      <trkpt lat="44.1919" lon="3.65231">
        <ele>760.03</ele>
        <time>2024-11-05T11:24:16.758Z</time>
      </trkpt>
      <trkpt lat="44.19183" lon="3.65238">
        <ele>759.39</ele>
        <time>2024-11-05T11:24:22.677Z</time>
      </trkpt>
      <trkpt lat="44.19148" lon="3.65296">
        <ele>755.54</ele>
        <time>2024-11-05T11:24:28.605Z</time>
      </trkpt>
      <trkpt lat="44.1912" lon="3.65367">
        <ele>751.56</ele>
        <time>2024-11-05T11:24:34.542Z</time>
      </trkpt>
      <trkpt lat="44.19102" lon="3.654">
        <ele>749.51</ele>
        <time>2024-11-05T11:24:40.484Z</time>
      </trkpt>
      <trkpt lat="44.1908" lon="3.6543">
        <ele>747.38</ele>
        <time>2024-11-05T11:24:46.431Z</time>
      </trkpt>
      <trkpt lat="44.19058" lon="3.65453">
        <ele>745.73</ele>
        <time>2024-11-05T11:24:52.382Z</time>
      </trkpt>
      <trkpt lat="44.1903" lon="3.65472">
        <ele>743.85</ele>
        <time>2024-11-05T11:24:58.338Z</time>
      </trkpt>
      <trkpt lat="44.18964" lon="3.65516">
        <ele>739.03</ele>
        <time>2024-11-05T11:25:04.306Z</time>
      </trkpt>
      <trkpt lat="44.18923" lon="3.65554">
        <ele>736.59</ele>
        <time>2024-11-05T11:25:10.282Z</time>
      </trkpt>
      <trkpt lat="44.18917" lon="3.65555">
        <ele>736.22</ele>
        <time>2024-11-05T11:25:16.259Z</time>
      </trkpt>
      <trkpt lat="44.1891" lon="3.65551">
        <ele>735.67</ele>
        <time>2024-11-05T11:25:22.237Z</time>
      </trkpt>
      <trkpt lat="44.18907" lon="3.65541">
        <ele>735.05</ele>
        <time>2024-11-05T11:25:28.216Z</time>
      </trkpt>
      <trkpt lat="44.18911" lon="3.65507">
        <ele>733.14</ele>
        <time>2024-11-05T11:25:34.199Z</time>
      </trkpt>
      <trkpt lat="44.18921" lon="3.6546">
        <ele>730.8</ele>
        <time>2024-11-05T11:25:40.188Z</time>
      </trkpt>
      <trkpt lat="44.18919" lon="3.65451">
        <ele>730.28</ele>
        <time>2024-11-05T11:25:46.178Z</time>
      </trkpt>
      <trkpt lat="44.18914" lon="3.65445">
        <ele>729.85</ele>
        <time>2024-11-05T11:25:52.169Z</time>
      </trkpt>
      <trkpt lat="44.18906" lon="3.65441">
        <ele>729.19</ele>
        <time>2024-11-05T11:25:58.161Z</time>
      </trkpt>
      <trkpt lat="44.18879" lon="3.65445">
        <ele>727.18</ele>
        <time>2024-11-05T11:26:04.158Z</time>
      </trkpt>
      <trkpt lat="44.18868" lon="3.65445">
        <ele>726.49</ele>
        <time>2024-11-05T11:26:10.156Z</time>
      </trkpt>
      <trkpt lat="44.1886" lon="3.65441">
        <ele>725.99</ele>
        <time>2024-11-05T11:26:16.156Z</time>
      </trkpt>
      <trkpt lat="44.18851" lon="3.65433">
        <ele>725.36</ele>
        <time>2024-11-05T11:26:22.157Z</time>
      </trkpt>
      <trkpt lat="44.18837" lon="3.65424">
        <ele>724.32</ele>
        <time>2024-11-05T11:26:28.161Z</time>
      </trkpt>
      <trkpt lat="44.18832" lon="3.65428">
        <ele>723.88</ele>
        <time>2024-11-05T11:26:34.166Z</time>
      </trkpt>
      <trkpt lat="44.18828" lon="3.65435">
        <ele>723.39</ele>
        <time>2024-11-05T11:26:40.172Z</time>
      </trkpt>
      <trkpt lat="44.18823" lon="3.65475">
        <ele>721.27</ele>
        <time>2024-11-05T11:26:46.182Z</time>
      </trkpt>
      <trkpt lat="44.18816" lon="3.65495">
        <ele>720.18</ele>
        <time>2024-11-05T11:26:52.195Z</time>
      </trkpt>
      <trkpt lat="44.18795" lon="3.65534">
        <ele>717.87</ele>
        <time>2024-11-05T11:26:58.214Z</time>
      </trkpt>
      <trkpt lat="44.18785" lon="3.65546">
        <ele>716.97</ele>
        <time>2024-11-05T11:27:04.235Z</time>
      </trkpt>
      <trkpt lat="44.18771" lon="3.65557">
        <ele>715.88</ele>
        <time>2024-11-05T11:27:10.258Z</time>
      </trkpt>
      <trkpt lat="44.18753" lon="3.65566">
        <ele>714.58</ele>
        <time>2024-11-05T11:27:16.284Z</time>
      </trkpt>
      <trkpt lat="44.18739" lon="3.65567">
        <ele>713.66</ele>
        <time>2024-11-05T11:27:22.313Z</time>
      </trkpt>
      <trkpt lat="44.18721" lon="3.65563">
        <ele>712.52</ele>
        <time>2024-11-05T11:27:28.345Z</time>
      </trkpt>
      <trkpt lat="44.18704" lon="3.65553">
        <ele>711.41</ele>
        <time>2024-11-05T11:27:34.380Z</time>
      </trkpt>
      <trkpt lat="44.18695" lon="3.65552">
        <ele>710.86</ele>
        <time>2024-11-05T11:27:40.416Z</time>
      </trkpt>
      <trkpt lat="44.18688" lon="3.65556">
        <ele>710.38</ele>
        <time>2024-11-05T11:27:46.453Z</time>
      </trkpt>
      <trkpt lat="44.18667" lon="3.65579">
        <ele>708.54</ele>
        <time>2024-11-05T11:27:52.494Z</time>
      </trkpt>
      <trkpt lat="44.18645" lon="3.65596">
        <ele>706.97</ele>
        <time>2024-11-05T11:27:58.539Z</time>
      </trkpt>
      <trkpt lat="44.18632" lon="3.65602">
        <ele>706.15</ele>
        <time>2024-11-05T11:28:04.587Z</time>
      </trkpt>
      <trkpt lat="44.18611" lon="3.65604">
        <ele>704.84</ele>
        <time>2024-11-05T11:28:10.638Z</time>
      </trkpt>
      <trkpt lat="44.18604" lon="3.6561">
        <ele>704.28</ele>
        <time>2024-11-05T11:28:16.690Z</time>
      </trkpt>
      <trkpt lat="44.18599" lon="3.65647">
        <ele>702.45</ele>
        <time>2024-11-05T11:28:22.747Z</time>
      </trkpt>
      <trkpt lat="44.18594" lon="3.65656">
        <ele>701.92</ele>
        <time>2024-11-05T11:28:28.805Z</time>
      </trkpt>
      <trkpt lat="44.1858" lon="3.65666">
        <ele>700.8</ele>
        <time>2024-11-05T11:28:34.866Z</time>
      </trkpt>
      <trkpt lat="44.18524" lon="3.65679">
        <ele>696.81</ele>
        <time>2024-11-05T11:28:40.936Z</time>
      </trkpt>
      <trkpt lat="44.18506" lon="3.65679">
        <ele>695.68</ele>
        <time>2024-11-05T11:28:47.008Z</time>
      </trkpt>
      <trkpt lat="44.18462" lon="3.65662">
        <ele>692.68</ele>
        <time>2024-11-05T11:28:53.088Z</time>
      </trkpt>
      <trkpt lat="44.18435" lon="3.65664">
        <ele>690.97</ele>
        <time>2024-11-05T11:28:59.172Z</time>
      </trkpt>
      <trkpt lat="44.18391" lon="3.6569">
        <ele>688.14</ele>
        <time>2024-11-05T11:29:05.264Z</time>
      </trkpt>
      <trkpt lat="44.18381" lon="3.65693">
        <ele>687.48</ele>
        <time>2024-11-05T11:29:11.357Z</time>
      </trkpt>
      <trkpt lat="44.18363" lon="3.6569">
        <ele>686.25</ele>
        <time>2024-11-05T11:29:17.453Z</time>
      </trkpt>
      <trkpt lat="44.18331" lon="3.65674">
        <ele>684.01</ele>
        <time>2024-11-05T11:29:23.555Z</time>
      </trkpt>
      <trkpt lat="44.18319" lon="3.65676">
        <ele>683.2</ele>
        <time>2024-11-05T11:29:29.659Z</time>
      </trkpt>
      <trkpt lat="44.18308" lon="3.65681">
        <ele>682.42</ele>
        <time>2024-11-05T11:29:35.765Z</time>
      </trkpt>
      <trkpt lat="44.18282" lon="3.65707">
        <ele>680.35</ele>
        <time>2024-11-05T11:29:41.876Z</time>
      </trkpt>
      <trkpt lat="44.18256" lon="3.65719">
        <ele>678.49</ele>
        <time>2024-11-05T11:29:47.991Z</time>
      </trkpt>
      <trkpt lat="44.18245" lon="3.65714">
        <ele>677.72</ele>
        <time>2024-11-05T11:29:54.108Z</time>
      </trkpt>
      <trkpt lat="44.18227" lon="3.65701">
        <ele>676.67</ele>
        <time>2024-11-05T11:30:00.228Z</time>
      </trkpt>
      <trkpt lat="44.18187" lon="3.6567">
        <ele>675.13</ele>
        <time>2024-11-05T11:30:06.355Z</time>
      </trkpt>
      <trkpt lat="44.18175" lon="3.65667">
        <ele>674.69</ele>
        <time>2024-11-05T11:30:12.484Z</time>
      </trkpt>
      <trkpt lat="44.18127" lon="3.65664">
        <ele>672.54</ele>
        <time>2024-11-05T11:30:18.621Z</time>
      </trkpt>
      <trkpt lat="44.18103" lon="3.6566">
        <ele>671.17</ele>
        <time>2024-11-05T11:30:24.762Z</time>
      </trkpt>
      <trkpt lat="44.18094" lon="3.65663">
        <ele>670.48</ele>
        <time>2024-11-05T11:30:30.904Z</time>
      </trkpt>
      <trkpt lat="44.18083" lon="3.6567">
        <ele>669.61</ele>
        <time>2024-11-05T11:30:37.048Z</time>
      </trkpt>
      <trkpt lat="44.18075" lon="3.65672">
        <ele>669</ele>
        <time>2024-11-05T11:30:43.194Z</time>
      </trkpt>
      <trkpt lat="44.18038" lon="3.6567">
        <ele>666.32</ele>
        <time>2024-11-05T11:30:49.346Z</time>
      </trkpt>
      <trkpt lat="44.18008" lon="3.65679">
        <ele>664.1</ele>
        <time>2024-11-05T11:30:55.503Z</time>
      </trkpt>
      <trkpt lat="44.17998" lon="3.6568">
        <ele>663.38</ele>
        <time>2024-11-05T11:31:01.661Z</time>
      </trkpt>
      <trkpt lat="44.17988" lon="3.65678">
        <ele>662.64</ele>
        <time>2024-11-05T11:31:07.821Z</time>
      </trkpt>
      <trkpt lat="44.17952" lon="3.65663">
        <ele>659.98</ele>
        <time>2024-11-05T11:31:13.987Z</time>
      </trkpt>
      <trkpt lat="44.1794" lon="3.6565">
        <ele>658.83</ele>
        <time>2024-11-05T11:31:20.155Z</time>
      </trkpt>
      <trkpt lat="44.1793" lon="3.65636">
        <ele>657.77</ele>
        <time>2024-11-05T11:31:26.325Z</time>
      </trkpt>
      <trkpt lat="44.1791" lon="3.65602">
        <ele>655.37</ele>
        <time>2024-11-05T11:31:32.501Z</time>
      </trkpt>
      <trkpt lat="44.17896" lon="3.65591">
        <ele>654.11</ele>
        <time>2024-11-05T11:31:38.679Z</time>
      </trkpt>
      <trkpt lat="44.17889" lon="3.65588">
        <ele>653.5</ele>
        <time>2024-11-05T11:31:44.858Z</time>
      </trkpt>
      <trkpt lat="44.1788" lon="3.65588">
        <ele>652.74</ele>
        <time>2024-11-05T11:31:51.039Z</time>
      </trkpt>
      <trkpt lat="44.17866" lon="3.65593">
        <ele>651.5</ele>
        <time>2024-11-05T11:31:57.222Z</time>
      </trkpt>
      <trkpt lat="44.17851" lon="3.65604">
        <ele>650.08</ele>
        <time>2024-11-05T11:32:03.408Z</time>
      </trkpt>
      <trkpt lat="44.17837" lon="3.6561">
        <ele>648.93</ele>
        <time>2024-11-05T11:32:09.596Z</time>
      </trkpt>
      <trkpt lat="44.17822" lon="3.6561">
        <ele>647.82</ele>
        <time>2024-11-05T11:32:15.786Z</time>
      </trkpt>
      <trkpt lat="44.17796" lon="3.656">
        <ele>645.85</ele>
        <time>2024-11-05T11:32:21.981Z</time>
      </trkpt>
      <trkpt lat="44.17784" lon="3.65592">
        <ele>644.83</ele>
        <time>2024-11-05T11:32:28.178Z</time>
      </trkpt>
      <trkpt lat="44.17764" lon="3.65558">
        <ele>642.48</ele>
        <time>2024-11-05T11:32:34.380Z</time>
      </trkpt>
      <trkpt lat="44.17751" lon="3.65548">
        <ele>641.26</ele>
        <time>2024-11-05T11:32:40.584Z</time>
      </trkpt>
      <trkpt lat="44.17743" lon="3.65547">
        <ele>640.54</ele>
        <time>2024-11-05T11:32:46.790Z</time>
      </trkpt>
      <trkpt lat="44.17721" lon="3.65552">
        <ele>638.64</ele>
        <time>2024-11-05T11:32:52.999Z</time>
      </trkpt>
      <trkpt lat="44.1771" lon="3.65551">
        <ele>637.75</ele>
        <time>2024-11-05T11:32:59.210Z</time>
      </trkpt>
      <trkpt lat="44.17697" lon="3.65547">
        <ele>636.71</ele>
        <time>2024-11-05T11:33:05.423Z</time>
      </trkpt>
      <trkpt lat="44.17653" lon="3.65524">
        <ele>633.27</ele>
        <time>2024-11-05T11:33:11.644Z</time>
      </trkpt>
      <trkpt lat="44.1762" lon="3.65507">
        <ele>630.86</ele>
        <time>2024-11-05T11:33:17.870Z</time>
      </trkpt>
      <trkpt lat="44.17606" lon="3.65497">
        <ele>629.72</ele>
        <time>2024-11-05T11:33:24.099Z</time>
      </trkpt>
      <trkpt lat="44.17586" lon="3.65457">
        <ele>627.51</ele>
        <time>2024-11-05T11:33:30.333Z</time>
      </trkpt>
      <trkpt lat="44.1758" lon="3.6545">
        <ele>626.98</ele>
        <time>2024-11-05T11:33:36.569Z</time>
      </trkpt>
      <trkpt lat="44.1757" lon="3.65447">
        <ele>626.18</ele>
        <time>2024-11-05T11:33:42.806Z</time>
      </trkpt>
      <trkpt lat="44.17542" lon="3.65458">
        <ele>623.8</ele>
        <time>2024-11-05T11:33:49.048Z</time>
      </trkpt>
      <trkpt lat="44.17526" lon="3.6547">
        <ele>622.31</ele>
        <time>2024-11-05T11:33:55.293Z</time>
      </trkpt>
      <trkpt lat="44.17505" lon="3.65494">
        <ele>620.4</ele>
        <time>2024-11-05T11:34:01.542Z</time>
      </trkpt>
      <trkpt lat="44.17476" lon="3.65509">
        <ele>618.29</ele>
        <time>2024-11-05T11:34:07.796Z</time>
      </trkpt>
      <trkpt lat="44.17445" lon="3.65528">
        <ele>616.27</ele>
        <time>2024-11-05T11:34:14.056Z</time>
      </trkpt>
      <trkpt lat="44.1741" lon="3.6554">
        <ele>614.11</ele>
        <time>2024-11-05T11:34:20.321Z</time>
      </trkpt>
      <trkpt lat="44.17381" lon="3.65541">
        <ele>612.52</ele>
        <time>2024-11-05T11:34:26.591Z</time>
      </trkpt>
      <trkpt lat="44.17363" lon="3.65536">
        <ele>611.58</ele>
        <time>2024-11-05T11:34:32.864Z</time>
      </trkpt>
      <trkpt lat="44.17329" lon="3.65522">
        <ele>609.67</ele>
        <time>2024-11-05T11:34:39.143Z</time>
      </trkpt>
      <trkpt lat="44.17316" lon="3.65514">
        <ele>608.82</ele>
        <time>2024-11-05T11:34:45.424Z</time>
      </trkpt>
      <trkpt lat="44.17308" lon="3.65502">
        <ele>608.08</ele>
        <time>2024-11-05T11:34:51.707Z</time>
      </trkpt>
      <trkpt lat="44.17285" lon="3.65454">
        <ele>605.4</ele>
        <time>2024-11-05T11:34:57.996Z</time>
      </trkpt>
      <trkpt lat="44.17276" lon="3.65449">
        <ele>604.72</ele>
        <time>2024-11-05T11:35:04.287Z</time>
      </trkpt>
      <trkpt lat="44.17253" lon="3.65451">
        <ele>602.94</ele>
        <time>2024-11-05T11:35:10.582Z</time>
      </trkpt>
      <trkpt lat="44.17225" lon="3.65438">
        <ele>600.59</ele>
        <time>2024-11-05T11:35:16.881Z</time>
      </trkpt>
      <trkpt lat="44.17175" lon="3.65415">
        <ele>597.12</ele>
        <time>2024-11-05T11:35:23.189Z</time>
      </trkpt>
      <trkpt lat="44.1714" lon="3.65405">
        <ele>594.98</ele>
        <time>2024-11-05T11:35:29.502Z</time>
      </trkpt>
      <trkpt lat="44.17125" lon="3.65406">
        <ele>594.06</ele>
        <time>2024-11-05T11:35:35.818Z</time>
      </trkpt>
      <trkpt lat="44.17078" lon="3.65416">
        <ele>591.3</ele>
        <time>2024-11-05T11:35:42.142Z</time>
      </trkpt>
      <trkpt lat="44.17059" lon="3.65413">
        <ele>590.04</ele>
        <time>2024-11-05T11:35:48.469Z</time>
      </trkpt>
      <trkpt lat="44.17055" lon="3.65408">
        <ele>589.65</ele>
        <time>2024-11-05T11:35:54.796Z</time>
      </trkpt>
      <trkpt lat="44.17052" lon="3.65399">
        <ele>589.14</ele>
        <time>2024-11-05T11:36:01.125Z</time>
      </trkpt>
      <trkpt lat="44.17052" lon="3.65389">
        <ele>588.63</ele>
        <time>2024-11-05T11:36:07.455Z</time>
      </trkpt>
      <trkpt lat="44.17056" lon="3.65377">
        <ele>588</ele>
        <time>2024-11-05T11:36:13.786Z</time>
      </trkpt>
      <trkpt lat="44.17072" lon="3.6535">
        <ele>586.44</ele>
        <time>2024-11-05T11:36:20.121Z</time>
      </trkpt>
      <trkpt lat="44.17078" lon="3.65332">
        <ele>585.61</ele>
        <time>2024-11-05T11:36:26.459Z</time>
      </trkpt>
      <trkpt lat="44.17086" lon="3.65291">
        <ele>583.76</ele>
        <time>2024-11-05T11:36:32.801Z</time>
      </trkpt>
      <trkpt lat="44.17088" lon="3.65273">
        <ele>582.87</ele>
        <time>2024-11-05T11:36:39.146Z</time>
      </trkpt>
      <trkpt lat="44.17093" lon="3.65236">
        <ele>580.99</ele>
        <time>2024-11-05T11:36:45.495Z</time>
      </trkpt>
      <trkpt lat="44.17099" lon="3.65181">
        <ele>577.77</ele>
        <time>2024-11-05T11:36:51.850Z</time>
      </trkpt>
      <trkpt lat="44.17095" lon="3.65133">
        <ele>575.23</ele>
        <time>2024-11-05T11:36:58.211Z</time>
      </trkpt>
      <trkpt lat="44.17097" lon="3.6509">
        <ele>573.02</ele>
        <time>2024-11-05T11:37:04.577Z</time>
      </trkpt>
      <trkpt lat="44.17084" lon="3.65019">
        <ele>569.29</ele>
        <time>2024-11-05T11:37:10.951Z</time>
      </trkpt>
      <trkpt lat="44.17086" lon="3.64972">
        <ele>567.29</ele>
        <time>2024-11-05T11:37:17.331Z</time>
      </trkpt>
      <trkpt lat="44.17063" lon="3.64888">
        <ele>563.83</ele>
        <time>2024-11-05T11:37:23.721Z</time>
      </trkpt>
      <trkpt lat="44.17059" lon="3.6486">
        <ele>562.79</ele>
        <time>2024-11-05T11:37:30.114Z</time>
      </trkpt>
      <trkpt lat="44.17059" lon="3.64846">
        <ele>562.25</ele>
        <time>2024-11-05T11:37:36.509Z</time>
      </trkpt>
      <trkpt lat="44.17063" lon="3.64825">
        <ele>561.37</ele>
        <time>2024-11-05T11:37:42.906Z</time>
      </trkpt>
      <trkpt lat="44.17075" lon="3.64792">
        <ele>559.73</ele>
        <time>2024-11-05T11:37:49.308Z</time>
      </trkpt>
      <trkpt lat="44.17121" lon="3.64735">
        <ele>555.78</ele>
        <time>2024-11-05T11:37:55.720Z</time>
      </trkpt>
      <trkpt lat="44.17124" lon="3.64733">
        <ele>555.54</ele>
        <time>2024-11-05T11:38:02.132Z</time>
      </trkpt>
      <trkpt lat="44.17166" lon="3.64704">
        <ele>553.64</ele>
        <time>2024-11-05T11:38:08.552Z</time>
      </trkpt>
      <trkpt lat="44.17187" lon="3.64694">
        <ele>552.87</ele>
        <time>2024-11-05T11:38:14.975Z</time>
      </trkpt>
      <trkpt lat="44.17202" lon="3.64675">
        <ele>551.99</ele>
        <time>2024-11-05T11:38:21.401Z</time>
      </trkpt>
      <trkpt lat="44.17219" lon="3.64658">
        <ele>551.28</ele>
        <time>2024-11-05T11:38:27.831Z</time>
      </trkpt>
      <trkpt lat="44.17267" lon="3.64609">
        <ele>549.91</ele>
        <time>2024-11-05T11:38:34.270Z</time>
      </trkpt>
      <trkpt lat="44.17302" lon="3.6459">
        <ele>548.63</ele>
        <time>2024-11-05T11:38:40.715Z</time>
      </trkpt>
      <trkpt lat="44.17368" lon="3.64565">
        <ele>545.37</ele>
        <time>2024-11-05T11:38:47.171Z</time>
      </trkpt>
      <trkpt lat="44.17374" lon="3.6456">
        <ele>544.96</ele>
        <time>2024-11-05T11:38:53.628Z</time>
      </trkpt>
      <trkpt lat="44.17377" lon="3.64544">
        <ele>544.31</ele>
        <time>2024-11-05T11:39:00.087Z</time>
      </trkpt>
      <trkpt lat="44.17373" lon="3.64529">
        <ele>543.63</ele>
        <time>2024-11-05T11:39:06.548Z</time>
      </trkpt>
      <trkpt lat="44.17368" lon="3.64524">
        <ele>543.32</ele>
        <time>2024-11-05T11:39:13.010Z</time>
      </trkpt>
      <trkpt lat="44.17342" lon="3.64519">
        <ele>541.84</ele>
        <time>2024-11-05T11:39:19.476Z</time>
      </trkpt>
      <trkpt lat="44.17316" lon="3.64515">
        <ele>539.88</ele>
        <time>2024-11-05T11:39:25.946Z</time>
      </trkpt>
      <trkpt lat="44.17306" lon="3.64516">
        <ele>539.11</ele>
        <time>2024-11-05T11:39:32.418Z</time>
      </trkpt>
      <trkpt lat="44.17285" lon="3.64526">
        <ele>537.54</ele>
        <time>2024-11-05T11:39:38.894Z</time>
      </trkpt>
      <trkpt lat="44.17257" lon="3.6454">
        <ele>535.96</ele>
        <time>2024-11-05T11:39:45.374Z</time>
      </trkpt>
      <trkpt lat="44.17227" lon="3.64548">
        <ele>534.41</ele>
        <time>2024-11-05T11:39:51.859Z</time>
      </trkpt>
      <trkpt lat="44.17195" lon="3.64553">
        <ele>532.67</ele>
        <time>2024-11-05T11:39:58.349Z</time>
      </trkpt>
      <trkpt lat="44.17185" lon="3.64557">
        <ele>532.07</ele>
        <time>2024-11-05T11:40:04.841Z</time>
      </trkpt>
      <trkpt lat="44.17178" lon="3.64564">
        <ele>531.58</ele>
        <time>2024-11-05T11:40:11.334Z</time>
      </trkpt>
      <trkpt lat="44.17154" lon="3.64598">
        <ele>529.74</ele>
        <time>2024-11-05T11:40:17.833Z</time>
      </trkpt>
      <trkpt lat="44.17134" lon="3.64615">
        <ele>528.52</ele>
        <time>2024-11-05T11:40:24.336Z</time>
      </trkpt>
      <trkpt lat="44.17127" lon="3.64618">
        <ele>528.12</ele>
        <time>2024-11-05T11:40:30.840Z</time>
      </trkpt>
      <trkpt lat="44.17119" lon="3.64618">
        <ele>527.69</ele>
        <time>2024-11-05T11:40:37.345Z</time>
      </trkpt>
      <trkpt lat="44.17095" lon="3.64613">
        <ele>526.36</ele>
        <time>2024-11-05T11:40:43.854Z</time>
      </trkpt>
      <trkpt lat="44.17082" lon="3.64613">
        <ele>525.64</ele>
        <time>2024-11-05T11:40:50.365Z</time>
      </trkpt>
      <trkpt lat="44.17072" lon="3.64617">
        <ele>525.07</ele>
        <time>2024-11-05T11:40:56.878Z</time>
      </trkpt>
      <trkpt lat="44.17036" lon="3.64639">
        <ele>523.02</ele>
        <time>2024-11-05T11:41:03.397Z</time>
      </trkpt>
      <trkpt lat="44.17021" lon="3.64643">
        <ele>522.25</ele>
        <time>2024-11-05T11:41:09.919Z</time>
      </trkpt>
      <trkpt lat="44.17014" lon="3.6464">
        <ele>521.89</ele>
        <time>2024-11-05T11:41:16.442Z</time>
      </trkpt>
      <trkpt lat="44.17005" lon="3.64633">
        <ele>521.33</ele>
        <time>2024-11-05T11:41:22.966Z</time>
      </trkpt>
      <trkpt lat="44.16985" lon="3.64597">
        <ele>519.69</ele>
        <time>2024-11-05T11:41:29.496Z</time>
      </trkpt>
      <trkpt lat="44.1698" lon="3.64592">
        <ele>519.42</ele>
        <time>2024-11-05T11:41:36.027Z</time>
      </trkpt>
      <trkpt lat="44.16953" lon="3.64574">
        <ele>518.3</ele>
        <time>2024-11-05T11:41:42.562Z</time>
      </trkpt>
      <trkpt lat="44.16944" lon="3.64567">
        <ele>518.62</ele>
        <time>2024-11-05T11:41:49.099Z</time>
      </trkpt>
      <trkpt lat="44.16953" lon="3.64573">
        <ele>518.98</ele>
        <time>2024-11-05T11:41:55.638Z</time>
      </trkpt>
      <trkpt lat="44.16962" lon="3.6458">
        <ele>519.61</ele>
        <time>2024-11-05T11:42:02.178Z</time>
      </trkpt>
      <trkpt lat="44.16963" lon="3.64572">
        <ele>519.95</ele>
        <time>2024-11-05T11:42:08.719Z</time>
      </trkpt>
      <trkpt lat="44.16961" lon="3.64568">
        <ele>520.17</ele>
        <time>2024-11-05T11:42:15.261Z</time>
      </trkpt>
      <trkpt lat="44.1694" lon="3.64556">
        <ele>521.75</ele>
        <time>2024-11-05T11:42:21.806Z</time>
      </trkpt>
      <trkpt lat="44.16927" lon="3.64544">
        <ele>522.89</ele>
        <time>2024-11-05T11:42:28.354Z</time>
      </trkpt>
      <trkpt lat="44.16924" lon="3.64534">
        <ele>523.4</ele>
        <time>2024-11-05T11:42:34.903Z</time>
      </trkpt>
      <trkpt lat="44.16923" lon="3.64522">
        <ele>523.89</ele>
        <time>2024-11-05T11:42:41.454Z</time>
      </trkpt>
      <trkpt lat="44.16934" lon="3.64454">
        <ele>526.67</ele>
        <time>2024-11-05T11:42:48.013Z</time>
      </trkpt>
      <trkpt lat="44.16942" lon="3.64406">
        <ele>529.14</ele>
        <time>2024-11-05T11:42:54.577Z</time>
      </trkpt>
      <trkpt lat="44.16963" lon="3.64324">
        <ele>533.91</ele>
        <time>2024-11-05T11:43:01.151Z</time>
      </trkpt>
      <trkpt lat="44.16984" lon="3.64281">
        <ele>536.62</ele>
        <time>2024-11-05T11:43:07.731Z</time>
      </trkpt>
      <trkpt lat="44.16984" lon="3.64267">
        <ele>537.27</ele>
        <time>2024-11-05T11:43:14.313Z</time>
      </trkpt>
      <trkpt lat="44.16973" lon="3.64205">
        <ele>540.47</ele>
        <time>2024-11-05T11:43:20.902Z</time>
      </trkpt>
      <trkpt lat="44.16973" lon="3.64195">
        <ele>540.95</ele>
        <time>2024-11-05T11:43:27.492Z</time>
      </trkpt>
      <trkpt lat="44.16982" lon="3.6417">
        <ele>542.13</ele>
        <time>2024-11-05T11:43:34.086Z</time>
      </trkpt>
      <trkpt lat="44.16981" lon="3.64146">
        <ele>543.14</ele>
        <time>2024-11-05T11:43:40.682Z</time>
      </trkpt>
      <trkpt lat="44.16984" lon="3.64112">
        <ele>544.78</ele>
        <time>2024-11-05T11:43:47.282Z</time>
      </trkpt>
      <trkpt lat="44.16984" lon="3.64089">
        <ele>546.14</ele>
        <time>2024-11-05T11:43:53.885Z</time>
      </trkpt>
      <trkpt lat="44.16979" lon="3.64043">
        <ele>548.83</ele>
        <time>2024-11-05T11:44:00.493Z</time>
      </trkpt>
      <trkpt lat="44.1698" lon="3.64033">
        <ele>549.34</ele>
        <time>2024-11-05T11:44:07.102Z</time>
      </trkpt>
      <trkpt lat="44.1699" lon="3.64015">
        <ele>550.5</ele>
        <time>2024-11-05T11:44:13.714Z</time>
      </trkpt>
      <trkpt lat="44.16995" lon="3.63999">
        <ele>551.42</ele>
        <time>2024-11-05T11:44:20.328Z</time>
      </trkpt>
      <trkpt lat="44.17001" lon="3.63962">
        <ele>553.24</ele>
        <time>2024-11-05T11:44:26.946Z</time>
      </trkpt>
      <trkpt lat="44.1701" lon="3.63951">
        <ele>553.98</ele>
        <time>2024-11-05T11:44:33.566Z</time>
      </trkpt>
      <trkpt lat="44.1703" lon="3.63917">
        <ele>555.84</ele>
        <time>2024-11-05T11:44:40.191Z</time>
      </trkpt>
      <trkpt lat="44.17043" lon="3.63892">
        <ele>557.17</ele>
        <time>2024-11-05T11:44:46.820Z</time>
      </trkpt>
      <trkpt lat="44.17074" lon="3.6383">
        <ele>561.34</ele>
        <time>2024-11-05T11:44:53.458Z</time>
      </trkpt>
      <trkpt lat="44.17086" lon="3.638">
        <ele>563.22</ele>
        <time>2024-11-05T11:45:00.100Z</time>
      </trkpt>
      <trkpt lat="44.17088" lon="3.63787">
        <ele>563.91</ele>
        <time>2024-11-05T11:45:06.743Z</time>
      </trkpt>
      <trkpt lat="44.17082" lon="3.63769">
        <ele>564.86</ele>
        <time>2024-11-05T11:45:13.388Z</time>
      </trkpt>
      <trkpt lat="44.17083" lon="3.63698">
        <ele>568.11</ele>
        <time>2024-11-05T11:45:20.042Z</time>
      </trkpt>
      <trkpt lat="44.1708" lon="3.63676">
        <ele>569.2</ele>
        <time>2024-11-05T11:45:26.698Z</time>
      </trkpt>
      <trkpt lat="44.17077" lon="3.6366">
        <ele>569.81</ele>
        <time>2024-11-05T11:45:33.356Z</time>
      </trkpt>
      <trkpt lat="44.17075" lon="3.63641">
        <ele>570.03</ele>
        <time>2024-11-05T11:45:40.016Z</time>
      </trkpt>
      <trkpt lat="44.17075" lon="3.63635">
        <ele>570.27</ele>
        <time>2024-11-05T11:45:46.677Z</time>
      </trkpt>
      <trkpt lat="44.17088" lon="3.63612">
        <ele>571.55</ele>
        <time>2024-11-05T11:45:53.341Z</time>
      </trkpt>
      <trkpt lat="44.1711" lon="3.63599">
        <ele>572.83</ele>
        <time>2024-11-05T11:46:00.009Z</time>
      </trkpt>
      <trkpt lat="44.17116" lon="3.63592">
        <ele>573.23</ele>
        <time>2024-11-05T11:46:06.678Z</time>
      </trkpt>
      <trkpt lat="44.17131" lon="3.63556">
        <ele>574.89</ele>
        <time>2024-11-05T11:46:13.352Z</time>
      </trkpt>
      <trkpt lat="44.17144" lon="3.63531">
        <ele>576.31</ele>
        <time>2024-11-05T11:46:20.030Z</time>
      </trkpt>
      <trkpt lat="44.17166" lon="3.63507">
        <ele>578.05</ele>
        <time>2024-11-05T11:46:26.712Z</time>
      </trkpt>
      <trkpt lat="44.17166" lon="3.63497">
        <ele>578.41</ele>
        <time>2024-11-05T11:46:33.395Z</time>
      </trkpt>
      <trkpt lat="44.17164" lon="3.63489">
        <ele>578.76</ele>
        <time>2024-11-05T11:46:40.079Z</time>
      </trkpt>
      <trkpt lat="44.17135" lon="3.63469">
        <ele>580.37</ele>
        <time>2024-11-05T11:46:46.769Z</time>
      </trkpt>
      <trkpt lat="44.17128" lon="3.63457">
        <ele>580.96</ele>
        <time>2024-11-05T11:46:53.460Z</time>
      </trkpt>
      <trkpt lat="44.17114" lon="3.63396">
        <ele>583.89</ele>
        <time>2024-11-05T11:47:00.159Z</time>
      </trkpt>
      <trkpt lat="44.17115" lon="3.63382">
        <ele>584.54</ele>
        <time>2024-11-05T11:47:06.859Z</time>
      </trkpt>
      <trkpt lat="44.17135" lon="3.63335">
        <ele>586.72</ele>
        <time>2024-11-05T11:47:13.566Z</time>
      </trkpt>
      <trkpt lat="44.1714" lon="3.633">
        <ele>588.45</ele>
        <time>2024-11-05T11:47:20.277Z</time>
      </trkpt>
      <trkpt lat="44.17145" lon="3.63284">
        <ele>589.37</ele>
        <time>2024-11-05T11:47:26.990Z</time>
      </trkpt>
      <trkpt lat="44.17153" lon="3.63266">
        <ele>590.42</ele>
        <time>2024-11-05T11:47:33.705Z</time>
      </trkpt>
      <trkpt lat="44.17162" lon="3.6326">
        <ele>591.06</ele>
        <time>2024-11-05T11:47:40.422Z</time>
      </trkpt>
      <trkpt lat="44.17177" lon="3.63262">
        <ele>591.89</ele>
        <time>2024-11-05T11:47:47.141Z</time>
      </trkpt>
      <trkpt lat="44.17196" lon="3.63261">
        <ele>592.94</ele>
        <time>2024-11-05T11:47:53.863Z</time>
      </trkpt>
      <trkpt lat="44.17225" lon="3.63234">
        <ele>595.25</ele>
        <time>2024-11-05T11:48:00.591Z</time>
      </trkpt>
      <trkpt lat="44.1724" lon="3.63219">
        <ele>596.2</ele>
        <time>2024-11-05T11:48:07.322Z</time>
      </trkpt>
      <trkpt lat="44.17263" lon="3.63181">
        <ele>597.19</ele>
        <time>2024-11-05T11:48:14.058Z</time>
      </trkpt>
      <trkpt lat="44.17264" lon="3.63172">
        <ele>597.34</ele>
        <time>2024-11-05T11:48:20.796Z</time>
      </trkpt>
      <trkpt lat="44.17255" lon="3.63127">
        <ele>598.05</ele>
        <time>2024-11-05T11:48:27.539Z</time>
      </trkpt>
      <trkpt lat="44.1725" lon="3.63102">
        <ele>598.08</ele>
        <time>2024-11-05T11:48:34.285Z</time>
      </trkpt>
      <trkpt lat="44.17249" lon="3.63078">
        <ele>597.54</ele>
        <time>2024-11-05T11:48:41.034Z</time>
      </trkpt>
      <trkpt lat="44.17251" lon="3.63061">
        <ele>596.97</ele>
        <time>2024-11-05T11:48:47.785Z</time>
      </trkpt>
      <trkpt lat="44.17259" lon="3.63047">
        <ele>596.41</ele>
        <time>2024-11-05T11:48:54.538Z</time>
      </trkpt>
      <trkpt lat="44.17276" lon="3.63023">
        <ele>595.58</ele>
        <time>2024-11-05T11:49:01.295Z</time>
      </trkpt>
      <trkpt lat="44.17286" lon="3.6301">
        <ele>595.28</ele>
        <time>2024-11-05T11:49:08.054Z</time>
      </trkpt>
      <trkpt lat="44.17301" lon="3.62995">
        <ele>595.21</ele>
        <time>2024-11-05T11:49:14.816Z</time>
      </trkpt>
      <trkpt lat="44.17319" lon="3.62977">
        <ele>595.49</ele>
        <time>2024-11-05T11:49:21.581Z</time>
      </trkpt>
      <trkpt lat="44.17358" lon="3.62945">
        <ele>596.69</ele>
        <time>2024-11-05T11:49:28.354Z</time>
      </trkpt>
      <trkpt lat="44.17375" lon="3.62928">
        <ele>597.24</ele>
        <time>2024-11-05T11:49:35.130Z</time>
      </trkpt>
      <trkpt lat="44.17391" lon="3.62907">
        <ele>597.92</ele>
        <time>2024-11-05T11:49:41.909Z</time>
      </trkpt>
      <trkpt lat="44.17403" lon="3.6288">
        <ele>598.84</ele>
        <time>2024-11-05T11:49:48.692Z</time>
      </trkpt>
      <trkpt lat="44.17425" lon="3.62859">
        <ele>599.84</ele>
        <time>2024-11-05T11:49:55.479Z</time>
      </trkpt>
      <trkpt lat="44.17427" lon="3.62851">
        <ele>600.02</ele>
        <time>2024-11-05T11:50:02.267Z</time>
      </trkpt>
      <trkpt lat="44.17422" lon="3.62821">
        <ele>600.56</ele>
        <time>2024-11-05T11:50:09.059Z</time>
      </trkpt>
      <trkpt lat="44.17422" lon="3.62807">
        <ele>600.85</ele>
        <time>2024-11-05T11:50:15.852Z</time>
      </trkpt>
      <trkpt lat="44.17432" lon="3.62766">
        <ele>602.06</ele>
        <time>2024-11-05T11:50:22.650Z</time>
      </trkpt>
      <trkpt lat="44.17437" lon="3.62755">
        <ele>602.48</ele>
        <time>2024-11-05T11:50:29.450Z</time>
      </trkpt>
      <trkpt lat="44.17437" lon="3.62753">
        <ele>602.34</ele>
        <time>2024-11-05T11:50:36.250Z</time>
      </trkpt>
      <trkpt lat="44.17446" lon="3.62732">
        <ele>602.99</ele>
        <time>2024-11-05T11:50:43.053Z</time>
      </trkpt>
      <trkpt lat="44.17458" lon="3.6272">
        <ele>603.53</ele>
        <time>2024-11-05T11:50:49.858Z</time>
      </trkpt>
      <trkpt lat="44.17471" lon="3.62712">
        <ele>604.24</ele>
        <time>2024-11-05T11:50:56.666Z</time>
      </trkpt>
      <trkpt lat="44.17542" lon="3.62702">
        <ele>607.8</ele>
        <time>2024-11-05T11:51:03.485Z</time>
      </trkpt>
      <trkpt lat="44.17609" lon="3.627">
        <ele>611.32</ele>
        <time>2024-11-05T11:51:10.315Z</time>
      </trkpt>
      <trkpt lat="44.1764" lon="3.62684">
        <ele>613.07</ele>
        <time>2024-11-05T11:51:17.150Z</time>
      </trkpt>
      <trkpt lat="44.17651" lon="3.62663">
        <ele>614.07</ele>
        <time>2024-11-05T11:51:23.988Z</time>
      </trkpt>
      <trkpt lat="44.17659" lon="3.62654">
        <ele>614.66</ele>
        <time>2024-11-05T11:51:30.828Z</time>
      </trkpt>
      <trkpt lat="44.17666" lon="3.6265">
        <ele>615.1</ele>
        <time>2024-11-05T11:51:37.669Z</time>
      </trkpt>
      <trkpt lat="44.17679" lon="3.62648">
        <ele>615.82</ele>
        <time>2024-11-05T11:51:44.512Z</time>
      </trkpt>
      <trkpt lat="44.17684" lon="3.62644">
        <ele>616.09</ele>
        <time>2024-11-05T11:51:51.356Z</time>
      </trkpt>
      <trkpt lat="44.17688" lon="3.62637">
        <ele>616.35</ele>
        <time>2024-11-05T11:51:58.201Z</time>
      </trkpt>
      <trkpt lat="44.17689" lon="3.62606">
        <ele>617.15</ele>
        <time>2024-11-05T11:52:05.049Z</time>
      </trkpt>
      <trkpt lat="44.1768" lon="3.62604">
        <ele>617.56</ele>
        <time>2024-11-05T11:52:11.899Z</time>
      </trkpt>
      <trkpt lat="44.17663" lon="3.62611">
        <ele>618.37</ele>
        <time>2024-11-05T11:52:18.752Z</time>
      </trkpt>
      <trkpt lat="44.17648" lon="3.62623">
        <ele>619.28</ele>
        <time>2024-11-05T11:52:25.608Z</time>
      </trkpt>
      <trkpt lat="44.17638" lon="3.6263">
        <ele>620.02</ele>
        <time>2024-11-05T11:52:32.465Z</time>
      </trkpt>
      <trkpt lat="44.17629" lon="3.62632">
        <ele>620.77</ele>
        <time>2024-11-05T11:52:39.324Z</time>
      </trkpt>
      <trkpt lat="44.17616" lon="3.62631">
        <ele>621.87</ele>
        <time>2024-11-05T11:52:46.185Z</time>
      </trkpt>
      <trkpt lat="44.17604" lon="3.62623">
        <ele>622.93</ele>
        <time>2024-11-05T11:52:53.048Z</time>
      </trkpt>
      <trkpt lat="44.17594" lon="3.62605">
        <ele>624.21</ele>
        <time>2024-11-05T11:52:59.914Z</time>
      </trkpt>
      <trkpt lat="44.17592" lon="3.62581">
        <ele>625.64</ele>
        <time>2024-11-05T11:53:06.782Z</time>
      </trkpt>
      <trkpt lat="44.17599" lon="3.62489">
        <ele>631.25</ele>
        <time>2024-11-05T11:53:13.661Z</time>
      </trkpt>
      <trkpt lat="44.17596" lon="3.62479">
        <ele>631.9</ele>
        <time>2024-11-05T11:53:20.541Z</time>
      </trkpt>
      <trkpt lat="44.17588" lon="3.62472">
        <ele>632.69</ele>
        <time>2024-11-05T11:53:27.423Z</time>
      </trkpt>
      <trkpt lat="44.17565" lon="3.62469">
        <ele>634.68</ele>
        <time>2024-11-05T11:53:34.309Z</time>
      </trkpt>
      <trkpt lat="44.17554" lon="3.62476">
        <ele>635.72</ele>
        <time>2024-11-05T11:53:41.196Z</time>
      </trkpt>
      <trkpt lat="44.17547" lon="3.62487">
        <ele>636.64</ele>
        <time>2024-11-05T11:53:48.085Z</time>
      </trkpt>
      <trkpt lat="44.17544" lon="3.62518">
        <ele>638.37</ele>
        <time>2024-11-05T11:53:54.978Z</time>
      </trkpt>
      <trkpt lat="44.1754" lon="3.62535">
        <ele>639.41</ele>
        <time>2024-11-05T11:54:01.873Z</time>
      </trkpt>
      <trkpt lat="44.1753" lon="3.62551">
        <ele>640.72</ele>
        <time>2024-11-05T11:54:08.770Z</time>
      </trkpt>
      <trkpt lat="44.17518" lon="3.62556">
        <ele>641.72</ele>
        <time>2024-11-05T11:54:15.669Z</time>
      </trkpt>
      <trkpt lat="44.17488" lon="3.62555">
        <ele>644.28</ele>
        <time>2024-11-05T11:54:22.573Z</time>
      </trkpt>
      <trkpt lat="44.17462" lon="3.62539">
        <ele>646.54</ele>
        <time>2024-11-05T11:54:29.482Z</time>
      </trkpt>
      <trkpt lat="44.17436" lon="3.62501">
        <ele>649.5</ele>
        <time>2024-11-05T11:54:36.397Z</time>
      </trkpt>
      <trkpt lat="44.17407" lon="3.62471">
        <ele>652.61</ele>
        <time>2024-11-05T11:54:43.317Z</time>
      </trkpt>
      <trkpt lat="44.1732" lon="3.62402">
        <ele>661.74</ele>
        <time>2024-11-05T11:54:50.253Z</time>
      </trkpt>
      <trkpt lat="44.17307" lon="3.62401">
        <ele>662.86</ele>
        <time>2024-11-05T11:54:57.192Z</time>
      </trkpt>
      <trkpt lat="44.17282" lon="3.62408">
        <ele>665.22</ele>
        <time>2024-11-05T11:55:04.135Z</time>
      </trkpt>
      <trkpt lat="44.17266" lon="3.62412">
        <ele>667.07</ele>
        <time>2024-11-05T11:55:11.080Z</time>
      </trkpt>
      <trkpt lat="44.17249" lon="3.62413">
        <ele>669.06</ele>
        <time>2024-11-05T11:55:18.028Z</time>
      </trkpt>
      <trkpt lat="44.17221" lon="3.62404">
        <ele>672.06</ele>
        <time>2024-11-05T11:55:24.981Z</time>
      </trkpt>
      <trkpt lat="44.17214" lon="3.62409">
        <ele>672.82</ele>
        <time>2024-11-05T11:55:31.935Z</time>
      </trkpt>
      <trkpt lat="44.17211" lon="3.62416">
        <ele>673.38</ele>
        <time>2024-11-05T11:55:38.890Z</time>
      </trkpt>
      <trkpt lat="44.1721" lon="3.62426">
        <ele>674.08</ele>
        <time>2024-11-05T11:55:45.846Z</time>
      </trkpt>
      <trkpt lat="44.17212" lon="3.62442">
        <ele>675.19</ele>
        <time>2024-11-05T11:55:52.804Z</time>
      </trkpt>
      <trkpt lat="44.1722" lon="3.62461">
        <ele>676.59</ele>
        <time>2024-11-05T11:55:59.764Z</time>
      </trkpt>
      <trkpt lat="44.17236" lon="3.62485">
        <ele>678.55</ele>
        <time>2024-11-05T11:56:06.728Z</time>
      </trkpt>
      <trkpt lat="44.1724" lon="3.62501">
        <ele>679.54</ele>
        <time>2024-11-05T11:56:13.694Z</time>
      </trkpt>
      <trkpt lat="44.17247" lon="3.62555">
        <ele>683.21</ele>
        <time>2024-11-05T11:56:20.666Z</time>
      </trkpt>
      <trkpt lat="44.17247" lon="3.62577">
        <ele>684.6</ele>
        <time>2024-11-05T11:56:27.641Z</time>
      </trkpt>
      <trkpt lat="44.17242" lon="3.62597">
        <ele>685.99</ele>
        <time>2024-11-05T11:56:34.618Z</time>
      </trkpt>
      <trkpt lat="44.17232" lon="3.62615">
        <ele>687.38</ele>
        <time>2024-11-05T11:56:41.598Z</time>
      </trkpt>
      <trkpt lat="44.17214" lon="3.62636">
        <ele>689.47</ele>
        <time>2024-11-05T11:56:48.582Z</time>
      </trkpt>
      <trkpt lat="44.17187" lon="3.62662">
        <ele>692.47</ele>
        <time>2024-11-05T11:56:55.571Z</time>
      </trkpt>
      <trkpt lat="44.1717" lon="3.62678">
        <ele>694.5</ele>
        <time>2024-11-05T11:57:02.563Z</time>
      </trkpt>
      <trkpt lat="44.17157" lon="3.62686">
        <ele>695.95</ele>
        <time>2024-11-05T11:57:09.558Z</time>
      </trkpt>
      <trkpt lat="44.17097" lon="3.62705">
        <ele>702.3</ele>
        <time>2024-11-05T11:57:16.562Z</time>
      </trkpt>
      <trkpt lat="44.17076" lon="3.62706">
        <ele>704.62</ele>
        <time>2024-11-05T11:57:23.570Z</time>
      </trkpt>
      <trkpt lat="44.17057" lon="3.62714">
        <ele>706.99</ele>
        <time>2024-11-05T11:57:30.581Z</time>
      </trkpt>
      <trkpt lat="44.17053" lon="3.62715">
        <ele>707.21</ele>
        <time>2024-11-05T11:57:37.593Z</time>
      </trkpt>
      <trkpt lat="44.17049" lon="3.62713">
        <ele>707.49</ele>
        <time>2024-11-05T11:57:44.605Z</time>
      </trkpt>
      <trkpt lat="44.17051" lon="3.62706">
        <ele>707.73</ele>
        <time>2024-11-05T11:57:51.618Z</time>
      </trkpt>
      <trkpt lat="44.17074" lon="3.62698">
        <ele>708.96</ele>
        <time>2024-11-05T11:57:58.635Z</time>
      </trkpt>
      <trkpt lat="44.17096" lon="3.62685">
        <ele>710.54</ele>
        <time>2024-11-05T11:58:05.656Z</time>
      </trkpt>
      <trkpt lat="44.17131" lon="3.62646">
        <ele>713.47</ele>
        <time>2024-11-05T11:58:12.684Z</time>
      </trkpt>
      <trkpt lat="44.1715" lon="3.62614">
        <ele>715.37</ele>
        <time>2024-11-05T11:58:19.717Z</time>
      </trkpt>
      <trkpt lat="44.17163" lon="3.62572">
        <ele>717.56</ele>
        <time>2024-11-05T11:58:26.755Z</time>
      </trkpt>
      <trkpt lat="44.17163" lon="3.62544">
        <ele>718.95</ele>
        <time>2024-11-05T11:58:33.796Z</time>
      </trkpt>
      <trkpt lat="44.17147" lon="3.62485">
        <ele>722.12</ele>
        <time>2024-11-05T11:58:40.844Z</time>
      </trkpt>
      <trkpt lat="44.17134" lon="3.62455">
        <ele>724.08</ele>
        <time>2024-11-05T11:58:47.896Z</time>
      </trkpt>
      <trkpt lat="44.17122" lon="3.62428">
        <ele>726.11</ele>
        <time>2024-11-05T11:58:54.952Z</time>
      </trkpt>
      <trkpt lat="44.17117" lon="3.62429">
        <ele>726.46</ele>
        <time>2024-11-05T11:59:02.009Z</time>
      </trkpt>
      <trkpt lat="44.17117" lon="3.62438">
        <ele>726.89</ele>
        <time>2024-11-05T11:59:09.067Z</time>
      </trkpt>
      <trkpt lat="44.17132" lon="3.62482">
        <ele>729.47</ele>
        <time>2024-11-05T11:59:16.131Z</time>
      </trkpt>
      <trkpt lat="44.17133" lon="3.62508">
        <ele>731.05</ele>
        <time>2024-11-05T11:59:23.198Z</time>
      </trkpt>
      <trkpt lat="44.17128" lon="3.62561">
        <ele>734.58</ele>
        <time>2024-11-05T11:59:30.271Z</time>
      </trkpt>
      <trkpt lat="44.17119" lon="3.6258">
        <ele>736.03</ele>
        <time>2024-11-05T11:59:37.346Z</time>
      </trkpt>
      <trkpt lat="44.17108" lon="3.62592">
        <ele>737.26</ele>
        <time>2024-11-05T11:59:44.424Z</time>
      </trkpt>
      <trkpt lat="44.17061" lon="3.62623">
        <ele>741.4</ele>
        <time>2024-11-05T11:59:51.510Z</time>
      </trkpt>
      <trkpt lat="44.17049" lon="3.62626">
        <ele>742.52</ele>
        <time>2024-11-05T11:59:58.598Z</time>
      </trkpt>
      <trkpt lat="44.17017" lon="3.62625">
        <ele>745.34</ele>
        <time>2024-11-05T12:00:05.691Z</time>
      </trkpt>
      <trkpt lat="44.16977" lon="3.62612">
        <ele>748.72</ele>
        <time>2024-11-05T12:00:12.791Z</time>
      </trkpt>
      <trkpt lat="44.16942" lon="3.62586">
        <ele>751.84</ele>
        <time>2024-11-05T12:00:19.897Z</time>
      </trkpt>
      <trkpt lat="44.16912" lon="3.62556">
        <ele>755.29</ele>
        <time>2024-11-05T12:00:27.009Z</time>
      </trkpt>
      <trkpt lat="44.16893" lon="3.62543">
        <ele>757.24</ele>
        <time>2024-11-05T12:00:34.124Z</time>
      </trkpt>
      <trkpt lat="44.16842" lon="3.62525">
        <ele>761.77</ele>
        <time>2024-11-05T12:00:41.248Z</time>
      </trkpt>
      <trkpt lat="44.16829" lon="3.62519">
        <ele>762.86</ele>
        <time>2024-11-05T12:00:48.374Z</time>
      </trkpt>
      <trkpt lat="44.16817" lon="3.62503">
        <ele>764.18</ele>
        <time>2024-11-05T12:00:55.502Z</time>
      </trkpt>
      <trkpt lat="44.16802" lon="3.62457">
        <ele>767.03</ele>
        <time>2024-11-05T12:01:02.636Z</time>
      </trkpt>
      <trkpt lat="44.16792" lon="3.62428">
        <ele>769.03</ele>
        <time>2024-11-05T12:01:09.774Z</time>
      </trkpt>
      <trkpt lat="44.1679" lon="3.62408">
        <ele>770.29</ele>
        <time>2024-11-05T12:01:16.914Z</time>
      </trkpt>
      <trkpt lat="44.16786" lon="3.62392">
        <ele>771.32</ele>
        <time>2024-11-05T12:01:24.056Z</time>
      </trkpt>
      <trkpt lat="44.16778" lon="3.62379">
        <ele>772.62</ele>
        <time>2024-11-05T12:01:31.200Z</time>
      </trkpt>
      <trkpt lat="44.16768" lon="3.6237">
        <ele>773.88</ele>
        <time>2024-11-05T12:01:38.346Z</time>
      </trkpt>
      <trkpt lat="44.16761" lon="3.6237">
        <ele>774.53</ele>
        <time>2024-11-05T12:01:45.493Z</time>
      </trkpt>
      <trkpt lat="44.16731" lon="3.62385">
        <ele>777.36</ele>
        <time>2024-11-05T12:01:52.645Z</time>
      </trkpt>
      <trkpt lat="44.16719" lon="3.62393">
        <ele>778.52</ele>
        <time>2024-11-05T12:01:59.800Z</time>
      </trkpt>
      <trkpt lat="44.16712" lon="3.62421">
        <ele>780.24</ele>
        <time>2024-11-05T12:02:06.958Z</time>
      </trkpt>
      <trkpt lat="44.16695" lon="3.62452">
        <ele>782.56</ele>
        <time>2024-11-05T12:02:14.120Z</time>
      </trkpt>
      <trkpt lat="44.16656" lon="3.62501">
        <ele>787.04</ele>
        <time>2024-11-05T12:02:21.291Z</time>
      </trkpt>
      <trkpt lat="44.16632" lon="3.6253">
        <ele>790.38</ele>
        <time>2024-11-05T12:02:28.467Z</time>
      </trkpt>
      <trkpt lat="44.16567" lon="3.62559">
        <ele>797.34</ele>
        <time>2024-11-05T12:02:35.654Z</time>
      </trkpt>
      <trkpt lat="44.16534" lon="3.62565">
        <ele>800.7</ele>
        <time>2024-11-05T12:02:42.846Z</time>
      </trkpt>
      <trkpt lat="44.16507" lon="3.62565">
        <ele>803.3</ele>
        <time>2024-11-05T12:02:50.042Z</time>
      </trkpt>
      <trkpt lat="44.16473" lon="3.62583">
        <ele>806.99</ele>
        <time>2024-11-05T12:02:57.244Z</time>
      </trkpt>
      <trkpt lat="44.16469" lon="3.62581">
        <ele>807.31</ele>
        <time>2024-11-05T12:03:04.447Z</time>
      </trkpt>
      <trkpt lat="44.16467" lon="3.62577">
        <ele>807.46</ele>
        <time>2024-11-05T12:03:11.651Z</time>
      </trkpt>
      <trkpt lat="44.16467" lon="3.6257">
        <ele>807.66</ele>
        <time>2024-11-05T12:03:18.855Z</time>
      </trkpt>
      <trkpt lat="44.16475" lon="3.6257">
        <ele>807.99</ele>
        <time>2024-11-05T12:03:26.061Z</time>
      </trkpt>
      <trkpt lat="44.16495" lon="3.62558">
        <ele>808.93</ele>
        <time>2024-11-05T12:03:33.270Z</time>
      </trkpt>
      <trkpt lat="44.16551" lon="3.6252">
        <ele>812.13</ele>
        <time>2024-11-05T12:03:40.489Z</time>
      </trkpt>
      <trkpt lat="44.1659" lon="3.62494">
        <ele>814.56</ele>
        <time>2024-11-05T12:03:47.715Z</time>
      </trkpt>
      <trkpt lat="44.16604" lon="3.62479">
        <ele>815.46</ele>
        <time>2024-11-05T12:03:54.944Z</time>
      </trkpt>
      <trkpt lat="44.16624" lon="3.62443">
        <ele>817.21</ele>
        <time>2024-11-05T12:04:02.178Z</time>
      </trkpt>
      <trkpt lat="44.16652" lon="3.62374">
        <ele>820.35</ele>
        <time>2024-11-05T12:04:09.421Z</time>
      </trkpt>
      <trkpt lat="44.16658" lon="3.6235">
        <ele>821.49</ele>
        <time>2024-11-05T12:04:16.667Z</time>
      </trkpt>
      <trkpt lat="44.16658" lon="3.62323">
        <ele>822.74</ele>
        <time>2024-11-05T12:04:23.916Z</time>
      </trkpt>
      <trkpt lat="44.1666" lon="3.62311">
        <ele>823.27</ele>
        <time>2024-11-05T12:04:31.167Z</time>
      </trkpt>
      <trkpt lat="44.16665" lon="3.62302">
        <ele>823.71</ele>
        <time>2024-11-05T12:04:38.419Z</time>
      </trkpt>
      <trkpt lat="44.16669" lon="3.62299">
        <ele>823.95</ele>
        <time>2024-11-05T12:04:45.672Z</time>
      </trkpt>
      <trkpt lat="44.16698" lon="3.62292">
        <ele>825.25</ele>
        <time>2024-11-05T12:04:52.929Z</time>
      </trkpt>
      <trkpt lat="44.16705" lon="3.62286">
        <ele>825.6</ele>
        <time>2024-11-05T12:05:00.188Z</time>
      </trkpt>
      <trkpt lat="44.16725" lon="3.62259">
        <ele>827.25</ele>
        <time>2024-11-05T12:05:07.451Z</time>
      </trkpt>
      <trkpt lat="44.16735" lon="3.62237">
        <ele>828.38</ele>
        <time>2024-11-05T12:05:14.717Z</time>
      </trkpt>
      <trkpt lat="44.16746" lon="3.62226">
        <ele>829.26</ele>
        <time>2024-11-05T12:05:21.985Z</time>
      </trkpt>
      <trkpt lat="44.16756" lon="3.62219">
        <ele>829.26</ele>
        <time>2024-11-05T12:05:29.255Z</time>
      </trkpt>
      <trkpt lat="44.16765" lon="3.6222">
        <ele>829.49</ele>
        <time>2024-11-05T12:05:36.527Z</time>
      </trkpt>
      <trkpt lat="44.16774" lon="3.62228">
        <ele>829.93</ele>
        <time>2024-11-05T12:05:43.800Z</time>
      </trkpt>
      <trkpt lat="44.16793" lon="3.62261">
        <ele>831.34</ele>
        <time>2024-11-05T12:05:51.078Z</time>
      </trkpt>
      <trkpt lat="44.16801" lon="3.62269">
        <ele>831.84</ele>
        <time>2024-11-05T12:05:58.358Z</time>
      </trkpt>
      <trkpt lat="44.1684" lon="3.62294">
        <ele>834.44</ele>
        <time>2024-11-05T12:06:05.645Z</time>
      </trkpt>
      <trkpt lat="44.1685" lon="3.62297">
        <ele>835.04</ele>
        <time>2024-11-05T12:06:12.933Z</time>
      </trkpt>
      <trkpt lat="44.16857" lon="3.62297">
        <ele>835.38</ele>
        <time>2024-11-05T12:06:20.222Z</time>
      </trkpt>
      <trkpt lat="44.16865" lon="3.62292">
        <ele>835.78</ele>
        <time>2024-11-05T12:06:27.513Z</time>
      </trkpt>
      <trkpt lat="44.1687" lon="3.62285">
        <ele>836.08</ele>
        <time>2024-11-05T12:06:34.805Z</time>
      </trkpt>
      <trkpt lat="44.16876" lon="3.62269">
        <ele>836.7</ele>
        <time>2024-11-05T12:06:42.099Z</time>
      </trkpt>
      <trkpt lat="44.16894" lon="3.62149">
        <ele>841.48</ele>
        <time>2024-11-05T12:06:49.407Z</time>
      </trkpt>
      <trkpt lat="44.16906" lon="3.62107">
        <ele>843.38</ele>
        <time>2024-11-05T12:06:56.720Z</time>
      </trkpt>
      <trkpt lat="44.16915" lon="3.62083">
        <ele>843.43</ele>
        <time>2024-11-05T12:07:04.036Z</time>
      </trkpt>
      <trkpt lat="44.16916" lon="3.6208">
        <ele>843.62</ele>
        <time>2024-11-05T12:07:11.353Z</time>
      </trkpt>
      <trkpt lat="44.16921" lon="3.62073">
        <ele>844.1</ele>
        <time>2024-11-05T12:07:18.671Z</time>
      </trkpt>
      <trkpt lat="44.16945" lon="3.62057">
        <ele>845.82</ele>
        <time>2024-11-05T12:07:25.993Z</time>
      </trkpt>
      <trkpt lat="44.16954" lon="3.62046">
        <ele>846.48</ele>
        <time>2024-11-05T12:07:33.317Z</time>
      </trkpt>
      <trkpt lat="44.1697" lon="3.62">
        <ele>848.28</ele>
        <time>2024-11-05T12:07:40.647Z</time>
      </trkpt>
      <trkpt lat="44.17" lon="3.61934">
        <ele>851.74</ele>
        <time>2024-11-05T12:07:47.986Z</time>
      </trkpt>
      <trkpt lat="44.1701" lon="3.61912">
        <ele>851.92</ele>
        <time>2024-11-05T12:07:55.328Z</time>
      </trkpt>
      <trkpt lat="44.17011" lon="3.61909">
        <ele>852.07</ele>
        <time>2024-11-05T12:08:02.670Z</time>
      </trkpt>
      <trkpt lat="44.17017" lon="3.61903">
        <ele>852.61</ele>
        <time>2024-11-05T12:08:10.014Z</time>
      </trkpt>
      <trkpt lat="44.17034" lon="3.61894">
        <ele>853.92</ele>
        <time>2024-11-05T12:08:17.360Z</time>
      </trkpt>
      <trkpt lat="44.17047" lon="3.61882">
        <ele>854.96</ele>
        <time>2024-11-05T12:08:24.709Z</time>
      </trkpt>
      <trkpt lat="44.17073" lon="3.61832">
        <ele>858</ele>
        <time>2024-11-05T12:08:32.065Z</time>
      </trkpt>
      <trkpt lat="44.1708" lon="3.61823">
        <ele>858.01</ele>
        <time>2024-11-05T12:08:39.423Z</time>
      </trkpt>
      <trkpt lat="44.17088" lon="3.61818">
        <ele>858.01</ele>
        <time>2024-11-05T12:08:46.782Z</time>
      </trkpt>
      <trkpt lat="44.17093" lon="3.61819">
        <ele>858.01</ele>
        <time>2024-11-05T12:08:54.142Z</time>
      </trkpt>
      <trkpt lat="44.17102" lon="3.61822">
        <ele>858.41</ele>
        <time>2024-11-05T12:09:01.503Z</time>
      </trkpt>
      <trkpt lat="44.17117" lon="3.61839">
        <ele>859.31</ele>
        <time>2024-11-05T12:09:08.867Z</time>
      </trkpt>
      <trkpt lat="44.17139" lon="3.6186">
        <ele>860.69</ele>
        <time>2024-11-05T12:09:16.236Z</time>
      </trkpt>
      <trkpt lat="44.17149" lon="3.61866">
        <ele>861.35</ele>
        <time>2024-11-05T12:09:23.606Z</time>
      </trkpt>
      <trkpt lat="44.17195" lon="3.61883">
        <ele>864.24</ele>
        <time>2024-11-05T12:09:30.984Z</time>
      </trkpt>
      <trkpt lat="44.17207" lon="3.61895">
        <ele>865.18</ele>
        <time>2024-11-05T12:09:38.364Z</time>
      </trkpt>
      <trkpt lat="44.17215" lon="3.6191">
        <ele>866.03</ele>
        <time>2024-11-05T12:09:45.747Z</time>
      </trkpt>
      <trkpt lat="44.17222" lon="3.61919">
        <ele>866.57</ele>
        <time>2024-11-05T12:09:53.131Z</time>
      </trkpt>
      <trkpt lat="44.1723" lon="3.61922">
        <ele>867</ele>
        <time>2024-11-05T12:10:00.516Z</time>
      </trkpt>
      <trkpt lat="44.17243" lon="3.61918">
        <ele>867.7</ele>
        <time>2024-11-05T12:10:07.903Z</time>
      </trkpt>
      <trkpt lat="44.17254" lon="3.61912">
        <ele>868.33</ele>
        <time>2024-11-05T12:10:15.292Z</time>
      </trkpt>
      <trkpt lat="44.17288" lon="3.61886">
        <ele>870.47</ele>
        <time>2024-11-05T12:10:22.688Z</time>
      </trkpt>
      <trkpt lat="44.17295" lon="3.6187">
        <ele>871.16</ele>
        <time>2024-11-05T12:10:30.086Z</time>
      </trkpt>
      <trkpt lat="44.17303" lon="3.61797">
        <ele>873.78</ele>
        <time>2024-11-05T12:10:37.492Z</time>
      </trkpt>
      <trkpt lat="44.17311" lon="3.61721">
        <ele>876.91</ele>
        <time>2024-11-05T12:10:44.907Z</time>
      </trkpt>
      <trkpt lat="44.17312" lon="3.61688">
        <ele>878.3</ele>
        <time>2024-11-05T12:10:52.326Z</time>
      </trkpt>
      <trkpt lat="44.17305" lon="3.61656">
        <ele>879.85</ele>
        <time>2024-11-05T12:10:59.749Z</time>
      </trkpt>
      <trkpt lat="44.17303" lon="3.61644">
        <ele>879.87</ele>
        <time>2024-11-05T12:11:07.173Z</time>
      </trkpt>
      <trkpt lat="44.17304" lon="3.61635">
        <ele>879.88</ele>
        <time>2024-11-05T12:11:14.598Z</time>
      </trkpt>
      <trkpt lat="44.17309" lon="3.61622">
        <ele>880.41</ele>
        <time>2024-11-05T12:11:22.025Z</time>
      </trkpt>
      <trkpt lat="44.17315" lon="3.61616">
        <ele>880.83</ele>
        <time>2024-11-05T12:11:29.453Z</time>
      </trkpt>
      <trkpt lat="44.17355" lon="3.61598">
        <ele>883.53</ele>
        <time>2024-11-05T12:11:36.888Z</time>
      </trkpt>
      <trkpt lat="44.17367" lon="3.6159">
        <ele>884.34</ele>
        <time>2024-11-05T12:11:44.325Z</time>
      </trkpt>
      <trkpt lat="44.17374" lon="3.61577">
        <ele>884.97</ele>
        <time>2024-11-05T12:11:51.764Z</time>
      </trkpt>
      <trkpt lat="44.17379" lon="3.61555">
        <ele>886</ele>
        <time>2024-11-05T12:11:59.205Z</time>
      </trkpt>
      <trkpt lat="44.17378" lon="3.61519">
        <ele>887.74</ele>
        <time>2024-11-05T12:12:06.651Z</time>
      </trkpt>
      <trkpt lat="44.17383" lon="3.615">
        <ele>887.79</ele>
        <time>2024-11-05T12:12:14.099Z</time>
      </trkpt>
      <trkpt lat="44.17387" lon="3.61495">
        <ele>887.82</ele>
        <time>2024-11-05T12:12:21.548Z</time>
      </trkpt>
      <trkpt lat="44.17394" lon="3.61488">
        <ele>888.2</ele>
        <time>2024-11-05T12:12:28.998Z</time>
      </trkpt>
      <trkpt lat="44.17402" lon="3.61486">
        <ele>888.55</ele>
        <time>2024-11-05T12:12:36.450Z</time>
      </trkpt>
      <trkpt lat="44.17436" lon="3.61492">
        <ele>890.06</ele>
        <time>2024-11-05T12:12:43.907Z</time>
      </trkpt>
      <trkpt lat="44.17454" lon="3.61498">
        <ele>891.03</ele>
        <time>2024-11-05T12:12:51.367Z</time>
      </trkpt>
      <trkpt lat="44.17472" lon="3.61508">
        <ele>892.14</ele>
        <time>2024-11-05T12:12:58.830Z</time>
      </trkpt>
      <trkpt lat="44.17494" lon="3.61508">
        <ele>893.39</ele>
        <time>2024-11-05T12:13:06.297Z</time>
      </trkpt>
      <trkpt lat="44.17503" lon="3.61513">
        <ele>893.98</ele>
        <time>2024-11-05T12:13:13.765Z</time>
      </trkpt>
      <trkpt lat="44.17524" lon="3.61533">
        <ele>895.51</ele>
        <time>2024-11-05T12:13:21.237Z</time>
      </trkpt>
      <trkpt lat="44.17544" lon="3.61538">
        <ele>896.6</ele>
        <time>2024-11-05T12:13:28.712Z</time>
      </trkpt>
      <trkpt lat="44.17558" lon="3.61546">
        <ele>897.48</ele>
        <time>2024-11-05T12:13:36.190Z</time>
      </trkpt>
      <trkpt lat="44.17585" lon="3.61578">
        <ele>899.93</ele>
        <time>2024-11-05T12:13:43.674Z</time>
      </trkpt>
      <trkpt lat="44.17593" lon="3.61583">
        <ele>900.23</ele>
        <time>2024-11-05T12:13:51.159Z</time>
      </trkpt>
      <trkpt lat="44.17591" lon="3.6157">
        <ele>900.5</ele>
        <time>2024-11-05T12:13:58.646Z</time>
      </trkpt>
      <trkpt lat="44.17571" lon="3.61546">
        <ele>901.6</ele>
        <time>2024-11-05T12:14:06.137Z</time>
      </trkpt>
      <trkpt lat="44.17552" lon="3.61523">
        <ele>903.48</ele>
        <time>2024-11-05T12:14:13.632Z</time>
      </trkpt>
      <trkpt lat="44.17527" lon="3.61515">
        <ele>905.53</ele>
        <time>2024-11-05T12:14:21.131Z</time>
      </trkpt>
      <trkpt lat="44.17521" lon="3.61509">
        <ele>906.15</ele>
        <time>2024-11-05T12:14:28.631Z</time>
      </trkpt>
      <trkpt lat="44.17505" lon="3.61472">
        <ele>908.91</ele>
        <time>2024-11-05T12:14:36.136Z</time>
      </trkpt>
      <trkpt lat="44.175" lon="3.61466">
        <ele>909.41</ele>
        <time>2024-11-05T12:14:43.642Z</time>
      </trkpt>
      <trkpt lat="44.17493" lon="3.61466">
        <ele>909.91</ele>
        <time>2024-11-05T12:14:51.149Z</time>
      </trkpt>
      <trkpt lat="44.1748" lon="3.6147">
        <ele>910.85</ele>
        <time>2024-11-05T12:14:58.658Z</time>
      </trkpt>
      <trkpt lat="44.17464" lon="3.61466">
        <ele>912</ele>
        <time>2024-11-05T12:15:06.170Z</time>
      </trkpt>
      <trkpt lat="44.17444" lon="3.61448">
        <ele>913.8</ele>
        <time>2024-11-05T12:15:13.686Z</time>
      </trkpt>
      <trkpt lat="44.17434" lon="3.61444">
        <ele>914.6</ele>
        <time>2024-11-05T12:15:21.203Z</time>
      </trkpt>
      <trkpt lat="44.17419" lon="3.61442">
        <ele>915.79</ele>
        <time>2024-11-05T12:15:28.723Z</time>
      </trkpt>
      <trkpt lat="44.17395" lon="3.61444">
        <ele>917.81</ele>
        <time>2024-11-05T12:15:36.247Z</time>
      </trkpt>
      <trkpt lat="44.17369" lon="3.61445">
        <ele>920.36</ele>
        <time>2024-11-05T12:15:43.775Z</time>
      </trkpt>
      <trkpt lat="44.17356" lon="3.61441">
        <ele>920.62</ele>
        <time>2024-11-05T12:15:51.305Z</time>
      </trkpt>
      <trkpt lat="44.17333" lon="3.61449">
        <ele>921.15</ele>
        <time>2024-11-05T12:15:58.839Z</time>
      </trkpt>
      <trkpt lat="44.17327" lon="3.61456">
        <ele>921.7</ele>
        <time>2024-11-05T12:16:06.374Z</time>
      </trkpt>
      <trkpt lat="44.17303" lon="3.61513">
        <ele>925.22</ele>
        <time>2024-11-05T12:16:13.917Z</time>
      </trkpt>
      <trkpt lat="44.17294" lon="3.61521">
        <ele>926.05</ele>
        <time>2024-11-05T12:16:21.461Z</time>
      </trkpt>
      <trkpt lat="44.17241" lon="3.61544">
        <ele>930.33</ele>
        <time>2024-11-05T12:16:29.014Z</time>
      </trkpt>
      <trkpt lat="44.17216" lon="3.6155">
        <ele>932.32</ele>
        <time>2024-11-05T12:16:36.571Z</time>
      </trkpt>
      <trkpt lat="44.17181" lon="3.61555">
        <ele>935.18</ele>
        <time>2024-11-05T12:16:44.134Z</time>
      </trkpt>
      <trkpt lat="44.17173" lon="3.6156">
        <ele>935.87</ele>
        <time>2024-11-05T12:16:51.698Z</time>
      </trkpt>
      <trkpt lat="44.17169" lon="3.61568">
        <ele>936.4</ele>
        <time>2024-11-05T12:16:59.263Z</time>
      </trkpt>
      <trkpt lat="44.17164" lon="3.61609">
        <ele>938.79</ele>
        <time>2024-11-05T12:17:06.833Z</time>
      </trkpt>
      <trkpt lat="44.17159" lon="3.61618">
        <ele>939.52</ele>
        <time>2024-11-05T12:17:14.405Z</time>
      </trkpt>
      <trkpt lat="44.17152" lon="3.61622">
        <ele>940.16</ele>
        <time>2024-11-05T12:17:21.978Z</time>
      </trkpt>
      <trkpt lat="44.1713" lon="3.61616">
        <ele>941.88</ele>
        <time>2024-11-05T12:17:29.554Z</time>
      </trkpt>
      <trkpt lat="44.17117" lon="3.61609">
        <ele>942.9</ele>
        <time>2024-11-05T12:17:37.133Z</time>
      </trkpt>
      <trkpt lat="44.17101" lon="3.61605">
        <ele>944.17</ele>
        <time>2024-11-05T12:17:44.714Z</time>
      </trkpt>
      <trkpt lat="44.17081" lon="3.61604">
        <ele>945.89</ele>
        <time>2024-11-05T12:17:52.298Z</time>
      </trkpt>
      <trkpt lat="44.17058" lon="3.61599">
        <ele>947.82</ele>
        <time>2024-11-05T12:17:59.886Z</time>
      </trkpt>
      <trkpt lat="44.17048" lon="3.616">
        <ele>948.55</ele>
        <time>2024-11-05T12:18:07.476Z</time>
      </trkpt>
      <trkpt lat="44.1702" lon="3.61629">
        <ele>950.78</ele>
        <time>2024-11-05T12:18:15.071Z</time>
      </trkpt>
      <trkpt lat="44.17001" lon="3.61643">
        <ele>952.18</ele>
        <time>2024-11-05T12:18:22.670Z</time>
      </trkpt>
      <trkpt lat="44.16952" lon="3.61667">
        <ele>955.82</ele>
        <time>2024-11-05T12:18:30.277Z</time>
      </trkpt>
      <trkpt lat="44.16925" lon="3.6167">
        <ele>957.8</ele>
        <time>2024-11-05T12:18:37.888Z</time>
      </trkpt>
      <trkpt lat="44.16894" lon="3.61677">
        <ele>960.13</ele>
        <time>2024-11-05T12:18:45.504Z</time>
      </trkpt>
      <trkpt lat="44.16846" lon="3.61703">
        <ele>963.92</ele>
        <time>2024-11-05T12:18:53.129Z</time>
      </trkpt>
      <trkpt lat="44.16769" lon="3.61736">
        <ele>970.17</ele>
        <time>2024-11-05T12:19:00.767Z</time>
      </trkpt>
      <trkpt lat="44.16739" lon="3.61754">
        <ele>972.65</ele>
        <time>2024-11-05T12:19:08.410Z</time>
      </trkpt>
      <trkpt lat="44.16687" lon="3.61789">
        <ele>977.2</ele>
        <time>2024-11-05T12:19:16.062Z</time>
      </trkpt>
      <trkpt lat="44.16642" lon="3.61806">
        <ele>980.59</ele>
        <time>2024-11-05T12:19:23.721Z</time>
      </trkpt>
      <trkpt lat="44.16615" lon="3.61817">
        <ele>983.02</ele>
        <time>2024-11-05T12:19:31.385Z</time>
      </trkpt>
      <trkpt lat="44.16594" lon="3.61823">
        <ele>984.93</ele>
        <time>2024-11-05T12:19:39.052Z</time>
      </trkpt>
      <trkpt lat="44.1658" lon="3.61821">
        <ele>986.07</ele>
        <time>2024-11-05T12:19:46.722Z</time>
      </trkpt>
      <trkpt lat="44.16565" lon="3.61815">
        <ele>987.28</ele>
        <time>2024-11-05T12:19:54.394Z</time>
      </trkpt>
      <trkpt lat="44.16519" lon="3.61773">
        <ele>991.02</ele>
        <time>2024-11-05T12:20:02.075Z</time>
      </trkpt>
      <trkpt lat="44.1649" lon="3.61751">
        <ele>993.72</ele>
        <time>2024-11-05T12:20:09.761Z</time>
      </trkpt>
      <trkpt lat="44.16477" lon="3.61743">
        <ele>994.98</ele>
        <time>2024-11-05T12:20:17.450Z</time>
      </trkpt>
      <trkpt lat="44.16447" lon="3.61735">
        <ele>997.86</ele>
        <time>2024-11-05T12:20:25.143Z</time>
      </trkpt>
      <trkpt lat="44.1642" lon="3.6173">
        <ele>1000.58</ele>
        <time>2024-11-05T12:20:32.841Z</time>
      </trkpt>
      <trkpt lat="44.16395" lon="3.61735">
        <ele>1003</ele>
        <time>2024-11-05T12:20:40.543Z</time>
      </trkpt>
      <trkpt lat="44.16343" lon="3.61764">
        <ele>1008.24</ele>
        <time>2024-11-05T12:20:48.254Z</time>
      </trkpt>
      <trkpt lat="44.16324" lon="3.61766">
        <ele>1009.9</ele>
        <time>2024-11-05T12:20:55.968Z</time>
      </trkpt>
      <trkpt lat="44.16287" lon="3.61752">
        <ele>1013.3</ele>
        <time>2024-11-05T12:21:03.688Z</time>
      </trkpt>
      <trkpt lat="44.16282" lon="3.6175">
        <ele>1013.7</ele>
        <time>2024-11-05T12:21:11.409Z</time>
      </trkpt>
      <trkpt lat="44.16276" lon="3.61745">
        <ele>1014.2</ele>
        <time>2024-11-05T12:21:19.131Z</time>
      </trkpt>
      <trkpt lat="44.16268" lon="3.61738">
        <ele>1013.48</ele>
        <time>2024-11-05T12:21:26.854Z</time>
      </trkpt>
      <trkpt lat="44.16265" lon="3.61727">
        <ele>1012.77</ele>
        <time>2024-11-05T12:21:34.579Z</time>
      </trkpt>
      <trkpt lat="44.16269" lon="3.61707">
        <ele>1011.66</ele>
        <time>2024-11-05T12:21:42.306Z</time>
      </trkpt>
      <trkpt lat="44.16303" lon="3.61647">
        <ele>1007.38</ele>
        <time>2024-11-05T12:21:50.042Z</time>
      </trkpt>
      <trkpt lat="44.16313" lon="3.61624">
        <ele>1005.87</ele>
        <time>2024-11-05T12:21:57.781Z</time>
      </trkpt>
      <trkpt lat="44.16322" lon="3.6159">
        <ele>1003.89</ele>
        <time>2024-11-05T12:22:05.524Z</time>
      </trkpt>
      <trkpt lat="44.16334" lon="3.61566">
        <ele>1002.36</ele>
        <time>2024-11-05T12:22:13.271Z</time>
      </trkpt>
      <trkpt lat="44.16354" lon="3.61514">
        <ele>999.27</ele>
        <time>2024-11-05T12:22:21.024Z</time>
      </trkpt>
      <trkpt lat="44.1636" lon="3.61507">
        <ele>998.66</ele>
        <time>2024-11-05T12:22:28.779Z</time>
      </trkpt>
      <trkpt lat="44.16372" lon="3.61503">
        <ele>997.63</ele>
        <time>2024-11-05T12:22:36.536Z</time>
      </trkpt>
      <trkpt lat="44.16395" lon="3.61508">
        <ele>995.62</ele>
        <time>2024-11-05T12:22:44.296Z</time>
      </trkpt>
      <trkpt lat="44.16438" lon="3.61527">
        <ele>992.58</ele>
        <time>2024-11-05T12:22:52.064Z</time>
      </trkpt>
      <trkpt lat="44.16445" lon="3.61528">
        <ele>991.96</ele>
        <time>2024-11-05T12:22:59.833Z</time>
      </trkpt>
      <trkpt lat="44.16452" lon="3.61522">
        <ele>991.19</ele>
        <time>2024-11-05T12:23:07.603Z</time>
      </trkpt>
      <trkpt lat="44.16453" lon="3.61514">
        <ele>990.62</ele>
        <time>2024-11-05T12:23:15.374Z</time>
      </trkpt>
      <trkpt lat="44.16449" lon="3.61506">
        <ele>989.94</ele>
        <time>2024-11-05T12:23:23.146Z</time>
      </trkpt>
      <trkpt lat="44.16425" lon="3.615">
        <ele>987.77</ele>
        <time>2024-11-05T12:23:30.922Z</time>
      </trkpt>
      <trkpt lat="44.16376" lon="3.61476">
        <ele>983.67</ele>
        <time>2024-11-05T12:23:38.706Z</time>
      </trkpt>
      <trkpt lat="44.16336" lon="3.61466">
        <ele>980.15</ele>
        <time>2024-11-05T12:23:46.497Z</time>
      </trkpt>
      <trkpt lat="44.16328" lon="3.61468">
        <ele>979.45</ele>
        <time>2024-11-05T12:23:54.289Z</time>
      </trkpt>
      <trkpt lat="44.16321" lon="3.61474">
        <ele>978.57</ele>
        <time>2024-11-05T12:24:02.082Z</time>
      </trkpt>
      <trkpt lat="44.16287" lon="3.61506">
        <ele>974.65</ele>
        <time>2024-11-05T12:24:09.882Z</time>
      </trkpt>
      <trkpt lat="44.16271" lon="3.61524">
        <ele>972.64</ele>
        <time>2024-11-05T12:24:17.685Z</time>
      </trkpt>
      <trkpt lat="44.16263" lon="3.6153">
        <ele>971.66</ele>
        <time>2024-11-05T12:24:25.490Z</time>
      </trkpt>
      <trkpt lat="44.16256" lon="3.6153">
        <ele>970.9</ele>
        <time>2024-11-05T12:24:33.296Z</time>
      </trkpt>
      <trkpt lat="44.16248" lon="3.61526">
        <ele>970.07</ele>
        <time>2024-11-05T12:24:41.103Z</time>
      </trkpt>
      <trkpt lat="44.16226" lon="3.61497">
        <ele>966.71</ele>
        <time>2024-11-05T12:24:48.915Z</time>
      </trkpt>
      <trkpt lat="44.16218" lon="3.6148">
        <ele>965.37</ele>
        <time>2024-11-05T12:24:56.729Z</time>
      </trkpt>
      <trkpt lat="44.16212" lon="3.61462">
        <ele>963.96</ele>
        <time>2024-11-05T12:25:04.546Z</time>
      </trkpt>
      <trkpt lat="44.16191" lon="3.61424">
        <ele>961.18</ele>
        <time>2024-11-05T12:25:12.368Z</time>
      </trkpt>
      <trkpt lat="44.1618" lon="3.61397">
        <ele>959.43</ele>
        <time>2024-11-05T12:25:20.194Z</time>
      </trkpt>
      <trkpt lat="44.1617" lon="3.6138">
        <ele>958.01</ele>
        <time>2024-11-05T12:25:28.022Z</time>
      </trkpt>
      <trkpt lat="44.16157" lon="3.61367">
        <ele>956.5</ele>
        <time>2024-11-05T12:25:35.853Z</time>
      </trkpt>
      <trkpt lat="44.1612" lon="3.61345">
        <ele>952.83</ele>
        <time>2024-11-05T12:25:43.690Z</time>
      </trkpt>
      <trkpt lat="44.16072" lon="3.61317">
        <ele>948.58</ele>
        <time>2024-11-05T12:25:51.536Z</time>
      </trkpt>
      <trkpt lat="44.16062" lon="3.61316">
        <ele>947.82</ele>
        <time>2024-11-05T12:25:59.383Z</time>
      </trkpt>
      <trkpt lat="44.16043" lon="3.61328">
        <ele>946.26</ele>
        <time>2024-11-05T12:26:07.234Z</time>
      </trkpt>
      <trkpt lat="44.16033" lon="3.61328">
        <ele>945.49</ele>
        <time>2024-11-05T12:26:15.086Z</time>
      </trkpt>
      <trkpt lat="44.16022" lon="3.61323">
        <ele>944.54</ele>
        <time>2024-11-05T12:26:22.940Z</time>
      </trkpt>
      <trkpt lat="44.16017" lon="3.61318">
        <ele>943.97</ele>
        <time>2024-11-05T12:26:30.795Z</time>
      </trkpt>
      <trkpt lat="44.16006" lon="3.61289">
        <ele>941.79</ele>
        <time>2024-11-05T12:26:38.654Z</time>
      </trkpt>
      <trkpt lat="44.15949" lon="3.61209">
        <ele>934.01</ele>
        <time>2024-11-05T12:26:46.526Z</time>
      </trkpt>
      <trkpt lat="44.15938" lon="3.61194">
        <ele>932.86</ele>
        <time>2024-11-05T12:26:54.400Z</time>
      </trkpt>
      <trkpt lat="44.15924" lon="3.61172">
        <ele>931.47</ele>
        <time>2024-11-05T12:27:02.278Z</time>
      </trkpt>
      <trkpt lat="44.15908" lon="3.6115">
        <ele>929.59</ele>
        <time>2024-11-05T12:27:10.159Z</time>
      </trkpt>
      <trkpt lat="44.15892" lon="3.61139">
        <ele>927.9</ele>
        <time>2024-11-05T12:27:18.043Z</time>
      </trkpt>
      <trkpt lat="44.15874" lon="3.61134">
        <ele>926.35</ele>
        <time>2024-11-05T12:27:25.930Z</time>
      </trkpt>
      <trkpt lat="44.15847" lon="3.61133">
        <ele>924.13</ele>
        <time>2024-11-05T12:27:33.821Z</time>
      </trkpt>
      <trkpt lat="44.15816" lon="3.61126">
        <ele>921.48</ele>
        <time>2024-11-05T12:27:41.717Z</time>
      </trkpt>
      <trkpt lat="44.15801" lon="3.61126">
        <ele>920.25</ele>
        <time>2024-11-05T12:27:49.616Z</time>
      </trkpt>
      <trkpt lat="44.15786" lon="3.61129">
        <ele>919.05</ele>
        <time>2024-11-05T12:27:57.517Z</time>
      </trkpt>
      <trkpt lat="44.1577" lon="3.61135">
        <ele>917.96</ele>
        <time>2024-11-05T12:28:05.421Z</time>
      </trkpt>
      <trkpt lat="44.15754" lon="3.61154">
        <ele>916.65</ele>
        <time>2024-11-05T12:28:13.328Z</time>
      </trkpt>
      <trkpt lat="44.15751" lon="3.61156">
        <ele>916.41</ele>
        <time>2024-11-05T12:28:21.236Z</time>
      </trkpt>
      <trkpt lat="44.15748" lon="3.61157">
        <ele>916.11</ele>
        <time>2024-11-05T12:28:29.144Z</time>
      </trkpt>
      <trkpt lat="44.15742" lon="3.61153">
        <ele>915.44</ele>
        <time>2024-11-05T12:28:37.053Z</time>
      </trkpt>
      <trkpt lat="44.15743" lon="3.61146">
        <ele>914.86</ele>
        <time>2024-11-05T12:28:44.963Z</time>
      </trkpt>
      <trkpt lat="44.1575" lon="3.61135">
        <ele>913.85</ele>
        <time>2024-11-05T12:28:52.875Z</time>
      </trkpt>
      <trkpt lat="44.15766" lon="3.6112">
        <ele>912.19</ele>
        <time>2024-11-05T12:29:00.790Z</time>
      </trkpt>
      <trkpt lat="44.1583" lon="3.61095">
        <ele>906.78</ele>
        <time>2024-11-05T12:29:08.716Z</time>
      </trkpt>
      <trkpt lat="44.15866" lon="3.61095">
        <ele>903.74</ele>
        <time>2024-11-05T12:29:16.647Z</time>
      </trkpt>
      <trkpt lat="44.15909" lon="3.61085">
        <ele>899.94</ele>
        <time>2024-11-05T12:29:24.585Z</time>
      </trkpt>
      <trkpt lat="44.15919" lon="3.61083">
        <ele>899.59</ele>
        <time>2024-11-05T12:29:32.525Z</time>
      </trkpt>
      <trkpt lat="44.15935" lon="3.61091">
        <ele>899.19</ele>
        <time>2024-11-05T12:29:40.468Z</time>
      </trkpt>
      <trkpt lat="44.15952" lon="3.61102">
        <ele>898.94</ele>
        <time>2024-11-05T12:29:48.414Z</time>
      </trkpt>
      <trkpt lat="44.15959" lon="3.61097">
        <ele>898.78</ele>
        <time>2024-11-05T12:29:56.361Z</time>
      </trkpt>
      <trkpt lat="44.15995" lon="3.61047">
        <ele>898.33</ele>
        <time>2024-11-05T12:30:04.316Z</time>
      </trkpt>
      <trkpt lat="44.16011" lon="3.61024">
        <ele>898.84</ele>
        <time>2024-11-05T12:30:12.275Z</time>
      </trkpt>
      <trkpt lat="44.16018" lon="3.61014">
        <ele>899.27</ele>
        <time>2024-11-05T12:30:20.235Z</time>
      </trkpt>
      <trkpt lat="44.16023" lon="3.61003">
        <ele>899.73</ele>
        <time>2024-11-05T12:30:28.197Z</time>
      </trkpt>
      <trkpt lat="44.16026" lon="3.60964">
        <ele>901.41</ele>
        <time>2024-11-05T12:30:36.163Z</time>
      </trkpt>
      <trkpt lat="44.16018" lon="3.60928">
        <ele>903.62</ele>
        <time>2024-11-05T12:30:44.134Z</time>
      </trkpt>
      <trkpt lat="44.16017" lon="3.60909">
        <ele>904.84</ele>
        <time>2024-11-05T12:30:52.107Z</time>
      </trkpt>
      <trkpt lat="44.16018" lon="3.60876">
        <ele>906.75</ele>
        <time>2024-11-05T12:31:00.084Z</time>
      </trkpt>
      <trkpt lat="44.16025" lon="3.60844">
        <ele>909.12</ele>
        <time>2024-11-05T12:31:08.064Z</time>
      </trkpt>
      <trkpt lat="44.16035" lon="3.60815">
        <ele>911.5</ele>
        <time>2024-11-05T12:31:16.048Z</time>
      </trkpt>
      <trkpt lat="44.16095" lon="3.60669">
        <ele>923.17</ele>
        <time>2024-11-05T12:31:24.052Z</time>
      </trkpt>
      <trkpt lat="44.161" lon="3.6065">
        <ele>924.52</ele>
        <time>2024-11-05T12:31:32.058Z</time>
      </trkpt>
      <trkpt lat="44.16102" lon="3.60634">
        <ele>925.53</ele>
        <time>2024-11-05T12:31:40.066Z</time>
      </trkpt>
      <trkpt lat="44.16103" lon="3.60601">
        <ele>927.69</ele>
        <time>2024-11-05T12:31:48.078Z</time>
      </trkpt>
      <trkpt lat="44.16106" lon="3.60576">
        <ele>929.44</ele>
        <time>2024-11-05T12:31:56.092Z</time>
      </trkpt>
      <trkpt lat="44.1611" lon="3.60561">
        <ele>930.48</ele>
        <time>2024-11-05T12:32:04.108Z</time>
      </trkpt>
      <trkpt lat="44.1612" lon="3.60542">
        <ele>932</ele>
        <time>2024-11-05T12:32:12.127Z</time>
      </trkpt>
      <trkpt lat="44.16142" lon="3.6047">
        <ele>937.46</ele>
        <time>2024-11-05T12:32:20.155Z</time>
      </trkpt>
      <trkpt lat="44.16141" lon="3.60449">
        <ele>938.85</ele>
        <time>2024-11-05T12:32:28.185Z</time>
      </trkpt>
      <trkpt lat="44.16148" lon="3.6039">
        <ele>942.73</ele>
        <time>2024-11-05T12:32:36.222Z</time>
      </trkpt>
      <trkpt lat="44.16173" lon="3.60297">
        <ele>949.45</ele>
        <time>2024-11-05T12:32:44.271Z</time>
      </trkpt>
      <trkpt lat="44.16189" lon="3.60257">
        <ele>952.87</ele>
        <time>2024-11-05T12:32:52.325Z</time>
      </trkpt>
      <trkpt lat="44.1621" lon="3.60227">
        <ele>955.76</ele>
        <time>2024-11-05T12:33:00.384Z</time>
      </trkpt>
      <trkpt lat="44.16215" lon="3.60216">
        <ele>956.64</ele>
        <time>2024-11-05T12:33:08.444Z</time>
      </trkpt>
      <trkpt lat="44.16218" lon="3.60199">
        <ele>957.78</ele>
        <time>2024-11-05T12:33:16.506Z</time>
      </trkpt>
      <trkpt lat="44.16218" lon="3.60177">
        <ele>959.21</ele>
        <time>2024-11-05T12:33:24.571Z</time>
      </trkpt>
      <trkpt lat="44.16204" lon="3.60119">
        <ele>963.42</ele>
        <time>2024-11-05T12:33:32.643Z</time>
      </trkpt>
      <trkpt lat="44.16202" lon="3.60109">
        <ele>964.24</ele>
        <time>2024-11-05T12:33:40.716Z</time>
      </trkpt>
      <trkpt lat="44.162" lon="3.60071">
        <ele>967.52</ele>
        <time>2024-11-05T12:33:48.794Z</time>
      </trkpt>
      <trkpt lat="44.16204" lon="3.60058">
        <ele>968.76</ele>
        <time>2024-11-05T12:33:56.873Z</time>
      </trkpt>
      <trkpt lat="44.16216" lon="3.60039">
        <ele>970.64</ele>
        <time>2024-11-05T12:34:04.955Z</time>
      </trkpt>
      <trkpt lat="44.16217" lon="3.60033">
        <ele>970.98</ele>
        <time>2024-11-05T12:34:13.038Z</time>
      </trkpt>
      <trkpt lat="44.16216" lon="3.60027">
        <ele>971.34</ele>
        <time>2024-11-05T12:34:21.122Z</time>
      </trkpt>
      <trkpt lat="44.16208" lon="3.60008">
        <ele>972.55</ele>
        <time>2024-11-05T12:34:29.208Z</time>
      </trkpt>
      <trkpt lat="44.16202" lon="3.59941">
        <ele>976.74</ele>
        <time>2024-11-05T12:34:37.302Z</time>
      </trkpt>
      <trkpt lat="44.16195" lon="3.59916">
        <ele>978.49</ele>
        <time>2024-11-05T12:34:45.399Z</time>
      </trkpt>
      <trkpt lat="44.1618" lon="3.59881">
        <ele>981.46</ele>
        <time>2024-11-05T12:34:53.501Z</time>
      </trkpt>
      <trkpt lat="44.16152" lon="3.59848">
        <ele>985.31</ele>
        <time>2024-11-05T12:35:01.608Z</time>
      </trkpt>
      <trkpt lat="44.16147" lon="3.59829">
        <ele>986.61</ele>
        <time>2024-11-05T12:35:09.718Z</time>
      </trkpt>
      <trkpt lat="44.16148" lon="3.59771">
        <ele>990.33</ele>
        <time>2024-11-05T12:35:17.835Z</time>
      </trkpt>
      <trkpt lat="44.16147" lon="3.5974">
        <ele>992.41</ele>
        <time>2024-11-05T12:35:25.955Z</time>
      </trkpt>
      <trkpt lat="44.16142" lon="3.59697">
        <ele>995.38</ele>
        <time>2024-11-05T12:35:34.080Z</time>
      </trkpt>
      <trkpt lat="44.16144" lon="3.59646">
        <ele>998.87</ele>
        <time>2024-11-05T12:35:42.211Z</time>
      </trkpt>
      <trkpt lat="44.16148" lon="3.59604">
        <ele>1001.54</ele>
        <time>2024-11-05T12:35:50.347Z</time>
      </trkpt>
      <trkpt lat="44.16154" lon="3.59555">
        <ele>1005</ele>
        <time>2024-11-05T12:35:58.489Z</time>
      </trkpt>
      <trkpt lat="44.16157" lon="3.59535">
        <ele>1006.55</ele>
        <time>2024-11-05T12:36:06.633Z</time>
      </trkpt>
      <trkpt lat="44.16163" lon="3.59515">
        <ele>1008.32</ele>
        <time>2024-11-05T12:36:14.779Z</time>
      </trkpt>
      <trkpt lat="44.16175" lon="3.59489">
        <ele>1010.7</ele>
        <time>2024-11-05T12:36:22.929Z</time>
      </trkpt>
      <trkpt lat="44.16179" lon="3.59476">
        <ele>1011.72</ele>
        <time>2024-11-05T12:36:31.081Z</time>
      </trkpt>
      <trkpt lat="44.16182" lon="3.59423">
        <ele>1015.45</ele>
        <time>2024-11-05T12:36:39.239Z</time>
      </trkpt>
      <trkpt lat="44.16178" lon="3.594">
        <ele>1017.08</ele>
        <time>2024-11-05T12:36:47.399Z</time>
      </trkpt>
      <trkpt lat="44.16172" lon="3.59346">
        <ele>1021.12</ele>
        <time>2024-11-05T12:36:55.566Z</time>
      </trkpt>
      <trkpt lat="44.16161" lon="3.59258">
        <ele>1028.46</ele>
        <time>2024-11-05T12:37:03.743Z</time>
      </trkpt>
      <trkpt lat="44.1616" lon="3.59201">
        <ele>1033.34</ele>
        <time>2024-11-05T12:37:11.927Z</time>
      </trkpt>
      <trkpt lat="44.16164" lon="3.59168">
        <ele>1036.14</ele>
        <time>2024-11-05T12:37:20.114Z</time>
      </trkpt>
      <trkpt lat="44.16156" lon="3.59129">
        <ele>1039.09</ele>
        <time>2024-11-05T12:37:28.306Z</time>
      </trkpt>
      <trkpt lat="44.16153" lon="3.59061">
        <ele>1043.86</ele>
        <time>2024-11-05T12:37:36.506Z</time>
      </trkpt>
      <trkpt lat="44.16147" lon="3.59034">
        <ele>1045.88</ele>
        <time>2024-11-05T12:37:44.709Z</time>
      </trkpt>
      <trkpt lat="44.16146" lon="3.59006">
        <ele>1048.05</ele>
        <time>2024-11-05T12:37:52.915Z</time>
      </trkpt>
      <trkpt lat="44.16144" lon="3.58996">
        <ele>1048.83</ele>
        <time>2024-11-05T12:38:01.123Z</time>
      </trkpt>
      <trkpt lat="44.16131" lon="3.58964">
        <ele>1051.54</ele>
        <time>2024-11-05T12:38:09.335Z</time>
      </trkpt>
      <trkpt lat="44.16127" lon="3.58943">
        <ele>1053.13</ele>
        <time>2024-11-05T12:38:17.549Z</time>
      </trkpt>
      <trkpt lat="44.16126" lon="3.58904">
        <ele>1056.17</ele>
        <time>2024-11-05T12:38:25.768Z</time>
      </trkpt>
      <trkpt lat="44.16128" lon="3.58891">
        <ele>1057.18</ele>
        <time>2024-11-05T12:38:33.988Z</time>
      </trkpt>
      <trkpt lat="44.16136" lon="3.58875">
        <ele>1058.62</ele>
        <time>2024-11-05T12:38:42.211Z</time>
      </trkpt>
      <trkpt lat="44.1614" lon="3.58862">
        <ele>1059.54</ele>
        <time>2024-11-05T12:38:50.435Z</time>
      </trkpt>
      <trkpt lat="44.16131" lon="3.5884">
        <ele>1061.18</ele>
        <time>2024-11-05T12:38:58.662Z</time>
      </trkpt>
      <trkpt lat="44.16128" lon="3.58825">
        <ele>1062.16</ele>
        <time>2024-11-05T12:39:06.891Z</time>
      </trkpt>
      <trkpt lat="44.16123" lon="3.58777">
        <ele>1065.42</ele>
        <time>2024-11-05T12:39:15.126Z</time>
      </trkpt>
      <trkpt lat="44.16095" lon="3.58648">
        <ele>1075.73</ele>
        <time>2024-11-05T12:39:23.376Z</time>
      </trkpt>
      <trkpt lat="44.1609" lon="3.58552">
        <ele>1082.23</ele>
        <time>2024-11-05T12:39:31.637Z</time>
      </trkpt>
      <trkpt lat="44.16092" lon="3.58548">
        <ele>1082.5</ele>
        <time>2024-11-05T12:39:39.899Z</time>
      </trkpt>
      <trkpt lat="44.16096" lon="3.58547">
        <ele>1082.78</ele>
        <time>2024-11-05T12:39:48.161Z</time>
      </trkpt>
      <trkpt lat="44.16102" lon="3.58554">
        <ele>1083.39</ele>
        <time>2024-11-05T12:39:56.425Z</time>
      </trkpt>
      <trkpt lat="44.16106" lon="3.58578">
        <ele>1084.88</ele>
        <time>2024-11-05T12:40:04.692Z</time>
      </trkpt>
      <trkpt lat="44.16114" lon="3.58602">
        <ele>1086.46</ele>
        <time>2024-11-05T12:40:12.961Z</time>
      </trkpt>
      <trkpt lat="44.16118" lon="3.58613">
        <ele>1087.05</ele>
        <time>2024-11-05T12:40:21.232Z</time>
      </trkpt>
      <trkpt lat="44.16124" lon="3.58615">
        <ele>1087.34</ele>
        <time>2024-11-05T12:40:29.504Z</time>
      </trkpt>
      <trkpt lat="44.16127" lon="3.5861">
        <ele>1087.52</ele>
        <time>2024-11-05T12:40:37.777Z</time>
      </trkpt>
      <trkpt lat="44.16117" lon="3.58572">
        <ele>1088.64</ele>
        <time>2024-11-05T12:40:46.054Z</time>
      </trkpt>
      <trkpt lat="44.16114" lon="3.58546">
        <ele>1089.75</ele>
        <time>2024-11-05T12:40:54.334Z</time>
      </trkpt>
      <trkpt lat="44.16118" lon="3.58493">
        <ele>1093.04</ele>
        <time>2024-11-05T12:41:02.621Z</time>
      </trkpt>
      <trkpt lat="44.16111" lon="3.58429">
        <ele>1097.6</ele>
        <time>2024-11-05T12:41:10.915Z</time>
      </trkpt>
      <trkpt lat="44.16108" lon="3.58392">
        <ele>1100.41</ele>
        <time>2024-11-05T12:41:19.213Z</time>
      </trkpt>
      <trkpt lat="44.16106" lon="3.58357">
        <ele>1102.56</ele>
        <time>2024-11-05T12:41:27.515Z</time>
      </trkpt>
      <trkpt lat="44.16092" lon="3.58299">
        <ele>1105.52</ele>
        <time>2024-11-05T12:41:35.824Z</time>
      </trkpt>
      <trkpt lat="44.16084" lon="3.58278">
        <ele>1106.85</ele>
        <time>2024-11-05T12:41:44.136Z</time>
      </trkpt>
      <trkpt lat="44.16068" lon="3.58197">
        <ele>1111.48</ele>
        <time>2024-11-05T12:41:52.458Z</time>
      </trkpt>
      <trkpt lat="44.16056" lon="3.58157">
        <ele>1113.49</ele>
        <time>2024-11-05T12:42:00.785Z</time>
      </trkpt>
      <trkpt lat="44.16045" lon="3.58127">
        <ele>1114.97</ele>
        <time>2024-11-05T12:42:09.116Z</time>
      </trkpt>
      <trkpt lat="44.1602" lon="3.58059">
        <ele>1118.99</ele>
        <time>2024-11-05T12:42:17.455Z</time>
      </trkpt>
      <trkpt lat="44.16014" lon="3.5805">
        <ele>1119.62</ele>
        <time>2024-11-05T12:42:25.796Z</time>
      </trkpt>
      <trkpt lat="44.15985" lon="3.58023">
        <ele>1121.9</ele>
        <time>2024-11-05T12:42:34.142Z</time>
      </trkpt>
      <trkpt lat="44.15975" lon="3.58011">
        <ele>1122.54</ele>
        <time>2024-11-05T12:42:42.491Z</time>
      </trkpt>
      <trkpt lat="44.15969" lon="3.58003">
        <ele>1122.84</ele>
        <time>2024-11-05T12:42:50.841Z</time>
      </trkpt>
      <trkpt lat="44.15964" lon="3.57996">
        <ele>1122.7</ele>
        <time>2024-11-05T12:42:59.192Z</time>
      </trkpt>
      <trkpt lat="44.15926" lon="3.57917">
        <ele>1121.19</ele>
        <time>2024-11-05T12:43:07.554Z</time>
      </trkpt>
      <trkpt lat="44.15899" lon="3.57851">
        <ele>1120.13</ele>
        <time>2024-11-05T12:43:15.925Z</time>
      </trkpt>
      <trkpt lat="44.1588" lon="3.57818">
        <ele>1119.58</ele>
        <time>2024-11-05T12:43:24.301Z</time>
      </trkpt>
      <trkpt lat="44.15872" lon="3.57809">
        <ele>1119.39</ele>
        <time>2024-11-05T12:43:32.678Z</time>
      </trkpt>
      <trkpt lat="44.1586" lon="3.578">
        <ele>1119.19</ele>
        <time>2024-11-05T12:43:41.057Z</time>
      </trkpt>
      <trkpt lat="44.15845" lon="3.57792">
        <ele>1118.97</ele>
        <time>2024-11-05T12:43:49.439Z</time>
      </trkpt>
      <trkpt lat="44.15763" lon="3.57757">
        <ele>1117.82</ele>
        <time>2024-11-05T12:43:57.835Z</time>
      </trkpt>
      <trkpt lat="44.15745" lon="3.57752">
        <ele>1117.73</ele>
        <time>2024-11-05T12:44:06.234Z</time>
      </trkpt>
      <trkpt lat="44.15691" lon="3.57746">
        <ele>1117.44</ele>
        <time>2024-11-05T12:44:14.641Z</time>
      </trkpt>
      <trkpt lat="44.1566" lon="3.57747">
        <ele>1117.35</ele>
        <time>2024-11-05T12:44:23.053Z</time>
      </trkpt>
      <trkpt lat="44.15621" lon="3.57752">
        <ele>1117.12</ele>
        <time>2024-11-05T12:44:31.472Z</time>
      </trkpt>
      <trkpt lat="44.15595" lon="3.57751">
        <ele>1116.97</ele>
        <time>2024-11-05T12:44:39.895Z</time>
      </trkpt>
      <trkpt lat="44.15575" lon="3.57751">
        <ele>1116.71</ele>
        <time>2024-11-05T12:44:48.321Z</time>
      </trkpt>
      <trkpt lat="44.15532" lon="3.57755">
        <ele>1115.9</ele>
        <time>2024-11-05T12:44:56.754Z</time>
      </trkpt>
      <trkpt lat="44.15516" lon="3.57765">
        <ele>1115.63</ele>
        <time>2024-11-05T12:45:05.190Z</time>
      </trkpt>
      <trkpt lat="44.15501" lon="3.57778">
        <ele>1115.55</ele>
        <time>2024-11-05T12:45:13.628Z</time>
      </trkpt>
      <trkpt lat="44.1548" lon="3.57796">
        <ele>1115.83</ele>
        <time>2024-11-05T12:45:22.070Z</time>
      </trkpt>
      <trkpt lat="44.15467" lon="3.578">
        <ele>1115.9</ele>
        <time>2024-11-05T12:45:30.515Z</time>
      </trkpt>
      <trkpt lat="44.1546" lon="3.57799">
        <ele>1115.86</ele>
        <time>2024-11-05T12:45:38.961Z</time>
      </trkpt>
      <trkpt lat="44.15442" lon="3.57786">
        <ele>1115.67</ele>
        <time>2024-11-05T12:45:47.410Z</time>
      </trkpt>
      <trkpt lat="44.15435" lon="3.5777">
        <ele>1115.47</ele>
        <time>2024-11-05T12:45:55.861Z</time>
      </trkpt>
      <trkpt lat="44.15434" lon="3.57731">
        <ele>1115.27</ele>
        <time>2024-11-05T12:46:04.316Z</time>
      </trkpt>
      <trkpt lat="44.15433" lon="3.57695">
        <ele>1115.57</ele>
        <time>2024-11-05T12:46:12.776Z</time>
      </trkpt>
      <trkpt lat="44.15432" lon="3.57646">
        <ele>1116.29</ele>
        <time>2024-11-05T12:46:21.241Z</time>
      </trkpt>
      <trkpt lat="44.1543" lon="3.57566">
        <ele>1120.04</ele>
        <time>2024-11-05T12:46:29.716Z</time>
      </trkpt>
      <trkpt lat="44.15427" lon="3.57549">
        <ele>1120.81</ele>
        <time>2024-11-05T12:46:38.193Z</time>
      </trkpt>
      <trkpt lat="44.1542" lon="3.57501">
        <ele>1122.62</ele>
        <time>2024-11-05T12:46:46.675Z</time>
      </trkpt>
      <trkpt lat="44.15418" lon="3.57487">
        <ele>1122.62</ele>
        <time>2024-11-05T12:46:55.159Z</time>
      </trkpt>
      <trkpt lat="44.15408" lon="3.5742">
        <ele>1124.7</ele>
        <time>2024-11-05T12:47:03.651Z</time>
      </trkpt>
      <trkpt lat="44.15405" lon="3.5741">
        <ele>1125.02</ele>
        <time>2024-11-05T12:47:12.144Z</time>
      </trkpt>
      <trkpt lat="44.15395" lon="3.57396">
        <ele>1125.61</ele>
        <time>2024-11-05T12:47:20.639Z</time>
      </trkpt>
      <trkpt lat="44.15362" lon="3.57366">
        <ele>1127.31</ele>
        <time>2024-11-05T12:47:29.141Z</time>
      </trkpt>
      <trkpt lat="44.15359" lon="3.57357">
        <ele>1127.59</ele>
        <time>2024-11-05T12:47:37.644Z</time>
      </trkpt>
      <trkpt lat="44.15359" lon="3.57347">
        <ele>1127.67</ele>
        <time>2024-11-05T12:47:46.148Z</time>
      </trkpt>
      <trkpt lat="44.15364" lon="3.57332">
        <ele>1127.82</ele>
        <time>2024-11-05T12:47:54.654Z</time>
      </trkpt>
      <trkpt lat="44.15369" lon="3.57328">
        <ele>1127.92</ele>
        <time>2024-11-05T12:48:03.161Z</time>
      </trkpt>
      <trkpt lat="44.15378" lon="3.57327">
        <ele>1128.06</ele>
        <time>2024-11-05T12:48:11.669Z</time>
      </trkpt>
      <trkpt lat="44.15385" lon="3.5733">
        <ele>1128.14</ele>
        <time>2024-11-05T12:48:20.178Z</time>
      </trkpt>
      <trkpt lat="44.15406" lon="3.57347">
        <ele>1128.46</ele>
        <time>2024-11-05T12:48:28.691Z</time>
      </trkpt>
      <trkpt lat="44.15439" lon="3.57373">
        <ele>1129.54</ele>
        <time>2024-11-05T12:48:37.210Z</time>
      </trkpt>
      <trkpt lat="44.15448" lon="3.57374">
        <ele>1129.82</ele>
        <time>2024-11-05T12:48:45.731Z</time>
      </trkpt>
      <trkpt lat="44.15464" lon="3.57365">
        <ele>1130.29</ele>
        <time>2024-11-05T12:48:54.254Z</time>
      </trkpt>
      <trkpt lat="44.15472" lon="3.57363">
        <ele>1130.41</ele>
        <time>2024-11-05T12:49:02.779Z</time>
      </trkpt>
      <trkpt lat="44.15477" lon="3.57364">
        <ele>1130.45</ele>
        <time>2024-11-05T12:49:11.305Z</time>
      </trkpt>
      <trkpt lat="44.15481" lon="3.57369">
        <ele>1130.5</ele>
        <time>2024-11-05T12:49:19.831Z</time>
      </trkpt>
      <trkpt lat="44.15495" lon="3.57413">
        <ele>1130.94</ele>
        <time>2024-11-05T12:49:28.363Z</time>
      </trkpt>
      <trkpt lat="44.15504" lon="3.57436">
        <ele>1131.35</ele>
        <time>2024-11-05T12:49:36.898Z</time>
      </trkpt>
      <trkpt lat="44.15525" lon="3.5746">
        <ele>1131.92</ele>
        <time>2024-11-05T12:49:45.437Z</time>
      </trkpt>
      <trkpt lat="44.15541" lon="3.5747">
        <ele>1132.31</ele>
        <time>2024-11-05T12:49:53.979Z</time>
      </trkpt>
      <trkpt lat="44.15555" lon="3.57472">
        <ele>1132.64</ele>
        <time>2024-11-05T12:50:02.523Z</time>
      </trkpt>
      <trkpt lat="44.15579" lon="3.57468">
        <ele>1133.32</ele>
        <time>2024-11-05T12:50:11.071Z</time>
      </trkpt>
      <trkpt lat="44.15586" lon="3.57463">
        <ele>1133.56</ele>
        <time>2024-11-05T12:50:19.621Z</time>
      </trkpt>
      <trkpt lat="44.15593" lon="3.57454">
        <ele>1133.89</ele>
        <time>2024-11-05T12:50:28.172Z</time>
      </trkpt>
      <trkpt lat="44.15601" lon="3.57441">
        <ele>1134.32</ele>
        <time>2024-11-05T12:50:36.725Z</time>
      </trkpt>
      <trkpt lat="44.15611" lon="3.57418">
        <ele>1134.73</ele>
        <time>2024-11-05T12:50:45.281Z</time>
      </trkpt>
      <trkpt lat="44.15618" lon="3.57414">
        <ele>1134.85</ele>
        <time>2024-11-05T12:50:53.838Z</time>
      </trkpt>
      <trkpt lat="44.15673" lon="3.57402">
        <ele>1135.91</ele>
        <time>2024-11-05T12:51:02.404Z</time>
      </trkpt>
      <trkpt lat="44.15691" lon="3.57398">
        <ele>1136.42</ele>
        <time>2024-11-05T12:51:10.973Z</time>
      </trkpt>
      <trkpt lat="44.15714" lon="3.5739">
        <ele>1137.17</ele>
        <time>2024-11-05T12:51:19.546Z</time>
      </trkpt>
      <trkpt lat="44.15736" lon="3.57374">
        <ele>1137.96</ele>
        <time>2024-11-05T12:51:28.123Z</time>
      </trkpt>
      <trkpt lat="44.15753" lon="3.57357">
        <ele>1138.59</ele>
        <time>2024-11-05T12:51:36.703Z</time>
      </trkpt>
      <trkpt lat="44.15771" lon="3.57327">
        <ele>1139.53</ele>
        <time>2024-11-05T12:51:45.288Z</time>
      </trkpt>
      <trkpt lat="44.15779" lon="3.57305">
        <ele>1140.18</ele>
        <time>2024-11-05T12:51:53.876Z</time>
      </trkpt>
      <trkpt lat="44.15787" lon="3.57271">
        <ele>1141.37</ele>
        <time>2024-11-05T12:52:02.468Z</time>
      </trkpt>
      <trkpt lat="44.1579" lon="3.57237">
        <ele>1142.52</ele>
        <time>2024-11-05T12:52:11.064Z</time>
      </trkpt>
      <trkpt lat="44.15792" lon="3.57229">
        <ele>1142.62</ele>
        <time>2024-11-05T12:52:19.661Z</time>
      </trkpt>
      <trkpt lat="44.15795" lon="3.57226">
        <ele>1142.65</ele>
        <time>2024-11-05T12:52:28.258Z</time>
      </trkpt>
      <trkpt lat="44.15817" lon="3.57228">
        <ele>1142.78</ele>
        <time>2024-11-05T12:52:36.859Z</time>
      </trkpt>
      <trkpt lat="44.15841" lon="3.57231">
        <ele>1143.27</ele>
        <time>2024-11-05T12:52:45.464Z</time>
      </trkpt>
      <trkpt lat="44.15865" lon="3.57241">
        <ele>1143.9</ele>
        <time>2024-11-05T12:52:54.073Z</time>
      </trkpt>
      <trkpt lat="44.15886" lon="3.57246">
        <ele>1144.45</ele>
        <time>2024-11-05T12:53:02.685Z</time>
      </trkpt>
      <trkpt lat="44.15904" lon="3.5724">
        <ele>1144.87</ele>
        <time>2024-11-05T12:53:11.300Z</time>
      </trkpt>
      <trkpt lat="44.15919" lon="3.57228">
        <ele>1145.22</ele>
        <time>2024-11-05T12:53:19.918Z</time>
      </trkpt>
      <trkpt lat="44.15938" lon="3.57202">
        <ele>1145.86</ele>
        <time>2024-11-05T12:53:28.540Z</time>
      </trkpt>
      <trkpt lat="44.15958" lon="3.57157">
        <ele>1146.83</ele>
        <time>2024-11-05T12:53:37.168Z</time>
      </trkpt>
      <trkpt lat="44.15965" lon="3.57136">
        <ele>1147.22</ele>
        <time>2024-11-05T12:53:45.799Z</time>
      </trkpt>
      <trkpt lat="44.15968" lon="3.57116">
        <ele>1147.57</ele>
        <time>2024-11-05T12:53:54.432Z</time>
      </trkpt>
      <trkpt lat="44.15966" lon="3.5704">
        <ele>1149.04</ele>
        <time>2024-11-05T12:54:03.074Z</time>
      </trkpt>
      <trkpt lat="44.15957" lon="3.56997">
        <ele>1150.18</ele>
        <time>2024-11-05T12:54:11.721Z</time>
      </trkpt>
      <trkpt lat="44.15945" lon="3.56961">
        <ele>1150.98</ele>
        <time>2024-11-05T12:54:20.373Z</time>
      </trkpt>
      <trkpt lat="44.15947" lon="3.56948">
        <ele>1151.16</ele>
        <time>2024-11-05T12:54:29.026Z</time>
      </trkpt>
      <trkpt lat="44.15966" lon="3.56913">
        <ele>1151.77</ele>
        <time>2024-11-05T12:54:37.684Z</time>
      </trkpt>
      <trkpt lat="44.15979" lon="3.56867">
        <ele>1152.83</ele>
        <time>2024-11-05T12:54:46.348Z</time>
      </trkpt>
      <trkpt lat="44.15983" lon="3.56846">
        <ele>1153.29</ele>
        <time>2024-11-05T12:54:55.014Z</time>
      </trkpt>
      <trkpt lat="44.15985" lon="3.56826">
        <ele>1153.7</ele>
        <time>2024-11-05T12:55:03.683Z</time>
      </trkpt>
      <trkpt lat="44.15984" lon="3.56798">
        <ele>1154.41</ele>
        <time>2024-11-05T12:55:12.355Z</time>
      </trkpt>
      <trkpt lat="44.15984" lon="3.56779">
        <ele>1155.1</ele>
        <time>2024-11-05T12:55:21.029Z</time>
      </trkpt>
      <trkpt lat="44.15983" lon="3.56749">
        <ele>1156.52</ele>
        <time>2024-11-05T12:55:29.707Z</time>
      </trkpt>
      <trkpt lat="44.15984" lon="3.56737">
        <ele>1156.84</ele>
        <time>2024-11-05T12:55:38.386Z</time>
      </trkpt>
      <trkpt lat="44.15987" lon="3.56731">
        <ele>1156.96</ele>
        <time>2024-11-05T12:55:47.066Z</time>
      </trkpt>
      <trkpt lat="44.15992" lon="3.56726">
        <ele>1156.99</ele>
        <time>2024-11-05T12:55:55.747Z</time>
      </trkpt>
      <trkpt lat="44.16021" lon="3.56721">
        <ele>1157.11</ele>
        <time>2024-11-05T12:56:04.433Z</time>
      </trkpt>
      <trkpt lat="44.16029" lon="3.56715">
        <ele>1157.22</ele>
        <time>2024-11-05T12:56:13.120Z</time>
      </trkpt>
      <trkpt lat="44.16047" lon="3.56685">
        <ele>1157.72</ele>
        <time>2024-11-05T12:56:21.811Z</time>
      </trkpt>
      <trkpt lat="44.16081" lon="3.5662">
        <ele>1159.12</ele>
        <time>2024-11-05T12:56:30.512Z</time>
      </trkpt>
      <trkpt lat="44.16118" lon="3.5655">
        <ele>1161</ele>
        <time>2024-11-05T12:56:39.223Z</time>
      </trkpt>
      <trkpt lat="44.16141" lon="3.56507">
        <ele>1162.46</ele>
        <time>2024-11-05T12:56:47.940Z</time>
      </trkpt>
      <trkpt lat="44.16154" lon="3.56493">
        <ele>1163.07</ele>
        <time>2024-11-05T12:56:56.660Z</time>
      </trkpt>
      <trkpt lat="44.16196" lon="3.56469">
        <ele>1164.49</ele>
        <time>2024-11-05T12:57:05.387Z</time>
      </trkpt>
      <trkpt lat="44.16204" lon="3.56462">
        <ele>1164.76</ele>
        <time>2024-11-05T12:57:14.115Z</time>
      </trkpt>
      <trkpt lat="44.1622" lon="3.56441">
        <ele>1165.47</ele>
        <time>2024-11-05T12:57:22.847Z</time>
      </trkpt>
      <trkpt lat="44.16227" lon="3.56428">
        <ele>1165.89</ele>
        <time>2024-11-05T12:57:31.581Z</time>
      </trkpt>
      <trkpt lat="44.16233" lon="3.56406">
        <ele>1166.37</ele>
        <time>2024-11-05T12:57:40.317Z</time>
      </trkpt>
      <trkpt lat="44.16234" lon="3.56392">
        <ele>1166.59</ele>
        <time>2024-11-05T12:57:49.055Z</time>
      </trkpt>
      <trkpt lat="44.16227" lon="3.56318">
        <ele>1167.71</ele>
        <time>2024-11-05T12:57:57.802Z</time>
      </trkpt>
      <trkpt lat="44.16223" lon="3.56269">
        <ele>1168.66</ele>
        <time>2024-11-05T12:58:06.554Z</time>
      </trkpt>
      <trkpt lat="44.16217" lon="3.56238">
        <ele>1169.3</ele>
        <time>2024-11-05T12:58:15.310Z</time>
      </trkpt>
      <trkpt lat="44.16191" lon="3.56161">
        <ele>1170.96</ele>
        <time>2024-11-05T12:58:24.076Z</time>
      </trkpt>
      <trkpt lat="44.16189" lon="3.56149">
        <ele>1171.24</ele>
        <time>2024-11-05T12:58:32.843Z</time>
      </trkpt>
      <trkpt lat="44.16189" lon="3.56087">
        <ele>1172.67</ele>
        <time>2024-11-05T12:58:41.617Z</time>
      </trkpt>
      <trkpt lat="44.16185" lon="3.56055">
        <ele>1173.45</ele>
        <time>2024-11-05T12:58:50.395Z</time>
      </trkpt>
      <trkpt lat="44.16173" lon="3.55996">
        <ele>1174.92</ele>
        <time>2024-11-05T12:58:59.180Z</time>
      </trkpt>
      <trkpt lat="44.16168" lon="3.55982">
        <ele>1175.34</ele>
        <time>2024-11-05T12:59:07.967Z</time>
      </trkpt>
      <trkpt lat="44.16144" lon="3.55938">
        <ele>1177.32</ele>
        <time>2024-11-05T12:59:16.760Z</time>
      </trkpt>
      <trkpt lat="44.16146" lon="3.55922">
        <ele>1177.68</ele>
        <time>2024-11-05T12:59:25.555Z</time>
      </trkpt>
      <trkpt lat="44.16154" lon="3.55903">
        <ele>1178.13</ele>
        <time>2024-11-05T12:59:34.353Z</time>
      </trkpt>
      <trkpt lat="44.16154" lon="3.55882">
        <ele>1178.65</ele>
        <time>2024-11-05T12:59:43.153Z</time>
      </trkpt>
      <trkpt lat="44.16132" lon="3.5581">
        <ele>1180.48</ele>
        <time>2024-11-05T12:59:51.962Z</time>
      </trkpt>
      <trkpt lat="44.1613" lon="3.55804">
        <ele>1180.48</ele>
        <time>2024-11-05T13:00:00.772Z</time>
      </trkpt>
      <trkpt lat="44.1613" lon="3.55795">
        <ele>1180.48</ele>
        <time>2024-11-05T13:00:09.583Z</time>
      </trkpt>
      <trkpt lat="44.16133" lon="3.55787">
        <ele>1180.46</ele>
        <time>2024-11-05T13:00:18.395Z</time>
      </trkpt>
      <trkpt lat="44.16155" lon="3.55768">
        <ele>1180.43</ele>
        <time>2024-11-05T13:00:27.211Z</time>
      </trkpt>
      <trkpt lat="44.16163" lon="3.55755">
        <ele>1180.55</ele>
        <time>2024-11-05T13:00:36.029Z</time>
      </trkpt>
      <trkpt lat="44.16183" lon="3.55712">
        <ele>1181.21</ele>
        <time>2024-11-05T13:00:44.853Z</time>
      </trkpt>
      <trkpt lat="44.16203" lon="3.55683">
        <ele>1181.82</ele>
        <time>2024-11-05T13:00:53.682Z</time>
      </trkpt>
      <trkpt lat="44.16253" lon="3.55568">
        <ele>1183.87</ele>
        <time>2024-11-05T13:01:02.526Z</time>
      </trkpt>
      <trkpt lat="44.16274" lon="3.55493">
        <ele>1185.54</ele>
        <time>2024-11-05T13:01:11.379Z</time>
      </trkpt>
      <trkpt lat="44.16281" lon="3.55477">
        <ele>1185.99</ele>
        <time>2024-11-05T13:01:20.235Z</time>
      </trkpt>
      <trkpt lat="44.163" lon="3.55448">
        <ele>1186.9</ele>
        <time>2024-11-05T13:01:29.095Z</time>
      </trkpt>
      <trkpt lat="44.16308" lon="3.55428">
        <ele>1187.38</ele>
        <time>2024-11-05T13:01:37.958Z</time>
      </trkpt>
      <trkpt lat="44.16325" lon="3.55371">
        <ele>1188.74</ele>
        <time>2024-11-05T13:01:46.828Z</time>
      </trkpt>
      <trkpt lat="44.16336" lon="3.55322">
        <ele>1190.18</ele>
        <time>2024-11-05T13:01:55.704Z</time>
      </trkpt>
      <trkpt lat="44.16342" lon="3.55303">
        <ele>1190.78</ele>
        <time>2024-11-05T13:02:04.582Z</time>
      </trkpt>
      <trkpt lat="44.16366" lon="3.55271">
        <ele>1191.99</ele>
        <time>2024-11-05T13:02:13.465Z</time>
      </trkpt>
      <trkpt lat="44.16372" lon="3.55257">
        <ele>1192.38</ele>
        <time>2024-11-05T13:02:22.350Z</time>
      </trkpt>
      <trkpt lat="44.16374" lon="3.55248">
        <ele>1192.55</ele>
        <time>2024-11-05T13:02:31.236Z</time>
      </trkpt>
      <trkpt lat="44.16374" lon="3.55233">
        <ele>1192.8</ele>
        <time>2024-11-05T13:02:40.124Z</time>
      </trkpt>
      <trkpt lat="44.16365" lon="3.55186">
        <ele>1193.82</ele>
        <time>2024-11-05T13:02:49.018Z</time>
      </trkpt>
      <trkpt lat="44.16365" lon="3.55165">
        <ele>1194.34</ele>
        <time>2024-11-05T13:02:57.914Z</time>
      </trkpt>
      <trkpt lat="44.16368" lon="3.55144">
        <ele>1194.88</ele>
        <time>2024-11-05T13:03:06.813Z</time>
      </trkpt>
      <trkpt lat="44.16373" lon="3.5513">
        <ele>1195.29</ele>
        <time>2024-11-05T13:03:15.713Z</time>
      </trkpt>
      <trkpt lat="44.16398" lon="3.55083">
        <ele>1197.18</ele>
        <time>2024-11-05T13:03:24.620Z</time>
      </trkpt>
      <trkpt lat="44.16412" lon="3.5505">
        <ele>1198.47</ele>
        <time>2024-11-05T13:03:33.532Z</time>
      </trkpt>
      <trkpt lat="44.16428" lon="3.55009">
        <ele>1199.67</ele>
        <time>2024-11-05T13:03:42.449Z</time>
      </trkpt>
      <trkpt lat="44.16443" lon="3.54983">
        <ele>1200.56</ele>
        <time>2024-11-05T13:03:51.370Z</time>
      </trkpt>
      <trkpt lat="44.16446" lon="3.54977">
        <ele>1200.59</ele>
        <time>2024-11-05T13:04:00.292Z</time>
      </trkpt>
      <trkpt lat="44.16436" lon="3.54951">
        <ele>1200.74</ele>
        <time>2024-11-05T13:04:09.217Z</time>
      </trkpt>
      <trkpt lat="44.16432" lon="3.54941">
        <ele>1201.14</ele>
        <time>2024-11-05T13:04:18.143Z</time>
      </trkpt>
      <trkpt lat="44.16418" lon="3.54906">
        <ele>1202.8</ele>
        <time>2024-11-05T13:04:27.074Z</time>
      </trkpt>
      <trkpt lat="44.16399" lon="3.54868">
        <ele>1205.07</ele>
        <time>2024-11-05T13:04:36.010Z</time>
      </trkpt>
      <trkpt lat="44.16388" lon="3.54858">
        <ele>1206</ele>
        <time>2024-11-05T13:04:44.948Z</time>
      </trkpt>
      <trkpt lat="44.1638" lon="3.54854">
        <ele>1206.65</ele>
        <time>2024-11-05T13:04:53.888Z</time>
      </trkpt>
      <trkpt lat="44.1637" lon="3.54853">
        <ele>1207.39</ele>
        <time>2024-11-05T13:05:02.829Z</time>
      </trkpt>
      <trkpt lat="44.16359" lon="3.54854">
        <ele>1208.14</ele>
        <time>2024-11-05T13:05:11.772Z</time>
      </trkpt>
      <trkpt lat="44.1633" lon="3.54867">
        <ele>1210.02</ele>
        <time>2024-11-05T13:05:20.720Z</time>
      </trkpt>
      <trkpt lat="44.16317" lon="3.5487">
        <ele>1210.94</ele>
        <time>2024-11-05T13:05:29.670Z</time>
      </trkpt>
      <trkpt lat="44.16307" lon="3.54871">
        <ele>1211.64</ele>
        <time>2024-11-05T13:05:38.622Z</time>
      </trkpt>
      <trkpt lat="44.16276" lon="3.54863">
        <ele>1214.11</ele>
        <time>2024-11-05T13:05:47.579Z</time>
      </trkpt>
      <trkpt lat="44.16264" lon="3.54862">
        <ele>1215</ele>
        <time>2024-11-05T13:05:56.538Z</time>
      </trkpt>
      <trkpt lat="44.16252" lon="3.54866">
        <ele>1215.87</ele>
        <time>2024-11-05T13:06:05.499Z</time>
      </trkpt>
      <trkpt lat="44.16238" lon="3.54874">
        <ele>1216.85</ele>
        <time>2024-11-05T13:06:14.462Z</time>
      </trkpt>
      <trkpt lat="44.1619" lon="3.54912">
        <ele>1220.27</ele>
        <time>2024-11-05T13:06:23.434Z</time>
      </trkpt>
      <trkpt lat="44.16173" lon="3.5492">
        <ele>1221.44</ele>
        <time>2024-11-05T13:06:32.409Z</time>
      </trkpt>
      <trkpt lat="44.16124" lon="3.54933">
        <ele>1225.13</ele>
        <time>2024-11-05T13:06:41.392Z</time>
      </trkpt>
      <trkpt lat="44.16114" lon="3.54933">
        <ele>1225.78</ele>
        <time>2024-11-05T13:06:50.376Z</time>
      </trkpt>
      <trkpt lat="44.16099" lon="3.54924">
        <ele>1226.85</ele>
        <time>2024-11-05T13:06:59.363Z</time>
      </trkpt>
      <trkpt lat="44.16091" lon="3.54913">
        <ele>1227.57</ele>
        <time>2024-11-05T13:07:08.352Z</time>
      </trkpt>
      <trkpt lat="44.16076" lon="3.54863">
        <ele>1229.85</ele>
        <time>2024-11-05T13:07:17.347Z</time>
      </trkpt>
      <trkpt lat="44.16072" lon="3.54833">
        <ele>1231.06</ele>
        <time>2024-11-05T13:07:26.345Z</time>
      </trkpt>
      <trkpt lat="44.1607" lon="3.54791">
        <ele>1233.06</ele>
        <time>2024-11-05T13:07:35.348Z</time>
      </trkpt>
      <trkpt lat="44.16076" lon="3.54712">
        <ele>1236.97</ele>
        <time>2024-11-05T13:07:44.360Z</time>
      </trkpt>
      <trkpt lat="44.16096" lon="3.54587">
        <ele>1242.96</ele>
        <time>2024-11-05T13:07:53.387Z</time>
      </trkpt>
      <trkpt lat="44.16097" lon="3.54564">
        <ele>1244.2</ele>
        <time>2024-11-05T13:08:02.417Z</time>
      </trkpt>
      <trkpt lat="44.16096" lon="3.54544">
        <ele>1245.36</ele>
        <time>2024-11-05T13:08:11.449Z</time>
      </trkpt>
      <trkpt lat="44.16086" lon="3.54518">
        <ele>1246.69</ele>
        <time>2024-11-05T13:08:20.485Z</time>
      </trkpt>
      <trkpt lat="44.16065" lon="3.54495">
        <ele>1248.06</ele>
        <time>2024-11-05T13:08:29.525Z</time>
      </trkpt>
      <trkpt lat="44.1605" lon="3.54486">
        <ele>1248.93</ele>
        <time>2024-11-05T13:08:38.567Z</time>
      </trkpt>
      <trkpt lat="44.16037" lon="3.54481">
        <ele>1249.73</ele>
        <time>2024-11-05T13:08:47.612Z</time>
      </trkpt>
      <trkpt lat="44.16022" lon="3.5448">
        <ele>1250.69</ele>
        <time>2024-11-05T13:08:56.659Z</time>
      </trkpt>
      <trkpt lat="44.15937" lon="3.54495">
        <ele>1256.36</ele>
        <time>2024-11-05T13:09:05.720Z</time>
      </trkpt>
      <trkpt lat="44.15921" lon="3.54495">
        <ele>1257.51</ele>
        <time>2024-11-05T13:09:14.783Z</time>
      </trkpt>
      <trkpt lat="44.15879" lon="3.54486">
        <ele>1260.51</ele>
        <time>2024-11-05T13:09:23.853Z</time>
      </trkpt>
      <trkpt lat="44.15863" lon="3.54486">
        <ele>1261.6</ele>
        <time>2024-11-05T13:09:32.926Z</time>
      </trkpt>
      <trkpt lat="44.15837" lon="3.54492">
        <ele>1263.28</ele>
        <time>2024-11-05T13:09:42.003Z</time>
      </trkpt>
      <trkpt lat="44.15804" lon="3.54502">
        <ele>1265.79</ele>
        <time>2024-11-05T13:09:51.085Z</time>
      </trkpt>
      <trkpt lat="44.15776" lon="3.54514">
        <ele>1268.03</ele>
        <time>2024-11-05T13:10:00.172Z</time>
      </trkpt>
      <trkpt lat="44.15725" lon="3.54538">
        <ele>1271.8</ele>
        <time>2024-11-05T13:10:09.268Z</time>
      </trkpt>
      <trkpt lat="44.15706" lon="3.54548">
        <ele>1273.39</ele>
        <time>2024-11-05T13:10:18.367Z</time>
      </trkpt>
      <trkpt lat="44.15691" lon="3.54561">
        <ele>1274.79</ele>
        <time>2024-11-05T13:10:27.469Z</time>
      </trkpt>
      <trkpt lat="44.15654" lon="3.54608">
        <ele>1278.29</ele>
        <time>2024-11-05T13:10:36.579Z</time>
      </trkpt>
      <trkpt lat="44.15641" lon="3.54632">
        <ele>1279.79</ele>
        <time>2024-11-05T13:10:45.692Z</time>
      </trkpt>
      <trkpt lat="44.15614" lon="3.54701">
        <ele>1283.89</ele>
        <time>2024-11-05T13:10:54.814Z</time>
      </trkpt>
      <trkpt lat="44.15602" lon="3.54727">
        <ele>1285.5</ele>
        <time>2024-11-05T13:11:03.940Z</time>
      </trkpt>
      <trkpt lat="44.15589" lon="3.54747">
        <ele>1286.79</ele>
        <time>2024-11-05T13:11:13.069Z</time>
      </trkpt>
      <trkpt lat="44.15574" lon="3.54763">
        <ele>1288.1</ele>
        <time>2024-11-05T13:11:22.201Z</time>
      </trkpt>
      <trkpt lat="44.15561" lon="3.54772">
        <ele>1289.08</ele>
        <time>2024-11-05T13:11:31.335Z</time>
      </trkpt>
      <trkpt lat="44.15505" lon="3.54798">
        <ele>1293.03</ele>
        <time>2024-11-05T13:11:40.479Z</time>
      </trkpt>
      <trkpt lat="44.15491" lon="3.54807">
        <ele>1294.08</ele>
        <time>2024-11-05T13:11:49.625Z</time>
      </trkpt>
      <trkpt lat="44.15479" lon="3.54818">
        <ele>1295.07</ele>
        <time>2024-11-05T13:11:58.773Z</time>
      </trkpt>
      <trkpt lat="44.15449" lon="3.54866">
        <ele>1298.29</ele>
        <time>2024-11-05T13:12:07.929Z</time>
      </trkpt>
      <trkpt lat="44.15439" lon="3.54874">
        <ele>1298.99</ele>
        <time>2024-11-05T13:12:17.087Z</time>
      </trkpt>
      <trkpt lat="44.15428" lon="3.54877">
        <ele>1299.69</ele>
        <time>2024-11-05T13:12:26.246Z</time>
      </trkpt>
      <trkpt lat="44.15373" lon="3.54873">
        <ele>1302.84</ele>
        <time>2024-11-05T13:12:35.414Z</time>
      </trkpt>
      <trkpt lat="44.15334" lon="3.54866">
        <ele>1305.52</ele>
        <time>2024-11-05T13:12:44.589Z</time>
      </trkpt>
      <trkpt lat="44.15318" lon="3.54866">
        <ele>1306.71</ele>
        <time>2024-11-05T13:12:53.766Z</time>
      </trkpt>
      <trkpt lat="44.15302" lon="3.54869">
        <ele>1307.9</ele>
        <time>2024-11-05T13:13:02.946Z</time>
      </trkpt>
      <trkpt lat="44.15283" lon="3.54878">
        <ele>1309.33</ele>
        <time>2024-11-05T13:13:12.129Z</time>
      </trkpt>
      <trkpt lat="44.15254" lon="3.54899">
        <ele>1311.57</ele>
        <time>2024-11-05T13:13:21.317Z</time>
      </trkpt>
      <trkpt lat="44.15213" lon="3.54934">
        <ele>1314.88</ele>
        <time>2024-11-05T13:13:30.513Z</time>
      </trkpt>
      <trkpt lat="44.15197" lon="3.54953">
        <ele>1316.34</ele>
        <time>2024-11-05T13:13:39.712Z</time>
      </trkpt>
      <trkpt lat="44.15181" lon="3.54981">
        <ele>1318.1</ele>
        <time>2024-11-05T13:13:48.915Z</time>
      </trkpt>
      <trkpt lat="44.15162" lon="3.55021">
        <ele>1320.56</ele>
        <time>2024-11-05T13:13:58.124Z</time>
      </trkpt>
      <trkpt lat="44.15148" lon="3.5506">
        <ele>1322.77</ele>
        <time>2024-11-05T13:14:07.338Z</time>
      </trkpt>
      <trkpt lat="44.15141" lon="3.55086">
        <ele>1324.08</ele>
        <time>2024-11-05T13:14:16.555Z</time>
      </trkpt>
      <trkpt lat="44.15137" lon="3.55134">
        <ele>1326.52</ele>
        <time>2024-11-05T13:14:25.778Z</time>
      </trkpt>
      <trkpt lat="44.1514" lon="3.55159">
        <ele>1327.81</ele>
        <time>2024-11-05T13:14:35.004Z</time>
      </trkpt>
      <trkpt lat="44.15146" lon="3.55178">
        <ele>1328.8</ele>
        <time>2024-11-05T13:14:44.232Z</time>
      </trkpt>
      <trkpt lat="44.15158" lon="3.55204">
        <ele>1330.16</ele>
        <time>2024-11-05T13:14:53.463Z</time>
      </trkpt>
      <trkpt lat="44.15183" lon="3.55251">
        <ele>1333.17</ele>
        <time>2024-11-05T13:15:02.701Z</time>
      </trkpt>
      <trkpt lat="44.15195" lon="3.55284">
        <ele>1335.12</ele>
        <time>2024-11-05T13:15:11.943Z</time>
      </trkpt>
      <trkpt lat="44.15202" lon="3.55394">
        <ele>1340.95</ele>
        <time>2024-11-05T13:15:21.198Z</time>
      </trkpt>
      <trkpt lat="44.15202" lon="3.55408">
        <ele>1341.65</ele>
        <time>2024-11-05T13:15:30.455Z</time>
      </trkpt>
      <trkpt lat="44.15195" lon="3.55435">
        <ele>1342.92</ele>
        <time>2024-11-05T13:15:39.715Z</time>
      </trkpt>
      <trkpt lat="44.15187" lon="3.55445">
        <ele>1343.54</ele>
        <time>2024-11-05T13:15:48.977Z</time>
      </trkpt>
      <trkpt lat="44.15178" lon="3.55451">
        <ele>1344.12</ele>
        <time>2024-11-05T13:15:58.240Z</time>
      </trkpt>
      <trkpt lat="44.1517" lon="3.55452">
        <ele>1344.59</ele>
        <time>2024-11-05T13:16:07.505Z</time>
      </trkpt>
      <trkpt lat="44.15162" lon="3.55448">
        <ele>1345.08</ele>
        <time>2024-11-05T13:16:16.771Z</time>
      </trkpt>
      <trkpt lat="44.15137" lon="3.55429">
        <ele>1346.61</ele>
        <time>2024-11-05T13:16:26.042Z</time>
      </trkpt>
      <trkpt lat="44.15123" lon="3.55421">
        <ele>1347.55</ele>
        <time>2024-11-05T13:16:35.315Z</time>
      </trkpt>
      <trkpt lat="44.15097" lon="3.55409">
        <ele>1349.5</ele>
        <time>2024-11-05T13:16:44.592Z</time>
      </trkpt>
      <trkpt lat="44.15084" lon="3.55407">
        <ele>1350.44</ele>
        <time>2024-11-05T13:16:53.872Z</time>
      </trkpt>
      <trkpt lat="44.15073" lon="3.55409">
        <ele>1351.18</ele>
        <time>2024-11-05T13:17:03.153Z</time>
      </trkpt>
      <trkpt lat="44.1506" lon="3.55415">
        <ele>1352.11</ele>
        <time>2024-11-05T13:17:12.436Z</time>
      </trkpt>
      <trkpt lat="44.15049" lon="3.55425">
        <ele>1353</ele>
        <time>2024-11-05T13:17:21.722Z</time>
      </trkpt>
      <trkpt lat="44.15039" lon="3.55438">
        <ele>1353.94</ele>
        <time>2024-11-05T13:17:31.010Z</time>
      </trkpt>
      <trkpt lat="44.1503" lon="3.55456">
        <ele>1355</ele>
        <time>2024-11-05T13:17:40.300Z</time>
      </trkpt>
      <trkpt lat="44.15026" lon="3.5547">
        <ele>1355.72</ele>
        <time>2024-11-05T13:17:49.592Z</time>
      </trkpt>
      <trkpt lat="44.15023" lon="3.55501">
        <ele>1357.23</ele>
        <time>2024-11-05T13:17:58.888Z</time>
      </trkpt>
      <trkpt lat="44.15021" lon="3.55607">
        <ele>1362.64</ele>
        <time>2024-11-05T13:18:08.196Z</time>
      </trkpt>
      <trkpt lat="44.15017" lon="3.55621">
        <ele>1363.33</ele>
        <time>2024-11-05T13:18:17.506Z</time>
      </trkpt>
      <trkpt lat="44.15012" lon="3.5563">
        <ele>1363.83</ele>
        <time>2024-11-05T13:18:26.817Z</time>
      </trkpt>
      <trkpt lat="44.14996" lon="3.55638">
        <ele>1364.84</ele>
        <time>2024-11-05T13:18:36.131Z</time>
      </trkpt>
      <trkpt lat="44.14952" lon="3.55638">
        <ele>1367.49</ele>
        <time>2024-11-05T13:18:45.452Z</time>
      </trkpt>
      <trkpt lat="44.14935" lon="3.5564">
        <ele>1368.54</ele>
        <time>2024-11-05T13:18:54.775Z</time>
      </trkpt>
      <trkpt lat="44.14921" lon="3.55646">
        <ele>1369.39</ele>
        <time>2024-11-05T13:19:04.101Z</time>
      </trkpt>
      <trkpt lat="44.14899" lon="3.5566">
        <ele>1370.77</ele>
        <time>2024-11-05T13:19:13.431Z</time>
      </trkpt>
      <trkpt lat="44.14863" lon="3.55696">
        <ele>1373.35</ele>
        <time>2024-11-05T13:19:22.768Z</time>
      </trkpt>
      <trkpt lat="44.14832" lon="3.55742">
        <ele>1376.36</ele>
        <time>2024-11-05T13:19:32.112Z</time>
      </trkpt>
      <trkpt lat="44.14823" lon="3.55753">
        <ele>1377.17</ele>
        <time>2024-11-05T13:19:41.458Z</time>
      </trkpt>
      <trkpt lat="44.14813" lon="3.55759">
        <ele>1377.85</ele>
        <time>2024-11-05T13:19:50.806Z</time>
      </trkpt>
      <trkpt lat="44.14772" lon="3.55776">
        <ele>1380.35</ele>
        <time>2024-11-05T13:20:00.160Z</time>
      </trkpt>
      <trkpt lat="44.14756" lon="3.55787">
        <ele>1381.39</ele>
        <time>2024-11-05T13:20:09.517Z</time>
      </trkpt>
      <trkpt lat="44.1474" lon="3.55804">
        <ele>1382.56</ele>
        <time>2024-11-05T13:20:18.878Z</time>
      </trkpt>
      <trkpt lat="44.14723" lon="3.55827">
        <ele>1383.9</ele>
        <time>2024-11-05T13:20:28.242Z</time>
      </trkpt>
      <trkpt lat="44.14705" lon="3.55867">
        <ele>1385.77</ele>
        <time>2024-11-05T13:20:37.612Z</time>
      </trkpt>
      <trkpt lat="44.14697" lon="3.55893">
        <ele>1387</ele>
        <time>2024-11-05T13:20:46.985Z</time>
      </trkpt>
      <trkpt lat="44.14687" lon="3.55949">
        <ele>1389.48</ele>
        <time>2024-11-05T13:20:56.365Z</time>
      </trkpt>
      <trkpt lat="44.14682" lon="3.55969">
        <ele>1390.4</ele>
        <time>2024-11-05T13:21:05.747Z</time>
      </trkpt>
      <trkpt lat="44.14673" lon="3.55985">
        <ele>1391.26</ele>
        <time>2024-11-05T13:21:15.131Z</time>
      </trkpt>
      <trkpt lat="44.14651" lon="3.56012">
        <ele>1392.98</ele>
        <time>2024-11-05T13:21:24.520Z</time>
      </trkpt>
      <trkpt lat="44.14621" lon="3.5606">
        <ele>1395.46</ele>
        <time>2024-11-05T13:21:33.916Z</time>
      </trkpt>
      <trkpt lat="44.14576" lon="3.56158">
        <ele>1400.01</ele>
        <time>2024-11-05T13:21:43.326Z</time>
      </trkpt>
      <trkpt lat="44.14544" lon="3.56227">
        <ele>1402.84</ele>
        <time>2024-11-05T13:21:52.745Z</time>
      </trkpt>
      <trkpt lat="44.14533" lon="3.56246">
        <ele>1403.48</ele>
        <time>2024-11-05T13:22:02.167Z</time>
      </trkpt>
      <trkpt lat="44.14508" lon="3.56269">
        <ele>1404.26</ele>
        <time>2024-11-05T13:22:11.594Z</time>
      </trkpt>
      <trkpt lat="44.14486" lon="3.56282">
        <ele>1405.31</ele>
        <time>2024-11-05T13:22:21.025Z</time>
      </trkpt>
      <trkpt lat="44.14425" lon="3.56321">
        <ele>1409.35</ele>
        <time>2024-11-05T13:22:30.467Z</time>
      </trkpt>
      <trkpt lat="44.1437" lon="3.56362">
        <ele>1413.53</ele>
        <time>2024-11-05T13:22:39.919Z</time>
      </trkpt>
      <trkpt lat="44.14345" lon="3.5638">
        <ele>1415.6</ele>
        <time>2024-11-05T13:22:49.375Z</time>
      </trkpt>
      <trkpt lat="44.1433" lon="3.56389">
        <ele>1416.81</ele>
        <time>2024-11-05T13:22:58.834Z</time>
      </trkpt>
      <trkpt lat="44.14308" lon="3.56398">
        <ele>1418.54</ele>
        <time>2024-11-05T13:23:08.296Z</time>
      </trkpt>
      <trkpt lat="44.14227" lon="3.5643">
        <ele>1425.53</ele>
        <time>2024-11-05T13:23:17.772Z</time>
      </trkpt>
      <trkpt lat="44.14189" lon="3.56445">
        <ele>1429.1</ele>
        <time>2024-11-05T13:23:27.254Z</time>
      </trkpt>
      <trkpt lat="44.14128" lon="3.56462">
        <ele>1434.91</ele>
        <time>2024-11-05T13:23:36.746Z</time>
      </trkpt>
      <trkpt lat="44.14036" lon="3.56463">
        <ele>1443.85</ele>
        <time>2024-11-05T13:23:46.253Z</time>
      </trkpt>
      <trkpt lat="44.13998" lon="3.56474">
        <ele>1447.5</ele>
        <time>2024-11-05T13:23:55.766Z</time>
      </trkpt>
      <trkpt lat="44.13976" lon="3.56476">
        <ele>1449.67</ele>
        <time>2024-11-05T13:24:05.283Z</time>
      </trkpt>
      <trkpt lat="44.13957" lon="3.56472">
        <ele>1451.66</ele>
        <time>2024-11-05T13:24:14.803Z</time>
      </trkpt>
      <trkpt lat="44.13924" lon="3.56459">
        <ele>1455.32</ele>
        <time>2024-11-05T13:24:24.328Z</time>
      </trkpt>
      <trkpt lat="44.13882" lon="3.56446">
        <ele>1459.12</ele>
        <time>2024-11-05T13:24:33.860Z</time>
      </trkpt>
      <trkpt lat="44.13769" lon="3.56444">
        <ele>1468.79</ele>
        <time>2024-11-05T13:24:43.410Z</time>
      </trkpt>
      <trkpt lat="44.1374" lon="3.56444">
        <ele>1471.03</ele>
        <time>2024-11-05T13:24:52.965Z</time>
      </trkpt>
      <trkpt lat="44.13725" lon="3.56442">
        <ele>1472.16</ele>
        <time>2024-11-05T13:25:02.522Z</time>
      </trkpt>
      <trkpt lat="44.13713" lon="3.56438">
        <ele>1473.14</ele>
        <time>2024-11-05T13:25:12.081Z</time>
      </trkpt>
      <trkpt lat="44.13672" lon="3.56409">
        <ele>1476.89</ele>
        <time>2024-11-05T13:25:21.647Z</time>
      </trkpt>
      <trkpt lat="44.13656" lon="3.56396">
        <ele>1478.31</ele>
        <time>2024-11-05T13:25:31.216Z</time>
      </trkpt>
      <trkpt lat="44.13625" lon="3.5637">
        <ele>1480.78</ele>
        <time>2024-11-05T13:25:40.791Z</time>
      </trkpt>
      <trkpt lat="44.13617" lon="3.56358">
        <ele>1481.56</ele>
        <time>2024-11-05T13:25:50.368Z</time>
      </trkpt>
      <trkpt lat="44.13606" lon="3.56326">
        <ele>1483.4</ele>
        <time>2024-11-05T13:25:59.949Z</time>
      </trkpt>
      <trkpt lat="44.13604" lon="3.56309">
        <ele>1484.33</ele>
        <time>2024-11-05T13:26:09.532Z</time>
      </trkpt>
      <trkpt lat="44.13605" lon="3.56291">
        <ele>1485.31</ele>
        <time>2024-11-05T13:26:19.117Z</time>
      </trkpt>
      <trkpt lat="44.13615" lon="3.56232">
        <ele>1488.57</ele>
        <time>2024-11-05T13:26:28.709Z</time>
      </trkpt>
      <trkpt lat="44.13618" lon="3.56208">
        <ele>1490.01</ele>
        <time>2024-11-05T13:26:38.304Z</time>
      </trkpt>
      <trkpt lat="44.13617" lon="3.56178">
        <ele>1492.02</ele>
        <time>2024-11-05T13:26:47.902Z</time>
      </trkpt>
      <trkpt lat="44.13615" lon="3.56164">
        <ele>1492.99</ele>
        <time>2024-11-05T13:26:57.502Z</time>
      </trkpt>
      <trkpt lat="44.1361" lon="3.56152">
        <ele>1493.91</ele>
        <time>2024-11-05T13:27:07.104Z</time>
      </trkpt>
      <trkpt lat="44.13602" lon="3.56141">
        <ele>1494.91</ele>
        <time>2024-11-05T13:27:16.708Z</time>
      </trkpt>
      <trkpt lat="44.13586" lon="3.56132">
        <ele>1496.15</ele>
        <time>2024-11-05T13:27:26.314Z</time>
      </trkpt>
      <trkpt lat="44.13576" lon="3.56134">
        <ele>1496.68</ele>
        <time>2024-11-05T13:27:35.922Z</time>
      </trkpt>
      <trkpt lat="44.13564" lon="3.56139">
        <ele>1497.18</ele>
        <time>2024-11-05T13:27:45.532Z</time>
      </trkpt>
      <trkpt lat="44.13545" lon="3.56153">
        <ele>1497.78</ele>
        <time>2024-11-05T13:27:55.145Z</time>
      </trkpt>
      <trkpt lat="44.13533" lon="3.56167">
        <ele>1498.15</ele>
        <time>2024-11-05T13:28:04.761Z</time>
      </trkpt>
      <trkpt lat="44.13508" lon="3.56194">
        <ele>1498.47</ele>
        <time>2024-11-05T13:28:14.382Z</time>
      </trkpt>
      <trkpt lat="44.13496" lon="3.5621">
        <ele>1498.47</ele>
        <time>2024-11-05T13:28:24.006Z</time>
      </trkpt>
      <trkpt lat="44.13484" lon="3.56238">
        <ele>1498.27</ele>
        <time>2024-11-05T13:28:33.633Z</time>
      </trkpt>
      <trkpt lat="44.13464" lon="3.56321">
        <ele>1496.68</ele>
        <time>2024-11-05T13:28:43.270Z</time>
      </trkpt>
      <trkpt lat="44.13457" lon="3.56349">
        <ele>1496.44</ele>
        <time>2024-11-05T13:28:52.911Z</time>
      </trkpt>
      <trkpt lat="44.13445" lon="3.56375">
        <ele>1496.44</ele>
        <time>2024-11-05T13:29:02.555Z</time>
      </trkpt>
      <trkpt lat="44.13418" lon="3.56416">
        <ele>1496.53</ele>
        <time>2024-11-05T13:29:12.206Z</time>
      </trkpt>
      <trkpt lat="44.13404" lon="3.56433">
        <ele>1496.62</ele>
        <time>2024-11-05T13:29:21.860Z</time>
      </trkpt>
      <trkpt lat="44.13392" lon="3.56443">
        <ele>1496.67</ele>
        <time>2024-11-05T13:29:31.516Z</time>
      </trkpt>
      <trkpt lat="44.1337" lon="3.56451">
        <ele>1496.69</ele>
        <time>2024-11-05T13:29:41.176Z</time>
      </trkpt>
      <trkpt lat="44.1331" lon="3.56448">
        <ele>1496.63</ele>
        <time>2024-11-05T13:29:50.845Z</time>
      </trkpt>
      <trkpt lat="44.13289" lon="3.56445">
        <ele>1496.68</ele>
        <time>2024-11-05T13:30:00.518Z</time>
      </trkpt>
      <trkpt lat="44.1325" lon="3.56434">
        <ele>1496.81</ele>
        <time>2024-11-05T13:30:10.197Z</time>
      </trkpt>
      <trkpt lat="44.13234" lon="3.56432">
        <ele>1496.87</ele>
        <time>2024-11-05T13:30:19.879Z</time>
      </trkpt>
      <trkpt lat="44.1322" lon="3.56434">
        <ele>1496.93</ele>
        <time>2024-11-05T13:30:29.563Z</time>
      </trkpt>
      <trkpt lat="44.13206" lon="3.5644">
        <ele>1496.97</ele>
        <time>2024-11-05T13:30:39.249Z</time>
      </trkpt>
      <trkpt lat="44.13193" lon="3.56451">
        <ele>1497</ele>
        <time>2024-11-05T13:30:48.938Z</time>
      </trkpt>
      <trkpt lat="44.13167" lon="3.56483">
        <ele>1497.13</ele>
        <time>2024-11-05T13:30:58.632Z</time>
      </trkpt>
      <trkpt lat="44.13123" lon="3.56566">
        <ele>1497.18</ele>
        <time>2024-11-05T13:31:08.338Z</time>
      </trkpt>
      <trkpt lat="44.13101" lon="3.56606">
        <ele>1497.45</ele>
        <time>2024-11-05T13:31:18.050Z</time>
      </trkpt>
      <trkpt lat="44.13085" lon="3.56639">
        <ele>1497.53</ele>
        <time>2024-11-05T13:31:27.766Z</time>
      </trkpt>
      <trkpt lat="44.13066" lon="3.56692">
        <ele>1497.81</ele>
        <time>2024-11-05T13:31:37.489Z</time>
      </trkpt>
      <trkpt lat="44.13054" lon="3.56738">
        <ele>1497.79</ele>
        <time>2024-11-05T13:31:47.218Z</time>
      </trkpt>
      <trkpt lat="44.13048" lon="3.5679">
        <ele>1497.81</ele>
        <time>2024-11-05T13:31:56.953Z</time>
      </trkpt>
      <trkpt lat="44.13042" lon="3.56841">
        <ele>1498.05</ele>
        <time>2024-11-05T13:32:06.694Z</time>
      </trkpt>
      <trkpt lat="44.13035" lon="3.56867">
        <ele>1498.07</ele>
        <time>2024-11-05T13:32:16.438Z</time>
      </trkpt>
      <trkpt lat="44.13029" lon="3.56877">
        <ele>1498.08</ele>
        <time>2024-11-05T13:32:26.184Z</time>
      </trkpt>
      <trkpt lat="44.13017" lon="3.56888">
        <ele>1498.12</ele>
        <time>2024-11-05T13:32:35.932Z</time>
      </trkpt>
      <trkpt lat="44.12981" lon="3.56907">
        <ele>1498.14</ele>
        <time>2024-11-05T13:32:45.686Z</time>
      </trkpt>
      <trkpt lat="44.12954" lon="3.56919">
        <ele>1498.33</ele>
        <time>2024-11-05T13:32:55.445Z</time>
      </trkpt>
      <trkpt lat="44.12936" lon="3.56927">
        <ele>1498.64</ele>
        <time>2024-11-05T13:33:05.207Z</time>
      </trkpt>
      <trkpt lat="44.1292" lon="3.56936">
        <ele>1499.08</ele>
        <time>2024-11-05T13:33:14.971Z</time>
      </trkpt>
      <trkpt lat="44.12863" lon="3.56969">
        <ele>1501.75</ele>
        <time>2024-11-05T13:33:24.745Z</time>
      </trkpt>
      <trkpt lat="44.12848" lon="3.56975">
        <ele>1502.41</ele>
        <time>2024-11-05T13:33:34.522Z</time>
      </trkpt>
      <trkpt lat="44.12816" lon="3.56979">
        <ele>1503.74</ele>
        <time>2024-11-05T13:33:44.304Z</time>
      </trkpt>
      <trkpt lat="44.12782" lon="3.56976">
        <ele>1505.48</ele>
        <time>2024-11-05T13:33:54.091Z</time>
      </trkpt>
      <trkpt lat="44.12737" lon="3.56972">
        <ele>1508.5</ele>
        <time>2024-11-05T13:34:03.886Z</time>
      </trkpt>
      <trkpt lat="44.1272" lon="3.56967">
        <ele>1509.63</ele>
        <time>2024-11-05T13:34:13.683Z</time>
      </trkpt>
      <trkpt lat="44.12659" lon="3.56925">
        <ele>1514.39</ele>
        <time>2024-11-05T13:34:23.491Z</time>
      </trkpt>
      <trkpt lat="44.12656" lon="3.56923">
        <ele>1514.44</ele>
        <time>2024-11-05T13:34:33.300Z</time>
      </trkpt>
      <trkpt lat="44.12635" lon="3.56925">
        <ele>1514.8</ele>
        <time>2024-11-05T13:34:43.112Z</time>
      </trkpt>
      <trkpt lat="44.1261" lon="3.56927">
        <ele>1515.81</ele>
        <time>2024-11-05T13:34:52.928Z</time>
      </trkpt>
      <trkpt lat="44.126" lon="3.5693">
        <ele>1516.31</ele>
        <time>2024-11-05T13:35:02.746Z</time>
      </trkpt>
      <trkpt lat="44.12504" lon="3.56963">
        <ele>1523.05</ele>
        <time>2024-11-05T13:35:12.580Z</time>
      </trkpt>
      <trkpt lat="44.12468" lon="3.56973">
        <ele>1525.56</ele>
        <time>2024-11-05T13:35:22.419Z</time>
      </trkpt>
      <trkpt lat="44.12439" lon="3.56977">
        <ele>1527.52</ele>
        <time>2024-11-05T13:35:32.263Z</time>
      </trkpt>
      <trkpt lat="44.12417" lon="3.56984">
        <ele>1529.08</ele>
        <time>2024-11-05T13:35:42.111Z</time>
      </trkpt>
      <trkpt lat="44.12326" lon="3.57027">
        <ele>1535.97</ele>
        <time>2024-11-05T13:35:51.974Z</time>
      </trkpt>
      <trkpt lat="44.12312" lon="3.57029">
        <ele>1537.09</ele>
        <time>2024-11-05T13:36:01.839Z</time>
      </trkpt>
      <trkpt lat="44.12296" lon="3.57024">
        <ele>1538.42</ele>
        <time>2024-11-05T13:36:11.707Z</time>
      </trkpt>
      <trkpt lat="44.12256" lon="3.56999">
        <ele>1541.8</ele>
        <time>2024-11-05T13:36:21.582Z</time>
      </trkpt>
      <trkpt lat="44.1225" lon="3.56998">
        <ele>1542.17</ele>
        <time>2024-11-05T13:36:31.458Z</time>
      </trkpt>
      <trkpt lat="44.12243" lon="3.57">
        <ele>1542.58</ele>
        <time>2024-11-05T13:36:41.335Z</time>
      </trkpt>
      <trkpt lat="44.12238" lon="3.57004">
        <ele>1542.85</ele>
        <time>2024-11-05T13:36:51.213Z</time>
      </trkpt>
      <trkpt lat="44.12227" lon="3.57019">
        <ele>1543.41</ele>
        <time>2024-11-05T13:37:01.094Z</time>
      </trkpt>
      <trkpt lat="44.12217" lon="3.57049">
        <ele>1543.92</ele>
        <time>2024-11-05T13:37:10.978Z</time>
      </trkpt>
      <trkpt lat="44.12201" lon="3.57107">
        <ele>1544.29</ele>
        <time>2024-11-05T13:37:20.869Z</time>
      </trkpt>
      <trkpt lat="44.12184" lon="3.57164">
        <ele>1545.4</ele>
        <time>2024-11-05T13:37:30.768Z</time>
      </trkpt>
      <trkpt lat="44.12176" lon="3.57199">
        <ele>1546.52</ele>
        <time>2024-11-05T13:37:40.671Z</time>
      </trkpt>
      <trkpt lat="44.12162" lon="3.57258">
        <ele>1548.91</ele>
        <time>2024-11-05T13:37:50.581Z</time>
      </trkpt>
      <trkpt lat="44.1216" lon="3.57277">
        <ele>1549.49</ele>
        <time>2024-11-05T13:38:00.493Z</time>
      </trkpt>
      <trkpt lat="44.1216" lon="3.57308">
        <ele>1549.96</ele>
        <time>2024-11-05T13:38:10.409Z</time>
      </trkpt>
      <trkpt lat="44.1216" lon="3.57383">
        <ele>1550.57</ele>
        <time>2024-11-05T13:38:20.333Z</time>
      </trkpt>
      <trkpt lat="44.1216" lon="3.5742">
        <ele>1551.12</ele>
        <time>2024-11-05T13:38:30.262Z</time>
      </trkpt>
      <trkpt lat="44.1216" lon="3.57457">
        <ele>1552.02</ele>
        <time>2024-11-05T13:38:40.195Z</time>
      </trkpt>
      <trkpt lat="44.1216" lon="3.57538">
        <ele>1554.6</ele>
        <time>2024-11-05T13:38:50.137Z</time>
      </trkpt>
      <trkpt lat="44.12159" lon="3.57563">
        <ele>1555.13</ele>
        <time>2024-11-05T13:39:00.082Z</time>
      </trkpt>
      <trkpt lat="44.12158" lon="3.57581">
        <ele>1555.25</ele>
        <time>2024-11-05T13:39:10.029Z</time>
      </trkpt>
      <trkpt lat="44.12155" lon="3.57656">
        <ele>1555.02</ele>
        <time>2024-11-05T13:39:19.985Z</time>
      </trkpt>
      <trkpt lat="44.12152" lon="3.57705">
        <ele>1555.17</ele>
        <time>2024-11-05T13:39:29.947Z</time>
      </trkpt>
      <trkpt lat="44.12152" lon="3.5771">
        <ele>1554.82</ele>
        <time>2024-11-05T13:39:39.909Z</time>
      </trkpt>
      <trkpt lat="44.12183" lon="3.57719">
        <ele>1551.95</ele>
        <time>2024-11-05T13:39:49.876Z</time>
      </trkpt>
      <trkpt lat="44.12191" lon="3.57724">
        <ele>1551.24</ele>
        <time>2024-11-05T13:39:59.845Z</time>
      </trkpt>
      <trkpt lat="44.122" lon="3.57736">
        <ele>1550.36</ele>
        <time>2024-11-05T13:40:09.816Z</time>
      </trkpt>
      <trkpt lat="44.12203" lon="3.57744">
        <ele>1549.92</ele>
        <time>2024-11-05T13:40:19.788Z</time>
      </trkpt>
      <trkpt lat="44.12207" lon="3.57752">
        <ele>1549.45</ele>
        <time>2024-11-05T13:40:29.761Z</time>
      </trkpt>
      <trkpt lat="44.12219" lon="3.5784">
        <ele>1545.64</ele>
        <time>2024-11-05T13:40:39.744Z</time>
      </trkpt>
      <trkpt lat="44.12227" lon="3.57864">
        <ele>1544.49</ele>
        <time>2024-11-05T13:40:49.730Z</time>
      </trkpt>
      <trkpt lat="44.12248" lon="3.57911">
        <ele>1542</ele>
        <time>2024-11-05T13:40:59.723Z</time>
      </trkpt>
      <trkpt lat="44.12263" lon="3.57946">
        <ele>1540.28</ele>
        <time>2024-11-05T13:41:09.720Z</time>
      </trkpt>
      <trkpt lat="44.12281" lon="3.5798">
        <ele>1538.49</ele>
        <time>2024-11-05T13:41:19.722Z</time>
      </trkpt>
      <trkpt lat="44.12295" lon="3.58013">
        <ele>1536.95</ele>
        <time>2024-11-05T13:41:29.729Z</time>
      </trkpt>
      <trkpt lat="44.123" lon="3.58043">
        <ele>1535.72</ele>
        <time>2024-11-05T13:41:39.739Z</time>
      </trkpt>
      <trkpt lat="44.12297" lon="3.58077">
        <ele>1534.3</ele>
        <time>2024-11-05T13:41:49.753Z</time>
      </trkpt>
      <trkpt lat="44.12287" lon="3.58119">
        <ele>1532.43</ele>
        <time>2024-11-05T13:41:59.772Z</time>
      </trkpt>
      <trkpt lat="44.12257" lon="3.58206">
        <ele>1528.63</ele>
        <time>2024-11-05T13:42:09.802Z</time>
      </trkpt>
      <trkpt lat="44.12242" lon="3.58268">
        <ele>1526.05</ele>
        <time>2024-11-05T13:42:19.840Z</time>
      </trkpt>
      <trkpt lat="44.12235" lon="3.58326">
        <ele>1523.61</ele>
        <time>2024-11-05T13:42:29.885Z</time>
      </trkpt>
      <trkpt lat="44.12233" lon="3.58418">
        <ele>1519.78</ele>
        <time>2024-11-05T13:42:39.940Z</time>
      </trkpt>
      <trkpt lat="44.1223" lon="3.58459">
        <ele>1518.05</ele>
        <time>2024-11-05T13:42:50.000Z</time>
      </trkpt>
      <trkpt lat="44.12227" lon="3.58478">
        <ele>1517.26</ele>
        <time>2024-11-05T13:43:00.062Z</time>
      </trkpt>
      <trkpt lat="44.122" lon="3.58544">
        <ele>1514.06</ele>
        <time>2024-11-05T13:43:10.133Z</time>
      </trkpt>
      <trkpt lat="44.12171" lon="3.58594">
        <ele>1511.38</ele>
        <time>2024-11-05T13:43:20.211Z</time>
      </trkpt>
      <trkpt lat="44.12138" lon="3.58636">
        <ele>1508.82</ele>
        <time>2024-11-05T13:43:30.296Z</time>
      </trkpt>
      <trkpt lat="44.12119" lon="3.58656">
        <ele>1507.43</ele>
        <time>2024-11-05T13:43:40.385Z</time>
      </trkpt>
      <trkpt lat="44.12106" lon="3.58666">
        <ele>1506.52</ele>
        <time>2024-11-05T13:43:50.477Z</time>
      </trkpt>
      <trkpt lat="44.12092" lon="3.58672">
        <ele>1505.61</ele>
        <time>2024-11-05T13:44:00.571Z</time>
      </trkpt>
      <trkpt lat="44.12082" lon="3.58674">
        <ele>1505.06</ele>
        <time>2024-11-05T13:44:10.667Z</time>
      </trkpt>
      <trkpt lat="44.1205" lon="3.58667">
        <ele>1503.27</ele>
        <time>2024-11-05T13:44:20.768Z</time>
      </trkpt>
      <trkpt lat="44.1204" lon="3.58667">
        <ele>1502.69</ele>
        <time>2024-11-05T13:44:30.870Z</time>
      </trkpt>
      <trkpt lat="44.12014" lon="3.58672">
        <ele>1500.91</ele>
        <time>2024-11-05T13:44:40.977Z</time>
      </trkpt>
      <trkpt lat="44.12005" lon="3.58677">
        <ele>1500.12</ele>
        <time>2024-11-05T13:44:51.085Z</time>
      </trkpt>
      <trkpt lat="44.12002" lon="3.58679">
        <ele>1500.36</ele>
        <time>2024-11-05T13:45:01.194Z</time>
      </trkpt>
      <trkpt lat="44.12014" lon="3.58672">
        <ele>1501.4</ele>
        <time>2024-11-05T13:45:11.305Z</time>
      </trkpt>
      <trkpt lat="44.1204" lon="3.58667">
        <ele>1503.11</ele>
        <time>2024-11-05T13:45:21.420Z</time>
      </trkpt>
      <trkpt lat="44.1205" lon="3.58667">
        <ele>1503.63</ele>
        <time>2024-11-05T13:45:31.537Z</time>
      </trkpt>
      <trkpt lat="44.12082" lon="3.58674">
        <ele>1505.44</ele>
        <time>2024-11-05T13:45:41.659Z</time>
      </trkpt>
      <trkpt lat="44.12092" lon="3.58672">
        <ele>1506.03</ele>
        <time>2024-11-05T13:45:51.782Z</time>
      </trkpt>
      <trkpt lat="44.12106" lon="3.58666">
        <ele>1506.93</ele>
        <time>2024-11-05T13:46:01.908Z</time>
      </trkpt>
      <trkpt lat="44.12119" lon="3.58656">
        <ele>1507.78</ele>
        <time>2024-11-05T13:46:12.036Z</time>
      </trkpt>
      <trkpt lat="44.12138" lon="3.58636">
        <ele>1509.2</ele>
        <time>2024-11-05T13:46:22.168Z</time>
      </trkpt>
      <trkpt lat="44.12171" lon="3.58594">
        <ele>1511.76</ele>
        <time>2024-11-05T13:46:32.307Z</time>
      </trkpt>
      <trkpt lat="44.122" lon="3.58544">
        <ele>1514.45</ele>
        <time>2024-11-05T13:46:42.453Z</time>
      </trkpt>
      <trkpt lat="44.12227" lon="3.58478">
        <ele>1517.64</ele>
        <time>2024-11-05T13:46:52.608Z</time>
      </trkpt>
      <trkpt lat="44.1223" lon="3.58459">
        <ele>1518.43</ele>
        <time>2024-11-05T13:47:02.765Z</time>
      </trkpt>
      <trkpt lat="44.12233" lon="3.58418">
        <ele>1520.18</ele>
        <time>2024-11-05T13:47:12.927Z</time>
      </trkpt>
      <trkpt lat="44.12235" lon="3.58326">
        <ele>1523.97</ele>
        <time>2024-11-05T13:47:23.100Z</time>
      </trkpt>
      <trkpt lat="44.12242" lon="3.58268">
        <ele>1526.44</ele>
        <time>2024-11-05T13:47:33.280Z</time>
      </trkpt>
      <trkpt lat="44.12257" lon="3.58206">
        <ele>1528.98</ele>
        <time>2024-11-05T13:47:43.467Z</time>
      </trkpt>
      <trkpt lat="44.12287" lon="3.58119">
        <ele>1532.8</ele>
        <time>2024-11-05T13:47:53.665Z</time>
      </trkpt>
      <trkpt lat="44.12297" lon="3.58077">
        <ele>1534.7</ele>
        <time>2024-11-05T13:48:03.868Z</time>
      </trkpt>
      <trkpt lat="44.123" lon="3.58043">
        <ele>1536.09</ele>
        <time>2024-11-05T13:48:14.075Z</time>
      </trkpt>
      <trkpt lat="44.12295" lon="3.58013">
        <ele>1537.32</ele>
        <time>2024-11-05T13:48:24.286Z</time>
      </trkpt>
      <trkpt lat="44.12281" lon="3.5798">
        <ele>1538.88</ele>
        <time>2024-11-05T13:48:34.501Z</time>
      </trkpt>
      <trkpt lat="44.12263" lon="3.57946">
        <ele>1540.67</ele>
        <time>2024-11-05T13:48:44.721Z</time>
      </trkpt>
      <trkpt lat="44.12251" lon="3.57919">
        <ele>1542</ele>
        <time>2024-11-05T13:48:54.945Z</time>
      </trkpt>
      <trkpt lat="44.12227" lon="3.57864">
        <ele>1544.9</ele>
        <time>2024-11-05T13:49:05.176Z</time>
      </trkpt>
      <trkpt lat="44.12219" lon="3.5784">
        <ele>1546.06</ele>
        <time>2024-11-05T13:49:15.410Z</time>
      </trkpt>
      <trkpt lat="44.12207" lon="3.57751">
        <ele>1549.92</ele>
        <time>2024-11-05T13:49:25.655Z</time>
      </trkpt>
      <trkpt lat="44.122" lon="3.57736">
        <ele>1550.85</ele>
        <time>2024-11-05T13:49:35.902Z</time>
      </trkpt>
      <trkpt lat="44.12191" lon="3.57724">
        <ele>1551.83</ele>
        <time>2024-11-05T13:49:46.151Z</time>
      </trkpt>
      <trkpt lat="44.12183" lon="3.57719">
        <ele>1552.54</ele>
        <time>2024-11-05T13:49:56.401Z</time>
      </trkpt>
      <trkpt lat="44.12155" lon="3.57711">
        <ele>1555.17</ele>
        <time>2024-11-05T13:50:06.656Z</time>
      </trkpt>
      <trkpt lat="44.12152" lon="3.5771">
        <ele>1555.15</ele>
        <time>2024-11-05T13:50:16.911Z</time>
      </trkpt>
      <trkpt lat="44.12154" lon="3.57665">
        <ele>1555.02</ele>
        <time>2024-11-05T13:50:27.171Z</time>
      </trkpt>
      <trkpt lat="44.12158" lon="3.5759">
        <ele>1555.25</ele>
        <time>2024-11-05T13:50:37.440Z</time>
      </trkpt>
      <trkpt lat="44.12159" lon="3.57572">
        <ele>1555.13</ele>
        <time>2024-11-05T13:50:47.711Z</time>
      </trkpt>
      <trkpt lat="44.1216" lon="3.57547">
        <ele>1554.6</ele>
        <time>2024-11-05T13:50:57.985Z</time>
      </trkpt>
      <trkpt lat="44.1216" lon="3.57466">
        <ele>1552.02</ele>
        <time>2024-11-05T13:51:08.268Z</time>
      </trkpt>
      <trkpt lat="44.1216" lon="3.57429">
        <ele>1551.12</ele>
        <time>2024-11-05T13:51:18.556Z</time>
      </trkpt>
      <trkpt lat="44.1216" lon="3.57392">
        <ele>1550.57</ele>
        <time>2024-11-05T13:51:28.848Z</time>
      </trkpt>
      <trkpt lat="44.1216" lon="3.57317">
        <ele>1549.96</ele>
        <time>2024-11-05T13:51:39.148Z</time>
      </trkpt>
      <trkpt lat="44.1216" lon="3.57286">
        <ele>1549.49</ele>
        <time>2024-11-05T13:51:49.452Z</time>
      </trkpt>
      <trkpt lat="44.12162" lon="3.57258">
        <ele>1548.58</ele>
        <time>2024-11-05T13:51:59.759Z</time>
      </trkpt>
      <trkpt lat="44.12174" lon="3.57208">
        <ele>1546.52</ele>
        <time>2024-11-05T13:52:10.072Z</time>
      </trkpt>
      <trkpt lat="44.12182" lon="3.57173">
        <ele>1545.4</ele>
        <time>2024-11-05T13:52:20.390Z</time>
      </trkpt>
      <trkpt lat="44.12199" lon="3.57115">
        <ele>1544.29</ele>
        <time>2024-11-05T13:52:30.715Z</time>
      </trkpt>
      <trkpt lat="44.12216" lon="3.57058">
        <ele>1543.92</ele>
        <time>2024-11-05T13:52:41.047Z</time>
      </trkpt>
      <trkpt lat="44.12227" lon="3.57019">
        <ele>1543.21</ele>
        <time>2024-11-05T13:52:51.384Z</time>
      </trkpt>
      <trkpt lat="44.12243" lon="3.57">
        <ele>1542.21</ele>
        <time>2024-11-05T13:53:01.724Z</time>
      </trkpt>
      <trkpt lat="44.1225" lon="3.56998">
        <ele>1541.77</ele>
        <time>2024-11-05T13:53:12.065Z</time>
      </trkpt>
      <trkpt lat="44.12256" lon="3.56999">
        <ele>1541.36</ele>
        <time>2024-11-05T13:53:22.407Z</time>
      </trkpt>
      <trkpt lat="44.12296" lon="3.57024">
        <ele>1537.89</ele>
        <time>2024-11-05T13:53:32.756Z</time>
      </trkpt>
      <trkpt lat="44.12312" lon="3.57029">
        <ele>1536.58</ele>
        <time>2024-11-05T13:53:43.108Z</time>
      </trkpt>
      <trkpt lat="44.12326" lon="3.57027">
        <ele>1535.48</ele>
        <time>2024-11-05T13:53:53.462Z</time>
      </trkpt>
      <trkpt lat="44.12417" lon="3.56984">
        <ele>1528.63</ele>
        <time>2024-11-05T13:54:03.832Z</time>
      </trkpt>
      <trkpt lat="44.12439" lon="3.56977">
        <ele>1527.09</ele>
        <time>2024-11-05T13:54:14.205Z</time>
      </trkpt>
      <trkpt lat="44.12468" lon="3.56973">
        <ele>1525.13</ele>
        <time>2024-11-05T13:54:24.583Z</time>
      </trkpt>
      <trkpt lat="44.12504" lon="3.56963">
        <ele>1522.59</ele>
        <time>2024-11-05T13:54:34.967Z</time>
      </trkpt>
      <trkpt lat="44.12594" lon="3.56933">
        <ele>1516.31</ele>
        <time>2024-11-05T13:54:45.365Z</time>
      </trkpt>
      <trkpt lat="44.1261" lon="3.56927">
        <ele>1515.49</ele>
        <time>2024-11-05T13:54:55.766Z</time>
      </trkpt>
      <trkpt lat="44.12629" lon="3.56925">
        <ele>1514.8</ele>
        <time>2024-11-05T13:55:06.170Z</time>
      </trkpt>
      <trkpt lat="44.12653" lon="3.56923">
        <ele>1514.39</ele>
        <time>2024-11-05T13:55:16.578Z</time>
      </trkpt>
      <trkpt lat="44.12656" lon="3.56923">
        <ele>1514.22</ele>
        <time>2024-11-05T13:55:26.987Z</time>
      </trkpt>
      <trkpt lat="44.12638" lon="3.56901">
        <ele>1512.81</ele>
        <time>2024-11-05T13:55:37.399Z</time>
      </trkpt>
      <trkpt lat="44.12621" lon="3.56879">
        <ele>1511.09</ele>
        <time>2024-11-05T13:55:47.815Z</time>
      </trkpt>
      <trkpt lat="44.12606" lon="3.56867">
        <ele>1509.86</ele>
        <time>2024-11-05T13:55:58.234Z</time>
      </trkpt>
      <trkpt lat="44.12578" lon="3.56855">
        <ele>1507.81</ele>
        <time>2024-11-05T13:56:08.658Z</time>
      </trkpt>
      <trkpt lat="44.1253" lon="3.56838">
        <ele>1504.61</ele>
        <time>2024-11-05T13:56:19.089Z</time>
      </trkpt>
      <trkpt lat="44.12486" lon="3.5683">
        <ele>1502.05</ele>
        <time>2024-11-05T13:56:29.528Z</time>
      </trkpt>
      <trkpt lat="44.12465" lon="3.5683">
        <ele>1500.97</ele>
        <time>2024-11-05T13:56:39.970Z</time>
      </trkpt>
      <trkpt lat="44.12427" lon="3.56836">
        <ele>1499.26</ele>
        <time>2024-11-05T13:56:50.418Z</time>
      </trkpt>
      <trkpt lat="44.12415" lon="3.56836">
        <ele>1498.64</ele>
        <time>2024-11-05T13:57:00.868Z</time>
      </trkpt>
      <trkpt lat="44.12407" lon="3.56832">
        <ele>1498.19</ele>
        <time>2024-11-05T13:57:11.319Z</time>
      </trkpt>
      <trkpt lat="44.12401" lon="3.56826">
        <ele>1497.77</ele>
        <time>2024-11-05T13:57:21.772Z</time>
      </trkpt>
      <trkpt lat="44.12398" lon="3.56818">
        <ele>1497.33</ele>
        <time>2024-11-05T13:57:32.226Z</time>
      </trkpt>
      <trkpt lat="44.12397" lon="3.56808">
        <ele>1496.8</ele>
        <time>2024-11-05T13:57:42.681Z</time>
      </trkpt>
      <trkpt lat="44.1241" lon="3.56751">
        <ele>1493.07</ele>
        <time>2024-11-05T13:57:53.143Z</time>
      </trkpt>
      <trkpt lat="44.1242" lon="3.56697">
        <ele>1489.87</ele>
        <time>2024-11-05T13:58:03.611Z</time>
      </trkpt>
      <trkpt lat="44.12439" lon="3.56575">
        <ele>1483.9</ele>
        <time>2024-11-05T13:58:14.093Z</time>
      </trkpt>
      <trkpt lat="44.12452" lon="3.56506">
        <ele>1480.43</ele>
        <time>2024-11-05T13:58:24.584Z</time>
      </trkpt>
      <trkpt lat="44.12455" lon="3.56449">
        <ele>1477.71</ele>
        <time>2024-11-05T13:58:35.081Z</time>
      </trkpt>
      <trkpt lat="44.12454" lon="3.56376">
        <ele>1474.84</ele>
        <time>2024-11-05T13:58:45.587Z</time>
      </trkpt>
      <trkpt lat="44.12462" lon="3.56323">
        <ele>1472.56</ele>
        <time>2024-11-05T13:58:56.099Z</time>
      </trkpt>
      <trkpt lat="44.12467" lon="3.56286">
        <ele>1470.77</ele>
        <time>2024-11-05T13:59:06.615Z</time>
      </trkpt>
      <trkpt lat="44.12478" lon="3.56208">
        <ele>1466.78</ele>
        <time>2024-11-05T13:59:17.140Z</time>
      </trkpt>
      <trkpt lat="44.1248" lon="3.56175">
        <ele>1465.1</ele>
        <time>2024-11-05T13:59:27.669Z</time>
      </trkpt>
      <trkpt lat="44.12477" lon="3.56145">
        <ele>1463.6</ele>
        <time>2024-11-05T13:59:38.202Z</time>
      </trkpt>
      <trkpt lat="44.12473" lon="3.56124">
        <ele>1462.53</ele>
        <time>2024-11-05T13:59:48.737Z</time>
      </trkpt>
      <trkpt lat="44.12468" lon="3.56108">
        <ele>1461.72</ele>
        <time>2024-11-05T13:59:59.274Z</time>
      </trkpt>
      <trkpt lat="44.12459" lon="3.56094">
        <ele>1460.88</ele>
        <time>2024-11-05T14:00:09.813Z</time>
      </trkpt>
      <trkpt lat="44.12437" lon="3.56077">
        <ele>1459.18</ele>
        <time>2024-11-05T14:00:20.356Z</time>
      </trkpt>
      <trkpt lat="44.12421" lon="3.56073">
        <ele>1458.05</ele>
        <time>2024-11-05T14:00:30.902Z</time>
      </trkpt>
      <trkpt lat="44.12402" lon="3.56072">
        <ele>1456.74</ele>
        <time>2024-11-05T14:00:41.451Z</time>
      </trkpt>
      <trkpt lat="44.12352" lon="3.56075">
        <ele>1453.7</ele>
        <time>2024-11-05T14:00:52.008Z</time>
      </trkpt>
      <trkpt lat="44.12335" lon="3.56074">
        <ele>1452.64</ele>
        <time>2024-11-05T14:01:02.568Z</time>
      </trkpt>
      <trkpt lat="44.12323" lon="3.56071">
        <ele>1451.87</ele>
        <time>2024-11-05T14:01:13.130Z</time>
      </trkpt>
      <trkpt lat="44.12242" lon="3.56038">
        <ele>1446.33</ele>
        <time>2024-11-05T14:01:23.705Z</time>
      </trkpt>
      <trkpt lat="44.12227" lon="3.5603">
        <ele>1445.17</ele>
        <time>2024-11-05T14:01:34.283Z</time>
      </trkpt>
      <trkpt lat="44.12214" lon="3.56018">
        <ele>1444.13</ele>
        <time>2024-11-05T14:01:44.863Z</time>
      </trkpt>
      <trkpt lat="44.12185" lon="3.55975">
        <ele>1441.32</ele>
        <time>2024-11-05T14:01:55.450Z</time>
      </trkpt>
      <trkpt lat="44.12166" lon="3.55958">
        <ele>1439.81</ele>
        <time>2024-11-05T14:02:06.041Z</time>
      </trkpt>
      <trkpt lat="44.12157" lon="3.55954">
        <ele>1439.22</ele>
        <time>2024-11-05T14:02:16.633Z</time>
      </trkpt>
      <trkpt lat="44.12132" lon="3.55953">
        <ele>1437.64</ele>
        <time>2024-11-05T14:02:27.229Z</time>
      </trkpt>
      <trkpt lat="44.12095" lon="3.55958">
        <ele>1435.21</ele>
        <time>2024-11-05T14:02:37.831Z</time>
      </trkpt>
      <trkpt lat="44.12085" lon="3.55959">
        <ele>1435.53</ele>
        <time>2024-11-05T14:02:48.435Z</time>
      </trkpt>
      <trkpt lat="44.12057" lon="3.55955">
        <ele>1433.11</ele>
        <time>2024-11-05T14:02:59.043Z</time>
      </trkpt>
      <trkpt lat="44.12007" lon="3.5592">
        <ele>1428.79</ele>
        <time>2024-11-05T14:03:09.660Z</time>
      </trkpt>
      <trkpt lat="44.11978" lon="3.55894">
        <ele>1426.09</ele>
        <time>2024-11-05T14:03:20.283Z</time>
      </trkpt>
      <trkpt lat="44.11931" lon="3.55851">
        <ele>1422.5</ele>
        <time>2024-11-05T14:03:30.915Z</time>
      </trkpt>
      <trkpt lat="44.11912" lon="3.55827">
        <ele>1421.09</ele>
        <time>2024-11-05T14:03:41.551Z</time>
      </trkpt>
      <trkpt lat="44.11891" lon="3.55789">
        <ele>1419.14</ele>
        <time>2024-11-05T14:03:52.192Z</time>
      </trkpt>
      <trkpt lat="44.11878" lon="3.55764">
        <ele>1418.05</ele>
        <time>2024-11-05T14:04:02.837Z</time>
      </trkpt>
      <trkpt lat="44.11809" lon="3.5564">
        <ele>1413.63</ele>
        <time>2024-11-05T14:04:13.500Z</time>
      </trkpt>
      <trkpt lat="44.11802" lon="3.55625">
        <ele>1413.17</ele>
        <time>2024-11-05T14:04:24.165Z</time>
      </trkpt>
      <trkpt lat="44.11791" lon="3.55597">
        <ele>1412.55</ele>
        <time>2024-11-05T14:04:34.834Z</time>
      </trkpt>
      <trkpt lat="44.11781" lon="3.5557">
        <ele>1412.19</ele>
        <time>2024-11-05T14:04:45.506Z</time>
      </trkpt>
      <trkpt lat="44.11758" lon="3.55509">
        <ele>1412.31</ele>
        <time>2024-11-05T14:04:56.186Z</time>
      </trkpt>
      <trkpt lat="44.11747" lon="3.55481">
        <ele>1412.05</ele>
        <time>2024-11-05T14:05:06.870Z</time>
      </trkpt>
      <trkpt lat="44.11741" lon="3.55464">
        <ele>1411.61</ele>
        <time>2024-11-05T14:05:17.556Z</time>
      </trkpt>
      <trkpt lat="44.11722" lon="3.55415">
        <ele>1409.53</ele>
        <time>2024-11-05T14:05:28.248Z</time>
      </trkpt>
      <trkpt lat="44.1171" lon="3.55382">
        <ele>1408.84</ele>
        <time>2024-11-05T14:05:38.945Z</time>
      </trkpt>
      <trkpt lat="44.11704" lon="3.55366">
        <ele>1408.77</ele>
        <time>2024-11-05T14:05:49.644Z</time>
      </trkpt>
      <trkpt lat="44.11696" lon="3.55344">
        <ele>1408.96</ele>
        <time>2024-11-05T14:06:00.346Z</time>
      </trkpt>
      <trkpt lat="44.11682" lon="3.55308">
        <ele>1409.89</ele>
        <time>2024-11-05T14:06:11.052Z</time>
      </trkpt>
      <trkpt lat="44.11673" lon="3.55267">
        <ele>1411.6</ele>
        <time>2024-11-05T14:06:21.763Z</time>
      </trkpt>
      <trkpt lat="44.11669" lon="3.55222">
        <ele>1413.56</ele>
        <time>2024-11-05T14:06:32.480Z</time>
      </trkpt>
      <trkpt lat="44.11666" lon="3.55196">
        <ele>1413.76</ele>
        <time>2024-11-05T14:06:43.200Z</time>
      </trkpt>
      <trkpt lat="44.11664" lon="3.55177">
        <ele>1413.59</ele>
        <time>2024-11-05T14:06:53.922Z</time>
      </trkpt>
      <trkpt lat="44.11662" lon="3.55164">
        <ele>1413.26</ele>
        <time>2024-11-05T14:07:04.645Z</time>
      </trkpt>
      <trkpt lat="44.11656" lon="3.55149">
        <ele>1412.72</ele>
        <time>2024-11-05T14:07:15.370Z</time>
      </trkpt>
      <trkpt lat="44.1165" lon="3.55138">
        <ele>1411.95</ele>
        <time>2024-11-05T14:07:26.097Z</time>
      </trkpt>
      <trkpt lat="44.11644" lon="3.55134">
        <ele>1411.46</ele>
        <time>2024-11-05T14:07:36.825Z</time>
      </trkpt>
      <trkpt lat="44.11634" lon="3.55131">
        <ele>1410.7</ele>
        <time>2024-11-05T14:07:47.555Z</time>
      </trkpt>
      <trkpt lat="44.11622" lon="3.5513">
        <ele>1409.81</ele>
        <time>2024-11-05T14:07:58.286Z</time>
      </trkpt>
      <trkpt lat="44.11592" lon="3.55142">
        <ele>1407.55</ele>
        <time>2024-11-05T14:08:09.022Z</time>
      </trkpt>
      <trkpt lat="44.11572" lon="3.55153">
        <ele>1405.93</ele>
        <time>2024-11-05T14:08:19.762Z</time>
      </trkpt>
      <trkpt lat="44.11557" lon="3.55166">
        <ele>1404.66</ele>
        <time>2024-11-05T14:08:30.505Z</time>
      </trkpt>
      <trkpt lat="44.11545" lon="3.55184">
        <ele>1403.39</ele>
        <time>2024-11-05T14:08:41.251Z</time>
      </trkpt>
      <trkpt lat="44.11536" lon="3.55207">
        <ele>1402.03</ele>
        <time>2024-11-05T14:08:52.000Z</time>
      </trkpt>
      <trkpt lat="44.11533" lon="3.55224">
        <ele>1401.14</ele>
        <time>2024-11-05T14:09:02.751Z</time>
      </trkpt>
      <trkpt lat="44.11533" lon="3.55245">
        <ele>1400.08</ele>
        <time>2024-11-05T14:09:13.504Z</time>
      </trkpt>
      <trkpt lat="44.11535" lon="3.55265">
        <ele>1399</ele>
        <time>2024-11-05T14:09:24.259Z</time>
      </trkpt>
      <trkpt lat="44.11542" lon="3.55291">
        <ele>1397.53</ele>
        <time>2024-11-05T14:09:35.018Z</time>
      </trkpt>
      <trkpt lat="44.11555" lon="3.55321">
        <ele>1396.07</ele>
        <time>2024-11-05T14:09:45.781Z</time>
      </trkpt>
      <trkpt lat="44.11564" lon="3.55342">
        <ele>1395.21</ele>
        <time>2024-11-05T14:09:56.546Z</time>
      </trkpt>
      <trkpt lat="44.11575" lon="3.55368">
        <ele>1394.46</ele>
        <time>2024-11-05T14:10:07.315Z</time>
      </trkpt>
      <trkpt lat="44.1158" lon="3.55385">
        <ele>1394.1</ele>
        <time>2024-11-05T14:10:18.086Z</time>
      </trkpt>
      <trkpt lat="44.11578" lon="3.55403">
        <ele>1393.55</ele>
        <time>2024-11-05T14:10:28.859Z</time>
      </trkpt>
      <trkpt lat="44.11572" lon="3.55411">
        <ele>1393.06</ele>
        <time>2024-11-05T14:10:39.633Z</time>
      </trkpt>
      <trkpt lat="44.11564" lon="3.55394">
        <ele>1392.17</ele>
        <time>2024-11-05T14:10:50.410Z</time>
      </trkpt>
      <trkpt lat="44.11546" lon="3.55366">
        <ele>1390.62</ele>
        <time>2024-11-05T14:11:01.191Z</time>
      </trkpt>
      <trkpt lat="44.11529" lon="3.55346">
        <ele>1389.48</ele>
        <time>2024-11-05T14:11:11.976Z</time>
      </trkpt>
      <trkpt lat="44.11446" lon="3.55293">
        <ele>1384.92</ele>
        <time>2024-11-05T14:11:22.775Z</time>
      </trkpt>
      <trkpt lat="44.11434" lon="3.5528">
        <ele>1384.1</ele>
        <time>2024-11-05T14:11:33.577Z</time>
      </trkpt>
      <trkpt lat="44.11428" lon="3.55268">
        <ele>1383.54</ele>
        <time>2024-11-05T14:11:44.380Z</time>
      </trkpt>
      <trkpt lat="44.11421" lon="3.55248">
        <ele>1382.7</ele>
        <time>2024-11-05T14:11:55.186Z</time>
      </trkpt>
      <trkpt lat="44.11418" lon="3.55219">
        <ele>1381.66</ele>
        <time>2024-11-05T14:12:05.995Z</time>
      </trkpt>
      <trkpt lat="44.11421" lon="3.55186">
        <ele>1380.54</ele>
        <time>2024-11-05T14:12:16.808Z</time>
      </trkpt>
      <trkpt lat="44.1143" lon="3.5516">
        <ele>1379.55</ele>
        <time>2024-11-05T14:12:27.624Z</time>
      </trkpt>
      <trkpt lat="44.11442" lon="3.55138">
        <ele>1378.56</ele>
        <time>2024-11-05T14:12:38.444Z</time>
      </trkpt>
      <trkpt lat="44.11488" lon="3.55087">
        <ele>1375.92</ele>
        <time>2024-11-05T14:12:49.273Z</time>
      </trkpt>
      <trkpt lat="44.11509" lon="3.55055">
        <ele>1374.6</ele>
        <time>2024-11-05T14:13:00.107Z</time>
      </trkpt>
      <trkpt lat="44.1153" lon="3.55021">
        <ele>1373.46</ele>
        <time>2024-11-05T14:13:10.946Z</time>
      </trkpt>
      <trkpt lat="44.11536" lon="3.55001">
        <ele>1372.9</ele>
        <time>2024-11-05T14:13:21.788Z</time>
      </trkpt>
      <trkpt lat="44.11536" lon="3.54992">
        <ele>1372.65</ele>
        <time>2024-11-05T14:13:32.631Z</time>
      </trkpt>
      <trkpt lat="44.11531" lon="3.54978">
        <ele>1372.19</ele>
        <time>2024-11-05T14:13:43.476Z</time>
      </trkpt>
      <trkpt lat="44.11519" lon="3.54971">
        <ele>1371.52</ele>
        <time>2024-11-05T14:13:54.323Z</time>
      </trkpt>
      <trkpt lat="44.11513" lon="3.54971">
        <ele>1371.17</ele>
        <time>2024-11-05T14:14:05.171Z</time>
      </trkpt>
      <trkpt lat="44.11475" lon="3.5499">
        <ele>1368.98</ele>
        <time>2024-11-05T14:14:16.025Z</time>
      </trkpt>
      <trkpt lat="44.11467" lon="3.5499">
        <ele>1368.58</ele>
        <time>2024-11-05T14:14:26.880Z</time>
      </trkpt>
      <trkpt lat="44.11449" lon="3.54983">
        <ele>1367.7</ele>
        <time>2024-11-05T14:14:37.738Z</time>
      </trkpt>
      <trkpt lat="44.11441" lon="3.54977">
        <ele>1367.29</ele>
        <time>2024-11-05T14:14:48.598Z</time>
      </trkpt>
      <trkpt lat="44.11423" lon="3.54957">
        <ele>1366.3</ele>
        <time>2024-11-05T14:14:59.462Z</time>
      </trkpt>
      <trkpt lat="44.11416" lon="3.54947">
        <ele>1365.92</ele>
        <time>2024-11-05T14:15:10.327Z</time>
      </trkpt>
      <trkpt lat="44.11405" lon="3.54918">
        <ele>1365.03</ele>
        <time>2024-11-05T14:15:21.196Z</time>
      </trkpt>
      <trkpt lat="44.11401" lon="3.54911">
        <ele>1364.81</ele>
        <time>2024-11-05T14:15:32.066Z</time>
      </trkpt>
      <trkpt lat="44.11384" lon="3.54902">
        <ele>1364.4</ele>
        <time>2024-11-05T14:15:42.939Z</time>
      </trkpt>
      <trkpt lat="44.11358" lon="3.54911">
        <ele>1363.43</ele>
        <time>2024-11-05T14:15:53.816Z</time>
      </trkpt>
      <trkpt lat="44.11335" lon="3.54916">
        <ele>1362.31</ele>
        <time>2024-11-05T14:16:04.697Z</time>
      </trkpt>
      <trkpt lat="44.11294" lon="3.54915">
        <ele>1360.25</ele>
        <time>2024-11-05T14:16:15.584Z</time>
      </trkpt>
      <trkpt lat="44.1124" lon="3.54907">
        <ele>1357.77</ele>
        <time>2024-11-05T14:16:26.480Z</time>
      </trkpt>
      <trkpt lat="44.11217" lon="3.54893">
        <ele>1356.62</ele>
        <time>2024-11-05T14:16:37.380Z</time>
      </trkpt>
      <trkpt lat="44.11199" lon="3.54874">
        <ele>1355.5</ele>
        <time>2024-11-05T14:16:48.284Z</time>
      </trkpt>
      <trkpt lat="44.11177" lon="3.54837">
        <ele>1354.02</ele>
        <time>2024-11-05T14:16:59.193Z</time>
      </trkpt>
      <trkpt lat="44.11169" lon="3.54809">
        <ele>1353.32</ele>
        <time>2024-11-05T14:17:10.106Z</time>
      </trkpt>
      <trkpt lat="44.11162" lon="3.54752">
        <ele>1352.29</ele>
        <time>2024-11-05T14:17:21.025Z</time>
      </trkpt>
      <trkpt lat="44.11158" lon="3.54742">
        <ele>1352.03</ele>
        <time>2024-11-05T14:17:31.946Z</time>
      </trkpt>
      <trkpt lat="44.1115" lon="3.54735">
        <ele>1351.73</ele>
        <time>2024-11-05T14:17:42.868Z</time>
      </trkpt>
      <trkpt lat="44.11141" lon="3.54731">
        <ele>1351.41</ele>
        <time>2024-11-05T14:17:53.792Z</time>
      </trkpt>
      <trkpt lat="44.11132" lon="3.54731">
        <ele>1351.07</ele>
        <time>2024-11-05T14:18:04.717Z</time>
      </trkpt>
      <trkpt lat="44.11112" lon="3.54739">
        <ele>1350.15</ele>
        <time>2024-11-05T14:18:15.646Z</time>
      </trkpt>
      <trkpt lat="44.11091" lon="3.54744">
        <ele>1349.17</ele>
        <time>2024-11-05T14:18:26.578Z</time>
      </trkpt>
      <trkpt lat="44.1107" lon="3.54742">
        <ele>1348.2</ele>
        <time>2024-11-05T14:18:37.513Z</time>
      </trkpt>
      <trkpt lat="44.11038" lon="3.54734">
        <ele>1346.59</ele>
        <time>2024-11-05T14:18:48.453Z</time>
      </trkpt>
      <trkpt lat="44.11027" lon="3.54729">
        <ele>1346.03</ele>
        <time>2024-11-05T14:18:59.395Z</time>
      </trkpt>
      <trkpt lat="44.10997" lon="3.54709">
        <ele>1344.62</ele>
        <time>2024-11-05T14:19:10.343Z</time>
      </trkpt>
      <trkpt lat="44.10963" lon="3.5468">
        <ele>1343.14</ele>
        <time>2024-11-05T14:19:21.297Z</time>
      </trkpt>
      <trkpt lat="44.1095" lon="3.54664">
        <ele>1342.56</ele>
        <time>2024-11-05T14:19:32.254Z</time>
      </trkpt>
      <trkpt lat="44.10939" lon="3.54641">
        <ele>1341.88</ele>
        <time>2024-11-05T14:19:43.214Z</time>
      </trkpt>
      <trkpt lat="44.10931" lon="3.54629">
        <ele>1341.47</ele>
        <time>2024-11-05T14:19:54.176Z</time>
      </trkpt>
      <trkpt lat="44.10923" lon="3.54621">
        <ele>1341.16</ele>
        <time>2024-11-05T14:20:05.139Z</time>
      </trkpt>
      <trkpt lat="44.10916" lon="3.54619">
        <ele>1340.97</ele>
        <time>2024-11-05T14:20:16.104Z</time>
      </trkpt>
      <trkpt lat="44.10887" lon="3.54617">
        <ele>1339.99</ele>
        <time>2024-11-05T14:20:27.073Z</time>
      </trkpt>
      <trkpt lat="44.10864" lon="3.54615">
        <ele>1338.97</ele>
        <time>2024-11-05T14:20:38.046Z</time>
      </trkpt>
      <trkpt lat="44.10827" lon="3.54608">
        <ele>1337.19</ele>
        <time>2024-11-05T14:20:49.025Z</time>
      </trkpt>
      <trkpt lat="44.10802" lon="3.54606">
        <ele>1335.89</ele>
        <time>2024-11-05T14:21:00.008Z</time>
      </trkpt>
      <trkpt lat="44.1079" lon="3.54607">
        <ele>1335.31</ele>
        <time>2024-11-05T14:21:10.993Z</time>
      </trkpt>
      <trkpt lat="44.10778" lon="3.54611">
        <ele>1334.73</ele>
        <time>2024-11-05T14:21:21.980Z</time>
      </trkpt>
      <trkpt lat="44.10747" lon="3.54632">
        <ele>1332.9</ele>
        <time>2024-11-05T14:21:32.972Z</time>
      </trkpt>
      <trkpt lat="44.10719" lon="3.54663">
        <ele>1331.1</ele>
        <time>2024-11-05T14:21:43.970Z</time>
      </trkpt>
      <trkpt lat="44.10677" lon="3.54703">
        <ele>1328.68</ele>
        <time>2024-11-05T14:21:54.976Z</time>
      </trkpt>
      <trkpt lat="44.10632" lon="3.54761">
        <ele>1325.82</ele>
        <time>2024-11-05T14:22:05.992Z</time>
      </trkpt>
      <trkpt lat="44.10601" lon="3.548">
        <ele>1324.44</ele>
        <time>2024-11-05T14:22:17.015Z</time>
      </trkpt>
      <trkpt lat="44.10591" lon="3.54806">
        <ele>1324.23</ele>
        <time>2024-11-05T14:22:28.039Z</time>
      </trkpt>
      <trkpt lat="44.10585" lon="3.54807">
        <ele>1324.09</ele>
        <time>2024-11-05T14:22:39.064Z</time>
      </trkpt>
      <trkpt lat="44.1058" lon="3.54805">
        <ele>1323.88</ele>
        <time>2024-11-05T14:22:50.090Z</time>
      </trkpt>
      <trkpt lat="44.10573" lon="3.54795">
        <ele>1323.3</ele>
        <time>2024-11-05T14:23:01.118Z</time>
      </trkpt>
      <trkpt lat="44.10572" lon="3.54774">
        <ele>1322.47</ele>
        <time>2024-11-05T14:23:12.148Z</time>
      </trkpt>
      <trkpt lat="44.10581" lon="3.54735">
        <ele>1320.91</ele>
        <time>2024-11-05T14:23:23.183Z</time>
      </trkpt>
      <trkpt lat="44.10579" lon="3.54717">
        <ele>1320.32</ele>
        <time>2024-11-05T14:23:34.220Z</time>
      </trkpt>
      <trkpt lat="44.10576" lon="3.54708">
        <ele>1319.98</ele>
        <time>2024-11-05T14:23:45.258Z</time>
      </trkpt>
      <trkpt lat="44.10539" lon="3.5465">
        <ele>1317.36</ele>
        <time>2024-11-05T14:23:56.305Z</time>
      </trkpt>
      <trkpt lat="44.10519" lon="3.54608">
        <ele>1315.62</ele>
        <time>2024-11-05T14:24:07.358Z</time>
      </trkpt>
      <trkpt lat="44.10513" lon="3.54599">
        <ele>1315.2</ele>
        <time>2024-11-05T14:24:18.412Z</time>
      </trkpt>
      <trkpt lat="44.10478" lon="3.54562">
        <ele>1312.91</ele>
        <time>2024-11-05T14:24:29.473Z</time>
      </trkpt>
      <trkpt lat="44.10466" lon="3.54545">
        <ele>1312.08</ele>
        <time>2024-11-05T14:24:40.537Z</time>
      </trkpt>
      <trkpt lat="44.10444" lon="3.54503">
        <ele>1310.41</ele>
        <time>2024-11-05T14:24:51.607Z</time>
      </trkpt>
      <trkpt lat="44.10429" lon="3.54485">
        <ele>1309.54</ele>
        <time>2024-11-05T14:25:02.680Z</time>
      </trkpt>
      <trkpt lat="44.10407" lon="3.54464">
        <ele>1308.27</ele>
        <time>2024-11-05T14:25:13.758Z</time>
      </trkpt>
      <trkpt lat="44.10398" lon="3.54439">
        <ele>1307.38</ele>
        <time>2024-11-05T14:25:24.839Z</time>
      </trkpt>
      <trkpt lat="44.10388" lon="3.54345">
        <ele>1304.57</ele>
        <time>2024-11-05T14:25:35.931Z</time>
      </trkpt>
      <trkpt lat="44.1038" lon="3.54312">
        <ele>1303.38</ele>
        <time>2024-11-05T14:25:47.027Z</time>
      </trkpt>
      <trkpt lat="44.10367" lon="3.54272">
        <ele>1302.39</ele>
        <time>2024-11-05T14:25:58.128Z</time>
      </trkpt>
      <trkpt lat="44.10353" lon="3.54233">
        <ele>1301.7</ele>
        <time>2024-11-05T14:26:09.234Z</time>
      </trkpt>
      <trkpt lat="44.10335" lon="3.54187">
        <ele>1301.48</ele>
        <time>2024-11-05T14:26:20.346Z</time>
      </trkpt>
      <trkpt lat="44.10319" lon="3.5416">
        <ele>1301.45</ele>
        <time>2024-11-05T14:26:31.462Z</time>
      </trkpt>
      <trkpt lat="44.10309" lon="3.5414">
        <ele>1301.65</ele>
        <time>2024-11-05T14:26:42.581Z</time>
      </trkpt>
      <trkpt lat="44.10301" lon="3.54128">
        <ele>1301.67</ele>
        <time>2024-11-05T14:26:53.702Z</time>
      </trkpt>
      <trkpt lat="44.103" lon="3.54126">
        <ele>1301.55</ele>
        <time>2024-11-05T14:27:04.823Z</time>
      </trkpt>
      <trkpt lat="44.10293" lon="3.54141">
        <ele>1300.47</ele>
        <time>2024-11-05T14:27:15.946Z</time>
      </trkpt>
      <trkpt lat="44.10267" lon="3.54177">
        <ele>1297.59</ele>
        <time>2024-11-05T14:27:27.075Z</time>
      </trkpt>
      <trkpt lat="44.10232" lon="3.54203">
        <ele>1294.22</ele>
        <time>2024-11-05T14:27:38.210Z</time>
      </trkpt>
      <trkpt lat="44.10228" lon="3.54209">
        <ele>1293.75</ele>
        <time>2024-11-05T14:27:49.346Z</time>
      </trkpt>
      <trkpt lat="44.10223" lon="3.54218">
        <ele>1293.75</ele>
        <time>2024-11-05T14:28:00.483Z</time>
      </trkpt>
      <trkpt lat="44.10222" lon="3.5422">
        <ele>1293.6</ele>
        <time>2024-11-05T14:28:11.621Z</time>
      </trkpt>
      <trkpt lat="44.10217" lon="3.54247">
        <ele>1292.2</ele>
        <time>2024-11-05T14:28:22.762Z</time>
      </trkpt>
      <trkpt lat="44.10209" lon="3.54302">
        <ele>1289.05</ele>
        <time>2024-11-05T14:28:33.909Z</time>
      </trkpt>
      <trkpt lat="44.10199" lon="3.54341">
        <ele>1286.71</ele>
        <time>2024-11-05T14:28:45.061Z</time>
      </trkpt>
      <trkpt lat="44.10183" lon="3.54389">
        <ele>1283.98</ele>
        <time>2024-11-05T14:28:56.219Z</time>
      </trkpt>
      <trkpt lat="44.10174" lon="3.54413">
        <ele>1282.7</ele>
        <time>2024-11-05T14:29:07.380Z</time>
      </trkpt>
      <trkpt lat="44.10148" lon="3.54464">
        <ele>1279.7</ele>
        <time>2024-11-05T14:29:18.549Z</time>
      </trkpt>
      <trkpt lat="44.10123" lon="3.54499">
        <ele>1277.49</ele>
        <time>2024-11-05T14:29:29.723Z</time>
      </trkpt>
      <trkpt lat="44.10113" lon="3.5451">
        <ele>1276.71</ele>
        <time>2024-11-05T14:29:40.899Z</time>
      </trkpt>
      <trkpt lat="44.10071" lon="3.54546">
        <ele>1273.72</ele>
        <time>2024-11-05T14:29:52.083Z</time>
      </trkpt>
      <trkpt lat="44.10049" lon="3.54569">
        <ele>1271.86</ele>
        <time>2024-11-05T14:30:03.272Z</time>
      </trkpt>
      <trkpt lat="44.10029" lon="3.54586">
        <ele>1270.2</ele>
        <time>2024-11-05T14:30:14.464Z</time>
      </trkpt>
      <trkpt lat="44.10015" lon="3.54596">
        <ele>1269.14</ele>
        <time>2024-11-05T14:30:25.659Z</time>
      </trkpt>
      <trkpt lat="44.09978" lon="3.54616">
        <ele>1266.46</ele>
        <time>2024-11-05T14:30:36.860Z</time>
      </trkpt>
      <trkpt lat="44.09948" lon="3.54632">
        <ele>1263.94</ele>
        <time>2024-11-05T14:30:48.066Z</time>
      </trkpt>
      <trkpt lat="44.09926" lon="3.54649">
        <ele>1261.99</ele>
        <time>2024-11-05T14:30:59.277Z</time>
      </trkpt>
      <trkpt lat="44.09876" lon="3.54687">
        <ele>1258.09</ele>
        <time>2024-11-05T14:31:10.497Z</time>
      </trkpt>
      <trkpt lat="44.09829" lon="3.54736">
        <ele>1254.45</ele>
        <time>2024-11-05T14:31:21.726Z</time>
      </trkpt>
      <trkpt lat="44.09805" lon="3.54766">
        <ele>1252.44</ele>
        <time>2024-11-05T14:31:32.960Z</time>
      </trkpt>
      <trkpt lat="44.0976" lon="3.54822">
        <ele>1249.07</ele>
        <time>2024-11-05T14:31:44.204Z</time>
      </trkpt>
      <trkpt lat="44.09731" lon="3.5485">
        <ele>1247.12</ele>
        <time>2024-11-05T14:31:55.454Z</time>
      </trkpt>
      <trkpt lat="44.09694" lon="3.54873">
        <ele>1244.49</ele>
        <time>2024-11-05T14:32:06.710Z</time>
      </trkpt>
      <trkpt lat="44.09605" lon="3.54912">
        <ele>1238.49</ele>
        <time>2024-11-05T14:32:17.981Z</time>
      </trkpt>
      <trkpt lat="44.09574" lon="3.54915">
        <ele>1236.33</ele>
        <time>2024-11-05T14:32:29.257Z</time>
      </trkpt>
      <trkpt lat="44.09551" lon="3.54907">
        <ele>1234.85</ele>
        <time>2024-11-05T14:32:40.537Z</time>
      </trkpt>
      <trkpt lat="44.09536" lon="3.54894">
        <ele>1233.87</ele>
        <time>2024-11-05T14:32:51.820Z</time>
      </trkpt>
      <trkpt lat="44.09519" lon="3.54863">
        <ele>1232.56</ele>
        <time>2024-11-05T14:33:03.107Z</time>
      </trkpt>
      <trkpt lat="44.09503" lon="3.54816">
        <ele>1231.31</ele>
        <time>2024-11-05T14:33:14.400Z</time>
      </trkpt>
      <trkpt lat="44.09494" lon="3.54797">
        <ele>1230.78</ele>
        <time>2024-11-05T14:33:25.696Z</time>
      </trkpt>
      <trkpt lat="44.09473" lon="3.54769">
        <ele>1229.92</ele>
        <time>2024-11-05T14:33:36.996Z</time>
      </trkpt>
      <trkpt lat="44.0943" lon="3.5472">
        <ele>1227.75</ele>
        <time>2024-11-05T14:33:48.305Z</time>
      </trkpt>
      <trkpt lat="44.09415" lon="3.54704">
        <ele>1227.16</ele>
        <time>2024-11-05T14:33:59.617Z</time>
      </trkpt>
      <trkpt lat="44.094" lon="3.5469">
        <ele>1226.83</ele>
        <time>2024-11-05T14:34:10.932Z</time>
      </trkpt>
      <trkpt lat="44.09375" lon="3.54673">
        <ele>1226.74</ele>
        <time>2024-11-05T14:34:22.252Z</time>
      </trkpt>
      <trkpt lat="44.09359" lon="3.54669">
        <ele>1226.86</ele>
        <time>2024-11-05T14:34:33.574Z</time>
      </trkpt>
      <trkpt lat="44.09315" lon="3.54674">
        <ele>1227.04</ele>
        <time>2024-11-05T14:34:44.903Z</time>
      </trkpt>
      <trkpt lat="44.09266" lon="3.5468">
        <ele>1225.86</ele>
        <time>2024-11-05T14:34:56.240Z</time>
      </trkpt>
      <trkpt lat="44.09247" lon="3.5469">
        <ele>1225.39</ele>
        <time>2024-11-05T14:35:07.580Z</time>
      </trkpt>
      <trkpt lat="44.09239" lon="3.54701">
        <ele>1225.22</ele>
        <time>2024-11-05T14:35:18.922Z</time>
      </trkpt>
      <trkpt lat="44.09241" lon="3.54707">
        <ele>1225.13</ele>
        <time>2024-11-05T14:35:30.265Z</time>
      </trkpt>
      <trkpt lat="44.09239" lon="3.54712">
        <ele>1225.06</ele>
        <time>2024-11-05T14:35:41.609Z</time>
      </trkpt>
      <trkpt lat="44.0924" lon="3.54718">
        <ele>1224.98</ele>
        <time>2024-11-05T14:35:52.953Z</time>
      </trkpt>
      <trkpt lat="44.09248" lon="3.5473">
        <ele>1224.76</ele>
        <time>2024-11-05T14:36:04.299Z</time>
      </trkpt>
      <trkpt lat="44.09264" lon="3.54741">
        <ele>1224.49</ele>
        <time>2024-11-05T14:36:15.648Z</time>
      </trkpt>
      <trkpt lat="44.09321" lon="3.54781">
        <ele>1221.92</ele>
        <time>2024-11-05T14:36:27.007Z</time>
      </trkpt>
      <trkpt lat="44.09408" lon="3.54836">
        <ele>1218.21</ele>
        <time>2024-11-05T14:36:38.382Z</time>
      </trkpt>
      <trkpt lat="44.0943" lon="3.54854">
        <ele>1217.3</ele>
        <time>2024-11-05T14:36:49.761Z</time>
      </trkpt>
      <trkpt lat="44.09452" lon="3.54878">
        <ele>1216.26</ele>
        <time>2024-11-05T14:37:01.144Z</time>
      </trkpt>
      <trkpt lat="44.09479" lon="3.54913">
        <ele>1214.78</ele>
        <time>2024-11-05T14:37:12.533Z</time>
      </trkpt>
      <trkpt lat="44.0954" lon="3.54997">
        <ele>1212.4</ele>
        <time>2024-11-05T14:37:23.936Z</time>
      </trkpt>
      <trkpt lat="44.09553" lon="3.55006">
        <ele>1211.88</ele>
        <time>2024-11-05T14:37:35.341Z</time>
      </trkpt>
      <trkpt lat="44.0956" lon="3.55008">
        <ele>1211.41</ele>
        <time>2024-11-05T14:37:46.747Z</time>
      </trkpt>
      <trkpt lat="44.0959" lon="3.55003">
        <ele>1209.33</ele>
        <time>2024-11-05T14:37:58.158Z</time>
      </trkpt>
      <trkpt lat="44.09634" lon="3.55002">
        <ele>1206.08</ele>
        <time>2024-11-05T14:38:09.576Z</time>
      </trkpt>
      <trkpt lat="44.09664" lon="3.54993">
        <ele>1203.9</ele>
        <time>2024-11-05T14:38:20.999Z</time>
      </trkpt>
      <trkpt lat="44.097" lon="3.54977">
        <ele>1201.62</ele>
        <time>2024-11-05T14:38:32.428Z</time>
      </trkpt>
      <trkpt lat="44.09714" lon="3.54973">
        <ele>1200.8</ele>
        <time>2024-11-05T14:38:43.859Z</time>
      </trkpt>
      <trkpt lat="44.09812" lon="3.54961">
        <ele>1194.5</ele>
        <time>2024-11-05T14:38:55.306Z</time>
      </trkpt>
      <trkpt lat="44.09824" lon="3.54956">
        <ele>1193.63</ele>
        <time>2024-11-05T14:39:06.755Z</time>
      </trkpt>
      <trkpt lat="44.09861" lon="3.54941">
        <ele>1191.32</ele>
        <time>2024-11-05T14:39:18.210Z</time>
      </trkpt>
      <trkpt lat="44.09869" lon="3.5494">
        <ele>1190.88</ele>
        <time>2024-11-05T14:39:29.667Z</time>
      </trkpt>
      <trkpt lat="44.09898" lon="3.54937">
        <ele>1189.96</ele>
        <time>2024-11-05T14:39:41.128Z</time>
      </trkpt>
      <trkpt lat="44.09924" lon="3.54924">
        <ele>1189.16</ele>
        <time>2024-11-05T14:39:52.594Z</time>
      </trkpt>
      <trkpt lat="44.09934" lon="3.54926">
        <ele>1188.62</ele>
        <time>2024-11-05T14:40:04.061Z</time>
      </trkpt>
      <trkpt lat="44.09937" lon="3.5493">
        <ele>1188.3</ele>
        <time>2024-11-05T14:40:15.529Z</time>
      </trkpt>
      <trkpt lat="44.09939" lon="3.54937">
        <ele>1187.85</ele>
        <time>2024-11-05T14:40:26.998Z</time>
      </trkpt>
      <trkpt lat="44.09937" lon="3.54956">
        <ele>1186.52</ele>
        <time>2024-11-05T14:40:38.469Z</time>
      </trkpt>
      <trkpt lat="44.09927" lon="3.54974">
        <ele>1184.78</ele>
        <time>2024-11-05T14:40:49.943Z</time>
      </trkpt>
      <trkpt lat="44.09898" lon="3.54999">
        <ele>1181.73</ele>
        <time>2024-11-05T14:41:01.422Z</time>
      </trkpt>
      <trkpt lat="44.09888" lon="3.55005">
        <ele>1180.89</ele>
        <time>2024-11-05T14:41:12.903Z</time>
      </trkpt>
      <trkpt lat="44.09857" lon="3.55007">
        <ele>1178.59</ele>
        <time>2024-11-05T14:41:24.389Z</time>
      </trkpt>
      <trkpt lat="44.09845" lon="3.55015">
        <ele>1177.71</ele>
        <time>2024-11-05T14:41:35.877Z</time>
      </trkpt>
      <trkpt lat="44.09835" lon="3.55035">
        <ele>1176.7</ele>
        <time>2024-11-05T14:41:47.368Z</time>
      </trkpt>
      <trkpt lat="44.09817" lon="3.55068">
        <ele>1175.32</ele>
        <time>2024-11-05T14:41:58.864Z</time>
      </trkpt>
      <trkpt lat="44.09812" lon="3.55074">
        <ele>1175.02</ele>
        <time>2024-11-05T14:42:10.361Z</time>
      </trkpt>
      <trkpt lat="44.09804" lon="3.5508">
        <ele>1174.57</ele>
        <time>2024-11-05T14:42:21.859Z</time>
      </trkpt>
      <trkpt lat="44.09789" lon="3.55085">
        <ele>1173.79</ele>
        <time>2024-11-05T14:42:33.359Z</time>
      </trkpt>
      <trkpt lat="44.0975" lon="3.55087">
        <ele>1171.9</ele>
        <time>2024-11-05T14:42:44.866Z</time>
      </trkpt>
      <trkpt lat="44.09742" lon="3.5509">
        <ele>1171.56</ele>
        <time>2024-11-05T14:42:56.374Z</time>
      </trkpt>
      <trkpt lat="44.09727" lon="3.55099">
        <ele>1170.89</ele>
        <time>2024-11-05T14:43:07.885Z</time>
      </trkpt>
      <trkpt lat="44.09716" lon="3.55116">
        <ele>1170.24</ele>
        <time>2024-11-05T14:43:19.398Z</time>
      </trkpt>
      <trkpt lat="44.09714" lon="3.55127">
        <ele>1169.94</ele>
        <time>2024-11-05T14:43:30.913Z</time>
      </trkpt>
      <trkpt lat="44.09716" lon="3.55149">
        <ele>1169.31</ele>
        <time>2024-11-05T14:43:42.430Z</time>
      </trkpt>
      <trkpt lat="44.09732" lon="3.5517">
        <ele>1168.16</ele>
        <time>2024-11-05T14:43:53.951Z</time>
      </trkpt>
      <trkpt lat="44.09763" lon="3.55203">
        <ele>1165.72</ele>
        <time>2024-11-05T14:44:05.478Z</time>
      </trkpt>
      <trkpt lat="44.09782" lon="3.55223">
        <ele>1164.44</ele>
        <time>2024-11-05T14:44:17.009Z</time>
      </trkpt>
      <trkpt lat="44.09793" lon="3.55244">
        <ele>1163.61</ele>
        <time>2024-11-05T14:44:28.543Z</time>
      </trkpt>
      <trkpt lat="44.09795" lon="3.55263">
        <ele>1162.89</ele>
        <time>2024-11-05T14:44:40.079Z</time>
      </trkpt>
      <trkpt lat="44.09793" lon="3.55273">
        <ele>1162.47</ele>
        <time>2024-11-05T14:44:51.616Z</time>
      </trkpt>
      <trkpt lat="44.09789" lon="3.5528">
        <ele>1162.11</ele>
        <time>2024-11-05T14:45:03.154Z</time>
      </trkpt>
      <trkpt lat="44.09782" lon="3.55287">
        <ele>1161.62</ele>
        <time>2024-11-05T14:45:14.694Z</time>
      </trkpt>
      <trkpt lat="44.09748" lon="3.55305">
        <ele>1159.6</ele>
        <time>2024-11-05T14:45:26.239Z</time>
      </trkpt>
      <trkpt lat="44.09738" lon="3.55314">
        <ele>1158.89</ele>
        <time>2024-11-05T14:45:37.786Z</time>
      </trkpt>
      <trkpt lat="44.09656" lon="3.55401">
        <ele>1152.29</ele>
        <time>2024-11-05T14:45:49.350Z</time>
      </trkpt>
      <trkpt lat="44.0962" lon="3.55457">
        <ele>1149.11</ele>
        <time>2024-11-05T14:46:00.922Z</time>
      </trkpt>
      <trkpt lat="44.09601" lon="3.55479">
        <ele>1147.64</ele>
        <time>2024-11-05T14:46:12.498Z</time>
      </trkpt>
      <trkpt lat="44.09572" lon="3.55502">
        <ele>1145.66</ele>
        <time>2024-11-05T14:46:24.080Z</time>
      </trkpt>
      <trkpt lat="44.09551" lon="3.55528">
        <ele>1144.04</ele>
        <time>2024-11-05T14:46:35.666Z</time>
      </trkpt>
      <trkpt lat="44.09507" lon="3.55608">
        <ele>1140.06</ele>
        <time>2024-11-05T14:46:47.264Z</time>
      </trkpt>
      <trkpt lat="44.09494" lon="3.55629">
        <ele>1139.02</ele>
        <time>2024-11-05T14:46:58.865Z</time>
      </trkpt>
      <trkpt lat="44.09481" lon="3.55643">
        <ele>1138.1</ele>
        <time>2024-11-05T14:47:10.469Z</time>
      </trkpt>
      <trkpt lat="44.09454" lon="3.55667">
        <ele>1136.35</ele>
        <time>2024-11-05T14:47:22.078Z</time>
      </trkpt>
      <trkpt lat="44.09415" lon="3.55701">
        <ele>1134.35</ele>
        <time>2024-11-05T14:47:33.694Z</time>
      </trkpt>
      <trkpt lat="44.09396" lon="3.55742">
        <ele>1133.02</ele>
        <time>2024-11-05T14:47:45.316Z</time>
      </trkpt>
      <trkpt lat="44.09387" lon="3.55755">
        <ele>1132.44</ele>
        <time>2024-11-05T14:47:56.940Z</time>
      </trkpt>
      <trkpt lat="44.09369" lon="3.55763">
        <ele>1131.47</ele>
        <time>2024-11-05T14:48:08.567Z</time>
      </trkpt>
      <trkpt lat="44.09303" lon="3.55773">
        <ele>1127.87</ele>
        <time>2024-11-05T14:48:20.205Z</time>
      </trkpt>
      <trkpt lat="44.09296" lon="3.55777">
        <ele>1127.35</ele>
        <time>2024-11-05T14:48:31.844Z</time>
      </trkpt>
      <trkpt lat="44.09259" lon="3.55806">
        <ele>1124.47</ele>
        <time>2024-11-05T14:48:43.490Z</time>
      </trkpt>
      <trkpt lat="44.09246" lon="3.55827">
        <ele>1123.2</ele>
        <time>2024-11-05T14:48:55.139Z</time>
      </trkpt>
      <trkpt lat="44.09238" lon="3.55853">
        <ele>1121.9</ele>
        <time>2024-11-05T14:49:06.791Z</time>
      </trkpt>
      <trkpt lat="44.09236" lon="3.55875">
        <ele>1120.91</ele>
        <time>2024-11-05T14:49:18.446Z</time>
      </trkpt>
      <trkpt lat="44.09242" lon="3.55915">
        <ele>1119.24</ele>
        <time>2024-11-05T14:49:30.105Z</time>
      </trkpt>
      <trkpt lat="44.09242" lon="3.55926">
        <ele>1118.84</ele>
        <time>2024-11-05T14:49:41.766Z</time>
      </trkpt>
      <trkpt lat="44.09236" lon="3.5597">
        <ele>1117.27</ele>
        <time>2024-11-05T14:49:53.432Z</time>
      </trkpt>
      <trkpt lat="44.09227" lon="3.55993">
        <ele>1116.27</ele>
        <time>2024-11-05T14:50:05.101Z</time>
      </trkpt>
      <trkpt lat="44.09155" lon="3.56081">
        <ele>1110.82</ele>
        <time>2024-11-05T14:50:16.785Z</time>
      </trkpt>
      <trkpt lat="44.09141" lon="3.56088">
        <ele>1110</ele>
        <time>2024-11-05T14:50:28.471Z</time>
      </trkpt>
      <trkpt lat="44.09113" lon="3.56088">
        <ele>1108.47</ele>
        <time>2024-11-05T14:50:40.162Z</time>
      </trkpt>
      <trkpt lat="44.09103" lon="3.56089">
        <ele>1107.93</ele>
        <time>2024-11-05T14:50:51.855Z</time>
      </trkpt>
      <trkpt lat="44.09096" lon="3.56092">
        <ele>1107.53</ele>
        <time>2024-11-05T14:51:03.549Z</time>
      </trkpt>
      <trkpt lat="44.09061" lon="3.56122">
        <ele>1105.26</ele>
        <time>2024-11-05T14:51:15.249Z</time>
      </trkpt>
      <trkpt lat="44.09033" lon="3.56136">
        <ele>1103.7</ele>
        <time>2024-11-05T14:51:26.954Z</time>
      </trkpt>
      <trkpt lat="44.09015" lon="3.56154">
        <ele>1102.58</ele>
        <time>2024-11-05T14:51:38.663Z</time>
      </trkpt>
      <trkpt lat="44.08996" lon="3.56178">
        <ele>1101.25</ele>
        <time>2024-11-05T14:51:50.376Z</time>
      </trkpt>
      <trkpt lat="44.08988" lon="3.56198">
        <ele>1100.37</ele>
        <time>2024-11-05T14:52:02.091Z</time>
      </trkpt>
      <trkpt lat="44.08973" lon="3.5628">
        <ele>1097.09</ele>
        <time>2024-11-05T14:52:13.816Z</time>
      </trkpt>
      <trkpt lat="44.08965" lon="3.56291">
        <ele>1096.51</ele>
        <time>2024-11-05T14:52:25.543Z</time>
      </trkpt>
      <trkpt lat="44.08946" lon="3.56308">
        <ele>1095.22</ele>
        <time>2024-11-05T14:52:37.274Z</time>
      </trkpt>
      <trkpt lat="44.0894" lon="3.56317">
        <ele>1094.66</ele>
        <time>2024-11-05T14:52:49.006Z</time>
      </trkpt>
      <trkpt lat="44.08938" lon="3.56326">
        <ele>1094.2</ele>
        <time>2024-11-05T14:53:00.739Z</time>
      </trkpt>
      <trkpt lat="44.0894" lon="3.56346">
        <ele>1093.26</ele>
        <time>2024-11-05T14:53:12.474Z</time>
      </trkpt>
      <trkpt lat="44.08944" lon="3.56356">
        <ele>1092.81</ele>
        <time>2024-11-05T14:53:24.211Z</time>
      </trkpt>
      <trkpt lat="44.08958" lon="3.56379">
        <ele>1091.63</ele>
        <time>2024-11-05T14:53:35.951Z</time>
      </trkpt>
      <trkpt lat="44.08962" lon="3.5639">
        <ele>1091.12</ele>
        <time>2024-11-05T14:53:47.693Z</time>
      </trkpt>
      <trkpt lat="44.08962" lon="3.56399">
        <ele>1090.7</ele>
        <time>2024-11-05T14:53:59.436Z</time>
      </trkpt>
      <trkpt lat="44.08959" lon="3.56408">
        <ele>1090.23</ele>
        <time>2024-11-05T14:54:11.180Z</time>
      </trkpt>
      <trkpt lat="44.08949" lon="3.56423">
        <ele>1089.15</ele>
        <time>2024-11-05T14:54:22.926Z</time>
      </trkpt>
      <trkpt lat="44.08925" lon="3.56452">
        <ele>1086.95</ele>
        <time>2024-11-05T14:54:34.677Z</time>
      </trkpt>
      <trkpt lat="44.08915" lon="3.5647">
        <ele>1085.92</ele>
        <time>2024-11-05T14:54:46.431Z</time>
      </trkpt>
      <trkpt lat="44.08891" lon="3.56515">
        <ele>1083.67</ele>
        <time>2024-11-05T14:54:58.191Z</time>
      </trkpt>
      <trkpt lat="44.08867" lon="3.56561">
        <ele>1081.81</ele>
        <time>2024-11-05T14:55:09.958Z</time>
      </trkpt>
      <trkpt lat="44.08859" lon="3.5658">
        <ele>1081.12</ele>
        <time>2024-11-05T14:55:21.727Z</time>
      </trkpt>
      <trkpt lat="44.08858" lon="3.56592">
        <ele>1080.67</ele>
        <time>2024-11-05T14:55:33.498Z</time>
      </trkpt>
      <trkpt lat="44.0886" lon="3.56609">
        <ele>1079.87</ele>
        <time>2024-11-05T14:55:45.271Z</time>
      </trkpt>
      <trkpt lat="44.08869" lon="3.56617">
        <ele>1079.09</ele>
        <time>2024-11-05T14:55:57.045Z</time>
      </trkpt>
      <trkpt lat="44.08878" lon="3.56615">
        <ele>1078.4</ele>
        <time>2024-11-05T14:56:08.821Z</time>
      </trkpt>
      <trkpt lat="44.08886" lon="3.56599">
        <ele>1077.25</ele>
        <time>2024-11-05T14:56:20.599Z</time>
      </trkpt>
      <trkpt lat="44.08895" lon="3.56569">
        <ele>1075.7</ele>
        <time>2024-11-05T14:56:32.381Z</time>
      </trkpt>
      <trkpt lat="44.08905" lon="3.56535">
        <ele>1074.23</ele>
        <time>2024-11-05T14:56:44.167Z</time>
      </trkpt>
      <trkpt lat="44.08912" lon="3.56518">
        <ele>1073.49</ele>
        <time>2024-11-05T14:56:55.955Z</time>
      </trkpt>
      <trkpt lat="44.08926" lon="3.56494">
        <ele>1072.26</ele>
        <time>2024-11-05T14:57:07.747Z</time>
      </trkpt>
      <trkpt lat="44.08939" lon="3.56478">
        <ele>1071.27</ele>
        <time>2024-11-05T14:57:19.542Z</time>
      </trkpt>
      <trkpt lat="44.08968" lon="3.56458">
        <ele>1069.37</ele>
        <time>2024-11-05T14:57:31.342Z</time>
      </trkpt>
      <trkpt lat="44.09003" lon="3.56434">
        <ele>1067.41</ele>
        <time>2024-11-05T14:57:43.148Z</time>
      </trkpt>
      <trkpt lat="44.09013" lon="3.5642">
        <ele>1066.73</ele>
        <time>2024-11-05T14:57:54.956Z</time>
      </trkpt>
      <trkpt lat="44.09016" lon="3.56406">
        <ele>1066.25</ele>
        <time>2024-11-05T14:58:06.766Z</time>
      </trkpt>
      <trkpt lat="44.09015" lon="3.56392">
        <ele>1065.76</ele>
        <time>2024-11-05T14:58:18.578Z</time>
      </trkpt>
      <trkpt lat="44.0901" lon="3.56374">
        <ele>1065.1</ele>
        <time>2024-11-05T14:58:30.392Z</time>
      </trkpt>
      <trkpt lat="44.08998" lon="3.56351">
        <ele>1064.17</ele>
        <time>2024-11-05T14:58:42.209Z</time>
      </trkpt>
      <trkpt lat="44.08995" lon="3.5634">
        <ele>1063.78</ele>
        <time>2024-11-05T14:58:54.028Z</time>
      </trkpt>
      <trkpt lat="44.08996" lon="3.56326">
        <ele>1063.23</ele>
        <time>2024-11-05T14:59:05.848Z</time>
      </trkpt>
      <trkpt lat="44.09001" lon="3.56314">
        <ele>1062.56</ele>
        <time>2024-11-05T14:59:17.670Z</time>
      </trkpt>
      <trkpt lat="44.09027" lon="3.56294">
        <ele>1060.36</ele>
        <time>2024-11-05T14:59:29.497Z</time>
      </trkpt>
      <trkpt lat="44.09051" lon="3.56258">
        <ele>1058.21</ele>
        <time>2024-11-05T14:59:41.329Z</time>
      </trkpt>
      <trkpt lat="44.09062" lon="3.56246">
        <ele>1057.56</ele>
        <time>2024-11-05T14:59:53.163Z</time>
      </trkpt>
      <trkpt lat="44.09069" lon="3.56242">
        <ele>1057.16</ele>
        <time>2024-11-05T15:00:04.999Z</time>
      </trkpt>
      <trkpt lat="44.09107" lon="3.56233">
        <ele>1054.91</ele>
        <time>2024-11-05T15:00:16.841Z</time>
      </trkpt>
      <trkpt lat="44.09144" lon="3.56216">
        <ele>1052.81</ele>
        <time>2024-11-05T15:00:28.689Z</time>
      </trkpt>
      <trkpt lat="44.09199" lon="3.56224">
        <ele>1049.58</ele>
        <time>2024-11-05T15:00:40.546Z</time>
      </trkpt>
      <trkpt lat="44.09211" lon="3.56221">
        <ele>1048.92</ele>
        <time>2024-11-05T15:00:52.405Z</time>
      </trkpt>
      <trkpt lat="44.09219" lon="3.56216">
        <ele>1048.48</ele>
        <time>2024-11-05T15:01:04.265Z</time>
      </trkpt>
      <trkpt lat="44.09248" lon="3.56185">
        <ele>1046.92</ele>
        <time>2024-11-05T15:01:16.131Z</time>
      </trkpt>
      <trkpt lat="44.09256" lon="3.56183">
        <ele>1046.47</ele>
        <time>2024-11-05T15:01:27.998Z</time>
      </trkpt>
      <trkpt lat="44.09272" lon="3.56189">
        <ele>1045.51</ele>
        <time>2024-11-05T15:01:39.868Z</time>
      </trkpt>
      <trkpt lat="44.09278" lon="3.56196">
        <ele>1045.07</ele>
        <time>2024-11-05T15:01:51.739Z</time>
      </trkpt>
      <trkpt lat="44.0929" lon="3.56216">
        <ele>1044.07</ele>
        <time>2024-11-05T15:02:03.613Z</time>
      </trkpt>
      <trkpt lat="44.093" lon="3.56224">
        <ele>1043.48</ele>
        <time>2024-11-05T15:02:15.489Z</time>
      </trkpt>
      <trkpt lat="44.09306" lon="3.56227">
        <ele>1043.08</ele>
        <time>2024-11-05T15:02:27.366Z</time>
      </trkpt>
      <trkpt lat="44.09323" lon="3.56223">
        <ele>1041.94</ele>
        <time>2024-11-05T15:02:39.246Z</time>
      </trkpt>
      <trkpt lat="44.09331" lon="3.56219">
        <ele>1041.26</ele>
        <time>2024-11-05T15:02:51.127Z</time>
      </trkpt>
      <trkpt lat="44.09347" lon="3.56205">
        <ele>1039.77</ele>
        <time>2024-11-05T15:03:03.011Z</time>
      </trkpt>
      <trkpt lat="44.09362" lon="3.56177">
        <ele>1038.22</ele>
        <time>2024-11-05T15:03:14.899Z</time>
      </trkpt>
      <trkpt lat="44.0939" lon="3.56102">
        <ele>1034.67</ele>
        <time>2024-11-05T15:03:26.797Z</time>
      </trkpt>
      <trkpt lat="44.094" lon="3.56064">
        <ele>1033.19</ele>
        <time>2024-11-05T15:03:38.700Z</time>
      </trkpt>
      <trkpt lat="44.09398" lon="3.56039">
        <ele>1032.36</ele>
        <time>2024-11-05T15:03:50.606Z</time>
      </trkpt>
      <trkpt lat="44.09385" lon="3.55998">
        <ele>1030.55</ele>
        <time>2024-11-05T15:04:02.517Z</time>
      </trkpt>
      <trkpt lat="44.09384" lon="3.55986">
        <ele>1030.05</ele>
        <time>2024-11-05T15:04:14.429Z</time>
      </trkpt>
      <trkpt lat="44.09391" lon="3.55964">
        <ele>1028.7</ele>
        <time>2024-11-05T15:04:26.344Z</time>
      </trkpt>
      <trkpt lat="44.09407" lon="3.55947">
        <ele>1027.17</ele>
        <time>2024-11-05T15:04:38.262Z</time>
      </trkpt>
      <trkpt lat="44.09415" lon="3.55943">
        <ele>1026.55</ele>
        <time>2024-11-05T15:04:50.182Z</time>
      </trkpt>
      <trkpt lat="44.09456" lon="3.55943">
        <ele>1023.69</ele>
        <time>2024-11-05T15:05:02.108Z</time>
      </trkpt>
      <trkpt lat="44.09476" lon="3.55933">
        <ele>1022.35</ele>
        <time>2024-11-05T15:05:14.038Z</time>
      </trkpt>
      <trkpt lat="44.09492" lon="3.55911">
        <ele>1021.05</ele>
        <time>2024-11-05T15:05:25.971Z</time>
      </trkpt>
      <trkpt lat="44.09509" lon="3.55878">
        <ele>1019.51</ele>
        <time>2024-11-05T15:05:37.909Z</time>
      </trkpt>
      <trkpt lat="44.09536" lon="3.5586">
        <ele>1017.88</ele>
        <time>2024-11-05T15:05:49.852Z</time>
      </trkpt>
      <trkpt lat="44.09566" lon="3.55849">
        <ele>1015.93</ele>
        <time>2024-11-05T15:06:01.800Z</time>
      </trkpt>
      <trkpt lat="44.09589" lon="3.55849">
        <ele>1014.53</ele>
        <time>2024-11-05T15:06:13.751Z</time>
      </trkpt>
      <trkpt lat="44.09595" lon="3.55851">
        <ele>1014.21</ele>
        <time>2024-11-05T15:06:25.703Z</time>
      </trkpt>
      <trkpt lat="44.096" lon="3.55855">
        <ele>1013.88</ele>
        <time>2024-11-05T15:06:37.656Z</time>
      </trkpt>
      <trkpt lat="44.09616" lon="3.55887">
        <ele>1012.54</ele>
        <time>2024-11-05T15:06:49.614Z</time>
      </trkpt>
      <trkpt lat="44.09625" lon="3.55899">
        <ele>1011.99</ele>
        <time>2024-11-05T15:07:01.574Z</time>
      </trkpt>
      <trkpt lat="44.0964" lon="3.55907">
        <ele>1011.18</ele>
        <time>2024-11-05T15:07:13.536Z</time>
      </trkpt>
      <trkpt lat="44.0965" lon="3.55906">
        <ele>1010.65</ele>
        <time>2024-11-05T15:07:25.500Z</time>
      </trkpt>
      <trkpt lat="44.09662" lon="3.55898">
        <ele>1009.86</ele>
        <time>2024-11-05T15:07:37.466Z</time>
      </trkpt>
      <trkpt lat="44.09676" lon="3.55878">
        <ele>1008.57</ele>
        <time>2024-11-05T15:07:49.435Z</time>
      </trkpt>
      <trkpt lat="44.09714" lon="3.55802">
        <ele>1004.6</ele>
        <time>2024-11-05T15:08:01.415Z</time>
      </trkpt>
      <trkpt lat="44.09732" lon="3.55784">
        <ele>1003.44</ele>
        <time>2024-11-05T15:08:13.398Z</time>
      </trkpt>
      <trkpt lat="44.09746" lon="3.55763">
        <ele>1002.45</ele>
        <time>2024-11-05T15:08:25.385Z</time>
      </trkpt>
      <trkpt lat="44.09753" lon="3.5574">
        <ele>1001.56</ele>
        <time>2024-11-05T15:08:37.375Z</time>
      </trkpt>
      <trkpt lat="44.09755" lon="3.55694">
        <ele>999.72</ele>
        <time>2024-11-05T15:08:49.370Z</time>
      </trkpt>
      <trkpt lat="44.09759" lon="3.55683">
        <ele>999.2</ele>
        <time>2024-11-05T15:09:01.366Z</time>
      </trkpt>
      <trkpt lat="44.09781" lon="3.55655">
        <ele>997.65</ele>
        <time>2024-11-05T15:09:13.367Z</time>
      </trkpt>
      <trkpt lat="44.098" lon="3.5564">
        <ele>996.78</ele>
        <time>2024-11-05T15:09:25.372Z</time>
      </trkpt>
      <trkpt lat="44.09816" lon="3.55629">
        <ele>996.36</ele>
        <time>2024-11-05T15:09:37.379Z</time>
      </trkpt>
      <trkpt lat="44.09833" lon="3.55618">
        <ele>996.24</ele>
        <time>2024-11-05T15:09:49.389Z</time>
      </trkpt>
      <trkpt lat="44.09843" lon="3.55614">
        <ele>996.18</ele>
        <time>2024-11-05T15:10:01.401Z</time>
      </trkpt>
      <trkpt lat="44.0985" lon="3.55614">
        <ele>996.1</ele>
        <time>2024-11-05T15:10:13.414Z</time>
      </trkpt>
      <trkpt lat="44.09856" lon="3.55617">
        <ele>995.9</ele>
        <time>2024-11-05T15:10:25.428Z</time>
      </trkpt>
      <trkpt lat="44.09859" lon="3.55625">
        <ele>995.66</ele>
        <time>2024-11-05T15:10:37.443Z</time>
      </trkpt>
      <trkpt lat="44.09859" lon="3.55632">
        <ele>995.09</ele>
        <time>2024-11-05T15:10:49.459Z</time>
      </trkpt>
      <trkpt lat="44.09855" lon="3.5564">
        <ele>994.32</ele>
        <time>2024-11-05T15:11:01.476Z</time>
      </trkpt>
      <trkpt lat="44.0985" lon="3.55645">
        <ele>993.66</ele>
        <time>2024-11-05T15:11:13.494Z</time>
      </trkpt>
      <trkpt lat="44.0983" lon="3.55656">
        <ele>991.44</ele>
        <time>2024-11-05T15:11:25.516Z</time>
      </trkpt>
      <trkpt lat="44.09814" lon="3.55669">
        <ele>989.91</ele>
        <time>2024-11-05T15:11:37.541Z</time>
      </trkpt>
      <trkpt lat="44.09803" lon="3.55681">
        <ele>988.84</ele>
        <time>2024-11-05T15:11:49.568Z</time>
      </trkpt>
      <trkpt lat="44.09794" lon="3.55695">
        <ele>987.95</ele>
        <time>2024-11-05T15:12:01.597Z</time>
      </trkpt>
      <trkpt lat="44.09784" lon="3.55723">
        <ele>986.46</ele>
        <time>2024-11-05T15:12:13.630Z</time>
      </trkpt>
      <trkpt lat="44.09775" lon="3.55792">
        <ele>983.23</ele>
        <time>2024-11-05T15:12:25.671Z</time>
      </trkpt>
      <trkpt lat="44.09759" lon="3.55833">
        <ele>981.46</ele>
        <time>2024-11-05T15:12:37.717Z</time>
      </trkpt>
      <trkpt lat="44.09738" lon="3.55908">
        <ele>978.15</ele>
        <time>2024-11-05T15:12:49.772Z</time>
      </trkpt>
      <trkpt lat="44.0973" lon="3.55927">
        <ele>977.32</ele>
        <time>2024-11-05T15:13:01.830Z</time>
      </trkpt>
      <trkpt lat="44.09683" lon="3.55991">
        <ele>973.83</ele>
        <time>2024-11-05T15:13:13.898Z</time>
      </trkpt>
      <trkpt lat="44.09669" lon="3.56004">
        <ele>972.96</ele>
        <time>2024-11-05T15:13:25.969Z</time>
      </trkpt>
      <trkpt lat="44.0966" lon="3.56006">
        <ele>972.45</ele>
        <time>2024-11-05T15:13:38.042Z</time>
      </trkpt>
      <trkpt lat="44.09624" lon="3.56">
        <ele>970.29</ele>
        <time>2024-11-05T15:13:50.120Z</time>
      </trkpt>
      <trkpt lat="44.09583" lon="3.56024">
        <ele>967.71</ele>
        <time>2024-11-05T15:14:02.206Z</time>
      </trkpt>
      <trkpt lat="44.09556" lon="3.56032">
        <ele>966.27</ele>
        <time>2024-11-05T15:14:14.296Z</time>
      </trkpt>
      <trkpt lat="44.09541" lon="3.56039">
        <ele>965.38</ele>
        <time>2024-11-05T15:14:26.389Z</time>
      </trkpt>
      <trkpt lat="44.09524" lon="3.56055">
        <ele>964.21</ele>
        <time>2024-11-05T15:14:38.485Z</time>
      </trkpt>
      <trkpt lat="44.09511" lon="3.56079">
        <ele>963</ele>
        <time>2024-11-05T15:14:50.584Z</time>
      </trkpt>
      <trkpt lat="44.09499" lon="3.56114">
        <ele>961.36</ele>
        <time>2024-11-05T15:15:02.688Z</time>
      </trkpt>
      <trkpt lat="44.09496" lon="3.56156">
        <ele>959.49</ele>
        <time>2024-11-05T15:15:14.797Z</time>
      </trkpt>
      <trkpt lat="44.09472" lon="3.56275">
        <ele>954.46</ele>
        <time>2024-11-05T15:15:26.920Z</time>
      </trkpt>
      <trkpt lat="44.09467" lon="3.56294">
        <ele>953.66</ele>
        <time>2024-11-05T15:15:39.045Z</time>
      </trkpt>
      <trkpt lat="44.09456" lon="3.56319">
        <ele>952.5</ele>
        <time>2024-11-05T15:15:51.174Z</time>
      </trkpt>
      <trkpt lat="44.09428" lon="3.56357">
        <ele>950.56</ele>
        <time>2024-11-05T15:16:03.309Z</time>
      </trkpt>
      <trkpt lat="44.09422" lon="3.56363">
        <ele>950.17</ele>
        <time>2024-11-05T15:16:15.445Z</time>
      </trkpt>
      <trkpt lat="44.09404" lon="3.56367">
        <ele>949.12</ele>
        <time>2024-11-05T15:16:27.584Z</time>
      </trkpt>
      <trkpt lat="44.09375" lon="3.56365">
        <ele>947.5</ele>
        <time>2024-11-05T15:16:39.728Z</time>
      </trkpt>
      <trkpt lat="44.09367" lon="3.56368">
        <ele>947.05</ele>
        <time>2024-11-05T15:16:51.873Z</time>
      </trkpt>
      <trkpt lat="44.09356" lon="3.56378">
        <ele>946.33</ele>
        <time>2024-11-05T15:17:04.020Z</time>
      </trkpt>
      <trkpt lat="44.09341" lon="3.56403">
        <ele>945</ele>
        <time>2024-11-05T15:17:16.171Z</time>
      </trkpt>
      <trkpt lat="44.09328" lon="3.56415">
        <ele>944.07</ele>
        <time>2024-11-05T15:17:28.324Z</time>
      </trkpt>
      <trkpt lat="44.09293" lon="3.56426">
        <ele>942.18</ele>
        <time>2024-11-05T15:17:40.483Z</time>
      </trkpt>
      <trkpt lat="44.09254" lon="3.56432">
        <ele>940.57</ele>
        <time>2024-11-05T15:17:52.648Z</time>
      </trkpt>
      <trkpt lat="44.09248" lon="3.56436">
        <ele>940.24</ele>
        <time>2024-11-05T15:18:04.814Z</time>
      </trkpt>
      <trkpt lat="44.09243" lon="3.56443">
        <ele>939.84</ele>
        <time>2024-11-05T15:18:16.981Z</time>
      </trkpt>
      <trkpt lat="44.09237" lon="3.56461">
        <ele>938.87</ele>
        <time>2024-11-05T15:18:29.151Z</time>
      </trkpt>
      <trkpt lat="44.09237" lon="3.56471">
        <ele>938.36</ele>
        <time>2024-11-05T15:18:41.322Z</time>
      </trkpt>
      <trkpt lat="44.09238" lon="3.56479">
        <ele>937.95</ele>
        <time>2024-11-05T15:18:53.494Z</time>
      </trkpt>
      <trkpt lat="44.09253" lon="3.56517">
        <ele>935.81</ele>
        <time>2024-11-05T15:19:05.671Z</time>
      </trkpt>
      <trkpt lat="44.09256" lon="3.56529">
        <ele>935.26</ele>
        <time>2024-11-05T15:19:17.849Z</time>
      </trkpt>
      <trkpt lat="44.09256" lon="3.56552">
        <ele>934.34</ele>
        <time>2024-11-05T15:19:30.030Z</time>
      </trkpt>
      <trkpt lat="44.09252" lon="3.56571">
        <ele>933.55</ele>
        <time>2024-11-05T15:19:42.213Z</time>
      </trkpt>
      <trkpt lat="44.09227" lon="3.56618">
        <ele>930.98</ele>
        <time>2024-11-05T15:19:54.403Z</time>
      </trkpt>
      <trkpt lat="44.09214" lon="3.56638">
        <ele>929.73</ele>
        <time>2024-11-05T15:20:06.596Z</time>
      </trkpt>
      <trkpt lat="44.09197" lon="3.5665">
        <ele>928.51</ele>
        <time>2024-11-05T15:20:18.792Z</time>
      </trkpt>
      <trkpt lat="44.0916" lon="3.56662">
        <ele>926.13</ele>
        <time>2024-11-05T15:20:30.994Z</time>
      </trkpt>
      <trkpt lat="44.09111" lon="3.56677">
        <ele>923.36</ele>
        <time>2024-11-05T15:20:43.204Z</time>
      </trkpt>
      <trkpt lat="44.09101" lon="3.56682">
        <ele>922.78</ele>
        <time>2024-11-05T15:20:55.416Z</time>
      </trkpt>
      <trkpt lat="44.09094" lon="3.56689">
        <ele>922.29</ele>
        <time>2024-11-05T15:21:07.629Z</time>
      </trkpt>
      <trkpt lat="44.09087" lon="3.56701">
        <ele>921.66</ele>
        <time>2024-11-05T15:21:19.844Z</time>
      </trkpt>
      <trkpt lat="44.09073" lon="3.56738">
        <ele>919.91</ele>
        <time>2024-11-05T15:21:32.064Z</time>
      </trkpt>
      <trkpt lat="44.09062" lon="3.56752">
        <ele>919.09</ele>
        <time>2024-11-05T15:21:44.286Z</time>
      </trkpt>
      <trkpt lat="44.09047" lon="3.56762">
        <ele>918.23</ele>
        <time>2024-11-05T15:21:56.511Z</time>
      </trkpt>
      <trkpt lat="44.09042" lon="3.56768">
        <ele>917.9</ele>
        <time>2024-11-05T15:22:08.737Z</time>
      </trkpt>
      <trkpt lat="44.09038" lon="3.56788">
        <ele>917.01</ele>
        <time>2024-11-05T15:22:20.965Z</time>
      </trkpt>
      <trkpt lat="44.09043" lon="3.5683">
        <ele>915.14</ele>
        <time>2024-11-05T15:22:33.198Z</time>
      </trkpt>
      <trkpt lat="44.09047" lon="3.56844">
        <ele>914.52</ele>
        <time>2024-11-05T15:22:45.433Z</time>
      </trkpt>
      <trkpt lat="44.09052" lon="3.56853">
        <ele>914.04</ele>
        <time>2024-11-05T15:22:57.669Z</time>
      </trkpt>
      <trkpt lat="44.0908" lon="3.56879">
        <ele>912.15</ele>
        <time>2024-11-05T15:23:09.911Z</time>
      </trkpt>
      <trkpt lat="44.09088" lon="3.56892">
        <ele>911.51</ele>
        <time>2024-11-05T15:23:22.155Z</time>
      </trkpt>
      <trkpt lat="44.09099" lon="3.56922">
        <ele>910.24</ele>
        <time>2024-11-05T15:23:34.403Z</time>
      </trkpt>
      <trkpt lat="44.09104" lon="3.56954">
        <ele>908.96</ele>
        <time>2024-11-05T15:23:46.654Z</time>
      </trkpt>
      <trkpt lat="44.09103" lon="3.56968">
        <ele>908.4</ele>
        <time>2024-11-05T15:23:58.907Z</time>
      </trkpt>
      <trkpt lat="44.09082" lon="3.57038">
        <ele>905.02</ele>
        <time>2024-11-05T15:24:11.169Z</time>
      </trkpt>
      <trkpt lat="44.0907" lon="3.57126">
        <ele>901.4</ele>
        <time>2024-11-05T15:24:23.441Z</time>
      </trkpt>
      <trkpt lat="44.09069" lon="3.57157">
        <ele>900.18</ele>
        <time>2024-11-05T15:24:35.717Z</time>
      </trkpt>
      <trkpt lat="44.09082" lon="3.57224">
        <ele>897.43</ele>
        <time>2024-11-05T15:24:48.001Z</time>
      </trkpt>
      <trkpt lat="44.09083" lon="3.57237">
        <ele>896.94</ele>
        <time>2024-11-05T15:25:00.286Z</time>
      </trkpt>
      <trkpt lat="44.09082" lon="3.5725">
        <ele>896.5</ele>
        <time>2024-11-05T15:25:12.573Z</time>
      </trkpt>
      <trkpt lat="44.09078" lon="3.57263">
        <ele>895.87</ele>
        <time>2024-11-05T15:25:24.861Z</time>
      </trkpt>
      <trkpt lat="44.09053" lon="3.57323">
        <ele>893.13</ele>
        <time>2024-11-05T15:25:37.157Z</time>
      </trkpt>
      <trkpt lat="44.09046" lon="3.57333">
        <ele>892.59</ele>
        <time>2024-11-05T15:25:49.455Z</time>
      </trkpt>
      <trkpt lat="44.0903" lon="3.57346">
        <ele>891.64</ele>
        <time>2024-11-05T15:26:01.756Z</time>
      </trkpt>
      <trkpt lat="44.09012" lon="3.5735">
        <ele>890.6</ele>
        <time>2024-11-05T15:26:14.060Z</time>
      </trkpt>
      <trkpt lat="44.09004" lon="3.57349">
        <ele>890.06</ele>
        <time>2024-11-05T15:26:26.365Z</time>
      </trkpt>
      <trkpt lat="44.08993" lon="3.57344">
        <ele>889.28</ele>
        <time>2024-11-05T15:26:38.672Z</time>
      </trkpt>
      <trkpt lat="44.08971" lon="3.57326">
        <ele>887.63</ele>
        <time>2024-11-05T15:26:50.983Z</time>
      </trkpt>
      <trkpt lat="44.08944" lon="3.57304">
        <ele>885.98</ele>
        <time>2024-11-05T15:27:03.299Z</time>
      </trkpt>
      <trkpt lat="44.08934" lon="3.57301">
        <ele>885.49</ele>
        <time>2024-11-05T15:27:15.617Z</time>
      </trkpt>
      <trkpt lat="44.08913" lon="3.57304">
        <ele>884.41</ele>
        <time>2024-11-05T15:27:27.938Z</time>
      </trkpt>
      <trkpt lat="44.08885" lon="3.57308">
        <ele>882.64</ele>
        <time>2024-11-05T15:27:40.264Z</time>
      </trkpt>
      <trkpt lat="44.08875" lon="3.57312">
        <ele>881.99</ele>
        <time>2024-11-05T15:27:52.591Z</time>
      </trkpt>
      <trkpt lat="44.08869" lon="3.57318">
        <ele>881.54</ele>
        <time>2024-11-05T15:28:04.919Z</time>
      </trkpt>
      <trkpt lat="44.08864" lon="3.57326">
        <ele>881.09</ele>
        <time>2024-11-05T15:28:17.249Z</time>
      </trkpt>
      <trkpt lat="44.08855" lon="3.57352">
        <ele>879.85</ele>
        <time>2024-11-05T15:28:29.582Z</time>
      </trkpt>
      <trkpt lat="44.08846" lon="3.57409">
        <ele>877.32</ele>
        <time>2024-11-05T15:28:41.922Z</time>
      </trkpt>
      <trkpt lat="44.0884" lon="3.57431">
        <ele>876.34</ele>
        <time>2024-11-05T15:28:54.264Z</time>
      </trkpt>
      <trkpt lat="44.08823" lon="3.57513">
        <ele>873.01</ele>
        <time>2024-11-05T15:29:06.616Z</time>
      </trkpt>
      <trkpt lat="44.0881" lon="3.57555">
        <ele>871.26</ele>
        <time>2024-11-05T15:29:18.974Z</time>
      </trkpt>
      <trkpt lat="44.08796" lon="3.57586">
        <ele>869.93</ele>
        <time>2024-11-05T15:29:31.336Z</time>
      </trkpt>
      <trkpt lat="44.0879" lon="3.57592">
        <ele>869.55</ele>
        <time>2024-11-05T15:29:43.699Z</time>
      </trkpt>
      <trkpt lat="44.08774" lon="3.57596">
        <ele>868.62</ele>
        <time>2024-11-05T15:29:56.065Z</time>
      </trkpt>
      <trkpt lat="44.08763" lon="3.57593">
        <ele>867.96</ele>
        <time>2024-11-05T15:30:08.432Z</time>
      </trkpt>
      <trkpt lat="44.08728" lon="3.57578">
        <ele>865.87</ele>
        <time>2024-11-05T15:30:20.805Z</time>
      </trkpt>
      <trkpt lat="44.08698" lon="3.57548">
        <ele>863.72</ele>
        <time>2024-11-05T15:30:33.184Z</time>
      </trkpt>
      <trkpt lat="44.08692" lon="3.57544">
        <ele>863.35</ele>
        <time>2024-11-05T15:30:45.564Z</time>
      </trkpt>
      <trkpt lat="44.08679" lon="3.57542">
        <ele>862.61</ele>
        <time>2024-11-05T15:30:57.946Z</time>
      </trkpt>
      <trkpt lat="44.08639" lon="3.57547">
        <ele>860.24</ele>
        <time>2024-11-05T15:31:10.335Z</time>
      </trkpt>
      <trkpt lat="44.08625" lon="3.57563">
        <ele>859.13</ele>
        <time>2024-11-05T15:31:22.727Z</time>
      </trkpt>
      <trkpt lat="44.0861" lon="3.57594">
        <ele>857.48</ele>
        <time>2024-11-05T15:31:35.123Z</time>
      </trkpt>
      <trkpt lat="44.08602" lon="3.57635">
        <ele>855.59</ele>
        <time>2024-11-05T15:31:47.524Z</time>
      </trkpt>
      <trkpt lat="44.08595" lon="3.57658">
        <ele>854.4</ele>
        <time>2024-11-05T15:31:59.928Z</time>
      </trkpt>
      <trkpt lat="44.08569" lon="3.5769">
        <ele>852.05</ele>
        <time>2024-11-05T15:32:12.337Z</time>
      </trkpt>
      <trkpt lat="44.08546" lon="3.57725">
        <ele>849.95</ele>
        <time>2024-11-05T15:32:24.752Z</time>
      </trkpt>
      <trkpt lat="44.08514" lon="3.57761">
        <ele>847.79</ele>
        <time>2024-11-05T15:32:37.173Z</time>
      </trkpt>
      <trkpt lat="44.08505" lon="3.57785">
        <ele>846.73</ele>
        <time>2024-11-05T15:32:49.597Z</time>
      </trkpt>
      <trkpt lat="44.08505" lon="3.57802">
        <ele>845.95</ele>
        <time>2024-11-05T15:33:02.023Z</time>
      </trkpt>
      <trkpt lat="44.0851" lon="3.57829">
        <ele>844.59</ele>
        <time>2024-11-05T15:33:14.453Z</time>
      </trkpt>
      <trkpt lat="44.08527" lon="3.57871">
        <ele>842.31</ele>
        <time>2024-11-05T15:33:26.888Z</time>
      </trkpt>
      <trkpt lat="44.08547" lon="3.5792">
        <ele>840.15</ele>
        <time>2024-11-05T15:33:39.330Z</time>
      </trkpt>
      <trkpt lat="44.08551" lon="3.57937">
        <ele>839.55</ele>
        <time>2024-11-05T15:33:51.774Z</time>
      </trkpt>
      <trkpt lat="44.08555" lon="3.57971">
        <ele>838.54</ele>
        <time>2024-11-05T15:34:04.222Z</time>
      </trkpt>
      <trkpt lat="44.08552" lon="3.57985">
        <ele>838.11</ele>
        <time>2024-11-05T15:34:16.671Z</time>
      </trkpt>
      <trkpt lat="44.08538" lon="3.58007">
        <ele>837.05</ele>
        <time>2024-11-05T15:34:29.124Z</time>
      </trkpt>
      <trkpt lat="44.08417" lon="3.58108">
        <ele>828.22</ele>
        <time>2024-11-05T15:34:41.599Z</time>
      </trkpt>
      <trkpt lat="44.08399" lon="3.58117">
        <ele>827.26</ele>
        <time>2024-11-05T15:34:54.077Z</time>
      </trkpt>
      <trkpt lat="44.08355" lon="3.5813">
        <ele>825.24</ele>
        <time>2024-11-05T15:35:06.563Z</time>
      </trkpt>
      <trkpt lat="44.08348" lon="3.58136">
        <ele>824.76</ele>
        <time>2024-11-05T15:35:19.050Z</time>
      </trkpt>
      <trkpt lat="44.08344" lon="3.58145">
        <ele>824.29</ele>
        <time>2024-11-05T15:35:31.538Z</time>
      </trkpt>
      <trkpt lat="44.08341" lon="3.58171">
        <ele>823.01</ele>
        <time>2024-11-05T15:35:44.029Z</time>
      </trkpt>
      <trkpt lat="44.08347" lon="3.58216">
        <ele>820.78</ele>
        <time>2024-11-05T15:35:56.525Z</time>
      </trkpt>
      <trkpt lat="44.08347" lon="3.5829">
        <ele>817.76</ele>
        <time>2024-11-05T15:36:09.030Z</time>
      </trkpt>
      <trkpt lat="44.08347" lon="3.58338">
        <ele>816.15</ele>
        <time>2024-11-05T15:36:21.540Z</time>
      </trkpt>
      <trkpt lat="44.08345" lon="3.58359">
        <ele>815.64</ele>
        <time>2024-11-05T15:36:34.053Z</time>
      </trkpt>
      <trkpt lat="44.08339" lon="3.5839">
        <ele>814.83</ele>
        <time>2024-11-05T15:36:46.570Z</time>
      </trkpt>
      <trkpt lat="44.0834" lon="3.584">
        <ele>814.46</ele>
        <time>2024-11-05T15:36:59.088Z</time>
      </trkpt>
      <trkpt lat="44.08345" lon="3.58406">
        <ele>814.09</ele>
        <time>2024-11-05T15:37:11.607Z</time>
      </trkpt>
      <trkpt lat="44.08351" lon="3.58409">
        <ele>813.69</ele>
        <time>2024-11-05T15:37:24.127Z</time>
      </trkpt>
      <trkpt lat="44.08365" lon="3.58404">
        <ele>812.63</ele>
        <time>2024-11-05T15:37:36.649Z</time>
      </trkpt>
      <trkpt lat="44.08369" lon="3.58396">
        <ele>812.12</ele>
        <time>2024-11-05T15:37:49.172Z</time>
      </trkpt>
      <trkpt lat="44.08369" lon="3.58387">
        <ele>811.64</ele>
        <time>2024-11-05T15:38:01.696Z</time>
      </trkpt>
      <trkpt lat="44.08364" lon="3.58358">
        <ele>810.05</ele>
        <time>2024-11-05T15:38:14.224Z</time>
      </trkpt>
      <trkpt lat="44.08363" lon="3.58333">
        <ele>808.71</ele>
        <time>2024-11-05T15:38:26.755Z</time>
      </trkpt>
      <trkpt lat="44.08365" lon="3.58282">
        <ele>806.03</ele>
        <time>2024-11-05T15:38:39.292Z</time>
      </trkpt>
      <trkpt lat="44.08367" lon="3.58241">
        <ele>804.11</ele>
        <time>2024-11-05T15:38:51.833Z</time>
      </trkpt>
      <trkpt lat="44.0837" lon="3.58219">
        <ele>803.11</ele>
        <time>2024-11-05T15:39:04.377Z</time>
      </trkpt>
      <trkpt lat="44.0838" lon="3.58188">
        <ele>801.53</ele>
        <time>2024-11-05T15:39:16.925Z</time>
      </trkpt>
      <trkpt lat="44.08386" lon="3.58181">
        <ele>801.03</ele>
        <time>2024-11-05T15:39:29.474Z</time>
      </trkpt>
      <trkpt lat="44.08402" lon="3.58174">
        <ele>800.1</ele>
        <time>2024-11-05T15:39:42.026Z</time>
      </trkpt>
      <trkpt lat="44.08429" lon="3.58175">
        <ele>798.57</ele>
        <time>2024-11-05T15:39:54.582Z</time>
      </trkpt>
      <trkpt lat="44.08444" lon="3.58173">
        <ele>797.73</ele>
        <time>2024-11-05T15:40:07.140Z</time>
      </trkpt>
      <trkpt lat="44.08482" lon="3.58156">
        <ele>795.29</ele>
        <time>2024-11-05T15:40:19.705Z</time>
      </trkpt>
      <trkpt lat="44.08512" lon="3.5813">
        <ele>793.51</ele>
        <time>2024-11-05T15:40:32.276Z</time>
      </trkpt>
      <trkpt lat="44.08525" lon="3.58125">
        <ele>792.9</ele>
        <time>2024-11-05T15:40:44.849Z</time>
      </trkpt>
      <trkpt lat="44.08539" lon="3.58124">
        <ele>792.2</ele>
        <time>2024-11-05T15:40:57.424Z</time>
      </trkpt>
      <trkpt lat="44.0859" lon="3.58134">
        <ele>788.94</ele>
        <time>2024-11-05T15:41:10.007Z</time>
      </trkpt>
      <trkpt lat="44.08606" lon="3.58133">
        <ele>787.94</ele>
        <time>2024-11-05T15:41:22.593Z</time>
      </trkpt>
      <trkpt lat="44.08613" lon="3.58128">
        <ele>787.44</ele>
        <time>2024-11-05T15:41:35.180Z</time>
      </trkpt>
      <trkpt lat="44.08626" lon="3.58108">
        <ele>786.23</ele>
        <time>2024-11-05T15:41:47.770Z</time>
      </trkpt>
      <trkpt lat="44.08645" lon="3.58021">
        <ele>782.09</ele>
        <time>2024-11-05T15:42:00.371Z</time>
      </trkpt>
      <trkpt lat="44.08647" lon="3.57992">
        <ele>780.79</ele>
        <time>2024-11-05T15:42:12.975Z</time>
      </trkpt>
      <trkpt lat="44.08643" lon="3.5793">
        <ele>778.17</ele>
        <time>2024-11-05T15:42:25.586Z</time>
      </trkpt>
      <trkpt lat="44.08641" lon="3.57913">
        <ele>777.51</ele>
        <time>2024-11-05T15:42:38.199Z</time>
      </trkpt>
      <trkpt lat="44.08631" lon="3.57869">
        <ele>775.84</ele>
        <time>2024-11-05T15:42:50.817Z</time>
      </trkpt>
      <trkpt lat="44.08632" lon="3.57846">
        <ele>774.83</ele>
        <time>2024-11-05T15:43:03.438Z</time>
      </trkpt>
      <trkpt lat="44.08639" lon="3.57828">
        <ele>773.87</ele>
        <time>2024-11-05T15:43:16.061Z</time>
      </trkpt>
      <trkpt lat="44.08646" lon="3.57816">
        <ele>773.14</ele>
        <time>2024-11-05T15:43:28.686Z</time>
      </trkpt>
      <trkpt lat="44.08677" lon="3.57774">
        <ele>770.4</ele>
        <time>2024-11-05T15:43:41.318Z</time>
      </trkpt>
      <trkpt lat="44.08695" lon="3.57759">
        <ele>769.1</ele>
        <time>2024-11-05T15:43:53.954Z</time>
      </trkpt>
      <trkpt lat="44.0871" lon="3.57756">
        <ele>768.15</ele>
        <time>2024-11-05T15:44:06.592Z</time>
      </trkpt>
      <trkpt lat="44.08725" lon="3.57763">
        <ele>767.14</ele>
        <time>2024-11-05T15:44:19.232Z</time>
      </trkpt>
      <trkpt lat="44.08779" lon="3.57819">
        <ele>762.89</ele>
        <time>2024-11-05T15:44:31.883Z</time>
      </trkpt>
      <trkpt lat="44.08797" lon="3.57834">
        <ele>761.72</ele>
        <time>2024-11-05T15:44:44.538Z</time>
      </trkpt>
      <trkpt lat="44.08805" lon="3.57837">
        <ele>761.27</ele>
        <time>2024-11-05T15:44:57.194Z</time>
      </trkpt>
      <trkpt lat="44.0883" lon="3.5784">
        <ele>759.92</ele>
        <time>2024-11-05T15:45:09.854Z</time>
      </trkpt>
      <trkpt lat="44.08864" lon="3.5785">
        <ele>758.08</ele>
        <time>2024-11-05T15:45:22.520Z</time>
      </trkpt>
      <trkpt lat="44.08877" lon="3.57849">
        <ele>757.35</ele>
        <time>2024-11-05T15:45:35.188Z</time>
      </trkpt>
      <trkpt lat="44.08891" lon="3.57837">
        <ele>756.42</ele>
        <time>2024-11-05T15:45:47.858Z</time>
      </trkpt>
      <trkpt lat="44.08951" lon="3.57771">
        <ele>751.96</ele>
        <time>2024-11-05T15:46:00.541Z</time>
      </trkpt>
      <trkpt lat="44.08977" lon="3.57733">
        <ele>749.88</ele>
        <time>2024-11-05T15:46:13.230Z</time>
      </trkpt>
      <trkpt lat="44.09004" lon="3.57678">
        <ele>747.49</ele>
        <time>2024-11-05T15:46:25.926Z</time>
      </trkpt>
      <trkpt lat="44.09014" lon="3.57667">
        <ele>746.8</ele>
        <time>2024-11-05T15:46:38.624Z</time>
      </trkpt>
      <trkpt lat="44.0902" lon="3.57664">
        <ele>746.38</ele>
        <time>2024-11-05T15:46:51.323Z</time>
      </trkpt>
      <trkpt lat="44.09038" lon="3.57664">
        <ele>745.29</ele>
        <time>2024-11-05T15:47:04.025Z</time>
      </trkpt>
      <trkpt lat="44.09045" lon="3.57666">
        <ele>744.84</ele>
        <time>2024-11-05T15:47:16.728Z</time>
      </trkpt>
      <trkpt lat="44.09061" lon="3.57679">
        <ele>743.73</ele>
        <time>2024-11-05T15:47:29.434Z</time>
      </trkpt>
      <trkpt lat="44.09091" lon="3.57715">
        <ele>741.44</ele>
        <time>2024-11-05T15:47:42.147Z</time>
      </trkpt>
      <trkpt lat="44.09108" lon="3.57742">
        <ele>740.11</ele>
        <time>2024-11-05T15:47:54.864Z</time>
      </trkpt>
      <trkpt lat="44.09112" lon="3.57752">
        <ele>739.7</ele>
        <time>2024-11-05T15:48:07.582Z</time>
      </trkpt>
      <trkpt lat="44.09122" lon="3.5779">
        <ele>738.25</ele>
        <time>2024-11-05T15:48:20.305Z</time>
      </trkpt>
      <trkpt lat="44.09128" lon="3.57805">
        <ele>737.56</ele>
        <time>2024-11-05T15:48:33.030Z</time>
      </trkpt>
      <trkpt lat="44.09132" lon="3.57811">
        <ele>737.2</ele>
        <time>2024-11-05T15:48:45.756Z</time>
      </trkpt>
      <trkpt lat="44.09137" lon="3.57815">
        <ele>736.83</ele>
        <time>2024-11-05T15:48:58.483Z</time>
      </trkpt>
      <trkpt lat="44.09148" lon="3.57817">
        <ele>736.09</ele>
        <time>2024-11-05T15:49:11.211Z</time>
      </trkpt>
      <trkpt lat="44.09161" lon="3.57807">
        <ele>735.1</ele>
        <time>2024-11-05T15:49:23.942Z</time>
      </trkpt>
      <trkpt lat="44.0919" lon="3.57771">
        <ele>732.72</ele>
        <time>2024-11-05T15:49:36.679Z</time>
      </trkpt>
      <trkpt lat="44.09224" lon="3.5771">
        <ele>729.52</ele>
        <time>2024-11-05T15:49:49.425Z</time>
      </trkpt>
      <trkpt lat="44.09241" lon="3.57665">
        <ele>727.53</ele>
        <time>2024-11-05T15:50:02.177Z</time>
      </trkpt>
      <trkpt lat="44.09248" lon="3.57616">
        <ele>725.57</ele>
        <time>2024-11-05T15:50:14.934Z</time>
      </trkpt>
      <trkpt lat="44.0926" lon="3.57569">
        <ele>723.38</ele>
        <time>2024-11-05T15:50:27.697Z</time>
      </trkpt>
      <trkpt lat="44.09266" lon="3.57556">
        <ele>722.67</ele>
        <time>2024-11-05T15:50:40.462Z</time>
      </trkpt>
      <trkpt lat="44.09289" lon="3.57524">
        <ele>720.76</ele>
        <time>2024-11-05T15:50:53.232Z</time>
      </trkpt>
      <trkpt lat="44.09293" lon="3.57507">
        <ele>720.11</ele>
        <time>2024-11-05T15:51:06.004Z</time>
      </trkpt>
      <trkpt lat="44.09295" lon="3.57462">
        <ele>718.51</ele>
        <time>2024-11-05T15:51:18.781Z</time>
      </trkpt>
      <trkpt lat="44.093" lon="3.57441">
        <ele>717.6</ele>
        <time>2024-11-05T15:51:31.561Z</time>
      </trkpt>
      <trkpt lat="44.09306" lon="3.57428">
        <ele>716.95</ele>
        <time>2024-11-05T15:51:44.343Z</time>
      </trkpt>
      <trkpt lat="44.09317" lon="3.57411">
        <ele>715.93</ele>
        <time>2024-11-05T15:51:57.127Z</time>
      </trkpt>
      <trkpt lat="44.09333" lon="3.57397">
        <ele>714.72</ele>
        <time>2024-11-05T15:52:09.914Z</time>
      </trkpt>
      <trkpt lat="44.09355" lon="3.57385">
        <ele>713.17</ele>
        <time>2024-11-05T15:52:22.705Z</time>
      </trkpt>
      <trkpt lat="44.0936" lon="3.57379">
        <ele>712.74</ele>
        <time>2024-11-05T15:52:35.497Z</time>
      </trkpt>
      <trkpt lat="44.0937" lon="3.57361">
        <ele>711.7</ele>
        <time>2024-11-05T15:52:48.292Z</time>
      </trkpt>
      <trkpt lat="44.09384" lon="3.5732">
        <ele>709.78</ele>
        <time>2024-11-05T15:53:01.092Z</time>
      </trkpt>
      <trkpt lat="44.09383" lon="3.57277">
        <ele>708.11</ele>
        <time>2024-11-05T15:53:13.897Z</time>
      </trkpt>
      <trkpt lat="44.09389" lon="3.5724">
        <ele>706.56</ele>
        <time>2024-11-05T15:53:26.706Z</time>
      </trkpt>
      <trkpt lat="44.09383" lon="3.57191">
        <ele>705.2</ele>
        <time>2024-11-05T15:53:39.521Z</time>
      </trkpt>
      <trkpt lat="44.09386" lon="3.57176">
        <ele>704.7</ele>
        <time>2024-11-05T15:53:52.338Z</time>
      </trkpt>
      <trkpt lat="44.09395" lon="3.57166">
        <ele>704.09</ele>
        <time>2024-11-05T15:54:05.157Z</time>
      </trkpt>
      <trkpt lat="44.09414" lon="3.5715">
        <ele>702.7</ele>
        <time>2024-11-05T15:54:17.979Z</time>
      </trkpt>
      <trkpt lat="44.09425" lon="3.57137">
        <ele>701.96</ele>
        <time>2024-11-05T15:54:30.804Z</time>
      </trkpt>
      <trkpt lat="44.0943" lon="3.57121">
        <ele>701.37</ele>
        <time>2024-11-05T15:54:43.631Z</time>
      </trkpt>
      <trkpt lat="44.09432" lon="3.571">
        <ele>700.62</ele>
        <time>2024-11-05T15:54:56.460Z</time>
      </trkpt>
      <trkpt lat="44.09437" lon="3.5709">
        <ele>700.11</ele>
        <time>2024-11-05T15:55:09.291Z</time>
      </trkpt>
      <trkpt lat="44.09441" lon="3.57086">
        <ele>699.78</ele>
        <time>2024-11-05T15:55:22.122Z</time>
      </trkpt>
      <trkpt lat="44.09447" lon="3.57084">
        <ele>699.39</ele>
        <time>2024-11-05T15:55:34.954Z</time>
      </trkpt>
      <trkpt lat="44.09453" lon="3.57086">
        <ele>698.96</ele>
        <time>2024-11-05T15:55:47.787Z</time>
      </trkpt>
      <trkpt lat="44.09458" lon="3.5709">
        <ele>698.52</ele>
        <time>2024-11-05T15:56:00.621Z</time>
      </trkpt>
      <trkpt lat="44.09462" lon="3.57105">
        <ele>697.62</ele>
        <time>2024-11-05T15:56:13.457Z</time>
      </trkpt>
      <trkpt lat="44.0946" lon="3.57114">
        <ele>697.07</ele>
        <time>2024-11-05T15:56:26.294Z</time>
      </trkpt>
      <trkpt lat="44.09452" lon="3.57129">
        <ele>695.98</ele>
        <time>2024-11-05T15:56:39.133Z</time>
      </trkpt>
      <trkpt lat="44.09439" lon="3.57147">
        <ele>694.57</ele>
        <time>2024-11-05T15:56:51.975Z</time>
      </trkpt>
      <trkpt lat="44.09418" lon="3.57175">
        <ele>692.68</ele>
        <time>2024-11-05T15:57:04.822Z</time>
      </trkpt>
      <trkpt lat="44.09411" lon="3.57198">
        <ele>691.57</ele>
        <time>2024-11-05T15:57:17.672Z</time>
      </trkpt>
      <trkpt lat="44.09412" lon="3.57277">
        <ele>687.97</ele>
        <time>2024-11-05T15:57:30.531Z</time>
      </trkpt>
      <trkpt lat="44.09417" lon="3.57313">
        <ele>686.57</ele>
        <time>2024-11-05T15:57:43.394Z</time>
      </trkpt>
      <trkpt lat="44.09416" lon="3.57324">
        <ele>686.03</ele>
        <time>2024-11-05T15:57:56.258Z</time>
      </trkpt>
      <trkpt lat="44.09404" lon="3.57378">
        <ele>683.54</ele>
        <time>2024-11-05T15:58:09.129Z</time>
      </trkpt>
      <trkpt lat="44.09392" lon="3.57421">
        <ele>681.96</ele>
        <time>2024-11-05T15:58:22.005Z</time>
      </trkpt>
      <trkpt lat="44.09386" lon="3.57431">
        <ele>681.52</ele>
        <time>2024-11-05T15:58:34.883Z</time>
      </trkpt>
      <trkpt lat="44.09362" lon="3.5745">
        <ele>680.29</ele>
        <time>2024-11-05T15:58:47.765Z</time>
      </trkpt>
      <trkpt lat="44.09357" lon="3.57459">
        <ele>679.92</ele>
        <time>2024-11-05T15:59:00.649Z</time>
      </trkpt>
      <trkpt lat="44.09356" lon="3.57478">
        <ele>679.16</ele>
        <time>2024-11-05T15:59:13.535Z</time>
      </trkpt>
      <trkpt lat="44.09363" lon="3.57524">
        <ele>677</ele>
        <time>2024-11-05T15:59:26.426Z</time>
      </trkpt>
      <trkpt lat="44.09369" lon="3.57564">
        <ele>675.39</ele>
        <time>2024-11-05T15:59:39.322Z</time>
      </trkpt>
      <trkpt lat="44.09367" lon="3.57578">
        <ele>674.84</ele>
        <time>2024-11-05T15:59:52.219Z</time>
      </trkpt>
      <trkpt lat="44.09364" lon="3.57588">
        <ele>674.41</ele>
        <time>2024-11-05T16:00:05.118Z</time>
      </trkpt>
      <trkpt lat="44.09358" lon="3.57594">
        <ele>674.02</ele>
        <time>2024-11-05T16:00:18.018Z</time>
      </trkpt>
      <trkpt lat="44.09342" lon="3.57605">
        <ele>672.79</ele>
        <time>2024-11-05T16:00:30.921Z</time>
      </trkpt>
      <trkpt lat="44.09336" lon="3.57614">
        <ele>672.19</ele>
        <time>2024-11-05T16:00:43.825Z</time>
      </trkpt>
      <trkpt lat="44.09332" lon="3.57624">
        <ele>671.64</ele>
        <time>2024-11-05T16:00:56.731Z</time>
      </trkpt>
      <trkpt lat="44.09329" lon="3.5765">
        <ele>670.41</ele>
        <time>2024-11-05T16:01:09.640Z</time>
      </trkpt>
      <trkpt lat="44.09329" lon="3.57713">
        <ele>667.71</ele>
        <time>2024-11-05T16:01:22.556Z</time>
      </trkpt>
      <trkpt lat="44.09327" lon="3.57724">
        <ele>667.26</ele>
        <time>2024-11-05T16:01:35.473Z</time>
      </trkpt>
      <trkpt lat="44.09304" lon="3.57782">
        <ele>664.54</ele>
        <time>2024-11-05T16:01:48.398Z</time>
      </trkpt>
      <trkpt lat="44.09296" lon="3.57822">
        <ele>662.78</ele>
        <time>2024-11-05T16:02:01.328Z</time>
      </trkpt>
      <trkpt lat="44.09247" lon="3.57925">
        <ele>657.68</ele>
        <time>2024-11-05T16:02:14.272Z</time>
      </trkpt>
      <trkpt lat="44.09214" lon="3.57986">
        <ele>654.6</ele>
        <time>2024-11-05T16:02:27.225Z</time>
      </trkpt>
      <trkpt lat="44.09193" lon="3.58019">
        <ele>653.46</ele>
        <time>2024-11-05T16:02:40.183Z</time>
      </trkpt>
      <trkpt lat="44.09166" lon="3.5806">
        <ele>650.83</ele>
        <time>2024-11-05T16:02:53.147Z</time>
      </trkpt>
      <trkpt lat="44.09148" lon="3.58087">
        <ele>649.49</ele>
        <time>2024-11-05T16:03:06.115Z</time>
      </trkpt>
      <trkpt lat="44.0914" lon="3.58099">
        <ele>649.03</ele>
        <time>2024-11-05T16:03:19.085Z</time>
      </trkpt>
      <trkpt lat="44.09127" lon="3.5811">
        <ele>648.43</ele>
        <time>2024-11-05T16:03:32.058Z</time>
      </trkpt>
      <trkpt lat="44.09121" lon="3.58111">
        <ele>648.17</ele>
        <time>2024-11-05T16:03:45.032Z</time>
      </trkpt>
      <trkpt lat="44.09111" lon="3.58108">
        <ele>647.64</ele>
        <time>2024-11-05T16:03:58.007Z</time>
      </trkpt>
      <trkpt lat="44.09102" lon="3.58096">
        <ele>646.9</ele>
        <time>2024-11-05T16:04:10.984Z</time>
      </trkpt>
      <trkpt lat="44.09079" lon="3.58041">
        <ele>644</ele>
        <time>2024-11-05T16:04:23.969Z</time>
      </trkpt>
      <trkpt lat="44.09065" lon="3.58016">
        <ele>642.67</ele>
        <time>2024-11-05T16:04:36.957Z</time>
      </trkpt>
      <trkpt lat="44.09054" lon="3.58007">
        <ele>641.98</ele>
        <time>2024-11-05T16:04:49.947Z</time>
      </trkpt>
      <trkpt lat="44.09041" lon="3.58008">
        <ele>641.24</ele>
        <time>2024-11-05T16:05:02.939Z</time>
      </trkpt>
      <trkpt lat="44.0903" lon="3.58019">
        <ele>640.45</ele>
        <time>2024-11-05T16:05:15.933Z</time>
      </trkpt>
      <trkpt lat="44.08982" lon="3.58104">
        <ele>635.38</ele>
        <time>2024-11-05T16:05:28.940Z</time>
      </trkpt>
      <trkpt lat="44.0896" lon="3.5816">
        <ele>632.68</ele>
        <time>2024-11-05T16:05:41.954Z</time>
      </trkpt>
      <trkpt lat="44.08943" lon="3.58201">
        <ele>630.94</ele>
        <time>2024-11-05T16:05:54.974Z</time>
      </trkpt>
      <trkpt lat="44.08934" lon="3.58216">
        <ele>630.24</ele>
        <time>2024-11-05T16:06:07.996Z</time>
      </trkpt>
      <trkpt lat="44.08928" lon="3.5822">
        <ele>629.86</ele>
        <time>2024-11-05T16:06:21.019Z</time>
      </trkpt>
      <trkpt lat="44.08921" lon="3.5822">
        <ele>629.44</ele>
        <time>2024-11-05T16:06:34.043Z</time>
      </trkpt>
      <trkpt lat="44.08908" lon="3.58212">
        <ele>628.38</ele>
        <time>2024-11-05T16:06:47.069Z</time>
      </trkpt>
      <trkpt lat="44.08884" lon="3.58193">
        <ele>626.2</ele>
        <time>2024-11-05T16:07:00.100Z</time>
      </trkpt>
      <trkpt lat="44.08878" lon="3.58192">
        <ele>625.71</ele>
        <time>2024-11-05T16:07:13.132Z</time>
      </trkpt>
      <trkpt lat="44.08867" lon="3.58195">
        <ele>624.93</ele>
        <time>2024-11-05T16:07:26.166Z</time>
      </trkpt>
      <trkpt lat="44.0886" lon="3.58203">
        <ele>624.33</ele>
        <time>2024-11-05T16:07:39.201Z</time>
      </trkpt>
      <trkpt lat="44.08851" lon="3.58225">
        <ele>623.14</ele>
        <time>2024-11-05T16:07:52.239Z</time>
      </trkpt>
      <trkpt lat="44.08848" lon="3.58253">
        <ele>621.81</ele>
        <time>2024-11-05T16:08:05.280Z</time>
      </trkpt>
      <trkpt lat="44.08848" lon="3.58324">
        <ele>618.38</ele>
        <time>2024-11-05T16:08:18.330Z</time>
      </trkpt>
      <trkpt lat="44.08847" lon="3.58419">
        <ele>614.53</ele>
        <time>2024-11-05T16:08:31.390Z</time>
      </trkpt>
      <trkpt lat="44.08848" lon="3.58439">
        <ele>613.69</ele>
        <time>2024-11-05T16:08:44.453Z</time>
      </trkpt>
      <trkpt lat="44.08851" lon="3.58455">
        <ele>613</ele>
        <time>2024-11-05T16:08:57.518Z</time>
      </trkpt>
      <trkpt lat="44.08856" lon="3.58475">
        <ele>612.12</ele>
        <time>2024-11-05T16:09:10.585Z</time>
      </trkpt>
      <trkpt lat="44.08869" lon="3.58514">
        <ele>610.4</ele>
        <time>2024-11-05T16:09:23.657Z</time>
      </trkpt>
      <trkpt lat="44.08871" lon="3.58529">
        <ele>609.82</ele>
        <time>2024-11-05T16:09:36.731Z</time>
      </trkpt>
      <trkpt lat="44.08871" lon="3.58546">
        <ele>609.14</ele>
        <time>2024-11-05T16:09:49.807Z</time>
      </trkpt>
      <trkpt lat="44.08869" lon="3.58562">
        <ele>608.52</ele>
        <time>2024-11-05T16:10:02.885Z</time>
      </trkpt>
      <trkpt lat="44.0886" lon="3.58586">
        <ele>607.44</ele>
        <time>2024-11-05T16:10:15.966Z</time>
      </trkpt>
      <trkpt lat="44.08853" lon="3.58596">
        <ele>606.9</ele>
        <time>2024-11-05T16:10:29.048Z</time>
      </trkpt>
      <trkpt lat="44.08838" lon="3.58611">
        <ele>605.89</ele>
        <time>2024-11-05T16:10:42.133Z</time>
      </trkpt>
      <trkpt lat="44.0883" lon="3.58615">
        <ele>605.42</ele>
        <time>2024-11-05T16:10:55.220Z</time>
      </trkpt>
      <trkpt lat="44.0882" lon="3.58617">
        <ele>604.86</ele>
        <time>2024-11-05T16:11:08.308Z</time>
      </trkpt>
      <trkpt lat="44.08799" lon="3.58616">
        <ele>603.54</ele>
        <time>2024-11-05T16:11:21.400Z</time>
      </trkpt>
      <trkpt lat="44.08761" lon="3.58603">
        <ele>600.88</ele>
        <time>2024-11-05T16:11:34.498Z</time>
      </trkpt>
      <trkpt lat="44.08749" lon="3.58601">
        <ele>600.09</ele>
        <time>2024-11-05T16:11:47.598Z</time>
      </trkpt>
      <trkpt lat="44.08729" lon="3.58602">
        <ele>598.76</ele>
        <time>2024-11-05T16:12:00.701Z</time>
      </trkpt>
      <trkpt lat="44.08717" lon="3.5861">
        <ele>597.96</ele>
        <time>2024-11-05T16:12:13.806Z</time>
      </trkpt>
      <trkpt lat="44.08701" lon="3.58639">
        <ele>596.35</ele>
        <time>2024-11-05T16:12:26.915Z</time>
      </trkpt>
      <trkpt lat="44.08698" lon="3.58652">
        <ele>595.74</ele>
        <time>2024-11-05T16:12:40.026Z</time>
      </trkpt>
      <trkpt lat="44.08697" lon="3.5871">
        <ele>593.21</ele>
        <time>2024-11-05T16:12:53.144Z</time>
      </trkpt>
      <trkpt lat="44.08698" lon="3.58735">
        <ele>592.15</ele>
        <time>2024-11-05T16:13:06.265Z</time>
      </trkpt>
      <trkpt lat="44.08705" lon="3.58788">
        <ele>590.04</ele>
        <time>2024-11-05T16:13:19.392Z</time>
      </trkpt>
      <trkpt lat="44.08705" lon="3.58854">
        <ele>587.57</ele>
        <time>2024-11-05T16:13:32.526Z</time>
      </trkpt>
      <trkpt lat="44.08701" lon="3.58895">
        <ele>586.17</ele>
        <time>2024-11-05T16:13:45.665Z</time>
      </trkpt>
      <trkpt lat="44.08696" lon="3.5891">
        <ele>585.65</ele>
        <time>2024-11-05T16:13:58.806Z</time>
      </trkpt>
      <trkpt lat="44.08685" lon="3.58931">
        <ele>584.81</ele>
        <time>2024-11-05T16:14:11.950Z</time>
      </trkpt>
      <trkpt lat="44.08682" lon="3.58945">
        <ele>584.24</ele>
        <time>2024-11-05T16:14:25.096Z</time>
      </trkpt>
      <trkpt lat="44.08685" lon="3.58956">
        <ele>583.72</ele>
        <time>2024-11-05T16:14:38.243Z</time>
      </trkpt>
      <trkpt lat="44.08695" lon="3.58964">
        <ele>583.01</ele>
        <time>2024-11-05T16:14:51.392Z</time>
      </trkpt>
      <trkpt lat="44.08705" lon="3.58963">
        <ele>582.27</ele>
        <time>2024-11-05T16:15:04.543Z</time>
      </trkpt>
      <trkpt lat="44.08713" lon="3.58954">
        <ele>581.55</ele>
        <time>2024-11-05T16:15:17.695Z</time>
      </trkpt>
      <trkpt lat="44.0872" lon="3.5891">
        <ele>579.36</ele>
        <time>2024-11-05T16:15:30.852Z</time>
      </trkpt>
      <trkpt lat="44.08725" lon="3.58852">
        <ele>576.89</ele>
        <time>2024-11-05T16:15:44.016Z</time>
      </trkpt>
      <trkpt lat="44.08735" lon="3.58786">
        <ele>574.14</ele>
        <time>2024-11-05T16:15:57.188Z</time>
      </trkpt>
      <trkpt lat="44.08736" lon="3.58736">
        <ele>572.48</ele>
        <time>2024-11-05T16:16:10.366Z</time>
      </trkpt>
      <trkpt lat="44.08743" lon="3.58718">
        <ele>571.74</ele>
        <time>2024-11-05T16:16:23.546Z</time>
      </trkpt>
      <trkpt lat="44.08755" lon="3.58709">
        <ele>570.97</ele>
        <time>2024-11-05T16:16:36.728Z</time>
      </trkpt>
      <trkpt lat="44.08762" lon="3.58706">
        <ele>570.51</ele>
        <time>2024-11-05T16:16:49.911Z</time>
      </trkpt>
      <trkpt lat="44.08772" lon="3.58705">
        <ele>569.94</ele>
        <time>2024-11-05T16:17:03.096Z</time>
      </trkpt>
      <trkpt lat="44.08782" lon="3.58707">
        <ele>569.21</ele>
        <time>2024-11-05T16:17:16.283Z</time>
      </trkpt>
      <trkpt lat="44.08813" lon="3.58719">
        <ele>567.19</ele>
        <time>2024-11-05T16:17:29.475Z</time>
      </trkpt>
      <trkpt lat="44.08832" lon="3.58731">
        <ele>565.94</ele>
        <time>2024-11-05T16:17:42.670Z</time>
      </trkpt>
      <trkpt lat="44.08862" lon="3.58757">
        <ele>563.97</ele>
        <time>2024-11-05T16:17:55.871Z</time>
      </trkpt>
      <trkpt lat="44.08869" lon="3.5876">
        <ele>563.54</ele>
        <time>2024-11-05T16:18:09.073Z</time>
      </trkpt>
      <trkpt lat="44.0888" lon="3.58761">
        <ele>562.84</ele>
        <time>2024-11-05T16:18:22.277Z</time>
      </trkpt>
      <trkpt lat="44.08891" lon="3.58755">
        <ele>562.04</ele>
        <time>2024-11-05T16:18:35.483Z</time>
      </trkpt>
      <trkpt lat="44.089" lon="3.58741">
        <ele>561.1</ele>
        <time>2024-11-05T16:18:48.691Z</time>
      </trkpt>
      <trkpt lat="44.08918" lon="3.58704">
        <ele>559.09</ele>
        <time>2024-11-05T16:19:01.904Z</time>
      </trkpt>
      <trkpt lat="44.0897" lon="3.58596">
        <ele>554.01</ele>
        <time>2024-11-05T16:19:15.132Z</time>
      </trkpt>
      <trkpt lat="44.08975" lon="3.58583">
        <ele>553.42</ele>
        <time>2024-11-05T16:19:28.362Z</time>
      </trkpt>
      <trkpt lat="44.08979" lon="3.58563">
        <ele>552.6</ele>
        <time>2024-11-05T16:19:41.594Z</time>
      </trkpt>
      <trkpt lat="44.0898" lon="3.58547">
        <ele>551.99</ele>
        <time>2024-11-05T16:19:54.828Z</time>
      </trkpt>
      <trkpt lat="44.08974" lon="3.58456">
        <ele>548.58</ele>
        <time>2024-11-05T16:20:08.072Z</time>
      </trkpt>
      <trkpt lat="44.08978" lon="3.58442">
        <ele>548.05</ele>
        <time>2024-11-05T16:20:21.318Z</time>
      </trkpt>
      <trkpt lat="44.08985" lon="3.58432">
        <ele>547.54</ele>
        <time>2024-11-05T16:20:34.566Z</time>
      </trkpt>
      <trkpt lat="44.08991" lon="3.58428">
        <ele>547.19</ele>
        <time>2024-11-05T16:20:47.815Z</time>
      </trkpt>
      <trkpt lat="44.09006" lon="3.58429">
        <ele>546.33</ele>
        <time>2024-11-05T16:21:01.066Z</time>
      </trkpt>
      <trkpt lat="44.09039" lon="3.58443">
        <ele>543.89</ele>
        <time>2024-11-05T16:21:14.323Z</time>
      </trkpt>
      <trkpt lat="44.09049" lon="3.58445">
        <ele>543.15</ele>
        <time>2024-11-05T16:21:27.581Z</time>
      </trkpt>
      <trkpt lat="44.09057" lon="3.58444">
        <ele>542.54</ele>
        <time>2024-11-05T16:21:40.841Z</time>
      </trkpt>
      <trkpt lat="44.09064" lon="3.58438">
        <ele>541.89</ele>
        <time>2024-11-05T16:21:54.102Z</time>
      </trkpt>
      <trkpt lat="44.09071" lon="3.58421">
        <ele>540.79</ele>
        <time>2024-11-05T16:22:07.365Z</time>
      </trkpt>
      <trkpt lat="44.09073" lon="3.58396">
        <ele>539.52</ele>
        <time>2024-11-05T16:22:20.631Z</time>
      </trkpt>
      <trkpt lat="44.09076" lon="3.58387">
        <ele>539.06</ele>
        <time>2024-11-05T16:22:33.898Z</time>
      </trkpt>
      <trkpt lat="44.09086" lon="3.58374">
        <ele>538.11</ele>
        <time>2024-11-05T16:22:47.167Z</time>
      </trkpt>
      <trkpt lat="44.09091" lon="3.58371">
        <ele>537.69</ele>
        <time>2024-11-05T16:23:00.437Z</time>
      </trkpt>
      <trkpt lat="44.09098" lon="3.5837">
        <ele>537.12</ele>
        <time>2024-11-05T16:23:13.708Z</time>
      </trkpt>
      <trkpt lat="44.09126" lon="3.58373">
        <ele>534.84</ele>
        <time>2024-11-05T16:23:26.984Z</time>
      </trkpt>
      <trkpt lat="44.09144" lon="3.58367">
        <ele>533.5</ele>
        <time>2024-11-05T16:23:40.263Z</time>
      </trkpt>
      <trkpt lat="44.0916" lon="3.58355">
        <ele>532.46</ele>
        <time>2024-11-05T16:23:53.545Z</time>
      </trkpt>
      <trkpt lat="44.0919" lon="3.58327">
        <ele>530.7</ele>
        <time>2024-11-05T16:24:06.833Z</time>
      </trkpt>
      <trkpt lat="44.09239" lon="3.58295">
        <ele>527.79</ele>
        <time>2024-11-05T16:24:20.129Z</time>
      </trkpt>
      <trkpt lat="44.09257" lon="3.58289">
        <ele>526.63</ele>
        <time>2024-11-05T16:24:33.428Z</time>
      </trkpt>
      <trkpt lat="44.09275" lon="3.58287">
        <ele>525.49</ele>
        <time>2024-11-05T16:24:46.730Z</time>
      </trkpt>
      <trkpt lat="44.09291" lon="3.58283">
        <ele>524.59</ele>
        <time>2024-11-05T16:25:00.035Z</time>
      </trkpt>
      <trkpt lat="44.0934" lon="3.58255">
        <ele>522.01</ele>
        <time>2024-11-05T16:25:13.348Z</time>
      </trkpt>
      <trkpt lat="44.09346" lon="3.58254">
        <ele>521.66</ele>
        <time>2024-11-05T16:25:26.662Z</time>
      </trkpt>
      <trkpt lat="44.09356" lon="3.58256">
        <ele>521.06</ele>
        <time>2024-11-05T16:25:39.978Z</time>
      </trkpt>
      <trkpt lat="44.09361" lon="3.58266">
        <ele>520.54</ele>
        <time>2024-11-05T16:25:53.295Z</time>
      </trkpt>
      <trkpt lat="44.09359" lon="3.58278">
        <ele>519.98</ele>
        <time>2024-11-05T16:26:06.614Z</time>
      </trkpt>
      <trkpt lat="44.09355" lon="3.58283">
        <ele>519.64</ele>
        <time>2024-11-05T16:26:19.933Z</time>
      </trkpt>
      <trkpt lat="44.09349" lon="3.58286">
        <ele>519.23</ele>
        <time>2024-11-05T16:26:33.253Z</time>
      </trkpt>
      <trkpt lat="44.09328" lon="3.58286">
        <ele>517.99</ele>
        <time>2024-11-05T16:26:46.577Z</time>
      </trkpt>
      <trkpt lat="44.09318" lon="3.58288">
        <ele>517.4</ele>
        <time>2024-11-05T16:26:59.902Z</time>
      </trkpt>
      <trkpt lat="44.09295" lon="3.58301">
        <ele>515.92</ele>
        <time>2024-11-05T16:27:13.231Z</time>
      </trkpt>
      <trkpt lat="44.09268" lon="3.5831">
        <ele>514.31</ele>
        <time>2024-11-05T16:27:26.565Z</time>
      </trkpt>
      <trkpt lat="44.09257" lon="3.58317">
        <ele>513.61</ele>
        <time>2024-11-05T16:27:39.901Z</time>
      </trkpt>
      <trkpt lat="44.09216" lon="3.58365">
        <ele>510.31</ele>
        <time>2024-11-05T16:27:53.245Z</time>
      </trkpt>
      <trkpt lat="44.09205" lon="3.58382">
        <ele>509.23</ele>
        <time>2024-11-05T16:28:06.592Z</time>
      </trkpt>
      <trkpt lat="44.09161" lon="3.58463">
        <ele>504.52</ele>
        <time>2024-11-05T16:28:19.951Z</time>
      </trkpt>
      <trkpt lat="44.0912" lon="3.58571">
        <ele>499.08</ele>
        <time>2024-11-05T16:28:33.324Z</time>
      </trkpt>
      <trkpt lat="44.09077" lon="3.58683">
        <ele>493.74</ele>
        <time>2024-11-05T16:28:46.711Z</time>
      </trkpt>
      <trkpt lat="44.09054" lon="3.58734">
        <ele>491.13</ele>
        <time>2024-11-05T16:29:00.105Z</time>
      </trkpt>
      <trkpt lat="44.09044" lon="3.58775">
        <ele>489.35</ele>
        <time>2024-11-05T16:29:13.504Z</time>
      </trkpt>
      <trkpt lat="44.09015" lon="3.58839">
        <ele>486.14</ele>
        <time>2024-11-05T16:29:26.912Z</time>
      </trkpt>
      <trkpt lat="44.09008" lon="3.58858">
        <ele>485.29</ele>
        <time>2024-11-05T16:29:40.322Z</time>
      </trkpt>
      <trkpt lat="44.08975" lon="3.58992">
        <ele>479.59</ele>
        <time>2024-11-05T16:29:53.749Z</time>
      </trkpt>
      <trkpt lat="44.08952" lon="3.59092">
        <ele>474.89</ele>
        <time>2024-11-05T16:30:07.188Z</time>
      </trkpt>
      <trkpt lat="44.08942" lon="3.59124">
        <ele>474.38</ele>
        <time>2024-11-05T16:30:20.631Z</time>
      </trkpt>
      <trkpt lat="44.08925" lon="3.5918">
        <ele>471.51</ele>
        <time>2024-11-05T16:30:34.081Z</time>
      </trkpt>
      <trkpt lat="44.08911" lon="3.59249">
        <ele>468.08</ele>
        <time>2024-11-05T16:30:47.539Z</time>
      </trkpt>
      <trkpt lat="44.08899" lon="3.59299">
        <ele>466</ele>
        <time>2024-11-05T16:31:01.003Z</time>
      </trkpt>
      <trkpt lat="44.08886" lon="3.59338">
        <ele>464.3</ele>
        <time>2024-11-05T16:31:14.472Z</time>
      </trkpt>
      <trkpt lat="44.08844" lon="3.59435">
        <ele>459.72</ele>
        <time>2024-11-05T16:31:27.954Z</time>
      </trkpt>
      <trkpt lat="44.08839" lon="3.59454">
        <ele>458.93</ele>
        <time>2024-11-05T16:31:41.439Z</time>
      </trkpt>
      <trkpt lat="44.08831" lon="3.59511">
        <ele>456.71</ele>
        <time>2024-11-05T16:31:54.930Z</time>
      </trkpt>
      <trkpt lat="44.08825" lon="3.59614">
        <ele>452.87</ele>
        <time>2024-11-05T16:32:08.433Z</time>
      </trkpt>
      <trkpt lat="44.08821" lon="3.59688">
        <ele>450.42</ele>
        <time>2024-11-05T16:32:21.945Z</time>
      </trkpt>
      <trkpt lat="44.08818" lon="3.59731">
        <ele>449.41</ele>
        <time>2024-11-05T16:32:35.462Z</time>
      </trkpt>
      <trkpt lat="44.08817" lon="3.59754">
        <ele>449.05</ele>
        <time>2024-11-05T16:32:48.981Z</time>
      </trkpt>
      <trkpt lat="44.0881" lon="3.59811">
        <ele>448.41</ele>
        <time>2024-11-05T16:33:02.507Z</time>
      </trkpt>
      <trkpt lat="44.08805" lon="3.59827">
        <ele>448.17</ele>
        <time>2024-11-05T16:33:16.035Z</time>
      </trkpt>
      <trkpt lat="44.08731" lon="3.60008">
        <ele>444.57</ele>
        <time>2024-11-05T16:33:29.587Z</time>
      </trkpt>
      <trkpt lat="44.08702" lon="3.60082">
        <ele>443.38</ele>
        <time>2024-11-05T16:33:43.149Z</time>
      </trkpt>
      <trkpt lat="44.08683" lon="3.6012">
        <ele>441.89</ele>
        <time>2024-11-05T16:33:56.716Z</time>
      </trkpt>
      <trkpt lat="44.08644" lon="3.60195">
        <ele>438.08</ele>
        <time>2024-11-05T16:34:10.294Z</time>
      </trkpt>
      <trkpt lat="44.08634" lon="3.6023">
        <ele>436.62</ele>
        <time>2024-11-05T16:34:23.876Z</time>
      </trkpt>
      <trkpt lat="44.08633" lon="3.60264">
        <ele>435.56</ele>
        <time>2024-11-05T16:34:37.462Z</time>
      </trkpt>
      <trkpt lat="44.08635" lon="3.60278">
        <ele>435.15</ele>
        <time>2024-11-05T16:34:51.050Z</time>
      </trkpt>
      <trkpt lat="44.08643" lon="3.60304">
        <ele>434.48</ele>
        <time>2024-11-05T16:35:04.641Z</time>
      </trkpt>
      <trkpt lat="44.08656" lon="3.60332">
        <ele>433.92</ele>
        <time>2024-11-05T16:35:18.236Z</time>
      </trkpt>
      <trkpt lat="44.08679" lon="3.60372">
        <ele>433.55</ele>
        <time>2024-11-05T16:35:31.837Z</time>
      </trkpt>
      <trkpt lat="44.08689" lon="3.60398">
        <ele>433.38</ele>
        <time>2024-11-05T16:35:45.441Z</time>
      </trkpt>
      <trkpt lat="44.08691" lon="3.60412">
        <ele>433.34</ele>
        <time>2024-11-05T16:35:59.047Z</time>
      </trkpt>
      <trkpt lat="44.0869" lon="3.6044">
        <ele>433.29</ele>
        <time>2024-11-05T16:36:12.656Z</time>
      </trkpt>
      <trkpt lat="44.08683" lon="3.60475">
        <ele>433.14</ele>
        <time>2024-11-05T16:36:26.269Z</time>
      </trkpt>
      <trkpt lat="44.08662" lon="3.60551">
        <ele>432.12</ele>
        <time>2024-11-05T16:36:39.892Z</time>
      </trkpt>
      <trkpt lat="44.0865" lon="3.60593">
        <ele>431.79</ele>
        <time>2024-11-05T16:36:53.520Z</time>
      </trkpt>
      <trkpt lat="44.08643" lon="3.60641">
        <ele>431.45</ele>
        <time>2024-11-05T16:37:07.153Z</time>
      </trkpt>
      <trkpt lat="44.08636" lon="3.60691">
        <ele>430.78</ele>
        <time>2024-11-05T16:37:20.792Z</time>
      </trkpt>
      <trkpt lat="44.08629" lon="3.60726">
        <ele>430.23</ele>
        <time>2024-11-05T16:37:34.436Z</time>
      </trkpt>
      <trkpt lat="44.08619" lon="3.60774">
        <ele>428.77</ele>
        <time>2024-11-05T16:37:48.085Z</time>
      </trkpt>
      <trkpt lat="44.08606" lon="3.60807">
        <ele>427.41</ele>
        <time>2024-11-05T16:38:01.739Z</time>
      </trkpt>
      <trkpt lat="44.08578" lon="3.60885">
        <ele>423.73</ele>
        <time>2024-11-05T16:38:15.403Z</time>
      </trkpt>
      <trkpt lat="44.08569" lon="3.60923">
        <ele>422.31</ele>
        <time>2024-11-05T16:38:29.071Z</time>
      </trkpt>
      <trkpt lat="44.08564" lon="3.60964">
        <ele>421.35</ele>
        <time>2024-11-05T16:38:42.744Z</time>
      </trkpt>
      <trkpt lat="44.08558" lon="3.61045">
        <ele>419.86</ele>
        <time>2024-11-05T16:38:56.426Z</time>
      </trkpt>
      <trkpt lat="44.0856" lon="3.61088">
        <ele>418.87</ele>
        <time>2024-11-05T16:39:10.113Z</time>
      </trkpt>
      <trkpt lat="44.08568" lon="3.61115">
        <ele>418.27</ele>
        <time>2024-11-05T16:39:23.804Z</time>
      </trkpt>
      <trkpt lat="44.08606" lon="3.61183">
        <ele>417.28</ele>
        <time>2024-11-05T16:39:37.505Z</time>
      </trkpt>
      <trkpt lat="44.08644" lon="3.61243">
        <ele>415.96</ele>
        <time>2024-11-05T16:39:51.215Z</time>
      </trkpt>
      <trkpt lat="44.08653" lon="3.61265">
        <ele>415.62</ele>
        <time>2024-11-05T16:40:04.928Z</time>
      </trkpt>
      <trkpt lat="44.08659" lon="3.61285">
        <ele>415.29</ele>
        <time>2024-11-05T16:40:18.643Z</time>
      </trkpt>
      <trkpt lat="44.08662" lon="3.61306">
        <ele>414.89</ele>
        <time>2024-11-05T16:40:32.361Z</time>
      </trkpt>
      <trkpt lat="44.08659" lon="3.61349">
        <ele>413.8</ele>
        <time>2024-11-05T16:40:46.084Z</time>
      </trkpt>
      <trkpt lat="44.08652" lon="3.61381">
        <ele>412.63</ele>
        <time>2024-11-05T16:40:59.811Z</time>
      </trkpt>
      <trkpt lat="44.08649" lon="3.61389">
        <ele>412.32</ele>
        <time>2024-11-05T16:41:13.539Z</time>
      </trkpt>
      <trkpt lat="44.08624" lon="3.61446">
        <ele>411.05</ele>
        <time>2024-11-05T16:41:27.274Z</time>
      </trkpt>
      <trkpt lat="44.08614" lon="3.61477">
        <ele>410.79</ele>
        <time>2024-11-05T16:41:41.013Z</time>
      </trkpt>
      <trkpt lat="44.08595" lon="3.61525">
        <ele>410.72</ele>
        <time>2024-11-05T16:41:54.759Z</time>
      </trkpt>
      <trkpt lat="44.08566" lon="3.6156">
        <ele>410.67</ele>
        <time>2024-11-05T16:42:08.511Z</time>
      </trkpt>
      <trkpt lat="44.08548" lon="3.6158">
        <ele>410.31</ele>
        <time>2024-11-05T16:42:22.266Z</time>
      </trkpt>
      <trkpt lat="44.08503" lon="3.61639">
        <ele>408.96</ele>
        <time>2024-11-05T16:42:36.031Z</time>
      </trkpt>
      <trkpt lat="44.0848" lon="3.61673">
        <ele>408.27</ele>
        <time>2024-11-05T16:42:49.802Z</time>
      </trkpt>
      <trkpt lat="44.08455" lon="3.61722">
        <ele>407.09</ele>
        <time>2024-11-05T16:43:03.580Z</time>
      </trkpt>
      <trkpt lat="44.08413" lon="3.61804">
        <ele>404.15</ele>
        <time>2024-11-05T16:43:17.369Z</time>
      </trkpt>
      <trkpt lat="44.08381" lon="3.61865">
        <ele>402.41</ele>
        <time>2024-11-05T16:43:31.167Z</time>
      </trkpt>
      <trkpt lat="44.08337" lon="3.61959">
        <ele>401.09</ele>
        <time>2024-11-05T16:43:44.978Z</time>
      </trkpt>
      <trkpt lat="44.08318" lon="3.61988">
        <ele>400.45</ele>
        <time>2024-11-05T16:43:58.793Z</time>
      </trkpt>
      <trkpt lat="44.0828" lon="3.62036">
        <ele>398.99</ele>
        <time>2024-11-05T16:44:12.617Z</time>
      </trkpt>
      <trkpt lat="44.08273" lon="3.62048">
        <ele>398.67</ele>
        <time>2024-11-05T16:44:26.442Z</time>
      </trkpt>
      <trkpt lat="44.08264" lon="3.62071">
        <ele>398.18</ele>
        <time>2024-11-05T16:44:40.270Z</time>
      </trkpt>
      <trkpt lat="44.08255" lon="3.6211">
        <ele>397.45</ele>
        <time>2024-11-05T16:44:54.103Z</time>
      </trkpt>
      <trkpt lat="44.08237" lon="3.62185">
        <ele>396.37</ele>
        <time>2024-11-05T16:45:07.945Z</time>
      </trkpt>
      <trkpt lat="44.08228" lon="3.62202">
        <ele>396.18</ele>
        <time>2024-11-05T16:45:21.790Z</time>
      </trkpt>
      <trkpt lat="44.08199" lon="3.62239">
        <ele>395.53</ele>
        <time>2024-11-05T16:45:35.641Z</time>
      </trkpt>
      <trkpt lat="44.08195" lon="3.62249">
        <ele>395.35</ele>
        <time>2024-11-05T16:45:49.493Z</time>
      </trkpt>
      <trkpt lat="44.08191" lon="3.6229">
        <ele>394.08</ele>
        <time>2024-11-05T16:46:03.350Z</time>
      </trkpt>
      <trkpt lat="44.08186" lon="3.62346">
        <ele>392.7</ele>
        <time>2024-11-05T16:46:17.214Z</time>
      </trkpt>
      <trkpt lat="44.08183" lon="3.6237">
        <ele>392.27</ele>
        <time>2024-11-05T16:46:31.080Z</time>
      </trkpt>
      <trkpt lat="44.08175" lon="3.62459">
        <ele>391.25</ele>
        <time>2024-11-05T16:46:44.957Z</time>
      </trkpt>
      <trkpt lat="44.08164" lon="3.62544">
        <ele>390.22</ele>
        <time>2024-11-05T16:46:58.844Z</time>
      </trkpt>
      <trkpt lat="44.08152" lon="3.62616">
        <ele>389.24</ele>
        <time>2024-11-05T16:47:12.739Z</time>
      </trkpt>
      <trkpt lat="44.08148" lon="3.6264">
        <ele>389.02</ele>
        <time>2024-11-05T16:47:26.637Z</time>
      </trkpt>
      <trkpt lat="44.08144" lon="3.62677">
        <ele>388.79</ele>
        <time>2024-11-05T16:47:40.539Z</time>
      </trkpt>
      <trkpt lat="44.0814" lon="3.62715">
        <ele>388.79</ele>
        <time>2024-11-05T16:47:54.446Z</time>
      </trkpt>
      <trkpt lat="44.08127" lon="3.62752">
        <ele>388.75</ele>
        <time>2024-11-05T16:48:08.358Z</time>
      </trkpt>
      <trkpt lat="44.08123" lon="3.62783">
        <ele>388.55</ele>
        <time>2024-11-05T16:48:22.273Z</time>
      </trkpt>
      <trkpt lat="44.08125" lon="3.6281">
        <ele>388.27</ele>
        <time>2024-11-05T16:48:36.191Z</time>
      </trkpt>
      <trkpt lat="44.08139" lon="3.62855">
        <ele>387.56</ele>
        <time>2024-11-05T16:48:50.115Z</time>
      </trkpt>
      <trkpt lat="44.08147" lon="3.62881">
        <ele>387.35</ele>
        <time>2024-11-05T16:49:04.042Z</time>
      </trkpt>
      <trkpt lat="44.08162" lon="3.62918">
        <ele>387.33</ele>
        <time>2024-11-05T16:49:17.974Z</time>
      </trkpt>
      <trkpt lat="44.08194" lon="3.62964">
        <ele>387.49</ele>
        <time>2024-11-05T16:49:31.914Z</time>
      </trkpt>
      <trkpt lat="44.082" lon="3.62976">
        <ele>387.45</ele>
        <time>2024-11-05T16:49:45.855Z</time>
      </trkpt>
      <trkpt lat="44.08205" lon="3.62998">
        <ele>387.25</ele>
        <time>2024-11-05T16:49:59.799Z</time>
      </trkpt>
      <trkpt lat="44.08205" lon="3.63011">
        <ele>387.07</ele>
        <time>2024-11-05T16:50:13.744Z</time>
      </trkpt>
      <trkpt lat="44.08199" lon="3.63037">
        <ele>386.7</ele>
        <time>2024-11-05T16:50:27.693Z</time>
      </trkpt>
      <trkpt lat="44.08193" lon="3.63049">
        <ele>386.49</ele>
        <time>2024-11-05T16:50:41.643Z</time>
      </trkpt>
      <trkpt lat="44.08176" lon="3.63069">
        <ele>386.01</ele>
        <time>2024-11-05T16:50:55.597Z</time>
      </trkpt>
      <trkpt lat="44.08155" lon="3.63083">
        <ele>385.37</ele>
        <time>2024-11-05T16:51:09.555Z</time>
      </trkpt>
      <trkpt lat="44.0815" lon="3.63092">
        <ele>385.11</ele>
        <time>2024-11-05T16:51:23.514Z</time>
      </trkpt>
      <trkpt lat="44.08142" lon="3.63118">
        <ele>384.34</ele>
        <time>2024-11-05T16:51:37.476Z</time>
      </trkpt>
      <trkpt lat="44.08131" lon="3.63153">
        <ele>382.99</ele>
        <time>2024-11-05T16:51:51.442Z</time>
      </trkpt>
      <trkpt lat="44.08108" lon="3.63213">
        <ele>380.62</ele>
        <time>2024-11-05T16:52:05.416Z</time>
      </trkpt>
      <trkpt lat="44.08099" lon="3.63245">
        <ele>379.62</ele>
        <time>2024-11-05T16:52:19.394Z</time>
      </trkpt>
      <trkpt lat="44.08092" lon="3.63285">
        <ele>378.63</ele>
        <time>2024-11-05T16:52:33.377Z</time>
      </trkpt>
      <trkpt lat="44.08092" lon="3.63365">
        <ele>376.64</ele>
        <time>2024-11-05T16:52:47.369Z</time>
      </trkpt>
      <trkpt lat="44.08088" lon="3.63407">
        <ele>375.63</ele>
        <time>2024-11-05T16:53:01.366Z</time>
      </trkpt>
      <trkpt lat="44.08084" lon="3.63453">
        <ele>374.77</ele>
        <time>2024-11-05T16:53:15.368Z</time>
      </trkpt>
      <trkpt lat="44.08082" lon="3.63507">
        <ele>373.79</ele>
        <time>2024-11-05T16:53:29.377Z</time>
      </trkpt>
      <trkpt lat="44.08077" lon="3.63533">
        <ele>373.23</ele>
        <time>2024-11-05T16:53:43.389Z</time>
      </trkpt>
      <trkpt lat="44.08075" lon="3.63565">
        <ele>372.47</ele>
        <time>2024-11-05T16:53:57.405Z</time>
      </trkpt>
      <trkpt lat="44.08078" lon="3.63602">
        <ele>371.6</ele>
        <time>2024-11-05T16:54:11.425Z</time>
      </trkpt>
      <trkpt lat="44.08078" lon="3.63611">
        <ele>371.4</ele>
        <time>2024-11-05T16:54:25.446Z</time>
      </trkpt>
      <trkpt lat="44.08078" lon="3.63616">
        <ele>371.48</ele>
        <time>2024-11-05T16:54:39.467Z</time>
      </trkpt>
      <trkpt lat="44.08077" lon="3.63645">
        <ele>370.29</ele>
        <time>2024-11-05T16:54:53.492Z</time>
      </trkpt>
      <trkpt lat="44.08077" lon="3.63655">
        <ele>370.22</ele>
        <time>2024-11-05T16:55:07.518Z</time>
      </trkpt>
      <trkpt lat="44.08082" lon="3.63742">
        <ele>367.15</ele>
        <time>2024-11-05T16:55:21.554Z</time>
      </trkpt>
      <trkpt lat="44.08084" lon="3.6379">
        <ele>365.87</ele>
        <time>2024-11-05T16:55:35.596Z</time>
      </trkpt>
      <trkpt lat="44.08081" lon="3.63813">
        <ele>365.5</ele>
        <time>2024-11-05T16:55:49.640Z</time>
      </trkpt>
      <trkpt lat="44.08078" lon="3.63822">
        <ele>365.39</ele>
        <time>2024-11-05T16:56:03.685Z</time>
      </trkpt>
      <trkpt lat="44.08068" lon="3.63853">
        <ele>365.55</ele>
        <time>2024-11-05T16:56:17.734Z</time>
      </trkpt>
      <trkpt lat="44.08066" lon="3.63877">
        <ele>365.83</ele>
        <time>2024-11-05T16:56:31.786Z</time>
      </trkpt>
      <trkpt lat="44.0806" lon="3.63938">
        <ele>365.68</ele>
        <time>2024-11-05T16:56:45.845Z</time>
      </trkpt>
      <trkpt lat="44.08052" lon="3.64019">
        <ele>364.86</ele>
        <time>2024-11-05T16:56:59.914Z</time>
      </trkpt>
      <trkpt lat="44.08048" lon="3.64064">
        <ele>364.16</ele>
        <time>2024-11-05T16:57:13.988Z</time>
      </trkpt>
      <trkpt lat="44.08045" lon="3.6409">
        <ele>363.52</ele>
        <time>2024-11-05T16:57:28.065Z</time>
      </trkpt>
      <trkpt lat="44.08045" lon="3.64111">
        <ele>363.08</ele>
        <time>2024-11-05T16:57:42.144Z</time>
      </trkpt>
      <trkpt lat="44.08053" lon="3.64154">
        <ele>362.19</ele>
        <time>2024-11-05T16:57:56.228Z</time>
      </trkpt>
      <trkpt lat="44.08054" lon="3.64182">
        <ele>361.38</ele>
        <time>2024-11-05T16:58:10.316Z</time>
      </trkpt>
      <trkpt lat="44.08045" lon="3.64214">
        <ele>360.4</ele>
        <time>2024-11-05T16:58:24.408Z</time>
      </trkpt>
      <trkpt lat="44.08035" lon="3.64249">
        <ele>359.86</ele>
        <time>2024-11-05T16:58:38.504Z</time>
      </trkpt>
      <trkpt lat="44.08025" lon="3.64283">
        <ele>358.98</ele>
        <time>2024-11-05T16:58:52.604Z</time>
      </trkpt>
      <trkpt lat="44.08011" lon="3.64328">
        <ele>358.13</ele>
        <time>2024-11-05T16:59:06.710Z</time>
      </trkpt>
      <trkpt lat="44.07995" lon="3.6437">
        <ele>357.82</ele>
        <time>2024-11-05T16:59:20.821Z</time>
      </trkpt>
      <trkpt lat="44.07959" lon="3.64427">
        <ele>357.6</ele>
        <time>2024-11-05T16:59:34.941Z</time>
      </trkpt>
      <trkpt lat="44.0793" lon="3.6448">
        <ele>357.01</ele>
        <time>2024-11-05T16:59:49.069Z</time>
      </trkpt>
      <trkpt lat="44.07911" lon="3.64529">
        <ele>356.49</ele>
        <time>2024-11-05T17:00:03.203Z</time>
      </trkpt>
      <trkpt lat="44.07893" lon="3.64592">
        <ele>355.79</ele>
        <time>2024-11-05T17:00:17.345Z</time>
      </trkpt>
      <trkpt lat="44.07888" lon="3.64617">
        <ele>355.45</ele>
        <time>2024-11-05T17:00:31.490Z</time>
      </trkpt>
      <trkpt lat="44.07885" lon="3.64674">
        <ele>354.36</ele>
        <time>2024-11-05T17:00:45.642Z</time>
      </trkpt>
      <trkpt lat="44.07883" lon="3.64705">
        <ele>353.99</ele>
        <time>2024-11-05T17:00:59.797Z</time>
      </trkpt>
      <trkpt lat="44.07882" lon="3.64771">
        <ele>353.61</ele>
        <time>2024-11-05T17:01:13.960Z</time>
      </trkpt>
      <trkpt lat="44.07883" lon="3.64795">
        <ele>353.55</ele>
        <time>2024-11-05T17:01:28.126Z</time>
      </trkpt>
      <trkpt lat="44.07892" lon="3.64837">
        <ele>353.38</ele>
        <time>2024-11-05T17:01:42.297Z</time>
      </trkpt>
      <trkpt lat="44.07903" lon="3.64871">
        <ele>353.26</ele>
        <time>2024-11-05T17:01:56.472Z</time>
      </trkpt>
      <trkpt lat="44.07918" lon="3.64931">
        <ele>352.89</ele>
        <time>2024-11-05T17:02:10.654Z</time>
      </trkpt>
      <trkpt lat="44.07928" lon="3.64972">
        <ele>352.91</ele>
        <time>2024-11-05T17:02:24.841Z</time>
      </trkpt>
      <trkpt lat="44.0793" lon="3.65009">
        <ele>352.96</ele>
        <time>2024-11-05T17:02:39.033Z</time>
      </trkpt>
      <trkpt lat="44.07928" lon="3.65029">
        <ele>352.94</ele>
        <time>2024-11-05T17:02:53.227Z</time>
      </trkpt>
      <trkpt lat="44.07917" lon="3.65075">
        <ele>352.75</ele>
        <time>2024-11-05T17:03:07.426Z</time>
      </trkpt>
      <trkpt lat="44.07885" lon="3.65178">
        <ele>351.95</ele>
        <time>2024-11-05T17:03:21.638Z</time>
      </trkpt>
      <trkpt lat="44.07875" lon="3.65206">
        <ele>351.62</ele>
        <time>2024-11-05T17:03:35.854Z</time>
      </trkpt>
      <trkpt lat="44.07867" lon="3.65225">
        <ele>351.27</ele>
        <time>2024-11-05T17:03:50.072Z</time>
      </trkpt>
      <trkpt lat="44.07847" lon="3.65261">
        <ele>350.52</ele>
        <time>2024-11-05T17:04:04.296Z</time>
      </trkpt>
      <trkpt lat="44.07829" lon="3.65292">
        <ele>349.63</ele>
        <time>2024-11-05T17:04:18.524Z</time>
      </trkpt>
      <trkpt lat="44.0782" lon="3.65311">
        <ele>349.03</ele>
        <time>2024-11-05T17:04:32.755Z</time>
      </trkpt>
      <trkpt lat="44.07806" lon="3.65357">
        <ele>347.58</ele>
        <time>2024-11-05T17:04:46.992Z</time>
      </trkpt>
      <trkpt lat="44.07791" lon="3.65415">
        <ele>346.11</ele>
        <time>2024-11-05T17:05:01.236Z</time>
      </trkpt>
      <trkpt lat="44.07785" lon="3.65439">
        <ele>345.64</ele>
        <time>2024-11-05T17:05:15.483Z</time>
      </trkpt>
      <trkpt lat="44.07777" lon="3.65467">
        <ele>345.35</ele>
        <time>2024-11-05T17:05:29.733Z</time>
      </trkpt>
      <trkpt lat="44.07775" lon="3.65508">
        <ele>345.2</ele>
        <time>2024-11-05T17:05:43.988Z</time>
      </trkpt>
      <trkpt lat="44.0778" lon="3.65626">
        <ele>345.4</ele>
        <time>2024-11-05T17:05:58.257Z</time>
      </trkpt>
      <trkpt lat="44.07774" lon="3.65723">
        <ele>345.18</ele>
        <time>2024-11-05T17:06:12.537Z</time>
      </trkpt>
      <trkpt lat="44.07764" lon="3.65829">
        <ele>344.41</ele>
        <time>2024-11-05T17:06:26.829Z</time>
      </trkpt>
      <trkpt lat="44.07759" lon="3.65857">
        <ele>344.04</ele>
        <time>2024-11-05T17:06:41.124Z</time>
      </trkpt>
      <trkpt lat="44.07754" lon="3.65881">
        <ele>343.54</ele>
        <time>2024-11-05T17:06:55.422Z</time>
      </trkpt>
      <trkpt lat="44.07748" lon="3.65904">
        <ele>342.87</ele>
        <time>2024-11-05T17:07:09.723Z</time>
      </trkpt>
      <trkpt lat="44.07721" lon="3.65992">
        <ele>339.72</ele>
        <time>2024-11-05T17:07:24.035Z</time>
      </trkpt>
      <trkpt lat="44.07717" lon="3.66012">
        <ele>339.14</ele>
        <time>2024-11-05T17:07:38.350Z</time>
      </trkpt>
      <trkpt lat="44.07715" lon="3.66037">
        <ele>338.62</ele>
        <time>2024-11-05T17:07:52.668Z</time>
      </trkpt>
      <trkpt lat="44.07718" lon="3.66058">
        <ele>338.52</ele>
        <time>2024-11-05T17:08:06.988Z</time>
      </trkpt>
      <trkpt lat="44.07729" lon="3.66093">
        <ele>338.58</ele>
        <time>2024-11-05T17:08:21.312Z</time>
      </trkpt>
      <trkpt lat="44.07732" lon="3.66108">
        <ele>338.56</ele>
        <time>2024-11-05T17:08:35.638Z</time>
      </trkpt>
      <trkpt lat="44.07734" lon="3.66131">
        <ele>338.46</ele>
        <time>2024-11-05T17:08:49.967Z</time>
      </trkpt>
      <trkpt lat="44.07735" lon="3.66184">
        <ele>338.52</ele>
        <time>2024-11-05T17:09:04.302Z</time>
      </trkpt>
      <trkpt lat="44.07741" lon="3.66206">
        <ele>338.63</ele>
        <time>2024-11-05T17:09:18.640Z</time>
      </trkpt>
      <trkpt lat="44.07751" lon="3.66224">
        <ele>338.82</ele>
        <time>2024-11-05T17:09:32.980Z</time>
      </trkpt>
      <trkpt lat="44.0777" lon="3.66243">
        <ele>339.01</ele>
        <time>2024-11-05T17:09:47.324Z</time>
      </trkpt>
      <trkpt lat="44.07802" lon="3.66274">
        <ele>339</ele>
        <time>2024-11-05T17:10:01.674Z</time>
      </trkpt>
      <trkpt lat="44.07823" lon="3.663">
        <ele>338.9</ele>
        <time>2024-11-05T17:10:16.029Z</time>
      </trkpt>
      <trkpt lat="44.07838" lon="3.6633">
        <ele>338.78</ele>
        <time>2024-11-05T17:10:30.388Z</time>
      </trkpt>
      <trkpt lat="44.0785" lon="3.66372">
        <ele>338.55</ele>
        <time>2024-11-05T17:10:44.752Z</time>
      </trkpt>
      <trkpt lat="44.07852" lon="3.66393">
        <ele>338.47</ele>
        <time>2024-11-05T17:10:59.119Z</time>
      </trkpt>
      <trkpt lat="44.07853" lon="3.66429">
        <ele>338.24</ele>
        <time>2024-11-05T17:11:13.490Z</time>
      </trkpt>
      <trkpt lat="44.07849" lon="3.66464">
        <ele>337.98</ele>
        <time>2024-11-05T17:11:27.865Z</time>
      </trkpt>
      <trkpt lat="44.07844" lon="3.66483">
        <ele>337.83</ele>
        <time>2024-11-05T17:11:42.242Z</time>
      </trkpt>
      <trkpt lat="44.07819" lon="3.66541">
        <ele>337.53</ele>
        <time>2024-11-05T17:11:56.627Z</time>
      </trkpt>
      <trkpt lat="44.07776" lon="3.666">
        <ele>337.18</ele>
        <time>2024-11-05T17:12:11.022Z</time>
      </trkpt>
      <trkpt lat="44.07758" lon="3.66622">
        <ele>336.97</ele>
        <time>2024-11-05T17:12:25.421Z</time>
      </trkpt>
      <trkpt lat="44.07678" lon="3.66721">
        <ele>335.41</ele>
        <time>2024-11-05T17:12:39.837Z</time>
      </trkpt>
      <trkpt lat="44.07648" lon="3.66758">
        <ele>334.49</ele>
        <time>2024-11-05T17:12:54.259Z</time>
      </trkpt>
      <trkpt lat="44.07565" lon="3.66862">
        <ele>330.29</ele>
        <time>2024-11-05T17:13:08.699Z</time>
      </trkpt>
      <trkpt lat="44.07472" lon="3.66976">
        <ele>326.4</ele>
        <time>2024-11-05T17:13:23.159Z</time>
      </trkpt>
      <trkpt lat="44.07434" lon="3.6703">
        <ele>324.96</ele>
        <time>2024-11-05T17:13:37.628Z</time>
      </trkpt>
      <trkpt lat="44.07409" lon="3.67066">
        <ele>324.21</ele>
        <time>2024-11-05T17:13:52.102Z</time>
      </trkpt>
      <trkpt lat="44.07381" lon="3.67106">
        <ele>323.62</ele>
        <time>2024-11-05T17:14:06.583Z</time>
      </trkpt>
      <trkpt lat="44.07326" lon="3.67184">
        <ele>323.12</ele>
        <time>2024-11-05T17:14:21.076Z</time>
      </trkpt>
      <trkpt lat="44.07286" lon="3.67241">
        <ele>322.19</ele>
        <time>2024-11-05T17:14:35.579Z</time>
      </trkpt>
      <trkpt lat="44.07222" lon="3.67331">
        <ele>321.05</ele>
        <time>2024-11-05T17:14:50.096Z</time>
      </trkpt>
      <trkpt lat="44.0719" lon="3.6737">
        <ele>320.47</ele>
        <time>2024-11-05T17:15:04.620Z</time>
      </trkpt>
      <trkpt lat="44.07106" lon="3.67471">
        <ele>319.98</ele>
        <time>2024-11-05T17:15:19.162Z</time>
      </trkpt>
      <trkpt lat="44.07095" lon="3.67482">
        <ele>319.94</ele>
        <time>2024-11-05T17:15:33.706Z</time>
      </trkpt>
      <trkpt lat="44.06921" lon="3.67651">
        <ele>318.09</ele>
        <time>2024-11-05T17:15:48.284Z</time>
      </trkpt>
      <trkpt lat="44.0685" lon="3.67724">
        <ele>316.83</ele>
        <time>2024-11-05T17:16:02.876Z</time>
      </trkpt>
      <trkpt lat="44.06818" lon="3.67757">
        <ele>316.4</ele>
        <time>2024-11-05T17:16:17.474Z</time>
      </trkpt>
      <trkpt lat="44.06737" lon="3.67835">
        <ele>315.83</ele>
        <time>2024-11-05T17:16:32.088Z</time>
      </trkpt>
      <trkpt lat="44.06696" lon="3.67873">
        <ele>315.17</ele>
        <time>2024-11-05T17:16:46.710Z</time>
      </trkpt>
      <trkpt lat="44.06594" lon="3.67986">
        <ele>313.26</ele>
        <time>2024-11-05T17:17:01.353Z</time>
      </trkpt>
      <trkpt lat="44.06555" lon="3.68029">
        <ele>312.84</ele>
        <time>2024-11-05T17:17:16.004Z</time>
      </trkpt>
      <trkpt lat="44.06529" lon="3.68058">
        <ele>312.8</ele>
        <time>2024-11-05T17:17:30.660Z</time>
      </trkpt>
      <trkpt lat="44.06491" lon="3.68086">
        <ele>312.94</ele>
        <time>2024-11-05T17:17:45.323Z</time>
      </trkpt>
      <trkpt lat="44.06442" lon="3.68115">
        <ele>313.34</ele>
        <time>2024-11-05T17:17:59.995Z</time>
      </trkpt>
      <trkpt lat="44.06387" lon="3.68162">
        <ele>312.89</ele>
        <time>2024-11-05T17:18:14.677Z</time>
      </trkpt>
      <trkpt lat="44.06373" lon="3.68177">
        <ele>312.72</ele>
        <time>2024-11-05T17:18:29.362Z</time>
      </trkpt>
      <trkpt lat="44.0635" lon="3.68209">
        <ele>312.37</ele>
        <time>2024-11-05T17:18:44.052Z</time>
      </trkpt>
      <trkpt lat="44.06296" lon="3.68311">
        <ele>311.14</ele>
        <time>2024-11-05T17:18:58.757Z</time>
      </trkpt>
      <trkpt lat="44.06283" lon="3.68334">
        <ele>310.99</ele>
        <time>2024-11-05T17:19:13.465Z</time>
      </trkpt>
      <trkpt lat="44.06264" lon="3.68352">
        <ele>311.11</ele>
        <time>2024-11-05T17:19:28.177Z</time>
      </trkpt>
      <trkpt lat="44.06241" lon="3.68374">
        <ele>311.67</ele>
        <time>2024-11-05T17:19:42.893Z</time>
      </trkpt>
      <trkpt lat="44.062" lon="3.6841">
        <ele>313.08</ele>
        <time>2024-11-05T17:19:57.617Z</time>
      </trkpt>
      <trkpt lat="44.06176" lon="3.68424">
        <ele>313.68</ele>
        <time>2024-11-05T17:20:12.345Z</time>
      </trkpt>
      <trkpt lat="44.06149" lon="3.68432">
        <ele>314.03</ele>
        <time>2024-11-05T17:20:27.078Z</time>
      </trkpt>
      <trkpt lat="44.0613" lon="3.68438">
        <ele>313.99</ele>
        <time>2024-11-05T17:20:41.814Z</time>
      </trkpt>
      <trkpt lat="44.06094" lon="3.68458">
        <ele>313.58</ele>
        <time>2024-11-05T17:20:56.556Z</time>
      </trkpt>
      <trkpt lat="44.06063" lon="3.68482">
        <ele>312.71</ele>
        <time>2024-11-05T17:21:11.304Z</time>
      </trkpt>
      <trkpt lat="44.06033" lon="3.68506">
        <ele>311.35</ele>
        <time>2024-11-05T17:21:26.057Z</time>
      </trkpt>
      <trkpt lat="44.05998" lon="3.68526">
        <ele>309.58</ele>
        <time>2024-11-05T17:21:40.816Z</time>
      </trkpt>
      <trkpt lat="44.05953" lon="3.68544">
        <ele>307.5</ele>
        <time>2024-11-05T17:21:55.583Z</time>
      </trkpt>
      <trkpt lat="44.05931" lon="3.68548">
        <ele>306.57</ele>
        <time>2024-11-05T17:22:10.353Z</time>
      </trkpt>
      <trkpt lat="44.05919" lon="3.68543">
        <ele>306.11</ele>
        <time>2024-11-05T17:22:25.125Z</time>
      </trkpt>
      <trkpt lat="44.05911" lon="3.68533">
        <ele>305.89</ele>
        <time>2024-11-05T17:22:39.899Z</time>
      </trkpt>
      <trkpt lat="44.0591" lon="3.68523">
        <ele>305.7</ele>
        <time>2024-11-05T17:22:54.674Z</time>
      </trkpt>
      <trkpt lat="44.05914" lon="3.68471">
        <ele>304.91</ele>
        <time>2024-11-05T17:23:09.455Z</time>
      </trkpt>
      <trkpt lat="44.05907" lon="3.68453">
        <ele>304.68</ele>
        <time>2024-11-05T17:23:24.238Z</time>
      </trkpt>
      <trkpt lat="44.05893" lon="3.68438">
        <ele>304.37</ele>
        <time>2024-11-05T17:23:39.024Z</time>
      </trkpt>
      <trkpt lat="44.05875" lon="3.68428">
        <ele>304</ele>
        <time>2024-11-05T17:23:53.813Z</time>
      </trkpt>
      <trkpt lat="44.05839" lon="3.68417">
        <ele>303.08</ele>
        <time>2024-11-05T17:24:08.608Z</time>
      </trkpt>
      <trkpt lat="44.05827" lon="3.68417">
        <ele>302.77</ele>
        <time>2024-11-05T17:24:23.405Z</time>
      </trkpt>
      <trkpt lat="44.0581" lon="3.6842">
        <ele>302.25</ele>
        <time>2024-11-05T17:24:38.205Z</time>
      </trkpt>
      <trkpt lat="44.05769" lon="3.68431">
        <ele>300.96</ele>
        <time>2024-11-05T17:24:53.012Z</time>
      </trkpt>
      <trkpt lat="44.0575" lon="3.68439">
        <ele>300.49</ele>
        <time>2024-11-05T17:25:07.822Z</time>
      </trkpt>
      <trkpt lat="44.05663" lon="3.68489">
        <ele>298.3</ele>
        <time>2024-11-05T17:25:22.647Z</time>
      </trkpt>
      <trkpt lat="44.0564" lon="3.68503">
        <ele>297.9</ele>
        <time>2024-11-05T17:25:37.476Z</time>
      </trkpt>
      <trkpt lat="44.05613" lon="3.68513">
        <ele>297.55</ele>
        <time>2024-11-05T17:25:52.309Z</time>
      </trkpt>
      <trkpt lat="44.05581" lon="3.68522">
        <ele>297.03</ele>
        <time>2024-11-05T17:26:07.148Z</time>
      </trkpt>
      <trkpt lat="44.0557" lon="3.68527">
        <ele>296.83</ele>
        <time>2024-11-05T17:26:21.988Z</time>
      </trkpt>
      <trkpt lat="44.0553" lon="3.68558">
        <ele>295.92</ele>
        <time>2024-11-05T17:26:36.836Z</time>
      </trkpt>
      <trkpt lat="44.05505" lon="3.68576">
        <ele>295.56</ele>
        <time>2024-11-05T17:26:51.688Z</time>
      </trkpt>
      <trkpt lat="44.05494" lon="3.68588">
        <ele>295.38</ele>
        <time>2024-11-05T17:27:06.543Z</time>
      </trkpt>
      <trkpt lat="44.05472" lon="3.68619">
        <ele>294.85</ele>
        <time>2024-11-05T17:27:21.403Z</time>
      </trkpt>
      <trkpt lat="44.05452" lon="3.6864">
        <ele>294.42</ele>
        <time>2024-11-05T17:27:36.267Z</time>
      </trkpt>
      <trkpt lat="44.05425" lon="3.68665">
        <ele>294.2</ele>
        <time>2024-11-05T17:27:51.136Z</time>
      </trkpt>
      <trkpt lat="44.05383" lon="3.68699">
        <ele>294.12</ele>
        <time>2024-11-05T17:28:06.013Z</time>
      </trkpt>
      <trkpt lat="44.05318" lon="3.68768">
        <ele>293.95</ele>
        <time>2024-11-05T17:28:20.903Z</time>
      </trkpt>
      <trkpt lat="44.05306" lon="3.68783">
        <ele>293.91</ele>
        <time>2024-11-05T17:28:35.795Z</time>
      </trkpt>
      <trkpt lat="44.05289" lon="3.68809">
        <ele>293.79</ele>
        <time>2024-11-05T17:28:50.691Z</time>
      </trkpt>
      <trkpt lat="44.05258" lon="3.68863">
        <ele>293.38</ele>
        <time>2024-11-05T17:29:05.595Z</time>
      </trkpt>
      <trkpt lat="44.05224" lon="3.6891">
        <ele>292.75</ele>
        <time>2024-11-05T17:29:20.507Z</time>
      </trkpt>
      <trkpt lat="44.052" lon="3.68937">
        <ele>292.07</ele>
        <time>2024-11-05T17:29:35.424Z</time>
      </trkpt>
      <trkpt lat="44.05175" lon="3.68957">
        <ele>291.48</ele>
        <time>2024-11-05T17:29:50.345Z</time>
      </trkpt>
      <trkpt lat="44.05156" lon="3.68967">
        <ele>291.12</ele>
        <time>2024-11-05T17:30:05.270Z</time>
      </trkpt>
      <trkpt lat="44.05052" lon="3.69024">
        <ele>290.08</ele>
        <time>2024-11-05T17:30:20.213Z</time>
      </trkpt>
      <trkpt lat="44.05027" lon="3.69037">
        <ele>289.65</ele>
        <time>2024-11-05T17:30:35.160Z</time>
      </trkpt>
      <trkpt lat="44.04998" lon="3.69049">
        <ele>289.08</ele>
        <time>2024-11-05T17:30:50.112Z</time>
      </trkpt>
      <trkpt lat="44.04983" lon="3.69052">
        <ele>288.78</ele>
        <time>2024-11-05T17:31:05.066Z</time>
      </trkpt>
      <trkpt lat="44.04961" lon="3.69049">
        <ele>288.38</ele>
        <time>2024-11-05T17:31:20.024Z</time>
      </trkpt>
      <trkpt lat="44.04951" lon="3.69045">
        <ele>288.24</ele>
        <time>2024-11-05T17:31:34.983Z</time>
      </trkpt>
      <trkpt lat="44.04917" lon="3.69022">
        <ele>287.79</ele>
        <time>2024-11-05T17:31:49.948Z</time>
      </trkpt>
      <trkpt lat="44.04893" lon="3.69002">
        <ele>287.39</ele>
        <time>2024-11-05T17:32:04.918Z</time>
      </trkpt>
      <trkpt lat="44.04883" lon="3.68988">
        <ele>287.11</ele>
        <time>2024-11-05T17:32:19.890Z</time>
      </trkpt>
      <trkpt lat="44.04879" lon="3.68976">
        <ele>286.91</ele>
        <time>2024-11-05T17:32:34.864Z</time>
      </trkpt>
      <trkpt lat="44.04876" lon="3.68955">
        <ele>286.6</ele>
        <time>2024-11-05T17:32:49.840Z</time>
      </trkpt>
      <trkpt lat="44.0488" lon="3.68931">
        <ele>286.2</ele>
        <time>2024-11-05T17:33:04.819Z</time>
      </trkpt>
      <trkpt lat="44.04931" lon="3.68808">
        <ele>284.4</ele>
        <time>2024-11-05T17:33:19.814Z</time>
      </trkpt>
      <trkpt lat="44.04942" lon="3.68765">
        <ele>284.02</ele>
        <time>2024-11-05T17:33:34.815Z</time>
      </trkpt>
      <trkpt lat="44.04947" lon="3.68731">
        <ele>283.74</ele>
        <time>2024-11-05T17:33:49.820Z</time>
      </trkpt>
      <trkpt lat="44.04945" lon="3.68698">
        <ele>283.43</ele>
        <time>2024-11-05T17:34:04.828Z</time>
      </trkpt>
      <trkpt lat="44.04934" lon="3.68667">
        <ele>283.15</ele>
        <time>2024-11-05T17:34:19.840Z</time>
      </trkpt>
      <trkpt lat="44.04909" lon="3.68624">
        <ele>282.83</ele>
        <time>2024-11-05T17:34:34.859Z</time>
      </trkpt>
      <trkpt lat="44.04903" lon="3.68608">
        <ele>282.77</ele>
        <time>2024-11-05T17:34:49.880Z</time>
      </trkpt>
      <trkpt lat="44.04895" lon="3.68566">
        <ele>282.66</ele>
        <time>2024-11-05T17:35:04.906Z</time>
      </trkpt>
      <trkpt lat="44.04888" lon="3.68547">
        <ele>282.8</ele>
        <time>2024-11-05T17:35:19.934Z</time>
      </trkpt>
      <trkpt lat="44.04881" lon="3.68536">
        <ele>282.97</ele>
        <time>2024-11-05T17:35:34.964Z</time>
      </trkpt>
      <trkpt lat="44.04861" lon="3.68519">
        <ele>283.4</ele>
        <time>2024-11-05T17:35:49.998Z</time>
      </trkpt>
      <trkpt lat="44.04838" lon="3.68511">
        <ele>283.75</ele>
        <time>2024-11-05T17:36:05.036Z</time>
      </trkpt>
      <trkpt lat="44.04808" lon="3.68508">
        <ele>284</ele>
        <time>2024-11-05T17:36:20.078Z</time>
      </trkpt>
      <trkpt lat="44.04781" lon="3.68507">
        <ele>283.86</ele>
        <time>2024-11-05T17:36:35.125Z</time>
      </trkpt>
      <trkpt lat="44.04727" lon="3.68532">
        <ele>283.55</ele>
        <time>2024-11-05T17:36:50.181Z</time>
      </trkpt>
      <trkpt lat="44.04712" lon="3.68541">
        <ele>283.43</ele>
        <time>2024-11-05T17:37:05.240Z</time>
      </trkpt>
      <trkpt lat="44.047" lon="3.68554">
        <ele>283.35</ele>
        <time>2024-11-05T17:37:20.301Z</time>
      </trkpt>
      <trkpt lat="44.04659" lon="3.68607">
        <ele>283.02</ele>
        <time>2024-11-05T17:37:35.371Z</time>
      </trkpt>
      <trkpt lat="44.04635" lon="3.6863">
        <ele>282.83</ele>
        <time>2024-11-05T17:37:50.446Z</time>
      </trkpt>
      <trkpt lat="44.04582" lon="3.68647">
        <ele>282.52</ele>
        <time>2024-11-05T17:38:05.529Z</time>
      </trkpt>
      <trkpt lat="44.04573" lon="3.68647">
        <ele>282.49</ele>
        <time>2024-11-05T17:38:20.614Z</time>
      </trkpt>
      <trkpt lat="44.04564" lon="3.68644">
        <ele>282.44</ele>
        <time>2024-11-05T17:38:35.700Z</time>
      </trkpt>
      <trkpt lat="44.04556" lon="3.68637">
        <ele>282.38</ele>
        <time>2024-11-05T17:38:50.788Z</time>
      </trkpt>
      <trkpt lat="44.04549" lon="3.68627">
        <ele>282.3</ele>
        <time>2024-11-05T17:39:05.877Z</time>
      </trkpt>
      <trkpt lat="44.04529" lon="3.68584">
        <ele>282.06</ele>
        <time>2024-11-05T17:39:20.972Z</time>
      </trkpt>
      <trkpt lat="44.04517" lon="3.68558">
        <ele>282.12</ele>
        <time>2024-11-05T17:39:36.071Z</time>
      </trkpt>
      <trkpt lat="44.04492" lon="3.68529">
        <ele>281.87</ele>
        <time>2024-11-05T17:39:51.175Z</time>
      </trkpt>
      <trkpt lat="44.04485" lon="3.68515">
        <ele>281.75</ele>
        <time>2024-11-05T17:40:06.281Z</time>
      </trkpt>
      <trkpt lat="44.04479" lon="3.68489">
        <ele>281.55</ele>
        <time>2024-11-05T17:40:21.390Z</time>
      </trkpt>
      <trkpt lat="44.04463" lon="3.68355">
        <ele>281.03</ele>
        <time>2024-11-05T17:40:36.515Z</time>
      </trkpt>
      <trkpt lat="44.04459" lon="3.68322">
        <ele>280.78</ele>
        <time>2024-11-05T17:40:51.644Z</time>
      </trkpt>
      <trkpt lat="44.04458" lon="3.68287">
        <ele>280.5</ele>
        <time>2024-11-05T17:41:06.777Z</time>
      </trkpt>
      <trkpt lat="44.04467" lon="3.6825">
        <ele>280.28</ele>
        <time>2024-11-05T17:41:21.914Z</time>
      </trkpt>
      <trkpt lat="44.04497" lon="3.68195">
        <ele>279.98</ele>
        <time>2024-11-05T17:41:37.059Z</time>
      </trkpt>
      <trkpt lat="44.04502" lon="3.68181">
        <ele>279.93</ele>
        <time>2024-11-05T17:41:52.206Z</time>
      </trkpt>
      <trkpt lat="44.04506" lon="3.68145">
        <ele>279.8</ele>
        <time>2024-11-05T17:42:07.357Z</time>
      </trkpt>
      <trkpt lat="44.045" lon="3.6812">
        <ele>279.74</ele>
        <time>2024-11-05T17:42:22.511Z</time>
      </trkpt>
      <trkpt lat="44.04495" lon="3.68108">
        <ele>279.71</ele>
        <time>2024-11-05T17:42:37.667Z</time>
      </trkpt>
      <trkpt lat="44.04467" lon="3.68064">
        <ele>279.49</ele>
        <time>2024-11-05T17:42:52.830Z</time>
      </trkpt>
      <trkpt lat="44.0446" lon="3.68043">
        <ele>279.41</ele>
        <time>2024-11-05T17:43:07.995Z</time>
      </trkpt>
      <trkpt lat="44.04458" lon="3.68029">
        <ele>279.36</ele>
        <time>2024-11-05T17:43:23.162Z</time>
      </trkpt>
      <trkpt lat="44.0446" lon="3.67965">
        <ele>279.25</ele>
        <time>2024-11-05T17:43:38.336Z</time>
      </trkpt>
      <trkpt lat="44.04465" lon="3.67941">
        <ele>279.13</ele>
        <time>2024-11-05T17:43:53.513Z</time>
      </trkpt>
      <trkpt lat="44.04476" lon="3.6792">
        <ele>279</ele>
        <time>2024-11-05T17:44:08.693Z</time>
      </trkpt>
      <trkpt lat="44.04502" lon="3.6788">
        <ele>278.82</ele>
        <time>2024-11-05T17:44:23.879Z</time>
      </trkpt>
      <trkpt lat="44.0452" lon="3.67849">
        <ele>278.76</ele>
        <time>2024-11-05T17:44:39.070Z</time>
      </trkpt>
      <trkpt lat="44.04529" lon="3.67832">
        <ele>278.71</ele>
        <time>2024-11-05T17:44:54.263Z</time>
      </trkpt>
      <trkpt lat="44.04532" lon="3.6782">
        <ele>278.66</ele>
        <time>2024-11-05T17:45:09.458Z</time>
      </trkpt>
      <trkpt lat="44.04535" lon="3.67796">
        <ele>278.56</ele>
        <time>2024-11-05T17:45:24.656Z</time>
      </trkpt>
      <trkpt lat="44.04535" lon="3.67747">
        <ele>278.53</ele>
        <time>2024-11-05T17:45:39.859Z</time>
      </trkpt>
      <trkpt lat="44.04539" lon="3.67716">
        <ele>278.51</ele>
        <time>2024-11-05T17:45:55.066Z</time>
      </trkpt>
      <trkpt lat="44.04542" lon="3.67684">
        <ele>278.23</ele>
        <time>2024-11-05T17:46:10.277Z</time>
      </trkpt>
      <trkpt lat="44.04539" lon="3.67656">
        <ele>277.64</ele>
        <time>2024-11-05T17:46:25.491Z</time>
      </trkpt>
      <trkpt lat="44.04524" lon="3.67604">
        <ele>276.05</ele>
        <time>2024-11-05T17:46:40.711Z</time>
      </trkpt>
      <trkpt lat="44.04518" lon="3.67591">
        <ele>275.61</ele>
        <time>2024-11-05T17:46:55.933Z</time>
      </trkpt>
      <trkpt lat="44.04511" lon="3.67583">
        <ele>275.24</ele>
        <time>2024-11-05T17:47:11.157Z</time>
      </trkpt>
      <trkpt lat="44.04494" lon="3.6757">
        <ele>274.5</ele>
        <time>2024-11-05T17:47:26.384Z</time>
      </trkpt>
      <trkpt lat="44.04432" lon="3.67552">
        <ele>271.64</ele>
        <time>2024-11-05T17:47:41.621Z</time>
      </trkpt>
      <trkpt lat="44.04334" lon="3.67556">
        <ele>267.33</ele>
        <time>2024-11-05T17:47:56.874Z</time>
      </trkpt>
      <trkpt lat="44.04304" lon="3.67551">
        <ele>266.28</ele>
        <time>2024-11-05T17:48:12.131Z</time>
      </trkpt>
      <trkpt lat="44.04289" lon="3.67542">
        <ele>265.76</ele>
        <time>2024-11-05T17:48:27.391Z</time>
      </trkpt>
      <trkpt lat="44.04275" lon="3.67527">
        <ele>265.17</ele>
        <time>2024-11-05T17:48:42.654Z</time>
      </trkpt>
      <trkpt lat="44.04243" lon="3.67476">
        <ele>263.59</ele>
        <time>2024-11-05T17:48:57.925Z</time>
      </trkpt>
      <trkpt lat="44.04196" lon="3.67425">
        <ele>261.93</ele>
        <time>2024-11-05T17:49:13.205Z</time>
      </trkpt>
      <trkpt lat="44.04161" lon="3.67387">
        <ele>260.94</ele>
        <time>2024-11-05T17:49:28.492Z</time>
      </trkpt>
      <trkpt lat="44.04109" lon="3.67338">
        <ele>260.04</ele>
        <time>2024-11-05T17:49:43.789Z</time>
      </trkpt>
      <trkpt lat="44.04091" lon="3.67317">
        <ele>259.84</ele>
        <time>2024-11-05T17:49:59.090Z</time>
      </trkpt>
      <trkpt lat="44.04047" lon="3.67236">
        <ele>259.03</ele>
        <time>2024-11-05T17:50:14.403Z</time>
      </trkpt>
      <trkpt lat="44.04039" lon="3.67225">
        <ele>258.83</ele>
        <time>2024-11-05T17:50:29.718Z</time>
      </trkpt>
      <trkpt lat="44.04019" lon="3.67215">
        <ele>258.43</ele>
        <time>2024-11-05T17:50:45.036Z</time>
      </trkpt>
      <trkpt lat="44.03962" lon="3.6721">
        <ele>257.37</ele>
        <time>2024-11-05T17:51:00.363Z</time>
      </trkpt>
      <trkpt lat="44.03935" lon="3.67211">
        <ele>257</ele>
        <time>2024-11-05T17:51:15.695Z</time>
      </trkpt>
      <trkpt lat="44.03898" lon="3.67213">
        <ele>257.05</ele>
        <time>2024-11-05T17:51:31.032Z</time>
      </trkpt>
      <trkpt lat="44.03876" lon="3.6722">
        <ele>257.35</ele>
        <time>2024-11-05T17:51:46.373Z</time>
      </trkpt>
      <trkpt lat="44.03793" lon="3.67287">
        <ele>258.01</ele>
        <time>2024-11-05T17:52:01.729Z</time>
      </trkpt>
      <trkpt lat="44.03758" lon="3.67316">
        <ele>258.03</ele>
        <time>2024-11-05T17:52:17.092Z</time>
      </trkpt>
      <trkpt lat="44.03727" lon="3.67341">
        <ele>257.64</ele>
        <time>2024-11-05T17:52:32.461Z</time>
      </trkpt>
      <trkpt lat="44.03708" lon="3.67363">
        <ele>257.36</ele>
        <time>2024-11-05T17:52:47.834Z</time>
      </trkpt>
      <trkpt lat="44.03698" lon="3.67381">
        <ele>257.19</ele>
        <time>2024-11-05T17:53:03.209Z</time>
      </trkpt>
      <trkpt lat="44.03686" lon="3.67413">
        <ele>256.89</ele>
        <time>2024-11-05T17:53:18.588Z</time>
      </trkpt>
      <trkpt lat="44.03686" lon="3.67458">
        <ele>256.6</ele>
        <time>2024-11-05T17:53:33.973Z</time>
      </trkpt>
      <trkpt lat="44.0368" lon="3.67497">
        <ele>256.54</ele>
        <time>2024-11-05T17:53:49.362Z</time>
      </trkpt>
      <trkpt lat="44.03671" lon="3.67524">
        <ele>256.43</ele>
        <time>2024-11-05T17:54:04.755Z</time>
      </trkpt>
      <trkpt lat="44.03656" lon="3.67549">
        <ele>256.32</ele>
        <time>2024-11-05T17:54:20.151Z</time>
      </trkpt>
      <trkpt lat="44.03629" lon="3.67581">
        <ele>256.09</ele>
        <time>2024-11-05T17:54:35.553Z</time>
      </trkpt>
      <trkpt lat="44.03578" lon="3.67623">
        <ele>255.77</ele>
        <time>2024-11-05T17:54:50.965Z</time>
      </trkpt>
      <trkpt lat="44.03536" lon="3.67648">
        <ele>255.72</ele>
        <time>2024-11-05T17:55:06.384Z</time>
      </trkpt>
      <trkpt lat="44.03508" lon="3.67666">
        <ele>255.45</ele>
        <time>2024-11-05T17:55:21.808Z</time>
      </trkpt>
      <trkpt lat="44.03442" lon="3.67706">
        <ele>253.91</ele>
        <time>2024-11-05T17:55:37.243Z</time>
      </trkpt>
      <trkpt lat="44.03408" lon="3.67726">
        <ele>252.9</ele>
        <time>2024-11-05T17:55:52.684Z</time>
      </trkpt>
      <trkpt lat="44.03325" lon="3.67785">
        <ele>250.1</ele>
        <time>2024-11-05T17:56:08.140Z</time>
      </trkpt>
      <trkpt lat="44.0329" lon="3.6781">
        <ele>249.28</ele>
        <time>2024-11-05T17:56:23.603Z</time>
      </trkpt>
      <trkpt lat="44.03292" lon="3.67816">
        <ele>249.2</ele>
        <time>2024-11-05T17:56:39.066Z</time>
      </trkpt>
      <trkpt lat="44.03297" lon="3.6783">
        <ele>248.57</ele>
        <time>2024-11-05T17:56:54.531Z</time>
      </trkpt>
      <trkpt lat="44.033" lon="3.67835">
        <ele>248.29</ele>
        <time>2024-11-05T17:57:09.997Z</time>
      </trkpt>
      <trkpt lat="44.03312" lon="3.67853">
        <ele>247.8</ele>
        <time>2024-11-05T17:57:25.466Z</time>
      </trkpt>
      <trkpt lat="44.03323" lon="3.67871">
        <ele>247.71</ele>
        <time>2024-11-05T17:57:40.937Z</time>
      </trkpt>
      <trkpt lat="44.03335" lon="3.67893">
        <ele>247.99</ele>
        <time>2024-11-05T17:57:56.412Z</time>
      </trkpt>
      <trkpt lat="44.03334" lon="3.67902">
        <ele>248.21</ele>
        <time>2024-11-05T17:58:11.888Z</time>
      </trkpt>
      <trkpt lat="44.03319" lon="3.67932">
        <ele>249.18</ele>
        <time>2024-11-05T17:58:27.368Z</time>
      </trkpt>
      <trkpt lat="44.03302" lon="3.67967">
        <ele>250.85</ele>
        <time>2024-11-05T17:58:42.853Z</time>
      </trkpt>
      <trkpt lat="44.03298" lon="3.67977">
        <ele>251</ele>
        <time>2024-11-05T17:58:58.339Z</time>
      </trkpt>
      <trkpt lat="44.03293" lon="3.67986">
        <ele>251.4</ele>
        <time>2024-11-05T17:59:13.826Z</time>
      </trkpt>
      <trkpt lat="44.0329" lon="3.67997">
        <ele>251.84</ele>
        <time>2024-11-05T17:59:29.315Z</time>
      </trkpt>
      <trkpt lat="44.03291" lon="3.68006">
        <ele>252.24</ele>
        <time>2024-11-05T17:59:44.805Z</time>
      </trkpt>
      <trkpt lat="44.03298" lon="3.68013">
        <ele>252.79</ele>
        <time>2024-11-05T18:00:00.296Z</time>
      </trkpt>
      <trkpt lat="44.03303" lon="3.68013">
        <ele>253.1</ele>
        <time>2024-11-05T18:00:15.788Z</time>
      </trkpt>
      <trkpt lat="44.03306" lon="3.68009">
        <ele>253.25</ele>
        <time>2024-11-05T18:00:31.281Z</time>
      </trkpt>
      <trkpt lat="44.03311" lon="3.67982">
        <ele>253.82</ele>
        <time>2024-11-05T18:00:46.777Z</time>
      </trkpt>
      <trkpt lat="44.03332" lon="3.67937">
        <ele>254.77</ele>
        <time>2024-11-05T18:01:02.279Z</time>
      </trkpt>
      <trkpt lat="44.03343" lon="3.67923">
        <ele>255.22</ele>
        <time>2024-11-05T18:01:17.783Z</time>
      </trkpt>
      <trkpt lat="44.03353" lon="3.67914">
        <ele>255.67</ele>
        <time>2024-11-05T18:01:33.289Z</time>
      </trkpt>
      <trkpt lat="44.03396" lon="3.67892">
        <ele>257.92</ele>
        <time>2024-11-05T18:01:48.803Z</time>
      </trkpt>
      <trkpt lat="44.03412" lon="3.67875">
        <ele>259.05</ele>
        <time>2024-11-05T18:02:04.320Z</time>
      </trkpt>
      <trkpt lat="44.03422" lon="3.6787">
        <ele>259.65</ele>
        <time>2024-11-05T18:02:19.839Z</time>
      </trkpt>
      <trkpt lat="44.03432" lon="3.67868">
        <ele>260.18</ele>
        <time>2024-11-05T18:02:35.359Z</time>
      </trkpt>
      <trkpt lat="44.03458" lon="3.6787">
        <ele>261.44</ele>
        <time>2024-11-05T18:02:50.883Z</time>
      </trkpt>
      <trkpt lat="44.03475" lon="3.67861">
        <ele>262.22</ele>
        <time>2024-11-05T18:03:06.410Z</time>
      </trkpt>
      <trkpt lat="44.035" lon="3.67837">
        <ele>263.73</ele>
        <time>2024-11-05T18:03:21.942Z</time>
      </trkpt>
      <trkpt lat="44.0355" lon="3.67813">
        <ele>266.53</ele>
        <time>2024-11-05T18:03:37.483Z</time>
      </trkpt>
      <trkpt lat="44.03565" lon="3.67811">
        <ele>267.35</ele>
        <time>2024-11-05T18:03:53.026Z</time>
      </trkpt>
      <trkpt lat="44.03594" lon="3.67818">
        <ele>269.03</ele>
        <time>2024-11-05T18:04:08.574Z</time>
      </trkpt>
      <trkpt lat="44.03606" lon="3.67824">
        <ele>269.84</ele>
        <time>2024-11-05T18:04:24.124Z</time>
      </trkpt>
      <trkpt lat="44.03624" lon="3.67841">
        <ele>271.43</ele>
        <time>2024-11-05T18:04:39.677Z</time>
      </trkpt>
      <trkpt lat="44.03631" lon="3.67844">
        <ele>271.94</ele>
        <time>2024-11-05T18:04:55.231Z</time>
      </trkpt>
      <trkpt lat="44.03645" lon="3.67835">
        <ele>272.9</ele>
        <time>2024-11-05T18:05:10.788Z</time>
      </trkpt>
      <trkpt lat="44.03674" lon="3.67835">
        <ele>274.3</ele>
        <time>2024-11-05T18:05:26.350Z</time>
      </trkpt>
      <trkpt lat="44.03689" lon="3.67824">
        <ele>275.12</ele>
        <time>2024-11-05T18:05:41.914Z</time>
      </trkpt>
      <trkpt lat="44.03693" lon="3.67816">
        <ele>275.53</ele>
        <time>2024-11-05T18:05:57.479Z</time>
      </trkpt>
      <trkpt lat="44.037" lon="3.67794">
        <ele>276.54</ele>
        <time>2024-11-05T18:06:13.047Z</time>
      </trkpt>
      <trkpt lat="44.03707" lon="3.6778">
        <ele>277.28</ele>
        <time>2024-11-05T18:06:28.617Z</time>
      </trkpt>
      <trkpt lat="44.03714" lon="3.67772">
        <ele>277.79</ele>
        <time>2024-11-05T18:06:44.189Z</time>
      </trkpt>
      <trkpt lat="44.03728" lon="3.67761">
        <ele>278.63</ele>
        <time>2024-11-05T18:06:59.763Z</time>
      </trkpt>
      <trkpt lat="44.03774" lon="3.67738">
        <ele>281.13</ele>
        <time>2024-11-05T18:07:15.345Z</time>
      </trkpt>
      <trkpt lat="44.03802" lon="3.67717">
        <ele>282.83</ele>
        <time>2024-11-05T18:07:30.932Z</time>
      </trkpt>
      <trkpt lat="44.03819" lon="3.67708">
        <ele>283.91</ele>
        <time>2024-11-05T18:07:46.522Z</time>
      </trkpt>
      <trkpt lat="44.03834" lon="3.67704">
        <ele>284.88</ele>
        <time>2024-11-05T18:08:02.114Z</time>
      </trkpt>
      <trkpt lat="44.03874" lon="3.67699">
        <ele>287.4</ele>
        <time>2024-11-05T18:08:17.713Z</time>
      </trkpt>
      <trkpt lat="44.03881" lon="3.67693">
        <ele>287.9</ele>
        <time>2024-11-05T18:08:33.313Z</time>
      </trkpt>
      <trkpt lat="44.03888" lon="3.67683">
        <ele>288.5</ele>
        <time>2024-11-05T18:08:48.915Z</time>
      </trkpt>
      <trkpt lat="44.03888" lon="3.67667">
        <ele>289.22</ele>
        <time>2024-11-05T18:09:04.519Z</time>
      </trkpt>
      <trkpt lat="44.0388" lon="3.67622">
        <ele>291.12</ele>
        <time>2024-11-05T18:09:20.128Z</time>
      </trkpt>
      <trkpt lat="44.03883" lon="3.67604">
        <ele>291.84</ele>
        <time>2024-11-05T18:09:35.739Z</time>
      </trkpt>
      <trkpt lat="44.03889" lon="3.67596">
        <ele>292.28</ele>
        <time>2024-11-05T18:09:51.351Z</time>
      </trkpt>
      <trkpt lat="44.0392" lon="3.67577">
        <ele>294.09</ele>
        <time>2024-11-05T18:10:06.969Z</time>
      </trkpt>
      <trkpt lat="44.03927" lon="3.67567">
        <ele>294.7</ele>
        <time>2024-11-05T18:10:22.588Z</time>
      </trkpt>
      <trkpt lat="44.03932" lon="3.67555">
        <ele>295.33</ele>
        <time>2024-11-05T18:10:38.209Z</time>
      </trkpt>
      <trkpt lat="44.03939" lon="3.67475">
        <ele>299.41</ele>
        <time>2024-11-05T18:10:53.839Z</time>
      </trkpt>
      <trkpt lat="44.03943" lon="3.67465">
        <ele>300.04</ele>
        <time>2024-11-05T18:11:09.471Z</time>
      </trkpt>
      <trkpt lat="44.03949" lon="3.6746">
        <ele>300.59</ele>
        <time>2024-11-05T18:11:25.104Z</time>
      </trkpt>
      <trkpt lat="44.03955" lon="3.67459">
        <ele>301.07</ele>
        <time>2024-11-05T18:11:40.738Z</time>
      </trkpt>
      <trkpt lat="44.0396" lon="3.67463">
        <ele>301.48</ele>
        <time>2024-11-05T18:11:56.373Z</time>
      </trkpt>
      <trkpt lat="44.03963" lon="3.67469">
        <ele>301.9</ele>
        <time>2024-11-05T18:12:12.009Z</time>
      </trkpt>
      <trkpt lat="44.03959" lon="3.67491">
        <ele>302.91</ele>
        <time>2024-11-05T18:12:27.647Z</time>
      </trkpt>
      <trkpt lat="44.03954" lon="3.67515">
        <ele>303.64</ele>
        <time>2024-11-05T18:12:43.288Z</time>
      </trkpt>
      <trkpt lat="44.03953" lon="3.67528">
        <ele>304.06</ele>
        <time>2024-11-05T18:12:58.931Z</time>
      </trkpt>
      <trkpt lat="44.03957" lon="3.67564">
        <ele>305.62</ele>
        <time>2024-11-05T18:13:14.578Z</time>
      </trkpt>
      <trkpt lat="44.03957" lon="3.67592">
        <ele>306.89</ele>
        <time>2024-11-05T18:13:30.228Z</time>
      </trkpt>
      <trkpt lat="44.03951" lon="3.67605">
        <ele>307.56</ele>
        <time>2024-11-05T18:13:45.880Z</time>
      </trkpt>
      <trkpt lat="44.03928" lon="3.6763">
        <ele>309.49</ele>
        <time>2024-11-05T18:14:01.536Z</time>
      </trkpt>
      <trkpt lat="44.03924" lon="3.67641">
        <ele>310.07</ele>
        <time>2024-11-05T18:14:17.194Z</time>
      </trkpt>
      <trkpt lat="44.03923" lon="3.67659">
        <ele>310.9</ele>
        <time>2024-11-05T18:14:32.854Z</time>
      </trkpt>
      <trkpt lat="44.03925" lon="3.67678">
        <ele>311.77</ele>
        <time>2024-11-05T18:14:48.516Z</time>
      </trkpt>
      <trkpt lat="44.03939" lon="3.67738">
        <ele>314.65</ele>
        <time>2024-11-05T18:15:04.185Z</time>
      </trkpt>
      <trkpt lat="44.03939" lon="3.67754">
        <ele>315.37</ele>
        <time>2024-11-05T18:15:19.856Z</time>
      </trkpt>
      <trkpt lat="44.03935" lon="3.67769">
        <ele>316.08</ele>
        <time>2024-11-05T18:15:35.529Z</time>
      </trkpt>
      <trkpt lat="44.03926" lon="3.67781">
        <ele>316.82</ele>
        <time>2024-11-05T18:15:51.204Z</time>
      </trkpt>
      <trkpt lat="44.03915" lon="3.67786">
        <ele>317.51</ele>
        <time>2024-11-05T18:16:06.881Z</time>
      </trkpt>
      <trkpt lat="44.03884" lon="3.67786">
        <ele>319.3</ele>
        <time>2024-11-05T18:16:22.563Z</time>
      </trkpt>
      <trkpt lat="44.0387" lon="3.67789">
        <ele>320.22</ele>
        <time>2024-11-05T18:16:38.247Z</time>
      </trkpt>
      <trkpt lat="44.03859" lon="3.67795">
        <ele>321.08</ele>
        <time>2024-11-05T18:16:53.933Z</time>
      </trkpt>
      <trkpt lat="44.0383" lon="3.67837">
        <ele>324.08</ele>
        <time>2024-11-05T18:17:09.626Z</time>
      </trkpt>
      <trkpt lat="44.03826" lon="3.67854">
        <ele>324.93</ele>
        <time>2024-11-05T18:17:25.321Z</time>
      </trkpt>
      <trkpt lat="44.03826" lon="3.6787">
        <ele>325.69</ele>
        <time>2024-11-05T18:17:41.018Z</time>
      </trkpt>
      <trkpt lat="44.03833" lon="3.67902">
        <ele>327.27</ele>
        <time>2024-11-05T18:17:56.719Z</time>
      </trkpt>
      <trkpt lat="44.03833" lon="3.67917">
        <ele>328</ele>
        <time>2024-11-05T18:18:12.421Z</time>
      </trkpt>
      <trkpt lat="44.03824" lon="3.67939">
        <ele>329.22</ele>
        <time>2024-11-05T18:18:28.126Z</time>
      </trkpt>
      <trkpt lat="44.03814" lon="3.67947">
        <ele>330.01</ele>
        <time>2024-11-05T18:18:43.833Z</time>
      </trkpt>
      <trkpt lat="44.03792" lon="3.67951">
        <ele>331.53</ele>
        <time>2024-11-05T18:18:59.544Z</time>
      </trkpt>
      <trkpt lat="44.03776" lon="3.67961">
        <ele>332.63</ele>
        <time>2024-11-05T18:19:15.257Z</time>
      </trkpt>
      <trkpt lat="44.03771" lon="3.67978">
        <ele>333.41</ele>
        <time>2024-11-05T18:19:30.973Z</time>
      </trkpt>
      <trkpt lat="44.0377" lon="3.68009">
        <ele>334.66</ele>
        <time>2024-11-05T18:19:46.692Z</time>
      </trkpt>
      <trkpt lat="44.03768" lon="3.68021">
        <ele>335.12</ele>
        <time>2024-11-05T18:20:02.413Z</time>
      </trkpt>
      <trkpt lat="44.03765" lon="3.68028">
        <ele>335.43</ele>
        <time>2024-11-05T18:20:18.134Z</time>
      </trkpt>
      <trkpt lat="44.0374" lon="3.68054">
        <ele>337.01</ele>
        <time>2024-11-05T18:20:33.860Z</time>
      </trkpt>
      <trkpt lat="44.03708" lon="3.68073">
        <ele>338.82</ele>
        <time>2024-11-05T18:20:49.592Z</time>
      </trkpt>
      <trkpt lat="44.03694" lon="3.68074">
        <ele>339.61</ele>
        <time>2024-11-05T18:21:05.326Z</time>
      </trkpt>
      <trkpt lat="44.03673" lon="3.68068">
        <ele>341.13</ele>
        <time>2024-11-05T18:21:21.064Z</time>
      </trkpt>
      <trkpt lat="44.0366" lon="3.68068">
        <ele>342.1</ele>
        <time>2024-11-05T18:21:36.804Z</time>
      </trkpt>
      <trkpt lat="44.03644" lon="3.68073">
        <ele>343.37</ele>
        <time>2024-11-05T18:21:52.546Z</time>
      </trkpt>
      <trkpt lat="44.03636" lon="3.68079">
        <ele>344.04</ele>
        <time>2024-11-05T18:22:08.290Z</time>
      </trkpt>
      <trkpt lat="44.03633" lon="3.68086">
        <ele>344.44</ele>
        <time>2024-11-05T18:22:24.035Z</time>
      </trkpt>
      <trkpt lat="44.03626" lon="3.68122">
        <ele>346.3</ele>
        <time>2024-11-05T18:22:39.784Z</time>
      </trkpt>
      <trkpt lat="44.03622" lon="3.68131">
        <ele>346.82</ele>
        <time>2024-11-05T18:22:55.534Z</time>
      </trkpt>
      <trkpt lat="44.03614" lon="3.6814">
        <ele>347.53</ele>
        <time>2024-11-05T18:23:11.286Z</time>
      </trkpt>
      <trkpt lat="44.03603" lon="3.68144">
        <ele>348.39</ele>
        <time>2024-11-05T18:23:27.040Z</time>
      </trkpt>
      <trkpt lat="44.03588" lon="3.68159">
        <ele>349.58</ele>
        <time>2024-11-05T18:23:42.797Z</time>
      </trkpt>
      <trkpt lat="44.03582" lon="3.68172">
        <ele>350.33</ele>
        <time>2024-11-05T18:23:58.556Z</time>
      </trkpt>
      <trkpt lat="44.03575" lon="3.682">
        <ele>351.74</ele>
        <time>2024-11-05T18:24:14.318Z</time>
      </trkpt>
      <trkpt lat="44.03567" lon="3.6821">
        <ele>352.5</ele>
        <time>2024-11-05T18:24:30.082Z</time>
      </trkpt>
      <trkpt lat="44.03553" lon="3.68217">
        <ele>353.65</ele>
        <time>2024-11-05T18:24:45.848Z</time>
      </trkpt>
      <trkpt lat="44.03549" lon="3.68223">
        <ele>354.12</ele>
        <time>2024-11-05T18:25:01.615Z</time>
      </trkpt>
      <trkpt lat="44.03547" lon="3.68235">
        <ele>354.77</ele>
        <time>2024-11-05T18:25:17.383Z</time>
      </trkpt>
      <trkpt lat="44.03548" lon="3.68246">
        <ele>355.29</ele>
        <time>2024-11-05T18:25:33.153Z</time>
      </trkpt>
      <trkpt lat="44.03554" lon="3.68272">
        <ele>356.49</ele>
        <time>2024-11-05T18:25:48.926Z</time>
      </trkpt>
      <trkpt lat="44.03553" lon="3.68289">
        <ele>357.23</ele>
        <time>2024-11-05T18:26:04.701Z</time>
      </trkpt>
      <trkpt lat="44.03528" lon="3.68378">
        <ele>362.12</ele>
        <time>2024-11-05T18:26:20.487Z</time>
      </trkpt>
      <trkpt lat="44.03522" lon="3.68423">
        <ele>364.34</ele>
        <time>2024-11-05T18:26:36.278Z</time>
      </trkpt>
      <trkpt lat="44.03517" lon="3.68436">
        <ele>365.06</ele>
        <time>2024-11-05T18:26:52.071Z</time>
      </trkpt>
      <trkpt lat="44.0349" lon="3.6847">
        <ele>367.61</ele>
        <time>2024-11-05T18:27:07.870Z</time>
      </trkpt>
      <trkpt lat="44.03489" lon="3.68479">
        <ele>368.06</ele>
        <time>2024-11-05T18:27:23.670Z</time>
      </trkpt>
      <trkpt lat="44.03493" lon="3.68527">
        <ele>368.68</ele>
        <time>2024-11-05T18:27:39.475Z</time>
      </trkpt>
      <trkpt lat="44.03485" lon="3.68562">
        <ele>368.83</ele>
        <time>2024-11-05T18:27:55.285Z</time>
      </trkpt>
      <trkpt lat="44.03481" lon="3.68605">
        <ele>368.63</ele>
        <time>2024-11-05T18:28:11.100Z</time>
      </trkpt>
      <trkpt lat="44.03474" lon="3.68616">
        <ele>368.51</ele>
        <time>2024-11-05T18:28:26.916Z</time>
      </trkpt>
      <trkpt lat="44.03458" lon="3.68631">
        <ele>368.42</ele>
        <time>2024-11-05T18:28:42.735Z</time>
      </trkpt>
      <trkpt lat="44.03453" lon="3.68642">
        <ele>368.47</ele>
        <time>2024-11-05T18:28:58.556Z</time>
      </trkpt>
      <trkpt lat="44.0345" lon="3.68657">
        <ele>368.62</ele>
        <time>2024-11-05T18:29:14.379Z</time>
      </trkpt>
      <trkpt lat="44.03451" lon="3.68668">
        <ele>368.75</ele>
        <time>2024-11-05T18:29:30.203Z</time>
      </trkpt>
      <trkpt lat="44.03467" lon="3.68706">
        <ele>369.58</ele>
        <time>2024-11-05T18:29:46.032Z</time>
      </trkpt>
      <trkpt lat="44.03469" lon="3.68717">
        <ele>369.88</ele>
        <time>2024-11-05T18:30:01.862Z</time>
      </trkpt>
      <trkpt lat="44.03468" lon="3.68731">
        <ele>370.31</ele>
        <time>2024-11-05T18:30:17.694Z</time>
      </trkpt>
      <trkpt lat="44.0346" lon="3.68757">
        <ele>371.46</ele>
        <time>2024-11-05T18:30:33.529Z</time>
      </trkpt>
      <trkpt lat="44.03442" lon="3.68785">
        <ele>373.21</ele>
        <time>2024-11-05T18:30:49.369Z</time>
      </trkpt>
      <trkpt lat="44.03438" lon="3.688">
        <ele>373.96</ele>
        <time>2024-11-05T18:31:05.210Z</time>
      </trkpt>
      <trkpt lat="44.03441" lon="3.6882">
        <ele>374.87</ele>
        <time>2024-11-05T18:31:21.054Z</time>
      </trkpt>
      <trkpt lat="44.03447" lon="3.68829">
        <ele>375.4</ele>
        <time>2024-11-05T18:31:36.899Z</time>
      </trkpt>
      <trkpt lat="44.0346" lon="3.68834">
        <ele>376.12</ele>
        <time>2024-11-05T18:31:52.746Z</time>
      </trkpt>
      <trkpt lat="44.03488" lon="3.68857">
        <ele>377.65</ele>
        <time>2024-11-05T18:32:08.598Z</time>
      </trkpt>
      <trkpt lat="44.03496" lon="3.68866">
        <ele>378.15</ele>
        <time>2024-11-05T18:32:24.452Z</time>
      </trkpt>
      <trkpt lat="44.03501" lon="3.68876">
        <ele>378.58</ele>
        <time>2024-11-05T18:32:40.308Z</time>
      </trkpt>
      <trkpt lat="44.03504" lon="3.68888">
        <ele>379.04</ele>
        <time>2024-11-05T18:32:56.165Z</time>
      </trkpt>
      <trkpt lat="44.035" lon="3.68915">
        <ele>380.05</ele>
        <time>2024-11-05T18:33:12.025Z</time>
      </trkpt>
      <trkpt lat="44.03507" lon="3.68976">
        <ele>382.68</ele>
        <time>2024-11-05T18:33:27.892Z</time>
      </trkpt>
      <trkpt lat="44.03504" lon="3.68994">
        <ele>383.48</ele>
        <time>2024-11-05T18:33:43.761Z</time>
      </trkpt>
      <trkpt lat="44.035" lon="3.69003">
        <ele>383.92</ele>
        <time>2024-11-05T18:33:59.632Z</time>
      </trkpt>
      <trkpt lat="44.03484" lon="3.69026">
        <ele>385.36</ele>
        <time>2024-11-05T18:34:15.506Z</time>
      </trkpt>
      <trkpt lat="44.03481" lon="3.69046">
        <ele>386.31</ele>
        <time>2024-11-05T18:34:31.383Z</time>
      </trkpt>
      <trkpt lat="44.03501" lon="3.69107">
        <ele>389.17</ele>
        <time>2024-11-05T18:34:47.267Z</time>
      </trkpt>
      <trkpt lat="44.03517" lon="3.69134">
        <ele>390.97</ele>
        <time>2024-11-05T18:35:03.155Z</time>
      </trkpt>
      <trkpt lat="44.0352" lon="3.69143">
        <ele>391.48</ele>
        <time>2024-11-05T18:35:19.045Z</time>
      </trkpt>
      <trkpt lat="44.0352" lon="3.69153">
        <ele>391.95</ele>
        <time>2024-11-05T18:35:34.936Z</time>
      </trkpt>
      <trkpt lat="44.03508" lon="3.6917">
        <ele>392.97</ele>
        <time>2024-11-05T18:35:50.830Z</time>
      </trkpt>
      <trkpt lat="44.03503" lon="3.69196">
        <ele>394.1</ele>
        <time>2024-11-05T18:36:06.727Z</time>
      </trkpt>
      <trkpt lat="44.03496" lon="3.69208">
        <ele>394.79</ele>
        <time>2024-11-05T18:36:22.625Z</time>
      </trkpt>
      <trkpt lat="44.0349" lon="3.69212">
        <ele>395.21</ele>
        <time>2024-11-05T18:36:38.524Z</time>
      </trkpt>
      <trkpt lat="44.03483" lon="3.69213">
        <ele>395.65</ele>
        <time>2024-11-05T18:36:54.425Z</time>
      </trkpt>
      <trkpt lat="44.03475" lon="3.69211">
        <ele>396.16</ele>
        <time>2024-11-05T18:37:10.327Z</time>
      </trkpt>
      <trkpt lat="44.03463" lon="3.69201">
        <ele>396.94</ele>
        <time>2024-11-05T18:37:26.231Z</time>
      </trkpt>
      <trkpt lat="44.03442" lon="3.69184">
        <ele>397.94</ele>
        <time>2024-11-05T18:37:42.139Z</time>
      </trkpt>
      <trkpt lat="44.03409" lon="3.69165">
        <ele>399.62</ele>
        <time>2024-11-05T18:37:58.053Z</time>
      </trkpt>
      <trkpt lat="44.03384" lon="3.69155">
        <ele>401.11</ele>
        <time>2024-11-05T18:38:13.971Z</time>
      </trkpt>
      <trkpt lat="44.03369" lon="3.69153">
        <ele>402.1</ele>
        <time>2024-11-05T18:38:29.891Z</time>
      </trkpt>
      <trkpt lat="44.03357" lon="3.69156">
        <ele>402.91</ele>
        <time>2024-11-05T18:38:45.813Z</time>
      </trkpt>
      <trkpt lat="44.03345" lon="3.69166">
        <ele>403.69</ele>
        <time>2024-11-05T18:39:01.738Z</time>
      </trkpt>
      <trkpt lat="44.03337" lon="3.69185">
        <ele>404.43</ele>
        <time>2024-11-05T18:39:17.665Z</time>
      </trkpt>
      <trkpt lat="44.03332" lon="3.69203">
        <ele>405.01</ele>
        <time>2024-11-05T18:39:33.594Z</time>
      </trkpt>
      <trkpt lat="44.03322" lon="3.69216">
        <ele>405.6</ele>
        <time>2024-11-05T18:39:49.525Z</time>
      </trkpt>
      <trkpt lat="44.03309" lon="3.69224">
        <ele>406.32</ele>
        <time>2024-11-05T18:40:05.459Z</time>
      </trkpt>
      <trkpt lat="44.0324" lon="3.6924">
        <ele>410.5</ele>
        <time>2024-11-05T18:40:21.404Z</time>
      </trkpt>
      <trkpt lat="44.03227" lon="3.69247">
        <ele>411.15</ele>
        <time>2024-11-05T18:40:37.351Z</time>
      </trkpt>
      <trkpt lat="44.03219" lon="3.69254">
        <ele>411.57</ele>
        <time>2024-11-05T18:40:53.300Z</time>
      </trkpt>
      <trkpt lat="44.03202" lon="3.69286">
        <ele>413.02</ele>
        <time>2024-11-05T18:41:09.253Z</time>
      </trkpt>
      <trkpt lat="44.03195" lon="3.69296">
        <ele>413.56</ele>
        <time>2024-11-05T18:41:25.208Z</time>
      </trkpt>
      <trkpt lat="44.03186" lon="3.69301">
        <ele>414.06</ele>
        <time>2024-11-05T18:41:41.164Z</time>
      </trkpt>
      <trkpt lat="44.03173" lon="3.69303">
        <ele>414.73</ele>
        <time>2024-11-05T18:41:57.123Z</time>
      </trkpt>
      <trkpt lat="44.03157" lon="3.69301">
        <ele>415.61</ele>
        <time>2024-11-05T18:42:13.084Z</time>
      </trkpt>
      <trkpt lat="44.03145" lon="3.69294">
        <ele>416.32</ele>
        <time>2024-11-05T18:42:29.047Z</time>
      </trkpt>
      <trkpt lat="44.03134" lon="3.69284">
        <ele>417.04</ele>
        <time>2024-11-05T18:42:45.012Z</time>
      </trkpt>
      <trkpt lat="44.03121" lon="3.69265">
        <ele>418.17</ele>
        <time>2024-11-05T18:43:00.980Z</time>
      </trkpt>
      <trkpt lat="44.03113" lon="3.69258">
        <ele>418.72</ele>
        <time>2024-11-05T18:43:16.950Z</time>
      </trkpt>
      <trkpt lat="44.03088" lon="3.69251">
        <ele>420.21</ele>
        <time>2024-11-05T18:43:32.924Z</time>
      </trkpt>
      <trkpt lat="44.03077" lon="3.69242">
        <ele>420.96</ele>
        <time>2024-11-05T18:43:48.900Z</time>
      </trkpt>
      <trkpt lat="44.03067" lon="3.69223">
        <ele>421.9</ele>
        <time>2024-11-05T18:44:04.879Z</time>
      </trkpt>
      <trkpt lat="44.03058" lon="3.69193">
        <ele>423.04</ele>
        <time>2024-11-05T18:44:20.861Z</time>
      </trkpt>
      <trkpt lat="44.0304" lon="3.69164">
        <ele>424.43</ele>
        <time>2024-11-05T18:44:36.848Z</time>
      </trkpt>
      <trkpt lat="44.03009" lon="3.69115">
        <ele>427.04</ele>
        <time>2024-11-05T18:44:52.842Z</time>
      </trkpt>
      <trkpt lat="44.02996" lon="3.69105">
        <ele>427.87</ele>
        <time>2024-11-05T18:45:08.839Z</time>
      </trkpt>
      <trkpt lat="44.02988" lon="3.69102">
        <ele>428.34</ele>
        <time>2024-11-05T18:45:24.837Z</time>
      </trkpt>
      <trkpt lat="44.02972" lon="3.69107">
        <ele>429.24</ele>
        <time>2024-11-05T18:45:40.838Z</time>
      </trkpt>
      <trkpt lat="44.02966" lon="3.69114">
        <ele>429.69</ele>
        <time>2024-11-05T18:45:56.840Z</time>
      </trkpt>
      <trkpt lat="44.02959" lon="3.6913">
        <ele>430.32</ele>
        <time>2024-11-05T18:46:12.844Z</time>
      </trkpt>
      <trkpt lat="44.0295" lon="3.69204">
        <ele>432.58</ele>
        <time>2024-11-05T18:46:28.857Z</time>
      </trkpt>
      <trkpt lat="44.02946" lon="3.69241">
        <ele>433.92</ele>
        <time>2024-11-05T18:46:44.874Z</time>
      </trkpt>
      <trkpt lat="44.0294" lon="3.69252">
        <ele>434.44</ele>
        <time>2024-11-05T18:47:00.893Z</time>
      </trkpt>
      <trkpt lat="44.02932" lon="3.69261">
        <ele>435.12</ele>
        <time>2024-11-05T18:47:16.913Z</time>
      </trkpt>
      <trkpt lat="44.02906" lon="3.69278">
        <ele>436.59</ele>
        <time>2024-11-05T18:47:32.938Z</time>
      </trkpt>
      <trkpt lat="44.02884" lon="3.69288">
        <ele>437.67</ele>
        <time>2024-11-05T18:47:48.967Z</time>
      </trkpt>
      <trkpt lat="44.0283" lon="3.69297">
        <ele>440.26</ele>
        <time>2024-11-05T18:48:05.004Z</time>
      </trkpt>
      <trkpt lat="44.02817" lon="3.69297">
        <ele>440.92</ele>
        <time>2024-11-05T18:48:21.043Z</time>
      </trkpt>
      <trkpt lat="44.02743" lon="3.69279">
        <ele>444.79</ele>
        <time>2024-11-05T18:48:37.094Z</time>
      </trkpt>
      <trkpt lat="44.02684" lon="3.69257">
        <ele>448.22</ele>
        <time>2024-11-05T18:48:53.155Z</time>
      </trkpt>
      <trkpt lat="44.02639" lon="3.69252">
        <ele>450.37</ele>
        <time>2024-11-05T18:49:09.223Z</time>
      </trkpt>
      <trkpt lat="44.02625" lon="3.69253">
        <ele>451.13</ele>
        <time>2024-11-05T18:49:25.294Z</time>
      </trkpt>
      <trkpt lat="44.02607" lon="3.69257">
        <ele>452.15</ele>
        <time>2024-11-05T18:49:41.368Z</time>
      </trkpt>
      <trkpt lat="44.02594" lon="3.69262">
        <ele>452.84</ele>
        <time>2024-11-05T18:49:57.444Z</time>
      </trkpt>
      <trkpt lat="44.02557" lon="3.69286">
        <ele>454.82</ele>
        <time>2024-11-05T18:50:13.526Z</time>
      </trkpt>
      <trkpt lat="44.02535" lon="3.69307">
        <ele>456.02</ele>
        <time>2024-11-05T18:50:29.613Z</time>
      </trkpt>
      <trkpt lat="44.02526" lon="3.69319">
        <ele>456.68</ele>
        <time>2024-11-05T18:50:45.702Z</time>
      </trkpt>
      <trkpt lat="44.0252" lon="3.69334">
        <ele>457.41</ele>
        <time>2024-11-05T18:51:01.793Z</time>
      </trkpt>
      <trkpt lat="44.02519" lon="3.69346">
        <ele>457.98</ele>
        <time>2024-11-05T18:51:17.885Z</time>
      </trkpt>
      <trkpt lat="44.02528" lon="3.69368">
        <ele>459.04</ele>
        <time>2024-11-05T18:51:33.980Z</time>
      </trkpt>
      <trkpt lat="44.02538" lon="3.69384">
        <ele>459.73</ele>
        <time>2024-11-05T18:51:50.077Z</time>
      </trkpt>
      <trkpt lat="44.0255" lon="3.69398">
        <ele>460.45</ele>
        <time>2024-11-05T18:52:06.177Z</time>
      </trkpt>
      <trkpt lat="44.02568" lon="3.69409">
        <ele>461.47</ele>
        <time>2024-11-05T18:52:22.280Z</time>
      </trkpt>
      <trkpt lat="44.02593" lon="3.69416">
        <ele>462.87</ele>
        <time>2024-11-05T18:52:38.387Z</time>
      </trkpt>
      <trkpt lat="44.02609" lon="3.69418">
        <ele>463.81</ele>
        <time>2024-11-05T18:52:54.497Z</time>
      </trkpt>
      <trkpt lat="44.02637" lon="3.69417">
        <ele>465.58</ele>
        <time>2024-11-05T18:53:10.611Z</time>
      </trkpt>
      <trkpt lat="44.0272" lon="3.69443">
        <ele>470.76</ele>
        <time>2024-11-05T18:53:26.739Z</time>
      </trkpt>
      <trkpt lat="44.02781" lon="3.69452">
        <ele>474.37</ele>
        <time>2024-11-05T18:53:42.876Z</time>
      </trkpt>
      <trkpt lat="44.02804" lon="3.69452">
        <ele>475.75</ele>
        <time>2024-11-05T18:53:59.017Z</time>
      </trkpt>
      <trkpt lat="44.02892" lon="3.69438">
        <ele>481</ele>
        <time>2024-11-05T18:54:15.172Z</time>
      </trkpt>
      <trkpt lat="44.0291" lon="3.69433">
        <ele>482.05</ele>
        <time>2024-11-05T18:54:31.330Z</time>
      </trkpt>
      <trkpt lat="44.02961" lon="3.69395">
        <ele>485.34</ele>
        <time>2024-11-05T18:54:47.498Z</time>
      </trkpt>
      <trkpt lat="44.02977" lon="3.69387">
        <ele>486.43</ele>
        <time>2024-11-05T18:55:03.668Z</time>
      </trkpt>
      <trkpt lat="44.03004" lon="3.69383">
        <ele>488.15</ele>
        <time>2024-11-05T18:55:19.843Z</time>
      </trkpt>
      <trkpt lat="44.03018" lon="3.69389">
        <ele>489.04</ele>
        <time>2024-11-05T18:55:36.020Z</time>
      </trkpt>
      <trkpt lat="44.03038" lon="3.69405">
        <ele>490.45</ele>
        <time>2024-11-05T18:55:52.201Z</time>
      </trkpt>
      <trkpt lat="44.03064" lon="3.69451">
        <ele>492.82</ele>
        <time>2024-11-05T18:56:08.388Z</time>
      </trkpt>
      <trkpt lat="44.03074" lon="3.69464">
        <ele>493.47</ele>
        <time>2024-11-05T18:56:24.578Z</time>
      </trkpt>
      <trkpt lat="44.03083" lon="3.69478">
        <ele>494.02</ele>
        <time>2024-11-05T18:56:40.770Z</time>
      </trkpt>
      <trkpt lat="44.0309" lon="3.69486">
        <ele>493.87</ele>
        <time>2024-11-05T18:56:56.963Z</time>
      </trkpt>
      <trkpt lat="44.03097" lon="3.69493">
        <ele>494.24</ele>
        <time>2024-11-05T18:57:13.158Z</time>
      </trkpt>
      <trkpt lat="44.0314" lon="3.69538">
        <ele>497.21</ele>
        <time>2024-11-05T18:57:29.361Z</time>
      </trkpt>
      <trkpt lat="44.0316" lon="3.69558">
        <ele>498.29</ele>
        <time>2024-11-05T18:57:45.568Z</time>
      </trkpt>
      <trkpt lat="44.03174" lon="3.69575">
        <ele>499.09</ele>
        <time>2024-11-05T18:58:01.778Z</time>
      </trkpt>
      <trkpt lat="44.03197" lon="3.69608">
        <ele>500.44</ele>
        <time>2024-11-05T18:58:17.993Z</time>
      </trkpt>
      <trkpt lat="44.03209" lon="3.69627">
        <ele>501.28</ele>
        <time>2024-11-05T18:58:34.211Z</time>
      </trkpt>
      <trkpt lat="44.03221" lon="3.69646">
        <ele>502.37</ele>
        <time>2024-11-05T18:58:50.432Z</time>
      </trkpt>
      <trkpt lat="44.03247" lon="3.69689">
        <ele>505.38</ele>
        <time>2024-11-05T18:59:06.660Z</time>
      </trkpt>
      <trkpt lat="44.03281" lon="3.69748">
        <ele>510.34</ele>
        <time>2024-11-05T18:59:22.896Z</time>
      </trkpt>
      <trkpt lat="44.03289" lon="3.69757">
        <ele>511.2</ele>
        <time>2024-11-05T18:59:39.134Z</time>
      </trkpt>
      <trkpt lat="44.03295" lon="3.6977">
        <ele>512.07</ele>
        <time>2024-11-05T18:59:55.374Z</time>
      </trkpt>
      <trkpt lat="44.03294" lon="3.69783">
        <ele>512.65</ele>
        <time>2024-11-05T19:00:11.615Z</time>
      </trkpt>
      <trkpt lat="44.0328" lon="3.69807">
        <ele>513.85</ele>
        <time>2024-11-05T19:00:27.860Z</time>
      </trkpt>
      <trkpt lat="44.03261" lon="3.69847">
        <ele>515.47</ele>
        <time>2024-11-05T19:00:44.110Z</time>
      </trkpt>
      <trkpt lat="44.03249" lon="3.69865">
        <ele>516.4</ele>
        <time>2024-11-05T19:01:00.363Z</time>
      </trkpt>
      <trkpt lat="44.03245" lon="3.69877">
        <ele>516.91</ele>
        <time>2024-11-05T19:01:16.618Z</time>
      </trkpt>
      <trkpt lat="44.03246" lon="3.69903">
        <ele>517.89</ele>
        <time>2024-11-05T19:01:32.876Z</time>
      </trkpt>
      <trkpt lat="44.0325" lon="3.69927">
        <ele>518.62</ele>
        <time>2024-11-05T19:01:49.137Z</time>
      </trkpt>
      <trkpt lat="44.03249" lon="3.69933">
        <ele>518.81</ele>
        <time>2024-11-05T19:02:05.398Z</time>
      </trkpt>
      <trkpt lat="44.03235" lon="3.6996">
        <ele>520.05</ele>
        <time>2024-11-05T19:02:21.663Z</time>
      </trkpt>
      <trkpt lat="44.03229" lon="3.6998">
        <ele>521.11</ele>
        <time>2024-11-05T19:02:37.931Z</time>
      </trkpt>
      <trkpt lat="44.03226" lon="3.69995">
        <ele>521.89</ele>
        <time>2024-11-05T19:02:54.201Z</time>
      </trkpt>
      <trkpt lat="44.03226" lon="3.70005">
        <ele>522.48</ele>
        <time>2024-11-05T19:03:10.472Z</time>
      </trkpt>
      <trkpt lat="44.0323" lon="3.7002">
        <ele>523.44</ele>
        <time>2024-11-05T19:03:26.745Z</time>
      </trkpt>
      <trkpt lat="44.03246" lon="3.70047">
        <ele>525.85</ele>
        <time>2024-11-05T19:03:43.022Z</time>
      </trkpt>
      <trkpt lat="44.03252" lon="3.70068">
        <ele>527.01</ele>
        <time>2024-11-05T19:03:59.301Z</time>
      </trkpt>
      <trkpt lat="44.03252" lon="3.70092">
        <ele>528.23</ele>
        <time>2024-11-05T19:04:15.583Z</time>
      </trkpt>
      <trkpt lat="44.03257" lon="3.70145">
        <ele>530.92</ele>
        <time>2024-11-05T19:04:31.871Z</time>
      </trkpt>
      <trkpt lat="44.0327" lon="3.70177">
        <ele>532.78</ele>
        <time>2024-11-05T19:04:48.163Z</time>
      </trkpt>
      <trkpt lat="44.03281" lon="3.70195">
        <ele>534.24</ele>
        <time>2024-11-05T19:05:04.458Z</time>
      </trkpt>
      <trkpt lat="44.03284" lon="3.70204">
        <ele>534.84</ele>
        <time>2024-11-05T19:05:20.754Z</time>
      </trkpt>
      <trkpt lat="44.03288" lon="3.70233">
        <ele>536.71</ele>
        <time>2024-11-05T19:05:37.054Z</time>
      </trkpt>
      <trkpt lat="44.03296" lon="3.70258">
        <ele>538.29</ele>
        <time>2024-11-05T19:05:53.357Z</time>
      </trkpt>
      <trkpt lat="44.03302" lon="3.70267">
        <ele>539.18</ele>
        <time>2024-11-05T19:06:09.661Z</time>
      </trkpt>
      <trkpt lat="44.03313" lon="3.70278">
        <ele>540.43</ele>
        <time>2024-11-05T19:06:25.967Z</time>
      </trkpt>
      <trkpt lat="44.03343" lon="3.70292">
        <ele>543.34</ele>
        <time>2024-11-05T19:06:42.278Z</time>
      </trkpt>
      <trkpt lat="44.03366" lon="3.70295">
        <ele>545.47</ele>
        <time>2024-11-05T19:06:58.593Z</time>
      </trkpt>
      <trkpt lat="44.03376" lon="3.70301">
        <ele>546.36</ele>
        <time>2024-11-05T19:07:14.910Z</time>
      </trkpt>
      <trkpt lat="44.03389" lon="3.70329">
        <ele>547.96</ele>
        <time>2024-11-05T19:07:31.231Z</time>
      </trkpt>
      <trkpt lat="44.03408" lon="3.70357">
        <ele>549.72</ele>
        <time>2024-11-05T19:07:47.556Z</time>
      </trkpt>
      <trkpt lat="44.03417" lon="3.70386">
        <ele>551.3</ele>
        <time>2024-11-05T19:08:03.885Z</time>
      </trkpt>
      <trkpt lat="44.03419" lon="3.70403">
        <ele>552.08</ele>
        <time>2024-11-05T19:08:20.216Z</time>
      </trkpt>
      <trkpt lat="44.03407" lon="3.70456">
        <ele>554.55</ele>
        <time>2024-11-05T19:08:36.553Z</time>
      </trkpt>
      <trkpt lat="44.03387" lon="3.70551">
        <ele>559.52</ele>
        <time>2024-11-05T19:08:52.902Z</time>
      </trkpt>
      <trkpt lat="44.03386" lon="3.70571">
        <ele>560.54</ele>
        <time>2024-11-05T19:09:09.253Z</time>
      </trkpt>
      <trkpt lat="44.03385" lon="3.70598">
        <ele>562.41</ele>
        <time>2024-11-05T19:09:25.607Z</time>
      </trkpt>
      <trkpt lat="44.03399" lon="3.70665">
        <ele>566.56</ele>
        <time>2024-11-05T19:09:41.969Z</time>
      </trkpt>
      <trkpt lat="44.03403" lon="3.70672">
        <ele>567.04</ele>
        <time>2024-11-05T19:09:58.332Z</time>
      </trkpt>
      <trkpt lat="44.03408" lon="3.70677">
        <ele>567.44</ele>
        <time>2024-11-05T19:10:14.696Z</time>
      </trkpt>
      <trkpt lat="44.03448" lon="3.70705">
        <ele>570.66</ele>
        <time>2024-11-05T19:10:31.067Z</time>
      </trkpt>
      <trkpt lat="44.03453" lon="3.70713">
        <ele>571.19</ele>
        <time>2024-11-05T19:10:47.439Z</time>
      </trkpt>
      <trkpt lat="44.0346" lon="3.70734">
        <ele>572.34</ele>
        <time>2024-11-05T19:11:03.814Z</time>
      </trkpt>
      <trkpt lat="44.03466" lon="3.70784">
        <ele>575.04</ele>
        <time>2024-11-05T19:11:20.195Z</time>
      </trkpt>
      <trkpt lat="44.03469" lon="3.70816">
        <ele>576.5</ele>
        <time>2024-11-05T19:11:36.580Z</time>
      </trkpt>
      <trkpt lat="44.03474" lon="3.70841">
        <ele>577.83</ele>
        <time>2024-11-05T19:11:52.968Z</time>
      </trkpt>
      <trkpt lat="44.03496" lon="3.70911">
        <ele>581.55</ele>
        <time>2024-11-05T19:12:09.365Z</time>
      </trkpt>
      <trkpt lat="44.03498" lon="3.70924">
        <ele>582.16</ele>
        <time>2024-11-05T19:12:25.763Z</time>
      </trkpt>
      <trkpt lat="44.03495" lon="3.7095">
        <ele>583.41</ele>
        <time>2024-11-05T19:12:42.164Z</time>
      </trkpt>
      <trkpt lat="44.03485" lon="3.70981">
        <ele>585.1</ele>
        <time>2024-11-05T19:12:58.569Z</time>
      </trkpt>
      <trkpt lat="44.03483" lon="3.70994">
        <ele>585.79</ele>
        <time>2024-11-05T19:13:14.976Z</time>
      </trkpt>
      <trkpt lat="44.03485" lon="3.71006">
        <ele>586.41</ele>
        <time>2024-11-05T19:13:31.384Z</time>
      </trkpt>
      <trkpt lat="44.03488" lon="3.71014">
        <ele>586.87</ele>
        <time>2024-11-05T19:13:47.793Z</time>
      </trkpt>
      <trkpt lat="44.03533" lon="3.71081">
        <ele>591.11</ele>
        <time>2024-11-05T19:14:04.213Z</time>
      </trkpt>
      <trkpt lat="44.03565" lon="3.71107">
        <ele>593.69</ele>
        <time>2024-11-05T19:14:20.639Z</time>
      </trkpt>
      <trkpt lat="44.03618" lon="3.7115">
        <ele>597.46</ele>
        <time>2024-11-05T19:14:37.074Z</time>
      </trkpt>
      <trkpt lat="44.03622" lon="3.7116">
        <ele>597.91</ele>
        <time>2024-11-05T19:14:53.511Z</time>
      </trkpt>
      <trkpt lat="44.03632" lon="3.71224">
        <ele>600.51</ele>
        <time>2024-11-05T19:15:09.955Z</time>
      </trkpt>
      <trkpt lat="44.03635" lon="3.71248">
        <ele>601.22</ele>
        <time>2024-11-05T19:15:26.402Z</time>
      </trkpt>
      <trkpt lat="44.0364" lon="3.71273">
        <ele>601.5</ele>
        <time>2024-11-05T19:15:42.852Z</time>
      </trkpt>
      <trkpt lat="44.03653" lon="3.71351">
        <ele>601.61</ele>
        <time>2024-11-05T19:15:59.311Z</time>
      </trkpt>
      <trkpt lat="44.03659" lon="3.71388">
        <ele>601.94</ele>
        <time>2024-11-05T19:16:15.775Z</time>
      </trkpt>
      <trkpt lat="44.03662" lon="3.71419">
        <ele>602.45</ele>
        <time>2024-11-05T19:16:32.242Z</time>
      </trkpt>
      <trkpt lat="44.03667" lon="3.71464">
        <ele>603.94</ele>
        <time>2024-11-05T19:16:48.715Z</time>
      </trkpt>
      <trkpt lat="44.03676" lon="3.7149">
        <ele>605.11</ele>
        <time>2024-11-05T19:17:05.191Z</time>
      </trkpt>
      <trkpt lat="44.03695" lon="3.71516">
        <ele>606.7</ele>
        <time>2024-11-05T19:17:21.671Z</time>
      </trkpt>
      <trkpt lat="44.03707" lon="3.71528">
        <ele>607.62</ele>
        <time>2024-11-05T19:17:38.153Z</time>
      </trkpt>
      <trkpt lat="44.03717" lon="3.71542">
        <ele>608.45</ele>
        <time>2024-11-05T19:17:54.638Z</time>
      </trkpt>
      <trkpt lat="44.0373" lon="3.71568">
        <ele>609.79</ele>
        <time>2024-11-05T19:18:11.126Z</time>
      </trkpt>
      <trkpt lat="44.03744" lon="3.71604">
        <ele>611.62</ele>
        <time>2024-11-05T19:18:27.619Z</time>
      </trkpt>
      <trkpt lat="44.03768" lon="3.71648">
        <ele>614.09</ele>
        <time>2024-11-05T19:18:44.119Z</time>
      </trkpt>
      <trkpt lat="44.03773" lon="3.71672">
        <ele>615.15</ele>
        <time>2024-11-05T19:19:00.621Z</time>
      </trkpt>
      <trkpt lat="44.03769" lon="3.71694">
        <ele>616.12</ele>
        <time>2024-11-05T19:19:17.126Z</time>
      </trkpt>
      <trkpt lat="44.03752" lon="3.71717">
        <ele>617.91</ele>
        <time>2024-11-05T19:19:33.635Z</time>
      </trkpt>
      <trkpt lat="44.03724" lon="3.71771">
        <ele>620.86</ele>
        <time>2024-11-05T19:19:50.151Z</time>
      </trkpt>
      <trkpt lat="44.03676" lon="3.71832">
        <ele>624.23</ele>
        <time>2024-11-05T19:20:06.678Z</time>
      </trkpt>
      <trkpt lat="44.03658" lon="3.71854">
        <ele>625.34</ele>
        <time>2024-11-05T19:20:23.209Z</time>
      </trkpt>
      <trkpt lat="44.0365" lon="3.71867">
        <ele>625.86</ele>
        <time>2024-11-05T19:20:39.742Z</time>
      </trkpt>
      <trkpt lat="44.03633" lon="3.71918">
        <ele>627.75</ele>
        <time>2024-11-05T19:20:56.281Z</time>
      </trkpt>
      <trkpt lat="44.0363" lon="3.71944">
        <ele>628.7</ele>
        <time>2024-11-05T19:21:12.823Z</time>
      </trkpt>
      <trkpt lat="44.0363" lon="3.71955">
        <ele>629.07</ele>
        <time>2024-11-05T19:21:29.366Z</time>
      </trkpt>
      <trkpt lat="44.03631" lon="3.71979">
        <ele>628.86</ele>
        <time>2024-11-05T19:21:45.912Z</time>
      </trkpt>
      <trkpt lat="44.03633" lon="3.71995">
        <ele>628.44</ele>
        <time>2024-11-05T19:22:02.460Z</time>
      </trkpt>
      <trkpt lat="44.03638" lon="3.72002">
        <ele>628.12</ele>
        <time>2024-11-05T19:22:19.009Z</time>
      </trkpt>
      <trkpt lat="44.03653" lon="3.72015">
        <ele>627.28</ele>
        <time>2024-11-05T19:22:35.561Z</time>
      </trkpt>
      <trkpt lat="44.03671" lon="3.72064">
        <ele>625.32</ele>
        <time>2024-11-05T19:22:52.119Z</time>
      </trkpt>
      <trkpt lat="44.03681" lon="3.72096">
        <ele>624.03</ele>
        <time>2024-11-05T19:23:08.681Z</time>
      </trkpt>
      <trkpt lat="44.03685" lon="3.72102">
        <ele>623.72</ele>
        <time>2024-11-05T19:23:25.244Z</time>
      </trkpt>
      <trkpt lat="44.03729" lon="3.72136">
        <ele>621.42</ele>
        <time>2024-11-05T19:23:41.815Z</time>
      </trkpt>
      <trkpt lat="44.03757" lon="3.72165">
        <ele>619.97</ele>
        <time>2024-11-05T19:23:58.392Z</time>
      </trkpt>
      <trkpt lat="44.03774" lon="3.72172">
        <ele>619.39</ele>
        <time>2024-11-05T19:24:14.972Z</time>
      </trkpt>
      <trkpt lat="44.03796" lon="3.72175">
        <ele>618.67</ele>
        <time>2024-11-05T19:24:31.555Z</time>
      </trkpt>
      <trkpt lat="44.03803" lon="3.72185">
        <ele>618.27</ele>
        <time>2024-11-05T19:24:48.140Z</time>
      </trkpt>
      <trkpt lat="44.03813" lon="3.72218">
        <ele>617.09</ele>
        <time>2024-11-05T19:25:04.729Z</time>
      </trkpt>
      <trkpt lat="44.03822" lon="3.72236">
        <ele>616.34</ele>
        <time>2024-11-05T19:25:21.321Z</time>
      </trkpt>
      <trkpt lat="44.03838" lon="3.7226">
        <ele>615.22</ele>
        <time>2024-11-05T19:25:37.916Z</time>
      </trkpt>
      <trkpt lat="44.03852" lon="3.72312">
        <ele>613.57</ele>
        <time>2024-11-05T19:25:54.518Z</time>
      </trkpt>
      <trkpt lat="44.03854" lon="3.72339">
        <ele>612.91</ele>
        <time>2024-11-05T19:26:11.123Z</time>
      </trkpt>
      <trkpt lat="44.03851" lon="3.72375">
        <ele>612.17</ele>
        <time>2024-11-05T19:26:27.732Z</time>
      </trkpt>
      <trkpt lat="44.03853" lon="3.72388">
        <ele>611.95</ele>
        <time>2024-11-05T19:26:44.343Z</time>
      </trkpt>
      <trkpt lat="44.03846" lon="3.72394">
        <ele>611.76</ele>
        <time>2024-11-05T19:27:00.955Z</time>
      </trkpt>
      <trkpt lat="44.03816" lon="3.72412">
        <ele>610.5</ele>
        <time>2024-11-05T19:27:17.572Z</time>
      </trkpt>
      <trkpt lat="44.03782" lon="3.72437">
        <ele>608.35</ele>
        <time>2024-11-05T19:27:34.195Z</time>
      </trkpt>
      <trkpt lat="44.03715" lon="3.7248">
        <ele>604.33</ele>
        <time>2024-11-05T19:27:50.830Z</time>
      </trkpt>
      <trkpt lat="44.03695" lon="3.72503">
        <ele>603.03</ele>
        <time>2024-11-05T19:28:07.469Z</time>
      </trkpt>
      <trkpt lat="44.03689" lon="3.72513">
        <ele>602.57</ele>
        <time>2024-11-05T19:28:24.110Z</time>
      </trkpt>
      <trkpt lat="44.03681" lon="3.72519">
        <ele>602.06</ele>
        <time>2024-11-05T19:28:40.752Z</time>
      </trkpt>
      <trkpt lat="44.03673" lon="3.72519">
        <ele>601.63</ele>
        <time>2024-11-05T19:28:57.396Z</time>
      </trkpt>
      <trkpt lat="44.03666" lon="3.72516">
        <ele>601.21</ele>
        <time>2024-11-05T19:29:14.041Z</time>
      </trkpt>
      <trkpt lat="44.03652" lon="3.72502">
        <ele>600.17</ele>
        <time>2024-11-05T19:29:30.689Z</time>
      </trkpt>
      <trkpt lat="44.03625" lon="3.72488">
        <ele>598.55</ele>
        <time>2024-11-05T19:29:47.341Z</time>
      </trkpt>
      <trkpt lat="44.03602" lon="3.72489">
        <ele>597.37</ele>
        <time>2024-11-05T19:30:03.997Z</time>
      </trkpt>
      <trkpt lat="44.03585" lon="3.72504">
        <ele>596.57</ele>
        <time>2024-11-05T19:30:20.656Z</time>
      </trkpt>
      <trkpt lat="44.03572" lon="3.72521">
        <ele>595.75</ele>
        <time>2024-11-05T19:30:37.318Z</time>
      </trkpt>
      <trkpt lat="44.03553" lon="3.72546">
        <ele>594.09</ele>
        <time>2024-11-05T19:30:53.984Z</time>
      </trkpt>
      <trkpt lat="44.03536" lon="3.72579">
        <ele>592.36</ele>
        <time>2024-11-05T19:31:10.655Z</time>
      </trkpt>
      <trkpt lat="44.03529" lon="3.72588">
        <ele>591.88</ele>
        <time>2024-11-05T19:31:27.327Z</time>
      </trkpt>
      <trkpt lat="44.03513" lon="3.72601">
        <ele>590.98</ele>
        <time>2024-11-05T19:31:44.002Z</time>
      </trkpt>
      <trkpt lat="44.03479" lon="3.72602">
        <ele>589.36</ele>
        <time>2024-11-05T19:32:00.683Z</time>
      </trkpt>
      <trkpt lat="44.03472" lon="3.72605">
        <ele>589.04</ele>
        <time>2024-11-05T19:32:17.365Z</time>
      </trkpt>
      <trkpt lat="44.03465" lon="3.72616">
        <ele>588.57</ele>
        <time>2024-11-05T19:32:34.049Z</time>
      </trkpt>
      <trkpt lat="44.0344" lon="3.7268">
        <ele>585.8</ele>
        <time>2024-11-05T19:32:50.741Z</time>
      </trkpt>
      <trkpt lat="44.03439" lon="3.7269">
        <ele>585.43</ele>
        <time>2024-11-05T19:33:07.434Z</time>
      </trkpt>
      <trkpt lat="44.03441" lon="3.727">
        <ele>585.03</ele>
        <time>2024-11-05T19:33:24.128Z</time>
      </trkpt>
      <trkpt lat="44.03472" lon="3.72752">
        <ele>582.12</ele>
        <time>2024-11-05T19:33:40.830Z</time>
      </trkpt>
      <trkpt lat="44.03505" lon="3.72825">
        <ele>579.08</ele>
        <time>2024-11-05T19:33:57.542Z</time>
      </trkpt>
      <trkpt lat="44.03509" lon="3.7284">
        <ele>578.48</ele>
        <time>2024-11-05T19:34:14.256Z</time>
      </trkpt>
      <trkpt lat="44.03509" lon="3.72852">
        <ele>578.02</ele>
        <time>2024-11-05T19:34:30.971Z</time>
      </trkpt>
      <trkpt lat="44.03505" lon="3.7288">
        <ele>576.9</ele>
        <time>2024-11-05T19:34:47.690Z</time>
      </trkpt>
      <trkpt lat="44.03496" lon="3.72905">
        <ele>575.92</ele>
        <time>2024-11-05T19:35:04.412Z</time>
      </trkpt>
      <trkpt lat="44.03453" lon="3.72998">
        <ele>571.82</ele>
        <time>2024-11-05T19:35:21.147Z</time>
      </trkpt>
      <trkpt lat="44.03435" lon="3.73038">
        <ele>570.23</ele>
        <time>2024-11-05T19:35:37.887Z</time>
      </trkpt>
      <trkpt lat="44.03402" lon="3.73102">
        <ele>567.15</ele>
        <time>2024-11-05T19:35:54.636Z</time>
      </trkpt>
      <trkpt lat="44.03383" lon="3.73135">
        <ele>565.57</ele>
        <time>2024-11-05T19:36:11.390Z</time>
      </trkpt>
      <trkpt lat="44.03371" lon="3.73153">
        <ele>564.68</ele>
        <time>2024-11-05T19:36:28.147Z</time>
      </trkpt>
      <trkpt lat="44.03333" lon="3.73207">
        <ele>562.01</ele>
        <time>2024-11-05T19:36:44.913Z</time>
      </trkpt>
      <trkpt lat="44.03311" lon="3.73233">
        <ele>560.61</ele>
        <time>2024-11-05T19:37:01.683Z</time>
      </trkpt>
      <trkpt lat="44.03278" lon="3.73263">
        <ele>558.68</ele>
        <time>2024-11-05T19:37:18.460Z</time>
      </trkpt>
      <trkpt lat="44.03246" lon="3.73276">
        <ele>557.21</ele>
        <time>2024-11-05T19:37:35.242Z</time>
      </trkpt>
      <trkpt lat="44.03206" lon="3.73274">
        <ele>555.66</ele>
        <time>2024-11-05T19:37:52.030Z</time>
      </trkpt>
      <trkpt lat="44.03185" lon="3.73278">
        <ele>554.83</ele>
        <time>2024-11-05T19:38:08.822Z</time>
      </trkpt>
      <trkpt lat="44.03139" lon="3.7331">
        <ele>552.25</ele>
        <time>2024-11-05T19:38:25.622Z</time>
      </trkpt>
      <trkpt lat="44.03105" lon="3.73325">
        <ele>550.52</ele>
        <time>2024-11-05T19:38:42.428Z</time>
      </trkpt>
      <trkpt lat="44.03076" lon="3.73336">
        <ele>549.31</ele>
        <time>2024-11-05T19:38:59.238Z</time>
      </trkpt>
      <trkpt lat="44.03062" lon="3.73336">
        <ele>548.79</ele>
        <time>2024-11-05T19:39:16.051Z</time>
      </trkpt>
      <trkpt lat="44.03043" lon="3.73309">
        <ele>547.45</ele>
        <time>2024-11-05T19:39:32.868Z</time>
      </trkpt>
      <trkpt lat="44.03034" lon="3.73305">
        <ele>546.86</ele>
        <time>2024-11-05T19:39:49.687Z</time>
      </trkpt>
      <trkpt lat="44.03026" lon="3.73307">
        <ele>546.32</ele>
        <time>2024-11-05T19:40:06.507Z</time>
      </trkpt>
      <trkpt lat="44.0302" lon="3.73312">
        <ele>545.83</ele>
        <time>2024-11-05T19:40:23.328Z</time>
      </trkpt>
      <trkpt lat="44.03017" lon="3.73319">
        <ele>545.43</ele>
        <time>2024-11-05T19:40:40.150Z</time>
      </trkpt>
      <trkpt lat="44.03015" lon="3.7333">
        <ele>544.89</ele>
        <time>2024-11-05T19:40:56.973Z</time>
      </trkpt>
      <trkpt lat="44.03018" lon="3.73344">
        <ele>544.26</ele>
        <time>2024-11-05T19:41:13.798Z</time>
      </trkpt>
      <trkpt lat="44.03025" lon="3.7335">
        <ele>543.79</ele>
        <time>2024-11-05T19:41:30.624Z</time>
      </trkpt>
      <trkpt lat="44.03036" lon="3.73353">
        <ele>543.31</ele>
        <time>2024-11-05T19:41:47.452Z</time>
      </trkpt>
      <trkpt lat="44.0307" lon="3.73351">
        <ele>542.03</ele>
        <time>2024-11-05T19:42:04.285Z</time>
      </trkpt>
      <trkpt lat="44.03118" lon="3.73348">
        <ele>539.6</ele>
        <time>2024-11-05T19:42:21.126Z</time>
      </trkpt>
      <trkpt lat="44.03156" lon="3.73342">
        <ele>537.76</ele>
        <time>2024-11-05T19:42:37.973Z</time>
      </trkpt>
      <trkpt lat="44.03194" lon="3.73328">
        <ele>535.92</ele>
        <time>2024-11-05T19:42:54.827Z</time>
      </trkpt>
      <trkpt lat="44.03207" lon="3.73326">
        <ele>535.1</ele>
        <time>2024-11-05T19:43:11.683Z</time>
      </trkpt>
      <trkpt lat="44.03216" lon="3.7333">
        <ele>534.45</ele>
        <time>2024-11-05T19:43:28.540Z</time>
      </trkpt>
      <trkpt lat="44.03235" lon="3.73353">
        <ele>532.7</ele>
        <time>2024-11-05T19:43:45.401Z</time>
      </trkpt>
      <trkpt lat="44.03243" lon="3.73355">
        <ele>532.17</ele>
        <time>2024-11-05T19:44:02.263Z</time>
      </trkpt>
      <trkpt lat="44.03259" lon="3.73355">
        <ele>531.12</ele>
        <time>2024-11-05T19:44:19.128Z</time>
      </trkpt>
      <trkpt lat="44.03278" lon="3.7335">
        <ele>530</ele>
        <time>2024-11-05T19:44:35.996Z</time>
      </trkpt>
      <trkpt lat="44.03339" lon="3.73342">
        <ele>526.64</ele>
        <time>2024-11-05T19:44:52.874Z</time>
      </trkpt>
      <trkpt lat="44.03355" lon="3.73338">
        <ele>525.77</ele>
        <time>2024-11-05T19:45:09.755Z</time>
      </trkpt>
      <trkpt lat="44.03364" lon="3.73334">
        <ele>525.28</ele>
        <time>2024-11-05T19:45:26.637Z</time>
      </trkpt>
      <trkpt lat="44.03379" lon="3.73317">
        <ele>524.35</ele>
        <time>2024-11-05T19:45:43.522Z</time>
      </trkpt>
      <trkpt lat="44.03388" lon="3.73311">
        <ele>523.91</ele>
        <time>2024-11-05T19:46:00.409Z</time>
      </trkpt>
      <trkpt lat="44.03399" lon="3.73309">
        <ele>523.28</ele>
        <time>2024-11-05T19:46:17.298Z</time>
      </trkpt>
      <trkpt lat="44.03417" lon="3.7331">
        <ele>522.23</ele>
        <time>2024-11-05T19:46:34.189Z</time>
      </trkpt>
      <trkpt lat="44.0343" lon="3.73306">
        <ele>521.42</ele>
        <time>2024-11-05T19:46:51.083Z</time>
      </trkpt>
      <trkpt lat="44.03437" lon="3.73301">
        <ele>520.95</ele>
        <time>2024-11-05T19:47:07.978Z</time>
      </trkpt>
      <trkpt lat="44.03445" lon="3.73283">
        <ele>520.05</ele>
        <time>2024-11-05T19:47:24.875Z</time>
      </trkpt>
      <trkpt lat="44.03453" lon="3.73245">
        <ele>518.53</ele>
        <time>2024-11-05T19:47:41.777Z</time>
      </trkpt>
      <trkpt lat="44.03458" lon="3.73236">
        <ele>518.13</ele>
        <time>2024-11-05T19:47:58.680Z</time>
      </trkpt>
      <trkpt lat="44.03477" lon="3.73228">
        <ele>517.07</ele>
        <time>2024-11-05T19:48:15.586Z</time>
      </trkpt>
      <trkpt lat="44.03487" lon="3.73221">
        <ele>516.46</ele>
        <time>2024-11-05T19:48:32.494Z</time>
      </trkpt>
      <trkpt lat="44.03494" lon="3.73212">
        <ele>515.94</ele>
        <time>2024-11-05T19:48:49.404Z</time>
      </trkpt>
      <trkpt lat="44.03508" lon="3.7318">
        <ele>514.47</ele>
        <time>2024-11-05T19:49:06.318Z</time>
      </trkpt>
      <trkpt lat="44.03525" lon="3.73132">
        <ele>512.45</ele>
        <time>2024-11-05T19:49:23.238Z</time>
      </trkpt>
      <trkpt lat="44.03528" lon="3.731">
        <ele>511.17</ele>
        <time>2024-11-05T19:49:40.162Z</time>
      </trkpt>
      <trkpt lat="44.03532" lon="3.73094">
        <ele>510.84</ele>
        <time>2024-11-05T19:49:57.087Z</time>
      </trkpt>
      <trkpt lat="44.03564" lon="3.73075">
        <ele>508.9</ele>
        <time>2024-11-05T19:50:14.017Z</time>
      </trkpt>
      <trkpt lat="44.03578" lon="3.73049">
        <ele>507.76</ele>
        <time>2024-11-05T19:50:30.951Z</time>
      </trkpt>
      <trkpt lat="44.03584" lon="3.73041">
        <ele>507.4</ele>
        <time>2024-11-05T19:50:47.886Z</time>
      </trkpt>
      <trkpt lat="44.03622" lon="3.73008">
        <ele>505.24</ele>
        <time>2024-11-05T19:51:04.829Z</time>
      </trkpt>
      <trkpt lat="44.03634" lon="3.72991">
        <ele>504.35</ele>
        <time>2024-11-05T19:51:21.774Z</time>
      </trkpt>
      <trkpt lat="44.03644" lon="3.72971">
        <ele>503.4</ele>
        <time>2024-11-05T19:51:38.722Z</time>
      </trkpt>
      <trkpt lat="44.03664" lon="3.72901">
        <ele>500.82</ele>
        <time>2024-11-05T19:51:55.679Z</time>
      </trkpt>
      <trkpt lat="44.03667" lon="3.72868">
        <ele>499.7</ele>
        <time>2024-11-05T19:52:12.640Z</time>
      </trkpt>
      <trkpt lat="44.0367" lon="3.72852">
        <ele>499.19</ele>
        <time>2024-11-05T19:52:29.603Z</time>
      </trkpt>
      <trkpt lat="44.03675" lon="3.72841">
        <ele>498.8</ele>
        <time>2024-11-05T19:52:46.567Z</time>
      </trkpt>
      <trkpt lat="44.03687" lon="3.72834">
        <ele>498.22</ele>
        <time>2024-11-05T19:53:03.533Z</time>
      </trkpt>
      <trkpt lat="44.03695" lon="3.72836">
        <ele>497.85</ele>
        <time>2024-11-05T19:53:20.500Z</time>
      </trkpt>
      <trkpt lat="44.03701" lon="3.7284">
        <ele>497.44</ele>
        <time>2024-11-05T19:53:37.469Z</time>
      </trkpt>
      <trkpt lat="44.03704" lon="3.72846">
        <ele>497.1</ele>
        <time>2024-11-05T19:53:54.438Z</time>
      </trkpt>
      <trkpt lat="44.03705" lon="3.72855">
        <ele>496.65</ele>
        <time>2024-11-05T19:54:11.408Z</time>
      </trkpt>
      <trkpt lat="44.03702" lon="3.72884">
        <ele>495.21</ele>
        <time>2024-11-05T19:54:28.382Z</time>
      </trkpt>
      <trkpt lat="44.03702" lon="3.729">
        <ele>494.38</ele>
        <time>2024-11-05T19:54:45.358Z</time>
      </trkpt>
      <trkpt lat="44.03706" lon="3.72925">
        <ele>493.28</ele>
        <time>2024-11-05T19:55:02.337Z</time>
      </trkpt>
      <trkpt lat="44.03712" lon="3.72945">
        <ele>492.48</ele>
        <time>2024-11-05T19:55:19.318Z</time>
      </trkpt>
      <trkpt lat="44.03715" lon="3.7295">
        <ele>492.27</ele>
        <time>2024-11-05T19:55:36.300Z</time>
      </trkpt>
      <trkpt lat="44.0372" lon="3.72953">
        <ele>492.04</ele>
        <time>2024-11-05T19:55:53.283Z</time>
      </trkpt>
      <trkpt lat="44.03728" lon="3.72952">
        <ele>491.71</ele>
        <time>2024-11-05T19:56:10.267Z</time>
      </trkpt>
      <trkpt lat="44.03737" lon="3.72958">
        <ele>491.34</ele>
        <time>2024-11-05T19:56:27.253Z</time>
      </trkpt>
      <trkpt lat="44.03741" lon="3.72964">
        <ele>491.14</ele>
        <time>2024-11-05T19:56:44.240Z</time>
      </trkpt>
      <trkpt lat="44.03743" lon="3.72978">
        <ele>491.03</ele>
        <time>2024-11-05T19:57:01.228Z</time>
      </trkpt>
      <trkpt lat="44.03738" lon="3.72994">
        <ele>490.88</ele>
        <time>2024-11-05T19:57:18.218Z</time>
      </trkpt>
      <trkpt lat="44.03693" lon="3.73051">
        <ele>487.27</ele>
        <time>2024-11-05T19:57:35.218Z</time>
      </trkpt>
      <trkpt lat="44.0368" lon="3.73084">
        <ele>485.81</ele>
        <time>2024-11-05T19:57:52.222Z</time>
      </trkpt>
      <trkpt lat="44.03665" lon="3.73146">
        <ele>483.09</ele>
        <time>2024-11-05T19:58:09.234Z</time>
      </trkpt>
      <trkpt lat="44.03658" lon="3.73163">
        <ele>482.17</ele>
        <time>2024-11-05T19:58:26.248Z</time>
      </trkpt>
      <trkpt lat="44.0362" lon="3.73227">
        <ele>478.43</ele>
        <time>2024-11-05T19:58:43.272Z</time>
      </trkpt>
      <trkpt lat="44.03614" lon="3.73241">
        <ele>477.76</ele>
        <time>2024-11-05T19:59:00.298Z</time>
      </trkpt>
      <trkpt lat="44.03604" lon="3.73275">
        <ele>476.24</ele>
        <time>2024-11-05T19:59:17.328Z</time>
      </trkpt>
      <trkpt lat="44.03585" lon="3.73301">
        <ele>474.69</ele>
        <time>2024-11-05T19:59:34.362Z</time>
      </trkpt>
      <trkpt lat="44.0356" lon="3.73375">
        <ele>471.43</ele>
        <time>2024-11-05T19:59:51.406Z</time>
      </trkpt>
      <trkpt lat="44.03551" lon="3.73389">
        <ele>470.74</ele>
        <time>2024-11-05T20:00:08.452Z</time>
      </trkpt>
      <trkpt lat="44.03537" lon="3.73401">
        <ele>469.81</ele>
        <time>2024-11-05T20:00:25.500Z</time>
      </trkpt>
      <trkpt lat="44.03521" lon="3.73428">
        <ele>468.28</ele>
        <time>2024-11-05T20:00:42.552Z</time>
      </trkpt>
      <trkpt lat="44.03518" lon="3.7344">
        <ele>467.73</ele>
        <time>2024-11-05T20:00:59.606Z</time>
      </trkpt>
      <trkpt lat="44.03517" lon="3.73455">
        <ele>467.13</ele>
        <time>2024-11-05T20:01:16.662Z</time>
      </trkpt>
      <trkpt lat="44.0352" lon="3.73499">
        <ele>465.4</ele>
        <time>2024-11-05T20:01:33.723Z</time>
      </trkpt>
      <trkpt lat="44.03517" lon="3.73516">
        <ele>464.67</ele>
        <time>2024-11-05T20:01:50.786Z</time>
      </trkpt>
      <trkpt lat="44.03514" lon="3.73526">
        <ele>464.23</ele>
        <time>2024-11-05T20:02:07.850Z</time>
      </trkpt>
      <trkpt lat="44.03504" lon="3.73554">
        <ele>463.57</ele>
        <time>2024-11-05T20:02:24.918Z</time>
      </trkpt>
      <trkpt lat="44.03502" lon="3.73569">
        <ele>463.34</ele>
        <time>2024-11-05T20:02:41.987Z</time>
      </trkpt>
      <trkpt lat="44.03504" lon="3.73579">
        <ele>463.25</ele>
        <time>2024-11-05T20:02:59.057Z</time>
      </trkpt>
      <trkpt lat="44.03507" lon="3.73585">
        <ele>463.2</ele>
        <time>2024-11-05T20:03:16.128Z</time>
      </trkpt>
      <trkpt lat="44.03515" lon="3.73591">
        <ele>462.94</ele>
        <time>2024-11-05T20:03:33.201Z</time>
      </trkpt>
      <trkpt lat="44.03525" lon="3.7359">
        <ele>462.57</ele>
        <time>2024-11-05T20:03:50.275Z</time>
      </trkpt>
      <trkpt lat="44.03531" lon="3.73585">
        <ele>462.33</ele>
        <time>2024-11-05T20:04:07.350Z</time>
      </trkpt>
      <trkpt lat="44.0354" lon="3.73565">
        <ele>461.73</ele>
        <time>2024-11-05T20:04:24.428Z</time>
      </trkpt>
      <trkpt lat="44.03546" lon="3.73556">
        <ele>461.36</ele>
        <time>2024-11-05T20:04:41.508Z</time>
      </trkpt>
      <trkpt lat="44.03559" lon="3.7355">
        <ele>460.66</ele>
        <time>2024-11-05T20:04:58.590Z</time>
      </trkpt>
      <trkpt lat="44.03566" lon="3.73552">
        <ele>460.23</ele>
        <time>2024-11-05T20:05:15.673Z</time>
      </trkpt>
      <trkpt lat="44.03573" lon="3.73568">
        <ele>459.31</ele>
        <time>2024-11-05T20:05:32.758Z</time>
      </trkpt>
      <trkpt lat="44.03571" lon="3.73586">
        <ele>458.32</ele>
        <time>2024-11-05T20:05:49.845Z</time>
      </trkpt>
      <trkpt lat="44.03562" lon="3.73597">
        <ele>457.41</ele>
        <time>2024-11-05T20:06:06.934Z</time>
      </trkpt>
      <trkpt lat="44.03543" lon="3.73602">
        <ele>456.01</ele>
        <time>2024-11-05T20:06:24.026Z</time>
      </trkpt>
      <trkpt lat="44.03531" lon="3.73608">
        <ele>455.13</ele>
        <time>2024-11-05T20:06:41.120Z</time>
      </trkpt>
      <trkpt lat="44.03502" lon="3.73631">
        <ele>452.68</ele>
        <time>2024-11-05T20:06:58.220Z</time>
      </trkpt>
      <trkpt lat="44.03488" lon="3.73638">
        <ele>451.68</ele>
        <time>2024-11-05T20:07:15.322Z</time>
      </trkpt>
      <trkpt lat="44.03483" lon="3.73637">
        <ele>451.35</ele>
        <time>2024-11-05T20:07:32.425Z</time>
      </trkpt>
      <trkpt lat="44.03464" lon="3.73627">
        <ele>450.7</ele>
        <time>2024-11-05T20:07:49.531Z</time>
      </trkpt>
      <trkpt lat="44.03456" lon="3.73598">
        <ele>450.1</ele>
        <time>2024-11-05T20:08:06.641Z</time>
      </trkpt>
      <trkpt lat="44.03457" lon="3.73592">
        <ele>449.96</ele>
        <time>2024-11-05T20:08:23.751Z</time>
      </trkpt>
      <trkpt lat="44.03456" lon="3.73587">
        <ele>449.83</ele>
        <time>2024-11-05T20:08:40.862Z</time>
      </trkpt>
      <trkpt lat="44.03453" lon="3.73578">
        <ele>449.15</ele>
        <time>2024-11-05T20:08:57.974Z</time>
      </trkpt>
      <trkpt lat="44.03444" lon="3.73568">
        <ele>448.01</ele>
        <time>2024-11-05T20:09:15.088Z</time>
      </trkpt>
      <trkpt lat="44.03436" lon="3.73563">
        <ele>447.19</ele>
        <time>2024-11-05T20:09:32.203Z</time>
      </trkpt>
      <trkpt lat="44.03419" lon="3.7355">
        <ele>444.29</ele>
        <time>2024-11-05T20:09:49.321Z</time>
      </trkpt>
      <trkpt lat="44.03406" lon="3.73544">
        <ele>442.4</ele>
        <time>2024-11-05T20:10:06.442Z</time>
      </trkpt>
      <trkpt lat="44.03386" lon="3.7354">
        <ele>439.82</ele>
        <time>2024-11-05T20:10:23.566Z</time>
      </trkpt>
      <trkpt lat="44.03379" lon="3.73533">
        <ele>438.81</ele>
        <time>2024-11-05T20:10:40.691Z</time>
      </trkpt>
      <trkpt lat="44.03365" lon="3.7352">
        <ele>437.4</ele>
        <time>2024-11-05T20:10:57.819Z</time>
      </trkpt>
      <trkpt lat="44.03354" lon="3.73516">
        <ele>436.57</ele>
        <time>2024-11-05T20:11:14.949Z</time>
      </trkpt>
      <trkpt lat="44.03343" lon="3.73517">
        <ele>435.84</ele>
        <time>2024-11-05T20:11:32.081Z</time>
      </trkpt>
      <trkpt lat="44.03325" lon="3.73522">
        <ele>434.88</ele>
        <time>2024-11-05T20:11:49.215Z</time>
      </trkpt>
      <trkpt lat="44.03308" lon="3.73526">
        <ele>434.19</ele>
        <time>2024-11-05T20:12:06.352Z</time>
      </trkpt>
      <trkpt lat="44.03297" lon="3.73535">
        <ele>433.86</ele>
        <time>2024-11-05T20:12:23.491Z</time>
      </trkpt>
      <trkpt lat="44.03276" lon="3.73569">
        <ele>433.4</ele>
        <time>2024-11-05T20:12:40.635Z</time>
      </trkpt>
      <trkpt lat="44.03246" lon="3.73606">
        <ele>433.01</ele>
        <time>2024-11-05T20:12:57.786Z</time>
      </trkpt>
      <trkpt lat="44.03231" lon="3.73621">
        <ele>432.38</ele>
        <time>2024-11-05T20:13:14.940Z</time>
      </trkpt>
      <trkpt lat="44.03213" lon="3.73629">
        <ele>431.46</ele>
        <time>2024-11-05T20:13:32.097Z</time>
      </trkpt>
      <trkpt lat="44.03206" lon="3.73634">
        <ele>431.09</ele>
        <time>2024-11-05T20:13:49.255Z</time>
      </trkpt>
      <trkpt lat="44.03173" lon="3.73679">
        <ele>429.17</ele>
        <time>2024-11-05T20:14:06.421Z</time>
      </trkpt>
      <trkpt lat="44.03148" lon="3.73705">
        <ele>427.78</ele>
        <time>2024-11-05T20:14:23.592Z</time>
      </trkpt>
      <trkpt lat="44.0314" lon="3.73708">
        <ele>427.41</ele>
        <time>2024-11-05T20:14:40.764Z</time>
      </trkpt>
      <trkpt lat="44.03132" lon="3.73706">
        <ele>426.91</ele>
        <time>2024-11-05T20:14:57.937Z</time>
      </trkpt>
      <trkpt lat="44.03124" lon="3.73695">
        <ele>426.16</ele>
        <time>2024-11-05T20:15:15.112Z</time>
      </trkpt>
      <trkpt lat="44.03099" lon="3.73639">
        <ele>422.18</ele>
        <time>2024-11-05T20:15:32.295Z</time>
      </trkpt>
      <trkpt lat="44.03091" lon="3.7362">
        <ele>421.08</ele>
        <time>2024-11-05T20:15:49.480Z</time>
      </trkpt>
      <trkpt lat="44.03076" lon="3.73616">
        <ele>420.15</ele>
        <time>2024-11-05T20:16:06.668Z</time>
      </trkpt>
      <trkpt lat="44.0303" lon="3.73613">
        <ele>418.26</ele>
        <time>2024-11-05T20:16:23.863Z</time>
      </trkpt>
      <trkpt lat="44.03018" lon="3.73614">
        <ele>417.85</ele>
        <time>2024-11-05T20:16:41.060Z</time>
      </trkpt>
      <trkpt lat="44.03008" lon="3.73619">
        <ele>417.49</ele>
        <time>2024-11-05T20:16:58.259Z</time>
      </trkpt>
      <trkpt lat="44.02997" lon="3.73627">
        <ele>417.04</ele>
        <time>2024-11-05T20:17:15.460Z</time>
      </trkpt>
      <trkpt lat="44.02972" lon="3.73653">
        <ele>415.56</ele>
        <time>2024-11-05T20:17:32.666Z</time>
      </trkpt>
      <trkpt lat="44.02953" lon="3.73677">
        <ele>414.18</ele>
        <time>2024-11-05T20:17:49.876Z</time>
      </trkpt>
      <trkpt lat="44.02926" lon="3.73722">
        <ele>411.86</ele>
        <time>2024-11-05T20:18:07.092Z</time>
      </trkpt>
      <trkpt lat="44.0292" lon="3.73728">
        <ele>411.34</ele>
        <time>2024-11-05T20:18:24.310Z</time>
      </trkpt>
      <trkpt lat="44.02909" lon="3.73733">
        <ele>410.59</ele>
        <time>2024-11-05T20:18:41.529Z</time>
      </trkpt>
      <trkpt lat="44.02868" lon="3.7374">
        <ele>407.34</ele>
        <time>2024-11-05T20:18:58.755Z</time>
      </trkpt>
      <trkpt lat="44.02859" lon="3.73733">
        <ele>406.52</ele>
        <time>2024-11-05T20:19:15.983Z</time>
      </trkpt>
      <trkpt lat="44.02853" lon="3.73725">
        <ele>405.68</ele>
        <time>2024-11-05T20:19:33.212Z</time>
      </trkpt>
      <trkpt lat="44.02847" lon="3.737">
        <ele>403.57</ele>
        <time>2024-11-05T20:19:50.444Z</time>
      </trkpt>
      <trkpt lat="44.0284" lon="3.73686">
        <ele>402.2</ele>
        <time>2024-11-05T20:20:07.678Z</time>
      </trkpt>
      <trkpt lat="44.02817" lon="3.73654">
        <ele>398.71</ele>
        <time>2024-11-05T20:20:24.917Z</time>
      </trkpt>
      <trkpt lat="44.02813" lon="3.73644">
        <ele>397.83</ele>
        <time>2024-11-05T20:20:42.158Z</time>
      </trkpt>
      <trkpt lat="44.02806" lon="3.73612">
        <ele>395.3</ele>
        <time>2024-11-05T20:20:59.402Z</time>
      </trkpt>
      <trkpt lat="44.02801" lon="3.73605">
        <ele>394.61</ele>
        <time>2024-11-05T20:21:16.648Z</time>
      </trkpt>
      <trkpt lat="44.02785" lon="3.73592">
        <ele>392.92</ele>
        <time>2024-11-05T20:21:33.897Z</time>
      </trkpt>
      <trkpt lat="44.0277" lon="3.73567">
        <ele>390.78</ele>
        <time>2024-11-05T20:21:51.149Z</time>
      </trkpt>
      <trkpt lat="44.02763" lon="3.7356">
        <ele>390.04</ele>
        <time>2024-11-05T20:22:08.403Z</time>
      </trkpt>
      <trkpt lat="44.02735" lon="3.73551">
        <ele>387.74</ele>
        <time>2024-11-05T20:22:25.661Z</time>
      </trkpt>
      <trkpt lat="44.02707" lon="3.73524">
        <ele>385.06</ele>
        <time>2024-11-05T20:22:42.925Z</time>
      </trkpt>
      <trkpt lat="44.02661" lon="3.73492">
        <ele>381.72</ele>
        <time>2024-11-05T20:23:00.197Z</time>
      </trkpt>
      <trkpt lat="44.02626" lon="3.73473">
        <ele>379.65</ele>
        <time>2024-11-05T20:23:17.475Z</time>
      </trkpt>
      <trkpt lat="44.02594" lon="3.73465">
        <ele>377.99</ele>
        <time>2024-11-05T20:23:34.758Z</time>
      </trkpt>
      <trkpt lat="44.02587" lon="3.73461">
        <ele>377.52</ele>
        <time>2024-11-05T20:23:52.042Z</time>
      </trkpt>
      <trkpt lat="44.02584" lon="3.73454">
        <ele>377.13</ele>
        <time>2024-11-05T20:24:09.327Z</time>
      </trkpt>
      <trkpt lat="44.02583" lon="3.73396">
        <ele>373.75</ele>
        <time>2024-11-05T20:24:26.619Z</time>
      </trkpt>
      <trkpt lat="44.0258" lon="3.73344">
        <ele>370.87</ele>
        <time>2024-11-05T20:24:43.917Z</time>
      </trkpt>
      <trkpt lat="44.02566" lon="3.73291">
        <ele>368.2</ele>
        <time>2024-11-05T20:25:01.222Z</time>
      </trkpt>
      <trkpt lat="44.02568" lon="3.73285">
        <ele>367.81</ele>
        <time>2024-11-05T20:25:18.527Z</time>
      </trkpt>
      <trkpt lat="44.02588" lon="3.73281">
        <ele>366.16</ele>
        <time>2024-11-05T20:25:35.836Z</time>
      </trkpt>
      <trkpt lat="44.02593" lon="3.73275">
        <ele>365.6</ele>
        <time>2024-11-05T20:25:53.146Z</time>
      </trkpt>
      <trkpt lat="44.02595" lon="3.73261">
        <ele>364.74</ele>
        <time>2024-11-05T20:26:10.457Z</time>
      </trkpt>
      <trkpt lat="44.02591" lon="3.73254">
        <ele>364.22</ele>
        <time>2024-11-05T20:26:27.769Z</time>
      </trkpt>
      <trkpt lat="44.02581" lon="3.73246">
        <ele>363.28</ele>
        <time>2024-11-05T20:26:45.083Z</time>
      </trkpt>
      <trkpt lat="44.0257" lon="3.73241">
        <ele>362.34</ele>
        <time>2024-11-05T20:27:02.399Z</time>
      </trkpt>
      <trkpt lat="44.02546" lon="3.73239">
        <ele>360.43</ele>
        <time>2024-11-05T20:27:19.719Z</time>
      </trkpt>
      <trkpt lat="44.02524" lon="3.73245">
        <ele>358.77</ele>
        <time>2024-11-05T20:27:37.042Z</time>
      </trkpt>
      <trkpt lat="44.02515" lon="3.73245">
        <ele>358.04</ele>
        <time>2024-11-05T20:27:54.367Z</time>
      </trkpt>
      <trkpt lat="44.02508" lon="3.73242">
        <ele>357.34</ele>
        <time>2024-11-05T20:28:11.693Z</time>
      </trkpt>
      <trkpt lat="44.02496" lon="3.73225">
        <ele>355.75</ele>
        <time>2024-11-05T20:28:29.022Z</time>
      </trkpt>
      <trkpt lat="44.0249" lon="3.7321">
        <ele>354.6</ele>
        <time>2024-11-05T20:28:46.353Z</time>
      </trkpt>
      <trkpt lat="44.02486" lon="3.73183">
        <ele>352.8</ele>
        <time>2024-11-05T20:29:03.687Z</time>
      </trkpt>
      <trkpt lat="44.02487" lon="3.73151">
        <ele>351.15</ele>
        <time>2024-11-05T20:29:21.025Z</time>
      </trkpt>
      <trkpt lat="44.02486" lon="3.73144">
        <ele>350.89</ele>
        <time>2024-11-05T20:29:38.363Z</time>
      </trkpt>
      <trkpt lat="44.02471" lon="3.73131">
        <ele>349.99</ele>
        <time>2024-11-05T20:29:55.704Z</time>
      </trkpt>
      <trkpt lat="44.02449" lon="3.73113">
        <ele>348.95</ele>
        <time>2024-11-05T20:30:13.049Z</time>
      </trkpt>
      <trkpt lat="44.02434" lon="3.73088">
        <ele>348.08</ele>
        <time>2024-11-05T20:30:30.398Z</time>
      </trkpt>
      <trkpt lat="44.02389" lon="3.73064">
        <ele>346.29</ele>
        <time>2024-11-05T20:30:47.755Z</time>
      </trkpt>
      <trkpt lat="44.0235" lon="3.73056">
        <ele>345.13</ele>
        <time>2024-11-05T20:31:05.118Z</time>
      </trkpt>
      <trkpt lat="44.0233" lon="3.73056">
        <ele>344.69</ele>
        <time>2024-11-05T20:31:22.484Z</time>
      </trkpt>
      <trkpt lat="44.02299" lon="3.73059">
        <ele>343.86</ele>
        <time>2024-11-05T20:31:39.855Z</time>
      </trkpt>
      <trkpt lat="44.0229" lon="3.73056">
        <ele>343.5</ele>
        <time>2024-11-05T20:31:57.228Z</time>
      </trkpt>
      <trkpt lat="44.02279" lon="3.73044">
        <ele>342.9</ele>
        <time>2024-11-05T20:32:14.603Z</time>
      </trkpt>
      <trkpt lat="44.02265" lon="3.73029">
        <ele>342.39</ele>
        <time>2024-11-05T20:32:31.981Z</time>
      </trkpt>
      <trkpt lat="44.0222" lon="3.73003">
        <ele>341.76</ele>
        <time>2024-11-05T20:32:49.367Z</time>
      </trkpt>
      <trkpt lat="44.02202" lon="3.72988">
        <ele>341.29</ele>
        <time>2024-11-05T20:33:06.756Z</time>
      </trkpt>
      <trkpt lat="44.02185" lon="3.72961">
        <ele>340.04</ele>
        <time>2024-11-05T20:33:24.149Z</time>
      </trkpt>
      <trkpt lat="44.02175" lon="3.72948">
        <ele>339.29</ele>
        <time>2024-11-05T20:33:41.544Z</time>
      </trkpt>
      <trkpt lat="44.02156" lon="3.72933">
        <ele>338.12</ele>
        <time>2024-11-05T20:33:58.943Z</time>
      </trkpt>
      <trkpt lat="44.02141" lon="3.72929">
        <ele>337.33</ele>
        <time>2024-11-05T20:34:16.344Z</time>
      </trkpt>
      <trkpt lat="44.0213" lon="3.7293">
        <ele>336.74</ele>
        <time>2024-11-05T20:34:33.747Z</time>
      </trkpt>
      <trkpt lat="44.02119" lon="3.72934">
        <ele>336.12</ele>
        <time>2024-11-05T20:34:51.152Z</time>
      </trkpt>
      <trkpt lat="44.02093" lon="3.72954">
        <ele>334.23</ele>
        <time>2024-11-05T20:35:08.562Z</time>
      </trkpt>
      <trkpt lat="44.0208" lon="3.72971">
        <ele>332.95</ele>
        <time>2024-11-05T20:35:25.975Z</time>
      </trkpt>
      <trkpt lat="44.02067" lon="3.72997">
        <ele>331.4</ele>
        <time>2024-11-05T20:35:43.391Z</time>
      </trkpt>
      <trkpt lat="44.0206" lon="3.73038">
        <ele>329.3</ele>
        <time>2024-11-05T20:36:00.812Z</time>
      </trkpt>
      <trkpt lat="44.02048" lon="3.73062">
        <ele>327.72</ele>
        <time>2024-11-05T20:36:18.236Z</time>
      </trkpt>
      <trkpt lat="44.02043" lon="3.73065">
        <ele>327.27</ele>
        <time>2024-11-05T20:36:35.661Z</time>
      </trkpt>
      <trkpt lat="44.02032" lon="3.73062">
        <ele>326.31</ele>
        <time>2024-11-05T20:36:53.088Z</time>
      </trkpt>
      <trkpt lat="44.02009" lon="3.73047">
        <ele>324.04</ele>
        <time>2024-11-05T20:37:10.519Z</time>
      </trkpt>
      <trkpt lat="44.01987" lon="3.73037">
        <ele>322.33</ele>
        <time>2024-11-05T20:37:27.954Z</time>
      </trkpt>
      <trkpt lat="44.0195" lon="3.73004">
        <ele>319.27</ele>
        <time>2024-11-05T20:37:45.396Z</time>
      </trkpt>
      <trkpt lat="44.01929" lon="3.72984">
        <ele>317.7</ele>
        <time>2024-11-05T20:38:02.842Z</time>
      </trkpt>
      <trkpt lat="44.01921" lon="3.72973">
        <ele>317.01</ele>
        <time>2024-11-05T20:38:20.290Z</time>
      </trkpt>
      <trkpt lat="44.01916" lon="3.72959">
        <ele>316.33</ele>
        <time>2024-11-05T20:38:37.740Z</time>
      </trkpt>
      <trkpt lat="44.01914" lon="3.72944">
        <ele>315.62</ele>
        <time>2024-11-05T20:38:55.191Z</time>
      </trkpt>
      <trkpt lat="44.01921" lon="3.72896">
        <ele>313.45</ele>
        <time>2024-11-05T20:39:12.648Z</time>
      </trkpt>
      <trkpt lat="44.01927" lon="3.72853">
        <ele>311.99</ele>
        <time>2024-11-05T20:39:30.110Z</time>
      </trkpt>
      <trkpt lat="44.01926" lon="3.72834">
        <ele>311.48</ele>
        <time>2024-11-05T20:39:47.574Z</time>
      </trkpt>
      <trkpt lat="44.01915" lon="3.72781">
        <ele>310.23</ele>
        <time>2024-11-05T20:40:05.045Z</time>
      </trkpt>
      <trkpt lat="44.01909" lon="3.72725">
        <ele>309.04</ele>
        <time>2024-11-05T20:40:22.522Z</time>
      </trkpt>
      <trkpt lat="44.01908" lon="3.72682">
        <ele>307.54</ele>
        <time>2024-11-05T20:40:40.004Z</time>
      </trkpt>
      <trkpt lat="44.01909" lon="3.72655">
        <ele>306.59</ele>
        <time>2024-11-05T20:40:57.489Z</time>
      </trkpt>
      <trkpt lat="44.01916" lon="3.72636">
        <ele>305.9</ele>
        <time>2024-11-05T20:41:14.977Z</time>
      </trkpt>
      <trkpt lat="44.01941" lon="3.7262">
        <ele>305</ele>
        <time>2024-11-05T20:41:32.469Z</time>
      </trkpt>
      <trkpt lat="44.01946" lon="3.72617">
        <ele>304.94</ele>
        <time>2024-11-05T20:41:49.962Z</time>
      </trkpt>
      <trkpt lat="44.01952" lon="3.7261">
        <ele>304.9</ele>
        <time>2024-11-05T20:42:07.456Z</time>
      </trkpt>
      <trkpt lat="44.01965" lon="3.7257">
        <ele>305.1</ele>
        <time>2024-11-05T20:42:24.955Z</time>
      </trkpt>
      <trkpt lat="44.01966" lon="3.72556">
        <ele>305.18</ele>
        <time>2024-11-05T20:42:42.456Z</time>
      </trkpt>
      <trkpt lat="44.01964" lon="3.72547">
        <ele>305.27</ele>
        <time>2024-11-05T20:42:59.958Z</time>
      </trkpt>
      <trkpt lat="44.01949" lon="3.72521">
        <ele>305.76</ele>
        <time>2024-11-05T20:43:17.464Z</time>
      </trkpt>
      <trkpt lat="44.01924" lon="3.72478">
        <ele>307.33</ele>
        <time>2024-11-05T20:43:34.976Z</time>
      </trkpt>
      <trkpt lat="44.01914" lon="3.72449">
        <ele>307.79</ele>
        <time>2024-11-05T20:43:52.492Z</time>
      </trkpt>
      <trkpt lat="44.01899" lon="3.72407">
        <ele>308.71</ele>
        <time>2024-11-05T20:44:10.013Z</time>
      </trkpt>
      <trkpt lat="44.01894" lon="3.72373">
        <ele>309.62</ele>
        <time>2024-11-05T20:44:27.538Z</time>
      </trkpt>
      <trkpt lat="44.01889" lon="3.7236">
        <ele>310.03</ele>
        <time>2024-11-05T20:44:45.065Z</time>
      </trkpt>
      <trkpt lat="44.0188" lon="3.72354">
        <ele>310.41</ele>
        <time>2024-11-05T20:45:02.594Z</time>
      </trkpt>
      <trkpt lat="44.01873" lon="3.72352">
        <ele>310.69</ele>
        <time>2024-11-05T20:45:20.124Z</time>
      </trkpt>
      <trkpt lat="44.01862" lon="3.72354">
        <ele>311.04</ele>
        <time>2024-11-05T20:45:37.656Z</time>
      </trkpt>
      <trkpt lat="44.01845" lon="3.72368">
        <ele>311.38</ele>
        <time>2024-11-05T20:45:55.191Z</time>
      </trkpt>
      <trkpt lat="44.01827" lon="3.72384">
        <ele>311.47</ele>
        <time>2024-11-05T20:46:12.729Z</time>
      </trkpt>
      <trkpt lat="44.01809" lon="3.7239">
        <ele>311.33</ele>
        <time>2024-11-05T20:46:30.270Z</time>
      </trkpt>
      <trkpt lat="44.01792" lon="3.72396">
        <ele>310.95</ele>
        <time>2024-11-05T20:46:47.814Z</time>
      </trkpt>
      <trkpt lat="44.01768" lon="3.72398">
        <ele>310.64</ele>
        <time>2024-11-05T20:47:05.362Z</time>
      </trkpt>
      <trkpt lat="44.01743" lon="3.72391">
        <ele>310.39</ele>
        <time>2024-11-05T20:47:22.914Z</time>
      </trkpt>
      <trkpt lat="44.01718" lon="3.72381">
        <ele>310.06</ele>
        <time>2024-11-05T20:47:40.470Z</time>
      </trkpt>
      <trkpt lat="44.01711" lon="3.72376">
        <ele>309.97</ele>
        <time>2024-11-05T20:47:58.027Z</time>
      </trkpt>
      <trkpt lat="44.01686" lon="3.72345">
        <ele>309.78</ele>
        <time>2024-11-05T20:48:15.590Z</time>
      </trkpt>
      <trkpt lat="44.01673" lon="3.72315">
        <ele>309.75</ele>
        <time>2024-11-05T20:48:33.157Z</time>
      </trkpt>
      <trkpt lat="44.01655" lon="3.72223">
        <ele>309.6</ele>
        <time>2024-11-05T20:48:50.735Z</time>
      </trkpt>
      <trkpt lat="44.01653" lon="3.72205">
        <ele>309.62</ele>
        <time>2024-11-05T20:49:08.315Z</time>
      </trkpt>
      <trkpt lat="44.01655" lon="3.72154">
        <ele>309.95</ele>
        <time>2024-11-05T20:49:25.901Z</time>
      </trkpt>
      <trkpt lat="44.01652" lon="3.72139">
        <ele>310.07</ele>
        <time>2024-11-05T20:49:43.488Z</time>
      </trkpt>
      <trkpt lat="44.01645" lon="3.72129">
        <ele>310.16</ele>
        <time>2024-11-05T20:50:01.077Z</time>
      </trkpt>
      <trkpt lat="44.01638" lon="3.72125">
        <ele>309.96</ele>
        <time>2024-11-05T20:50:18.667Z</time>
      </trkpt>
      <trkpt lat="44.01615" lon="3.72124">
        <ele>309.34</ele>
        <time>2024-11-05T20:50:36.261Z</time>
      </trkpt>
      <trkpt lat="44.01593" lon="3.72128">
        <ele>308.5</ele>
        <time>2024-11-05T20:50:53.859Z</time>
      </trkpt>
      <trkpt lat="44.01577" lon="3.72128">
        <ele>307.8</ele>
        <time>2024-11-05T20:51:11.459Z</time>
      </trkpt>
      <trkpt lat="44.01538" lon="3.72111">
        <ele>306.11</ele>
        <time>2024-11-05T20:51:29.066Z</time>
      </trkpt>
      <trkpt lat="44.0153" lon="3.72106">
        <ele>305.78</ele>
        <time>2024-11-05T20:51:46.674Z</time>
      </trkpt>
      <trkpt lat="44.01518" lon="3.72088">
        <ele>305.27</ele>
        <time>2024-11-05T20:52:04.285Z</time>
      </trkpt>
      <trkpt lat="44.01499" lon="3.72072">
        <ele>304.62</ele>
        <time>2024-11-05T20:52:21.899Z</time>
      </trkpt>
      <trkpt lat="44.0149" lon="3.72067">
        <ele>304.33</ele>
        <time>2024-11-05T20:52:39.515Z</time>
      </trkpt>
      <trkpt lat="44.01474" lon="3.72064">
        <ele>303.91</ele>
        <time>2024-11-05T20:52:57.134Z</time>
      </trkpt>
      <trkpt lat="44.01465" lon="3.72052">
        <ele>303.53</ele>
        <time>2024-11-05T20:53:14.755Z</time>
      </trkpt>
      <trkpt lat="44.01464" lon="3.72041">
        <ele>303.28</ele>
        <time>2024-11-05T20:53:32.377Z</time>
      </trkpt>
      <trkpt lat="44.01479" lon="3.71996">
        <ele>302.34</ele>
        <time>2024-11-05T20:53:50.005Z</time>
      </trkpt>
      <trkpt lat="44.01475" lon="3.71964">
        <ele>301.64</ele>
        <time>2024-11-05T20:54:07.636Z</time>
      </trkpt>
      <trkpt lat="44.01469" lon="3.71944">
        <ele>301.05</ele>
        <time>2024-11-05T20:54:25.270Z</time>
      </trkpt>
      <trkpt lat="44.01461" lon="3.7193">
        <ele>300.54</ele>
        <time>2024-11-05T20:54:42.906Z</time>
      </trkpt>
      <trkpt lat="44.01432" lon="3.71896">
        <ele>299.01</ele>
        <time>2024-11-05T20:55:00.548Z</time>
      </trkpt>
      <trkpt lat="44.01425" lon="3.71886">
        <ele>298.59</ele>
        <time>2024-11-05T20:55:18.192Z</time>
      </trkpt>
      <trkpt lat="44.01419" lon="3.71872">
        <ele>298.11</ele>
        <time>2024-11-05T20:55:35.837Z</time>
      </trkpt>
      <trkpt lat="44.01414" lon="3.71846">
        <ele>297.43</ele>
        <time>2024-11-05T20:55:53.486Z</time>
      </trkpt>
      <trkpt lat="44.01415" lon="3.71826">
        <ele>297.04</ele>
        <time>2024-11-05T20:56:11.137Z</time>
      </trkpt>
      <trkpt lat="44.01409" lon="3.71772">
        <ele>296.18</ele>
        <time>2024-11-05T20:56:28.794Z</time>
      </trkpt>
      <trkpt lat="44.01406" lon="3.71765">
        <ele>296.07</ele>
        <time>2024-11-05T20:56:46.452Z</time>
      </trkpt>
      <trkpt lat="44.014" lon="3.7176">
        <ele>295.94</ele>
        <time>2024-11-05T20:57:04.111Z</time>
      </trkpt>
      <trkpt lat="44.01394" lon="3.71759">
        <ele>295.77</ele>
        <time>2024-11-05T20:57:21.771Z</time>
      </trkpt>
      <trkpt lat="44.01385" lon="3.71763">
        <ele>295.47</ele>
        <time>2024-11-05T20:57:39.433Z</time>
      </trkpt>
      <trkpt lat="44.01329" lon="3.7182">
        <ele>293.03</ele>
        <time>2024-11-05T20:57:57.106Z</time>
      </trkpt>
      <trkpt lat="44.01312" lon="3.71859">
        <ele>291.77</ele>
        <time>2024-11-05T20:58:14.784Z</time>
      </trkpt>
      <trkpt lat="44.01303" lon="3.71875">
        <ele>291.09</ele>
        <time>2024-11-05T20:58:32.464Z</time>
      </trkpt>
      <trkpt lat="44.01275" lon="3.71907">
        <ele>289.49</ele>
        <time>2024-11-05T20:58:50.150Z</time>
      </trkpt>
      <trkpt lat="44.01244" lon="3.71931">
        <ele>288.25</ele>
        <time>2024-11-05T20:59:07.842Z</time>
      </trkpt>
      <trkpt lat="44.0123" lon="3.71942">
        <ele>287.84</ele>
        <time>2024-11-05T20:59:25.537Z</time>
      </trkpt>
      <trkpt lat="44.01223" lon="3.71946">
        <ele>287.81</ele>
        <time>2024-11-05T20:59:43.233Z</time>
      </trkpt>
      <trkpt lat="44.01217" lon="3.71947">
        <ele>287.85</ele>
        <time>2024-11-05T21:00:00.930Z</time>
      </trkpt>
      <trkpt lat="44.01211" lon="3.71944">
        <ele>287.84</ele>
        <time>2024-11-05T21:00:18.628Z</time>
      </trkpt>
      <trkpt lat="44.01197" lon="3.71938">
        <ele>287.32</ele>
        <time>2024-11-05T21:00:36.328Z</time>
      </trkpt>
      <trkpt lat="44.01176" lon="3.71923">
        <ele>286.37</ele>
        <time>2024-11-05T21:00:54.032Z</time>
      </trkpt>
      <trkpt lat="44.01158" lon="3.71901">
        <ele>285.45</ele>
        <time>2024-11-05T21:01:11.740Z</time>
      </trkpt>
      <trkpt lat="44.01135" lon="3.71873">
        <ele>283.63</ele>
        <time>2024-11-05T21:01:29.453Z</time>
      </trkpt>
      <trkpt lat="44.01115" lon="3.71825">
        <ele>280.53</ele>
        <time>2024-11-05T21:01:47.172Z</time>
      </trkpt>
      <trkpt lat="44.01112" lon="3.71809">
        <ele>279.63</ele>
        <time>2024-11-05T21:02:04.893Z</time>
      </trkpt>
      <trkpt lat="44.01109" lon="3.71764">
        <ele>277.28</ele>
        <time>2024-11-05T21:02:22.619Z</time>
      </trkpt>
      <trkpt lat="44.01116" lon="3.71745">
        <ele>276.24</ele>
        <time>2024-11-05T21:02:40.348Z</time>
      </trkpt>
      <trkpt lat="44.01119" lon="3.71741">
        <ele>275.97</ele>
        <time>2024-11-05T21:02:58.077Z</time>
      </trkpt>
      <trkpt lat="44.01124" lon="3.71735">
        <ele>275.96</ele>
        <time>2024-11-05T21:03:15.807Z</time>
      </trkpt>
      <trkpt lat="44.01128" lon="3.71729">
        <ele>275.74</ele>
        <time>2024-11-05T21:03:33.538Z</time>
      </trkpt>
      <trkpt lat="44.01138" lon="3.71703">
        <ele>275.14</ele>
        <time>2024-11-05T21:03:51.273Z</time>
      </trkpt>
      <trkpt lat="44.01141" lon="3.717">
        <ele>274.99</ele>
        <time>2024-11-05T21:04:09.008Z</time>
      </trkpt>
      <trkpt lat="44.01158" lon="3.71697">
        <ele>274.3</ele>
        <time>2024-11-05T21:04:26.746Z</time>
      </trkpt>
      <trkpt lat="44.01174" lon="3.71686">
        <ele>273.57</ele>
        <time>2024-11-05T21:04:44.487Z</time>
      </trkpt>
      <trkpt lat="44.01193" lon="3.71668">
        <ele>272.72</ele>
        <time>2024-11-05T21:05:02.231Z</time>
      </trkpt>
      <trkpt lat="44.01197" lon="3.71648">
        <ele>272.19</ele>
        <time>2024-11-05T21:05:19.978Z</time>
      </trkpt>
      <trkpt lat="44.012" lon="3.71587">
        <ele>270.93</ele>
        <time>2024-11-05T21:05:37.732Z</time>
      </trkpt>
      <trkpt lat="44.01199" lon="3.71575">
        <ele>270.74</ele>
        <time>2024-11-05T21:05:55.487Z</time>
      </trkpt>
      <trkpt lat="44.01193" lon="3.71559">
        <ele>270.44</ele>
        <time>2024-11-05T21:06:13.244Z</time>
      </trkpt>
      <trkpt lat="44.01183" lon="3.71545">
        <ele>270.18</ele>
        <time>2024-11-05T21:06:31.004Z</time>
      </trkpt>
      <trkpt lat="44.01164" lon="3.71532">
        <ele>269.9</ele>
        <time>2024-11-05T21:06:48.767Z</time>
      </trkpt>
      <trkpt lat="44.01147" lon="3.7152">
        <ele>269.2</ele>
        <time>2024-11-05T21:07:06.533Z</time>
      </trkpt>
      <trkpt lat="44.01136" lon="3.71498">
        <ele>268.18</ele>
        <time>2024-11-05T21:07:24.302Z</time>
      </trkpt>
      <trkpt lat="44.01123" lon="3.71457">
        <ele>265.88</ele>
        <time>2024-11-05T21:07:42.076Z</time>
      </trkpt>
      <trkpt lat="44.01118" lon="3.7145">
        <ele>265.36</ele>
        <time>2024-11-05T21:07:59.852Z</time>
      </trkpt>
      <trkpt lat="44.01107" lon="3.71444">
        <ele>264.45</ele>
        <time>2024-11-05T21:08:17.629Z</time>
      </trkpt>
      <trkpt lat="44.01077" lon="3.71449">
        <ele>262.2</ele>
        <time>2024-11-05T21:08:35.411Z</time>
      </trkpt>
      <trkpt lat="44.01074" lon="3.71449">
        <ele>262.13</ele>
        <time>2024-11-05T21:08:53.194Z</time>
      </trkpt>
      <trkpt lat="44.01065" lon="3.71441">
        <ele>261.94</ele>
        <time>2024-11-05T21:09:10.978Z</time>
      </trkpt>
      <trkpt lat="44.01055" lon="3.71431">
        <ele>261.35</ele>
        <time>2024-11-05T21:09:28.764Z</time>
      </trkpt>
      <trkpt lat="44.01048" lon="3.71422">
        <ele>260.95</ele>
        <time>2024-11-05T21:09:46.552Z</time>
      </trkpt>
      <trkpt lat="44.01037" lon="3.71407">
        <ele>260.49</ele>
        <time>2024-11-05T21:10:04.342Z</time>
      </trkpt>
      <trkpt lat="44.01035" lon="3.71398">
        <ele>260.37</ele>
        <time>2024-11-05T21:10:22.134Z</time>
      </trkpt>
      <trkpt lat="44.01034" lon="3.71374">
        <ele>260.01</ele>
        <time>2024-11-05T21:10:39.928Z</time>
      </trkpt>
      <trkpt lat="44.01033" lon="3.71356">
        <ele>259.97</ele>
        <time>2024-11-05T21:10:57.724Z</time>
      </trkpt>
      <trkpt lat="44.01029" lon="3.71344">
        <ele>260.07</ele>
        <time>2024-11-05T21:11:15.522Z</time>
      </trkpt>
      <trkpt lat="44.01017" lon="3.71318">
        <ele>260.75</ele>
        <time>2024-11-05T21:11:33.323Z</time>
      </trkpt>
      <trkpt lat="44.00994" lon="3.71292">
        <ele>262.23</ele>
        <time>2024-11-05T21:11:51.129Z</time>
      </trkpt>
      <trkpt lat="44.00975" lon="3.71284">
        <ele>263.43</ele>
        <time>2024-11-05T21:12:08.938Z</time>
      </trkpt>
      <trkpt lat="44.00965" lon="3.71284">
        <ele>264.04</ele>
        <time>2024-11-05T21:12:26.749Z</time>
      </trkpt>
      <trkpt lat="44.0095" lon="3.71291">
        <ele>264.89</ele>
        <time>2024-11-05T21:12:44.563Z</time>
      </trkpt>
      <trkpt lat="44.00935" lon="3.71298">
        <ele>265.48</ele>
        <time>2024-11-05T21:13:02.379Z</time>
      </trkpt>
      <trkpt lat="44.00924" lon="3.713">
        <ele>265.81</ele>
        <time>2024-11-05T21:13:20.197Z</time>
      </trkpt>
      <trkpt lat="44.00906" lon="3.71296">
        <ele>266.32</ele>
        <time>2024-11-05T21:13:38.018Z</time>
      </trkpt>
      <trkpt lat="44.00884" lon="3.71279">
        <ele>267.38</ele>
        <time>2024-11-05T21:13:55.843Z</time>
      </trkpt>
      <trkpt lat="44.00838" lon="3.71241">
        <ele>270.13</ele>
        <time>2024-11-05T21:14:13.676Z</time>
      </trkpt>
      <trkpt lat="44.00824" lon="3.71229">
        <ele>270.71</ele>
        <time>2024-11-05T21:14:31.512Z</time>
      </trkpt>
      <trkpt lat="44.0081" lon="3.71222">
        <ele>271.03</ele>
        <time>2024-11-05T21:14:49.350Z</time>
      </trkpt>
      <trkpt lat="44.00797" lon="3.7122">
        <ele>270.97</ele>
        <time>2024-11-05T21:15:07.190Z</time>
      </trkpt>
      <trkpt lat="44.00766" lon="3.71217">
        <ele>268.96</ele>
        <time>2024-11-05T21:15:25.035Z</time>
      </trkpt>
      <trkpt lat="44.00734" lon="3.71212">
        <ele>267.45</ele>
        <time>2024-11-05T21:15:42.886Z</time>
      </trkpt>
      <trkpt lat="44.00717" lon="3.71206">
        <ele>266.65</ele>
        <time>2024-11-05T21:16:00.739Z</time>
      </trkpt>
      <trkpt lat="44.00687" lon="3.71194">
        <ele>264.87</ele>
        <time>2024-11-05T21:16:18.597Z</time>
      </trkpt>
      <trkpt lat="44.00681" lon="3.71189">
        <ele>264.47</ele>
        <time>2024-11-05T21:16:36.457Z</time>
      </trkpt>
      <trkpt lat="44.00673" lon="3.71172">
        <ele>263.71</ele>
        <time>2024-11-05T21:16:54.319Z</time>
      </trkpt>
      <trkpt lat="44.00666" lon="3.71128">
        <ele>262.08</ele>
        <time>2024-11-05T21:17:12.186Z</time>
      </trkpt>
      <trkpt lat="44.0066" lon="3.71105">
        <ele>260.87</ele>
        <time>2024-11-05T21:17:30.056Z</time>
      </trkpt>
      <trkpt lat="44.00653" lon="3.71069">
        <ele>258.73</ele>
        <time>2024-11-05T21:17:47.930Z</time>
      </trkpt>
      <trkpt lat="44.00641" lon="3.70999">
        <ele>254.05</ele>
        <time>2024-11-05T21:18:05.812Z</time>
      </trkpt>
      <trkpt lat="44.00638" lon="3.70991">
        <ele>253.55</ele>
        <time>2024-11-05T21:18:23.696Z</time>
      </trkpt>
      <trkpt lat="44.00627" lon="3.70964">
        <ele>252.23</ele>
        <time>2024-11-05T21:18:41.583Z</time>
      </trkpt>
      <trkpt lat="44.00622" lon="3.70952">
        <ele>251.83</ele>
        <time>2024-11-05T21:18:59.472Z</time>
      </trkpt>
      <trkpt lat="44.00615" lon="3.70941">
        <ele>251.38</ele>
        <time>2024-11-05T21:19:17.362Z</time>
      </trkpt>
      <trkpt lat="44.00598" lon="3.70926">
        <ele>250.78</ele>
        <time>2024-11-05T21:19:35.256Z</time>
      </trkpt>
      <trkpt lat="44.00584" lon="3.70917">
        <ele>250.61</ele>
        <time>2024-11-05T21:19:53.152Z</time>
      </trkpt>
      <trkpt lat="44.00557" lon="3.70908">
        <ele>250.72</ele>
        <time>2024-11-05T21:20:11.053Z</time>
      </trkpt>
      <trkpt lat="44.00544" lon="3.70907">
        <ele>250.83</ele>
        <time>2024-11-05T21:20:28.956Z</time>
      </trkpt>
      <trkpt lat="44.00531" lon="3.7091">
        <ele>251.07</ele>
        <time>2024-11-05T21:20:46.861Z</time>
      </trkpt>
      <trkpt lat="44.00506" lon="3.7093">
        <ele>251.88</ele>
        <time>2024-11-05T21:21:04.770Z</time>
      </trkpt>
      <trkpt lat="44.00483" lon="3.70959">
        <ele>252.55</ele>
        <time>2024-11-05T21:21:22.684Z</time>
      </trkpt>
      <trkpt lat="44.00454" lon="3.71017">
        <ele>253.18</ele>
        <time>2024-11-05T21:21:40.606Z</time>
      </trkpt>
      <trkpt lat="44.00447" lon="3.71059">
        <ele>254.04</ele>
        <time>2024-11-05T21:21:58.533Z</time>
      </trkpt>
      <trkpt lat="44.00443" lon="3.71069">
        <ele>254.33</ele>
        <time>2024-11-05T21:22:16.462Z</time>
      </trkpt>
      <trkpt lat="44.00437" lon="3.71076">
        <ele>254.6</ele>
        <time>2024-11-05T21:22:34.392Z</time>
      </trkpt>
      <trkpt lat="44.00429" lon="3.71081">
        <ele>254.85</ele>
        <time>2024-11-05T21:22:52.323Z</time>
      </trkpt>
      <trkpt lat="44.00415" lon="3.71087">
        <ele>255.14</ele>
        <time>2024-11-05T21:23:10.257Z</time>
      </trkpt>
      <trkpt lat="44.00356" lon="3.71109">
        <ele>255.73</ele>
        <time>2024-11-05T21:23:28.201Z</time>
      </trkpt>
      <trkpt lat="44.00339" lon="3.71112">
        <ele>255.85</ele>
        <time>2024-11-05T21:23:46.147Z</time>
      </trkpt>
      <trkpt lat="44.00329" lon="3.71116">
        <ele>255.88</ele>
        <time>2024-11-05T21:24:04.095Z</time>
      </trkpt>
      <trkpt lat="44.00291" lon="3.71156">
        <ele>255.99</ele>
        <time>2024-11-05T21:24:22.051Z</time>
      </trkpt>
      <trkpt lat="44.00278" lon="3.71176">
        <ele>255.99</ele>
        <time>2024-11-05T21:24:40.010Z</time>
      </trkpt>
      <trkpt lat="44.00276" lon="3.71188">
        <ele>255.96</ele>
        <time>2024-11-05T21:24:57.970Z</time>
      </trkpt>
      <trkpt lat="44.00278" lon="3.71241">
        <ele>255.75</ele>
        <time>2024-11-05T21:25:15.936Z</time>
      </trkpt>
      <trkpt lat="44.00284" lon="3.71259">
        <ele>255.66</ele>
        <time>2024-11-05T21:25:33.905Z</time>
      </trkpt>
      <trkpt lat="44.00297" lon="3.71289">
        <ele>255.43</ele>
        <time>2024-11-05T21:25:51.878Z</time>
      </trkpt>
      <trkpt lat="44.00308" lon="3.71306">
        <ele>255.33</ele>
        <time>2024-11-05T21:26:09.853Z</time>
      </trkpt>
      <trkpt lat="44.00314" lon="3.71313">
        <ele>255.32</ele>
        <time>2024-11-05T21:26:27.829Z</time>
      </trkpt>
      <trkpt lat="44.00342" lon="3.71337">
        <ele>255.28</ele>
        <time>2024-11-05T21:26:45.811Z</time>
      </trkpt>
      <trkpt lat="44.00348" lon="3.71346">
        <ele>255.27</ele>
        <time>2024-11-05T21:27:03.794Z</time>
      </trkpt>
      <trkpt lat="44.00354" lon="3.71362">
        <ele>255.25</ele>
        <time>2024-11-05T21:27:21.779Z</time>
      </trkpt>
      <trkpt lat="44.00355" lon="3.71371">
        <ele>255.24</ele>
        <time>2024-11-05T21:27:39.765Z</time>
      </trkpt>
      <trkpt lat="44.00353" lon="3.71381">
        <ele>255.22</ele>
        <time>2024-11-05T21:27:57.752Z</time>
      </trkpt>
      <trkpt lat="44.0032" lon="3.71425">
        <ele>254.74</ele>
        <time>2024-11-05T21:28:15.747Z</time>
      </trkpt>
      <trkpt lat="44.00313" lon="3.71438">
        <ele>254.64</ele>
        <time>2024-11-05T21:28:33.744Z</time>
      </trkpt>
      <trkpt lat="44.00299" lon="3.71473">
        <ele>254.71</ele>
        <time>2024-11-05T21:28:51.745Z</time>
      </trkpt>
      <trkpt lat="44.00286" lon="3.71493">
        <ele>254.94</ele>
        <time>2024-11-05T21:29:09.749Z</time>
      </trkpt>
      <trkpt lat="44.00276" lon="3.71502">
        <ele>255.11</ele>
        <time>2024-11-05T21:29:27.755Z</time>
      </trkpt>
      <trkpt lat="44.00264" lon="3.71507">
        <ele>255.27</ele>
        <time>2024-11-05T21:29:45.763Z</time>
      </trkpt>
      <trkpt lat="44.00251" lon="3.71509">
        <ele>255.23</ele>
        <time>2024-11-05T21:30:03.773Z</time>
      </trkpt>
      <trkpt lat="44.00223" lon="3.71505">
        <ele>254.81</ele>
        <time>2024-11-05T21:30:21.788Z</time>
      </trkpt>
      <trkpt lat="44.00211" lon="3.71495">
        <ele>254.61</ele>
        <time>2024-11-05T21:30:39.805Z</time>
      </trkpt>
      <trkpt lat="44.00208" lon="3.71488">
        <ele>254.51</ele>
        <time>2024-11-05T21:30:57.823Z</time>
      </trkpt>
      <trkpt lat="44.002" lon="3.71443">
        <ele>253.8</ele>
        <time>2024-11-05T21:31:15.846Z</time>
      </trkpt>
      <trkpt lat="44.00194" lon="3.71426">
        <ele>253.68</ele>
        <time>2024-11-05T21:31:33.872Z</time>
      </trkpt>
      <trkpt lat="44.00178" lon="3.71396">
        <ele>253.7</ele>
        <time>2024-11-05T21:31:51.902Z</time>
      </trkpt>
      <trkpt lat="44.00157" lon="3.71355">
        <ele>253.99</ele>
        <time>2024-11-05T21:32:09.938Z</time>
      </trkpt>
      <trkpt lat="44.00134" lon="3.71332">
        <ele>254.03</ele>
        <time>2024-11-05T21:32:27.978Z</time>
      </trkpt>
      <trkpt lat="44.00122" lon="3.71324">
        <ele>254.04</ele>
        <time>2024-11-05T21:32:46.020Z</time>
      </trkpt>
      <trkpt lat="44.00111" lon="3.7132">
        <ele>254.01</ele>
        <time>2024-11-05T21:33:04.064Z</time>
      </trkpt>
      <trkpt lat="44.00104" lon="3.71314">
        <ele>253.93</ele>
        <time>2024-11-05T21:33:22.110Z</time>
      </trkpt>
      <trkpt lat="44.001" lon="3.71308">
        <ele>253.86</ele>
        <time>2024-11-05T21:33:40.157Z</time>
      </trkpt>
      <trkpt lat="44.00098" lon="3.713">
        <ele>253.74</ele>
        <time>2024-11-05T21:33:58.205Z</time>
      </trkpt>
      <trkpt lat="44.00099" lon="3.71282">
        <ele>253.48</ele>
        <time>2024-11-05T21:34:16.255Z</time>
      </trkpt>
      <trkpt lat="44.00113" lon="3.71235">
        <ele>252.64</ele>
        <time>2024-11-05T21:34:34.310Z</time>
      </trkpt>
      <trkpt lat="44.00115" lon="3.71218">
        <ele>252.28</ele>
        <time>2024-11-05T21:34:52.367Z</time>
      </trkpt>
      <trkpt lat="44.00115" lon="3.7118">
        <ele>251.48</ele>
        <time>2024-11-05T21:35:10.429Z</time>
      </trkpt>
      <trkpt lat="44.00108" lon="3.71158">
        <ele>250.93</ele>
        <time>2024-11-05T21:35:28.494Z</time>
      </trkpt>
      <trkpt lat="44.00089" lon="3.7112">
        <ele>249.98</ele>
        <time>2024-11-05T21:35:46.564Z</time>
      </trkpt>
      <trkpt lat="44.00077" lon="3.711">
        <ele>249.49</ele>
        <time>2024-11-05T21:36:04.637Z</time>
      </trkpt>
      <trkpt lat="44.00069" lon="3.71092">
        <ele>249.24</ele>
        <time>2024-11-05T21:36:22.712Z</time>
      </trkpt>
      <trkpt lat="44.00054" lon="3.71082">
        <ele>248.76</ele>
        <time>2024-11-05T21:36:40.789Z</time>
      </trkpt>
      <trkpt lat="44.00028" lon="3.71071">
        <ele>247.78</ele>
        <time>2024-11-05T21:36:58.871Z</time>
      </trkpt>
      <trkpt lat="43.99997" lon="3.71066">
        <ele>246.35</ele>
        <time>2024-11-05T21:37:16.958Z</time>
      </trkpt>
      <trkpt lat="43.9994" lon="3.71065">
        <ele>243.9</ele>
        <time>2024-11-05T21:37:35.054Z</time>
      </trkpt>
      <trkpt lat="43.99895" lon="3.71068">
        <ele>241.46</ele>
        <time>2024-11-05T21:37:53.157Z</time>
      </trkpt>
      <trkpt lat="43.99871" lon="3.71072">
        <ele>240.2</ele>
        <time>2024-11-05T21:38:11.264Z</time>
      </trkpt>
      <trkpt lat="43.99857" lon="3.71077">
        <ele>239.47</ele>
        <time>2024-11-05T21:38:29.373Z</time>
      </trkpt>
      <trkpt lat="43.99826" lon="3.71095">
        <ele>237.68</ele>
        <time>2024-11-05T21:38:47.487Z</time>
      </trkpt>
      <trkpt lat="43.99796" lon="3.71118">
        <ele>235.78</ele>
        <time>2024-11-05T21:39:05.607Z</time>
      </trkpt>
      <trkpt lat="43.99766" lon="3.71138">
        <ele>234.18</ele>
        <time>2024-11-05T21:39:23.732Z</time>
      </trkpt>
      <trkpt lat="43.99746" lon="3.71152">
        <ele>233.41</ele>
        <time>2024-11-05T21:39:41.861Z</time>
      </trkpt>
      <trkpt lat="43.99723" lon="3.71167">
        <ele>232.79</ele>
        <time>2024-11-05T21:39:59.994Z</time>
      </trkpt>
      <trkpt lat="43.99705" lon="3.712">
        <ele>232.51</ele>
        <time>2024-11-05T21:40:18.132Z</time>
      </trkpt>
      <trkpt lat="43.997" lon="3.71205">
        <ele>232.46</ele>
        <time>2024-11-05T21:40:36.271Z</time>
      </trkpt>
      <trkpt lat="43.99671" lon="3.71221">
        <ele>232.08</ele>
        <time>2024-11-05T21:40:54.415Z</time>
      </trkpt>
      <trkpt lat="43.99647" lon="3.7123">
        <ele>231.79</ele>
        <time>2024-11-05T21:41:12.563Z</time>
      </trkpt>
      <trkpt lat="43.99594" lon="3.71254">
        <ele>231.03</ele>
        <time>2024-11-05T21:41:30.720Z</time>
      </trkpt>
      <trkpt lat="43.99565" lon="3.71272">
        <ele>230.79</ele>
        <time>2024-11-05T21:41:48.882Z</time>
      </trkpt>
      <trkpt lat="43.99557" lon="3.71275">
        <ele>230.7</ele>
        <time>2024-11-05T21:42:07.045Z</time>
      </trkpt>
      <trkpt lat="43.99543" lon="3.71273">
        <ele>230.54</ele>
        <time>2024-11-05T21:42:25.210Z</time>
      </trkpt>
      <trkpt lat="43.99526" lon="3.7126">
        <ele>230.37</ele>
        <time>2024-11-05T21:42:43.378Z</time>
      </trkpt>
      <trkpt lat="43.9952" lon="3.71258">
        <ele>230.35</ele>
        <time>2024-11-05T21:43:01.547Z</time>
      </trkpt>
      <trkpt lat="43.99502" lon="3.71266">
        <ele>230.37</ele>
        <time>2024-11-05T21:43:19.719Z</time>
      </trkpt>
      <trkpt lat="43.99475" lon="3.71287">
        <ele>230.43</ele>
        <time>2024-11-05T21:43:37.896Z</time>
      </trkpt>
      <trkpt lat="43.99468" lon="3.71289">
        <ele>230.37</ele>
        <time>2024-11-05T21:43:56.074Z</time>
      </trkpt>
      <trkpt lat="43.99461" lon="3.71288">
        <ele>230.27</ele>
        <time>2024-11-05T21:44:14.254Z</time>
      </trkpt>
      <trkpt lat="43.99456" lon="3.71285">
        <ele>230.18</ele>
        <time>2024-11-05T21:44:32.434Z</time>
      </trkpt>
      <trkpt lat="43.99451" lon="3.71277">
        <ele>230.01</ele>
        <time>2024-11-05T21:44:50.616Z</time>
      </trkpt>
      <trkpt lat="43.99438" lon="3.71247">
        <ele>229.4</ele>
        <time>2024-11-05T21:45:08.802Z</time>
      </trkpt>
      <trkpt lat="43.99433" lon="3.71197">
        <ele>228.45</ele>
        <time>2024-11-05T21:45:26.994Z</time>
      </trkpt>
      <trkpt lat="43.99429" lon="3.71185">
        <ele>228.12</ele>
        <time>2024-11-05T21:45:45.187Z</time>
      </trkpt>
      <trkpt lat="43.99419" lon="3.71166">
        <ele>227.53</ele>
        <time>2024-11-05T21:46:03.383Z</time>
      </trkpt>
      <trkpt lat="43.99409" lon="3.71154">
        <ele>227.04</ele>
        <time>2024-11-05T21:46:21.581Z</time>
      </trkpt>
      <trkpt lat="43.99389" lon="3.71141">
        <ele>226.08</ele>
        <time>2024-11-05T21:46:39.782Z</time>
      </trkpt>
      <trkpt lat="43.99355" lon="3.7113">
        <ele>224.52</ele>
        <time>2024-11-05T21:46:57.989Z</time>
      </trkpt>
      <trkpt lat="43.99335" lon="3.71132">
        <ele>223.43</ele>
        <time>2024-11-05T21:47:16.199Z</time>
      </trkpt>
      <trkpt lat="43.99323" lon="3.71137">
        <ele>222.73</ele>
        <time>2024-11-05T21:47:34.411Z</time>
      </trkpt>
      <trkpt lat="43.99293" lon="3.71156">
        <ele>221.06</ele>
        <time>2024-11-05T21:47:52.628Z</time>
      </trkpt>
      <trkpt lat="43.99276" lon="3.71183">
        <ele>220.3</ele>
        <time>2024-11-05T21:48:10.850Z</time>
      </trkpt>
      <trkpt lat="43.99244" lon="3.71235">
        <ele>219.73</ele>
        <time>2024-11-05T21:48:29.080Z</time>
      </trkpt>
      <trkpt lat="43.99232" lon="3.71253">
        <ele>219.36</ele>
        <time>2024-11-05T21:48:47.312Z</time>
      </trkpt>
      <trkpt lat="43.99219" lon="3.71274">
        <ele>218.83</ele>
        <time>2024-11-05T21:49:05.548Z</time>
      </trkpt>
      <trkpt lat="43.99194" lon="3.71323">
        <ele>217.6</ele>
        <time>2024-11-05T21:49:23.790Z</time>
      </trkpt>
      <trkpt lat="43.99185" lon="3.71335">
        <ele>217.32</ele>
        <time>2024-11-05T21:49:42.034Z</time>
      </trkpt>
      <trkpt lat="43.99178" lon="3.71341">
        <ele>217.19</ele>
        <time>2024-11-05T21:50:00.280Z</time>
      </trkpt>
      <trkpt lat="43.9916" lon="3.71349">
        <ele>216.94</ele>
        <time>2024-11-05T21:50:18.529Z</time>
      </trkpt>
      <trkpt lat="43.99141" lon="3.71349">
        <ele>216.86</ele>
        <time>2024-11-05T21:50:36.781Z</time>
      </trkpt>
      <trkpt lat="43.99131" lon="3.71346">
        <ele>216.83</ele>
        <time>2024-11-05T21:50:55.035Z</time>
      </trkpt>
      <trkpt lat="43.99109" lon="3.71331">
        <ele>216.88</ele>
        <time>2024-11-05T21:51:13.292Z</time>
      </trkpt>
      <trkpt lat="43.99052" lon="3.71294">
        <ele>217.45</ele>
        <time>2024-11-05T21:51:31.559Z</time>
      </trkpt>
      <trkpt lat="43.99023" lon="3.71265">
        <ele>218.24</ele>
        <time>2024-11-05T21:51:49.832Z</time>
      </trkpt>
      <trkpt lat="43.98998" lon="3.7124">
        <ele>219.44</ele>
        <time>2024-11-05T21:52:08.110Z</time>
      </trkpt>
      <trkpt lat="43.98991" lon="3.71237">
        <ele>219.74</ele>
        <time>2024-11-05T21:52:26.389Z</time>
      </trkpt>
      <trkpt lat="43.98966" lon="3.71247">
        <ele>220.72</ele>
        <time>2024-11-05T21:52:44.672Z</time>
      </trkpt>
      <trkpt lat="43.98936" lon="3.71249">
        <ele>221.87</ele>
        <time>2024-11-05T21:53:02.960Z</time>
      </trkpt>
      <trkpt lat="43.98909" lon="3.71256">
        <ele>222.96</ele>
        <time>2024-11-05T21:53:21.253Z</time>
      </trkpt>
      <trkpt lat="43.98898" lon="3.71261">
        <ele>223.44</ele>
        <time>2024-11-05T21:53:39.548Z</time>
      </trkpt>
      <trkpt lat="43.9889" lon="3.71268">
        <ele>223.82</ele>
        <time>2024-11-05T21:53:57.844Z</time>
      </trkpt>
      <trkpt lat="43.98863" lon="3.71309">
        <ele>224.75</ele>
        <time>2024-11-05T21:54:16.147Z</time>
      </trkpt>
      <trkpt lat="43.98818" lon="3.71378">
        <ele>225.86</ele>
        <time>2024-11-05T21:54:34.460Z</time>
      </trkpt>
      <trkpt lat="43.98808" lon="3.71391">
        <ele>225.98</ele>
        <time>2024-11-05T21:54:52.775Z</time>
      </trkpt>
      <trkpt lat="43.98791" lon="3.71411">
        <ele>225.73</ele>
        <time>2024-11-05T21:55:11.094Z</time>
      </trkpt>
      <trkpt lat="43.98777" lon="3.71421">
        <ele>225.27</ele>
        <time>2024-11-05T21:55:29.415Z</time>
      </trkpt>
      <trkpt lat="43.98758" lon="3.71428">
        <ele>224.54</ele>
        <time>2024-11-05T21:55:47.740Z</time>
      </trkpt>
      <trkpt lat="43.98713" lon="3.71438">
        <ele>222.69</ele>
        <time>2024-11-05T21:56:06.072Z</time>
      </trkpt>
      <trkpt lat="43.98682" lon="3.71444">
        <ele>221.61</ele>
        <time>2024-11-05T21:56:24.409Z</time>
      </trkpt>
      <trkpt lat="43.98666" lon="3.71445">
        <ele>221.34</ele>
        <time>2024-11-05T21:56:42.748Z</time>
      </trkpt>
      <trkpt lat="43.9864" lon="3.71443">
        <ele>221.19</ele>
        <time>2024-11-05T21:57:01.092Z</time>
      </trkpt>
      <trkpt lat="43.98625" lon="3.7144">
        <ele>221.15</ele>
        <time>2024-11-05T21:57:19.438Z</time>
      </trkpt>
      <trkpt lat="43.98609" lon="3.71433">
        <ele>221.11</ele>
        <time>2024-11-05T21:57:37.787Z</time>
      </trkpt>
      <trkpt lat="43.98579" lon="3.7142">
        <ele>220.62</ele>
        <time>2024-11-05T21:57:56.141Z</time>
      </trkpt>
      <trkpt lat="43.98563" lon="3.71413">
        <ele>220.08</ele>
        <time>2024-11-05T21:58:14.497Z</time>
      </trkpt>
      <trkpt lat="43.98543" lon="3.714">
        <ele>219.39</ele>
        <time>2024-11-05T21:58:32.857Z</time>
      </trkpt>
      <trkpt lat="43.98487" lon="3.71362">
        <ele>218.29</ele>
        <time>2024-11-05T21:58:51.227Z</time>
      </trkpt>
      <trkpt lat="43.98462" lon="3.71349">
        <ele>217.88</ele>
        <time>2024-11-05T21:59:09.601Z</time>
      </trkpt>
      <trkpt lat="43.9843" lon="3.71339">
        <ele>217.77</ele>
        <time>2024-11-05T21:59:27.981Z</time>
      </trkpt>
      <trkpt lat="43.98413" lon="3.71338">
        <ele>217.73</ele>
        <time>2024-11-05T21:59:46.363Z</time>
      </trkpt>
      <trkpt lat="43.98405" lon="3.71329">
        <ele>217.69</ele>
        <time>2024-11-05T22:00:04.747Z</time>
      </trkpt>
      <trkpt lat="43.98389" lon="3.71335">
        <ele>217.44</ele>
        <time>2024-11-05T22:00:23.134Z</time>
      </trkpt>
      <trkpt lat="43.98346" lon="3.71332">
        <ele>216.43</ele>
        <time>2024-11-05T22:00:41.527Z</time>
      </trkpt>
      <trkpt lat="43.9833" lon="3.71333">
        <ele>215.73</ele>
        <time>2024-11-05T22:00:59.923Z</time>
      </trkpt>
      <trkpt lat="43.98324" lon="3.71338">
        <ele>215.31</ele>
        <time>2024-11-05T22:01:18.320Z</time>
      </trkpt>
      <trkpt lat="43.98321" lon="3.71347">
        <ele>214.82</ele>
        <time>2024-11-05T22:01:36.718Z</time>
      </trkpt>
      <trkpt lat="43.98311" lon="3.7137">
        <ele>212.36</ele>
        <time>2024-11-05T22:01:55.119Z</time>
      </trkpt>
      <trkpt lat="43.983" lon="3.71383">
        <ele>210.51</ele>
        <time>2024-11-05T22:02:13.523Z</time>
      </trkpt>
      <trkpt lat="43.98279" lon="3.71397">
        <ele>207.85</ele>
        <time>2024-11-05T22:02:31.930Z</time>
      </trkpt>
      <trkpt lat="43.98252" lon="3.7141">
        <ele>205.31</ele>
        <time>2024-11-05T22:02:50.342Z</time>
      </trkpt>
      <trkpt lat="43.98246" lon="3.71418">
        <ele>204.66</ele>
        <time>2024-11-05T22:03:08.755Z</time>
      </trkpt>
      <trkpt lat="43.98243" lon="3.71427">
        <ele>204.15</ele>
        <time>2024-11-05T22:03:27.169Z</time>
      </trkpt>
      <trkpt lat="43.98234" lon="3.71451">
        <ele>203.13</ele>
        <time>2024-11-05T22:03:45.587Z</time>
      </trkpt>
      <trkpt lat="43.98232" lon="3.7146">
        <ele>202.85</ele>
        <time>2024-11-05T22:04:04.006Z</time>
      </trkpt>
      <trkpt lat="43.98225" lon="3.71504">
        <ele>202.66</ele>
        <time>2024-11-05T22:04:22.430Z</time>
      </trkpt>
      <trkpt lat="43.98216" lon="3.71559">
        <ele>202.77</ele>
        <time>2024-11-05T22:04:40.860Z</time>
      </trkpt>
      <trkpt lat="43.9821" lon="3.71608">
        <ele>203.61</ele>
        <time>2024-11-05T22:04:59.296Z</time>
      </trkpt>
      <trkpt lat="43.98207" lon="3.7165">
        <ele>204.56</ele>
        <time>2024-11-05T22:05:17.737Z</time>
      </trkpt>
      <trkpt lat="43.98204" lon="3.71679">
        <ele>205.04</ele>
        <time>2024-11-05T22:05:36.181Z</time>
      </trkpt>
      <trkpt lat="43.98203" lon="3.71701">
        <ele>205.26</ele>
        <time>2024-11-05T22:05:54.628Z</time>
      </trkpt>
      <trkpt lat="43.98195" lon="3.71794">
        <ele>205.26</ele>
        <time>2024-11-05T22:06:13.086Z</time>
      </trkpt>
      <trkpt lat="43.98191" lon="3.71813">
        <ele>205.25</ele>
        <time>2024-11-05T22:06:31.546Z</time>
      </trkpt>
      <trkpt lat="43.98179" lon="3.71834">
        <ele>205.22</ele>
        <time>2024-11-05T22:06:50.009Z</time>
      </trkpt>
      <trkpt lat="43.98165" lon="3.71844">
        <ele>205.23</ele>
        <time>2024-11-05T22:07:08.475Z</time>
      </trkpt>
      <trkpt lat="43.98137" lon="3.71847">
        <ele>205.06</ele>
        <time>2024-11-05T22:07:26.945Z</time>
      </trkpt>
      <trkpt lat="43.9813" lon="3.71842">
        <ele>204.98</ele>
        <time>2024-11-05T22:07:45.416Z</time>
      </trkpt>
      <trkpt lat="43.98072" lon="3.71764">
        <ele>204.08</ele>
        <time>2024-11-05T22:08:03.900Z</time>
      </trkpt>
      <trkpt lat="43.98036" lon="3.71706">
        <ele>203.74</ele>
        <time>2024-11-05T22:08:22.393Z</time>
      </trkpt>
      <trkpt lat="43.98024" lon="3.71693">
        <ele>203.68</ele>
        <time>2024-11-05T22:08:40.889Z</time>
      </trkpt>
      <trkpt lat="43.97991" lon="3.71664">
        <ele>203.68</ele>
        <time>2024-11-05T22:08:59.391Z</time>
      </trkpt>
      <trkpt lat="43.9798" lon="3.71658">
        <ele>203.69</ele>
        <time>2024-11-05T22:09:17.895Z</time>
      </trkpt>
      <trkpt lat="43.97977" lon="3.71667">
        <ele>203.69</ele>
        <time>2024-11-05T22:09:36.400Z</time>
      </trkpt>
      <trkpt lat="43.97966" lon="3.71699">
        <ele>204.92</ele>
        <time>2024-11-05T22:09:54.909Z</time>
      </trkpt>
      <trkpt lat="43.97951" lon="3.71742">
        <ele>207.51</ele>
        <time>2024-11-05T22:10:13.424Z</time>
      </trkpt>
      <trkpt lat="43.97944" lon="3.71766">
        <ele>209.16</ele>
        <time>2024-11-05T22:10:31.941Z</time>
      </trkpt>
      <trkpt lat="43.97942" lon="3.71768">
        <ele>209.41</ele>
        <time>2024-11-05T22:10:50.459Z</time>
      </trkpt>
      <trkpt lat="43.97938" lon="3.71773">
        <ele>209.55</ele>
        <time>2024-11-05T22:11:08.978Z</time>
      </trkpt>
      <trkpt lat="43.97928" lon="3.71775">
        <ele>210.09</ele>
        <time>2024-11-05T22:11:27.498Z</time>
      </trkpt>
      <trkpt lat="43.97902" lon="3.71767">
        <ele>211.18</ele>
        <time>2024-11-05T22:11:46.023Z</time>
      </trkpt>
      <trkpt lat="43.97892" lon="3.71771">
        <ele>211.45</ele>
        <time>2024-11-05T22:12:04.549Z</time>
      </trkpt>
      <trkpt lat="43.97875" lon="3.71762">
        <ele>211.79</ele>
        <time>2024-11-05T22:12:23.078Z</time>
      </trkpt>
      <trkpt lat="43.97874" lon="3.71756">
        <ele>211.86</ele>
        <time>2024-11-05T22:12:41.608Z</time>
      </trkpt>
      <trkpt lat="43.97866" lon="3.71752">
        <ele>212.01</ele>
        <time>2024-11-05T22:13:00.139Z</time>
      </trkpt>
      <trkpt lat="43.97859" lon="3.71759">
        <ele>212.07</ele>
        <time>2024-11-05T22:13:18.672Z</time>
      </trkpt>
      <trkpt lat="43.9785" lon="3.71755">
        <ele>212.11</ele>
        <time>2024-11-05T22:13:37.206Z</time>
      </trkpt>
      <trkpt lat="43.97848" lon="3.71761">
        <ele>212.1</ele>
        <time>2024-11-05T22:13:55.741Z</time>
      </trkpt>
      <trkpt lat="43.97842" lon="3.71768">
        <ele>212.09</ele>
        <time>2024-11-05T22:14:14.277Z</time>
      </trkpt>
      <trkpt lat="43.97813" lon="3.71762">
        <ele>211.91</ele>
        <time>2024-11-05T22:14:32.818Z</time>
      </trkpt>
      <trkpt lat="43.97795" lon="3.71764">
        <ele>211.85</ele>
        <time>2024-11-05T22:14:51.362Z</time>
      </trkpt>
      <trkpt lat="43.97755" lon="3.71759">
        <ele>211.56</ele>
        <time>2024-11-05T22:15:09.912Z</time>
      </trkpt>
      <trkpt lat="43.97724" lon="3.71759">
        <ele>211.38</ele>
        <time>2024-11-05T22:15:28.467Z</time>
      </trkpt>
      <trkpt lat="43.97694" lon="3.71763">
        <ele>211.28</ele>
        <time>2024-11-05T22:15:47.027Z</time>
      </trkpt>
      <trkpt lat="43.97647" lon="3.71779">
        <ele>211.13</ele>
        <time>2024-11-05T22:16:05.595Z</time>
      </trkpt>
      <trkpt lat="43.97592" lon="3.71803">
        <ele>210.87</ele>
        <time>2024-11-05T22:16:24.172Z</time>
      </trkpt>
      <trkpt lat="43.97513" lon="3.71841">
        <ele>210.65</ele>
        <time>2024-11-05T22:16:42.762Z</time>
      </trkpt>
      <trkpt lat="43.97471" lon="3.71859">
        <ele>210.25</ele>
        <time>2024-11-05T22:17:01.359Z</time>
      </trkpt>
      <trkpt lat="43.97403" lon="3.71878">
        <ele>209.84</ele>
        <time>2024-11-05T22:17:19.967Z</time>
      </trkpt>
      <trkpt lat="43.97329" lon="3.71894">
        <ele>209.55</ele>
        <time>2024-11-05T22:17:38.587Z</time>
      </trkpt>
      <trkpt lat="43.97225" lon="3.71911">
        <ele>209.02</ele>
        <time>2024-11-05T22:17:57.224Z</time>
      </trkpt>
      <trkpt lat="43.97101" lon="3.71937">
        <ele>208.52</ele>
        <time>2024-11-05T22:18:15.881Z</time>
      </trkpt>
      <trkpt lat="43.97053" lon="3.71945">
        <ele>208.26</ele>
        <time>2024-11-05T22:18:34.546Z</time>
      </trkpt>
      <trkpt lat="43.96994" lon="3.71938">
        <ele>207.75</ele>
        <time>2024-11-05T22:18:53.220Z</time>
      </trkpt>
      <trkpt lat="43.96973" lon="3.71931">
        <ele>207.48</ele>
        <time>2024-11-05T22:19:11.898Z</time>
      </trkpt>
      <trkpt lat="43.96938" lon="3.71918">
        <ele>207.45</ele>
        <time>2024-11-05T22:19:30.582Z</time>
      </trkpt>
      <trkpt lat="43.96918" lon="3.71911">
        <ele>207.22</ele>
        <time>2024-11-05T22:19:49.269Z</time>
      </trkpt>
      <trkpt lat="43.96885" lon="3.71893">
        <ele>206.66</ele>
        <time>2024-11-05T22:20:07.962Z</time>
      </trkpt>
      <trkpt lat="43.96852" lon="3.71859">
        <ele>206.46</ele>
        <time>2024-11-05T22:20:26.661Z</time>
      </trkpt>
      <trkpt lat="43.96816" lon="3.71803">
        <ele>206.2</ele>
        <time>2024-11-05T22:20:45.369Z</time>
      </trkpt>
      <trkpt lat="43.96794" lon="3.71741">
        <ele>206.08</ele>
        <time>2024-11-05T22:21:04.085Z</time>
      </trkpt>
      <trkpt lat="43.9678" lon="3.71694">
        <ele>206.27</ele>
        <time>2024-11-05T22:21:22.807Z</time>
      </trkpt>
      <trkpt lat="43.96758" lon="3.71617">
        <ele>205.8</ele>
        <time>2024-11-05T22:21:41.538Z</time>
      </trkpt>
      <trkpt lat="43.96736" lon="3.71568">
        <ele>205.48</ele>
        <time>2024-11-05T22:22:00.276Z</time>
      </trkpt>
      <trkpt lat="43.96706" lon="3.71519">
        <ele>205.25</ele>
        <time>2024-11-05T22:22:19.021Z</time>
      </trkpt>
      <trkpt lat="43.96669" lon="3.71482">
        <ele>204.89</ele>
        <time>2024-11-05T22:22:37.774Z</time>
      </trkpt>
      <trkpt lat="43.96625" lon="3.71446">
        <ele>204.52</ele>
        <time>2024-11-05T22:22:56.535Z</time>
      </trkpt>
      <trkpt lat="43.96588" lon="3.71409">
        <ele>204.15</ele>
        <time>2024-11-05T22:23:15.303Z</time>
      </trkpt>
      <trkpt lat="43.96553" lon="3.71353">
        <ele>203.75</ele>
        <time>2024-11-05T22:23:34.080Z</time>
      </trkpt>
      <trkpt lat="43.96495" lon="3.71241">
        <ele>203.05</ele>
        <time>2024-11-05T22:23:52.873Z</time>
      </trkpt>
      <trkpt lat="43.96448" lon="3.71158">
        <ele>202.68</ele>
        <time>2024-11-05T22:24:11.678Z</time>
      </trkpt>
      <trkpt lat="43.96371" lon="3.71054">
        <ele>202.15</ele>
        <time>2024-11-05T22:24:30.500Z</time>
      </trkpt>
      <trkpt lat="43.96323" lon="3.70999">
        <ele>201.62</ele>
        <time>2024-11-05T22:24:49.332Z</time>
      </trkpt>
      <trkpt lat="43.9626" lon="3.70928">
        <ele>201.23</ele>
        <time>2024-11-05T22:25:08.177Z</time>
      </trkpt>
      <trkpt lat="43.96234" lon="3.70902">
        <ele>201.02</ele>
        <time>2024-11-05T22:25:27.027Z</time>
      </trkpt>
      <trkpt lat="43.96209" lon="3.70884">
        <ele>200.81</ele>
        <time>2024-11-05T22:25:45.882Z</time>
      </trkpt>
      <trkpt lat="43.96166" lon="3.70859">
        <ele>200.5</ele>
        <time>2024-11-05T22:26:04.744Z</time>
      </trkpt>
      <trkpt lat="43.96145" lon="3.7085">
        <ele>200.34</ele>
        <time>2024-11-05T22:26:23.610Z</time>
      </trkpt>
      <trkpt lat="43.96126" lon="3.70843">
        <ele>199.98</ele>
        <time>2024-11-05T22:26:42.479Z</time>
      </trkpt>
      <trkpt lat="43.96085" lon="3.70839">
        <ele>199.88</ele>
        <time>2024-11-05T22:27:01.354Z</time>
      </trkpt>
      <trkpt lat="43.9604" lon="3.70849">
        <ele>199.53</ele>
        <time>2024-11-05T22:27:20.237Z</time>
      </trkpt>
      <trkpt lat="43.95995" lon="3.70867">
        <ele>199.09</ele>
        <time>2024-11-05T22:27:39.127Z</time>
      </trkpt>
      <trkpt lat="43.9591" lon="3.70932">
        <ele>198.27</ele>
        <time>2024-11-05T22:27:58.033Z</time>
      </trkpt>
      <trkpt lat="43.95862" lon="3.70957">
        <ele>197.85</ele>
        <time>2024-11-05T22:28:16.947Z</time>
      </trkpt>
      <trkpt lat="43.95813" lon="3.70964">
        <ele>197.4</ele>
        <time>2024-11-05T22:28:35.869Z</time>
      </trkpt>
      <trkpt lat="43.95772" lon="3.70963">
        <ele>197.08</ele>
        <time>2024-11-05T22:28:54.797Z</time>
      </trkpt>
      <trkpt lat="43.95723" lon="3.70952">
        <ele>196.73</ele>
        <time>2024-11-05T22:29:13.733Z</time>
      </trkpt>
      <trkpt lat="43.95677" lon="3.70948">
        <ele>196.38</ele>
        <time>2024-11-05T22:29:32.677Z</time>
      </trkpt>
      <trkpt lat="43.95631" lon="3.70956">
        <ele>195.99</ele>
        <time>2024-11-05T22:29:51.628Z</time>
      </trkpt>
      <trkpt lat="43.95602" lon="3.70966">
        <ele>195.73</ele>
        <time>2024-11-05T22:30:10.584Z</time>
      </trkpt>
      <trkpt lat="43.95577" lon="3.70979">
        <ele>195.49</ele>
        <time>2024-11-05T22:30:29.544Z</time>
      </trkpt>
      <trkpt lat="43.95427" lon="3.71069">
        <ele>194.39</ele>
        <time>2024-11-05T22:30:48.530Z</time>
      </trkpt>
      <trkpt lat="43.95386" lon="3.71082">
        <ele>194.05</ele>
        <time>2024-11-05T22:31:07.523Z</time>
      </trkpt>
      <trkpt lat="43.95342" lon="3.71087">
        <ele>193.81</ele>
        <time>2024-11-05T22:31:26.523Z</time>
      </trkpt>
      <trkpt lat="43.95293" lon="3.71085">
        <ele>193.39</ele>
        <time>2024-11-05T22:31:45.531Z</time>
      </trkpt>
      <trkpt lat="43.95241" lon="3.71065">
        <ele>193.05</ele>
        <time>2024-11-05T22:32:04.548Z</time>
      </trkpt>
      <trkpt lat="43.95206" lon="3.71044">
        <ele>192.81</ele>
        <time>2024-11-05T22:32:23.571Z</time>
      </trkpt>
      <trkpt lat="43.95129" lon="3.70991">
        <ele>192.22</ele>
        <time>2024-11-05T22:32:42.608Z</time>
      </trkpt>
      <trkpt lat="43.95093" lon="3.70975">
        <ele>192</ele>
        <time>2024-11-05T22:33:01.651Z</time>
      </trkpt>
      <trkpt lat="43.95064" lon="3.70972">
        <ele>192.01</ele>
        <time>2024-11-05T22:33:20.698Z</time>
      </trkpt>
      <trkpt lat="43.95037" lon="3.70974">
        <ele>191.9</ele>
        <time>2024-11-05T22:33:39.750Z</time>
      </trkpt>
      <trkpt lat="43.94985" lon="3.70982">
        <ele>191.33</ele>
        <time>2024-11-05T22:33:58.810Z</time>
      </trkpt>
      <trkpt lat="43.94962" lon="3.70991">
        <ele>191.15</ele>
        <time>2024-11-05T22:34:17.874Z</time>
      </trkpt>
      <trkpt lat="43.94949" lon="3.70995">
        <ele>190.78</ele>
        <time>2024-11-05T22:34:36.940Z</time>
      </trkpt>
      <trkpt lat="43.94945" lon="3.70998">
        <ele>190.6</ele>
        <time>2024-11-05T22:34:56.007Z</time>
      </trkpt>
      <trkpt lat="43.94901" lon="3.71029">
        <ele>190.21</ele>
        <time>2024-11-05T22:35:15.081Z</time>
      </trkpt>
      <trkpt lat="43.94826" lon="3.7112">
        <ele>189.41</ele>
        <time>2024-11-05T22:35:34.171Z</time>
      </trkpt>
      <trkpt lat="43.94797" lon="3.71148">
        <ele>189.26</ele>
        <time>2024-11-05T22:35:53.267Z</time>
      </trkpt>
      <trkpt lat="43.94764" lon="3.71173">
        <ele>188.92</ele>
        <time>2024-11-05T22:36:12.369Z</time>
      </trkpt>
      <trkpt lat="43.94726" lon="3.71193">
        <ele>188.56</ele>
        <time>2024-11-05T22:36:31.478Z</time>
      </trkpt>
      <trkpt lat="43.94695" lon="3.71205">
        <ele>188.37</ele>
        <time>2024-11-05T22:36:50.592Z</time>
      </trkpt>
      <trkpt lat="43.94631" lon="3.71219">
        <ele>187.97</ele>
        <time>2024-11-05T22:37:09.716Z</time>
      </trkpt>
      <trkpt lat="43.94602" lon="3.71226">
        <ele>187.61</ele>
        <time>2024-11-05T22:37:28.845Z</time>
      </trkpt>
      <trkpt lat="43.94568" lon="3.71245">
        <ele>187.15</ele>
        <time>2024-11-05T22:37:47.980Z</time>
      </trkpt>
      <trkpt lat="43.94533" lon="3.71265">
        <ele>186.91</ele>
        <time>2024-11-05T22:38:07.121Z</time>
      </trkpt>
      <trkpt lat="43.94489" lon="3.71289">
        <ele>186.07</ele>
        <time>2024-11-05T22:38:26.269Z</time>
      </trkpt>
      <trkpt lat="43.94472" lon="3.71305">
        <ele>185.6</ele>
        <time>2024-11-05T22:38:45.421Z</time>
      </trkpt>
      <trkpt lat="43.94465" lon="3.71317">
        <ele>185.27</ele>
        <time>2024-11-05T22:39:04.574Z</time>
      </trkpt>
      <trkpt lat="43.94464" lon="3.71332">
        <ele>184.98</ele>
        <time>2024-11-05T22:39:23.729Z</time>
      </trkpt>
      <trkpt lat="43.94466" lon="3.71365">
        <ele>184.68</ele>
        <time>2024-11-05T22:39:42.888Z</time>
      </trkpt>
      <trkpt lat="43.94463" lon="3.71373">
        <ele>184.59</ele>
        <time>2024-11-05T22:40:02.048Z</time>
      </trkpt>
      <trkpt lat="43.94459" lon="3.71376">
        <ele>184.5</ele>
        <time>2024-11-05T22:40:21.209Z</time>
      </trkpt>
      <trkpt lat="43.94451" lon="3.71378">
        <ele>184.33</ele>
        <time>2024-11-05T22:40:40.371Z</time>
      </trkpt>
      <trkpt lat="43.94444" lon="3.71375">
        <ele>184.19</ele>
        <time>2024-11-05T22:40:59.534Z</time>
      </trkpt>
      <trkpt lat="43.94436" lon="3.71377">
        <ele>184.04</ele>
        <time>2024-11-05T22:41:18.699Z</time>
      </trkpt>
      <trkpt lat="43.94428" lon="3.71389">
        <ele>183.83</ele>
        <time>2024-11-05T22:41:37.865Z</time>
      </trkpt>
      <trkpt lat="43.94416" lon="3.7144">
        <ele>182.84</ele>
        <time>2024-11-05T22:41:57.038Z</time>
      </trkpt>
      <trkpt lat="43.94415" lon="3.71452">
        <ele>182.62</ele>
        <time>2024-11-05T22:42:16.212Z</time>
      </trkpt>
      <trkpt lat="43.94422" lon="3.71477">
        <ele>182.29</ele>
        <time>2024-11-05T22:42:35.389Z</time>
      </trkpt>
      <trkpt lat="43.94429" lon="3.71499">
        <ele>182.55</ele>
        <time>2024-11-05T22:42:54.569Z</time>
      </trkpt>
      <trkpt lat="43.94434" lon="3.71516">
        <ele>183.01</ele>
        <time>2024-11-05T22:43:13.751Z</time>
      </trkpt>
      <trkpt lat="43.94455" lon="3.71587">
        <ele>185.68</ele>
        <time>2024-11-05T22:43:32.942Z</time>
      </trkpt>
      <trkpt lat="43.94457" lon="3.71604">
        <ele>186.19</ele>
        <time>2024-11-05T22:43:52.135Z</time>
      </trkpt>
      <trkpt lat="43.94457" lon="3.71634">
        <ele>187.09</ele>
        <time>2024-11-05T22:44:11.331Z</time>
      </trkpt>
      <trkpt lat="43.94457" lon="3.71688">
        <ele>189.08</ele>
        <time>2024-11-05T22:44:30.534Z</time>
      </trkpt>
      <trkpt lat="43.94452" lon="3.71686">
        <ele>189.33</ele>
        <time>2024-11-05T22:44:49.737Z</time>
      </trkpt>
      <trkpt lat="43.94436" lon="3.71682">
        <ele>189.12</ele>
        <time>2024-11-05T22:45:08.943Z</time>
      </trkpt>
      <trkpt lat="43.9443" lon="3.71678">
        <ele>188.94</ele>
        <time>2024-11-05T22:45:28.150Z</time>
      </trkpt>
      <trkpt lat="43.94427" lon="3.71668">
        <ele>188.67</ele>
        <time>2024-11-05T22:45:47.358Z</time>
      </trkpt>
      <trkpt lat="43.94417" lon="3.71657">
        <ele>188.19</ele>
        <time>2024-11-05T22:46:06.568Z</time>
      </trkpt>
      <trkpt lat="43.94403" lon="3.71654">
        <ele>187.7</ele>
        <time>2024-11-05T22:46:25.781Z</time>
      </trkpt>
      <trkpt lat="43.94388" lon="3.71664">
        <ele>187.46</ele>
        <time>2024-11-05T22:46:44.996Z</time>
      </trkpt>
      <trkpt lat="43.94381" lon="3.71682">
        <ele>187.25</ele>
        <time>2024-11-05T22:47:04.214Z</time>
      </trkpt>
      <trkpt lat="43.94381" lon="3.71689">
        <ele>187.19</ele>
        <time>2024-11-05T22:47:23.433Z</time>
      </trkpt>
      <trkpt lat="43.94381" lon="3.71696">
        <ele>187.34</ele>
        <time>2024-11-05T22:47:42.652Z</time>
      </trkpt>
      <trkpt lat="43.94374" lon="3.71707">
        <ele>187.71</ele>
        <time>2024-11-05T22:48:01.873Z</time>
      </trkpt>
      <trkpt lat="43.94369" lon="3.7171">
        <ele>187.91</ele>
        <time>2024-11-05T22:48:21.095Z</time>
      </trkpt>
      <trkpt lat="43.94364" lon="3.7171">
        <ele>188.09</ele>
        <time>2024-11-05T22:48:40.318Z</time>
      </trkpt>
      <trkpt lat="43.9436" lon="3.71706">
        <ele>188.29</ele>
        <time>2024-11-05T22:48:59.541Z</time>
      </trkpt>
      <trkpt lat="43.94332" lon="3.7168">
        <ele>188.52</ele>
        <time>2024-11-05T22:49:18.770Z</time>
      </trkpt>
      <trkpt lat="43.94318" lon="3.7167">
        <ele>188.55</ele>
        <time>2024-11-05T22:49:38.001Z</time>
      </trkpt>
      <trkpt lat="43.94269" lon="3.71655">
        <ele>187.87</ele>
        <time>2024-11-05T22:49:57.240Z</time>
      </trkpt>
      <trkpt lat="43.94223" lon="3.71634">
        <ele>186.78</ele>
        <time>2024-11-05T22:50:16.487Z</time>
      </trkpt>
      <trkpt lat="43.94195" lon="3.71614">
        <ele>186.24</ele>
        <time>2024-11-05T22:50:35.739Z</time>
      </trkpt>
      <trkpt lat="43.94119" lon="3.71581">
        <ele>185.25</ele>
        <time>2024-11-05T22:50:55.004Z</time>
      </trkpt>
      <trkpt lat="43.94098" lon="3.71566">
        <ele>185.11</ele>
        <time>2024-11-05T22:51:14.273Z</time>
      </trkpt>
      <trkpt lat="43.94085" lon="3.7156">
        <ele>184.95</ele>
        <time>2024-11-05T22:51:33.544Z</time>
      </trkpt>
      <trkpt lat="43.94076" lon="3.71562">
        <ele>184.78</ele>
        <time>2024-11-05T22:51:52.816Z</time>
      </trkpt>
      <trkpt lat="43.94065" lon="3.71574">
        <ele>184.53</ele>
        <time>2024-11-05T22:52:12.091Z</time>
      </trkpt>
      <trkpt lat="43.94042" lon="3.71608">
        <ele>184.24</ele>
        <time>2024-11-05T22:52:31.371Z</time>
      </trkpt>
      <trkpt lat="43.94033" lon="3.71611">
        <ele>184.29</ele>
        <time>2024-11-05T22:52:50.652Z</time>
      </trkpt>
      <trkpt lat="43.94023" lon="3.71608">
        <ele>184.41</ele>
        <time>2024-11-05T22:53:09.935Z</time>
      </trkpt>
      <trkpt lat="43.94018" lon="3.7162">
        <ele>184.5</ele>
        <time>2024-11-05T22:53:29.220Z</time>
      </trkpt>
      <trkpt lat="43.94013" lon="3.71618">
        <ele>184.52</ele>
        <time>2024-11-05T22:53:48.506Z</time>
      </trkpt>
      <trkpt lat="43.94007" lon="3.71621">
        <ele>184.5</ele>
        <time>2024-11-05T22:54:07.793Z</time>
      </trkpt>
      <trkpt lat="43.93988" lon="3.71664">
        <ele>184.16</ele>
        <time>2024-11-05T22:54:27.085Z</time>
      </trkpt>
      <trkpt lat="43.93975" lon="3.71707">
        <ele>183.77</ele>
        <time>2024-11-05T22:54:46.383Z</time>
      </trkpt>
      <trkpt lat="43.93963" lon="3.71767">
        <ele>183.56</ele>
        <time>2024-11-05T22:55:05.688Z</time>
      </trkpt>
      <trkpt lat="43.93961" lon="3.71794">
        <ele>183.62</ele>
        <time>2024-11-05T22:55:24.996Z</time>
      </trkpt>
      <trkpt lat="43.93961" lon="3.71856">
        <ele>183.83</ele>
        <time>2024-11-05T22:55:44.311Z</time>
      </trkpt>
      <trkpt lat="43.93965" lon="3.71885">
        <ele>183.97</ele>
        <time>2024-11-05T22:56:03.630Z</time>
      </trkpt>
      <trkpt lat="43.93968" lon="3.71912">
        <ele>184.24</ele>
        <time>2024-11-05T22:56:22.952Z</time>
      </trkpt>
      <trkpt lat="43.93974" lon="3.71936">
        <ele>184.53</ele>
        <time>2024-11-05T22:56:42.277Z</time>
      </trkpt>
      <trkpt lat="43.9399" lon="3.71984">
        <ele>185.05</ele>
        <time>2024-11-05T22:57:01.608Z</time>
      </trkpt>
      <trkpt lat="43.94014" lon="3.72033">
        <ele>185.49</ele>
        <time>2024-11-05T22:57:20.946Z</time>
      </trkpt>
      <trkpt lat="43.94032" lon="3.72061">
        <ele>185.8</ele>
        <time>2024-11-05T22:57:40.288Z</time>
      </trkpt>
      <trkpt lat="43.94047" lon="3.7208">
        <ele>186.03</ele>
        <time>2024-11-05T22:57:59.633Z</time>
      </trkpt>
      <trkpt lat="43.94085" lon="3.72116">
        <ele>186.57</ele>
        <time>2024-11-05T22:58:18.986Z</time>
      </trkpt>
      <trkpt lat="43.94107" lon="3.72131">
        <ele>186.83</ele>
        <time>2024-11-05T22:58:38.343Z</time>
      </trkpt>
      <trkpt lat="43.94127" lon="3.72141">
        <ele>186.93</ele>
        <time>2024-11-05T22:58:57.703Z</time>
      </trkpt>
      <trkpt lat="43.9415" lon="3.7215">
        <ele>187.1</ele>
        <time>2024-11-05T22:59:17.067Z</time>
      </trkpt>
      <trkpt lat="43.94164" lon="3.72155">
        <ele>187.28</ele>
        <time>2024-11-05T22:59:36.433Z</time>
      </trkpt>
      <trkpt lat="43.94194" lon="3.72159">
        <ele>187.95</ele>
        <time>2024-11-05T22:59:55.804Z</time>
      </trkpt>
      <trkpt lat="43.94213" lon="3.72158">
        <ele>188.28</ele>
        <time>2024-11-05T23:00:15.178Z</time>
      </trkpt>
      <trkpt lat="43.94248" lon="3.72156">
        <ele>188.15</ele>
        <time>2024-11-05T23:00:34.558Z</time>
      </trkpt>
      <trkpt lat="43.9428" lon="3.72156">
        <ele>188.33</ele>
        <time>2024-11-05T23:00:53.943Z</time>
      </trkpt>
      <trkpt lat="43.94338" lon="3.72157">
        <ele>188.91</ele>
        <time>2024-11-05T23:01:13.337Z</time>
      </trkpt>
      <trkpt lat="43.94395" lon="3.72157">
        <ele>189.81</ele>
        <time>2024-11-05T23:01:32.740Z</time>
      </trkpt>
      <trkpt lat="43.94411" lon="3.72158">
        <ele>189.95</ele>
        <time>2024-11-05T23:01:52.146Z</time>
      </trkpt>
      <trkpt lat="43.94444" lon="3.72166">
        <ele>190.14</ele>
        <time>2024-11-05T23:02:11.557Z</time>
      </trkpt>
      <trkpt lat="43.94482" lon="3.72185">
        <ele>190.63</ele>
        <time>2024-11-05T23:02:30.975Z</time>
      </trkpt>
      <trkpt lat="43.94535" lon="3.72226">
        <ele>191.6</ele>
        <time>2024-11-05T23:02:50.402Z</time>
      </trkpt>
      <trkpt lat="43.94575" lon="3.7227">
        <ele>192.18</ele>
        <time>2024-11-05T23:03:09.837Z</time>
      </trkpt>
      <trkpt lat="43.94612" lon="3.72343">
        <ele>192.86</ele>
        <time>2024-11-05T23:03:29.283Z</time>
      </trkpt>
      <trkpt lat="43.9464" lon="3.7243">
        <ele>193.74</ele>
        <time>2024-11-05T23:03:48.740Z</time>
      </trkpt>
      <trkpt lat="43.94647" lon="3.7248">
        <ele>194.1</ele>
        <time>2024-11-05T23:04:08.203Z</time>
      </trkpt>
      <trkpt lat="43.94649" lon="3.72539">
        <ele>194.55</ele>
        <time>2024-11-05T23:04:27.672Z</time>
      </trkpt>
      <trkpt lat="43.94647" lon="3.72579">
        <ele>194.84</ele>
        <time>2024-11-05T23:04:47.146Z</time>
      </trkpt>
      <trkpt lat="43.94615" lon="3.72878">
        <ele>196.82</ele>
        <time>2024-11-05T23:05:06.655Z</time>
      </trkpt>
      <trkpt lat="43.94608" lon="3.72933">
        <ele>197.06</ele>
        <time>2024-11-05T23:05:26.171Z</time>
      </trkpt>
      <trkpt lat="43.9459" lon="3.73087">
        <ele>198.42</ele>
        <time>2024-11-05T23:05:45.705Z</time>
      </trkpt>
      <trkpt lat="43.94585" lon="3.73143">
        <ele>198.5</ele>
        <time>2024-11-05T23:06:05.245Z</time>
      </trkpt>
      <trkpt lat="43.94582" lon="3.73196">
        <ele>198.88</ele>
        <time>2024-11-05T23:06:24.791Z</time>
      </trkpt>
      <trkpt lat="43.94584" lon="3.73255">
        <ele>199.5</ele>
        <time>2024-11-05T23:06:44.344Z</time>
      </trkpt>
      <trkpt lat="43.94595" lon="3.73328">
        <ele>200.27</ele>
        <time>2024-11-05T23:07:03.906Z</time>
      </trkpt>
      <trkpt lat="43.94606" lon="3.734">
        <ele>201.31</ele>
        <time>2024-11-05T23:07:23.476Z</time>
      </trkpt>
    </trkseg>
  </trk>
</gpx>